
Distance (Route):
Temperature : -42.9°C
Humidity : 40.8%
Pressure : 275.3hPa| Receiver | Frames | First received | Last received |
|---|---|---|---|
| DM0DOS-11 | 592 | 2026-09-02 22:35:28 | 2026-09-03 00:29:00 |
| BIOWL1-15 | 533 | 2026-09-02 22:39:18 | 2026-09-03 00:28:53 |
| DL1XH-west | 287 | 2026-09-02 23:22:32 | 2026-09-03 00:18:58 |
| DL1XH1-15 | 282 | 2026-09-02 23:22:10 | 2026-09-03 00:20:40 |
| DB0UT-7 | 82 | 2026-09-02 22:32:03 | 2026-09-03 00:20:36 |
| DJ8HS-15 | 75 | 2026-09-02 23:18:44 | 2026-09-03 00:26:17 |
| GOEST3-10 | 75 | 2026-09-02 23:31:49 | 2026-09-03 00:09:41 |
| DK7TD | 58 | 2026-09-02 23:52:25 | 2026-09-03 00:03:28 |
| NBG1-10 | 18 | 2026-09-02 23:13:58 | 2026-09-03 00:13:34 |
| AM1SDL-15 | 12 | 2026-09-02 23:48:21 | 2026-09-03 00:02:56 |
| DB0NH | 11 | 2026-09-03 00:00:31 | 2026-09-03 00:15:00 |
| DO3MHA-12 | 4 | 2026-09-02 23:59:38 | 2026-09-03 00:04:45 |
| Receiver | Date | Latitude | Longitude | Direction | Speed | Altitude | Climb | Temperature | Humidity | Pressure | Voltage | Killtimer | Uptime | BKT | XDATA |
|---|---|---|---|---|---|---|---|---|---|---|---|---|---|---|---|
| DM0DOS-11 | 2026-09-03 00:29:00 | 50.19689 | 6.58763 | 122° | 120km/h | 10095m | -6.2m/s | -42.9°C | 40.8% | 275.3hPa | 2.3V | 00:00:00 | 02:11:51 | 00:00:00 | |
| BIOWL1-15 | 2026-09-03 00:28:53 | 50.19721 | 6.58683 | 121° | 120km/h | 10108m | -6m/s | -42.9°C | 40.5% | 274.8hPa | 2.4V | 00:00:00 | 00:00:00 | 00:00:00 | |
| DM0DOS-11 | 2026-09-03 00:28:49 | 50.19831 | 6.58399 | 120° | 117km/h | 10150m | -6m/s | -43.2°C | 39.2% | 273.1hPa | 2.5V | 00:00:00 | 02:11:42 | 00:00:00 | |
| BIOWL1-15 | 2026-09-03 00:28:44 | 50.19876 | 6.58279 | 120° | 119km/h | 10166m | -6.5m/s | -43.3°C | 38.9% | 272.3hPa | 2.6V | 00:00:00 | 00:00:00 | 00:00:00 | |
| DM0DOS-11 | 2026-09-03 00:28:37 | 50.19980 | 6.57996 | 119° | 115km/h | 10214m | -6.9m/s | -43.7°C | 37.8% | 270.3hPa | 2.7V | 00:00:00 | 02:11:32 | 00:00:00 | |
| BIOWL1-15 | 2026-09-03 00:28:31 | 50.20066 | 6.57757 | 119° | 119km/h | 10257m | -6.3m/s | -44.1°C | 37.2% | 268.5hPa | 2.7V | 00:00:00 | 00:00:00 | 00:00:00 | |
| BIOWL1-15 | 2026-09-03 00:28:20 | 50.20378 | 6.56893 | 120° | 120km/h | 10386m | -6m/s | -45.2°C | 35.1% | 263hPa | 2.9V | 00:00:00 | 00:00:00 | 00:00:00 | |
| DM0DOS-11 | 2026-09-03 00:28:18 | 50.20275 | 6.57187 | 118° | 120km/h | 10344m | -6.5m/s | -44.8°C | 35.7% | 264.7hPa | 2.9V | 00:00:00 | 02:11:12 | 00:00:00 | |
| BIOWL1-15 | 2026-09-03 00:28:12 | 50.20409 | 6.56810 | 121° | 120km/h | 10398m | -7m/s | -45.3°C | 34.9% | 262.5hPa | 2.9V | 00:00:00 | 00:00:00 | 00:00:00 | |
| DM0DOS-11 | 2026-09-03 00:28:08 | 50.20424 | 6.56769 | 120° | 119km/h | 10405m | -6.8m/s | -45.3°C | 34.7% | 262.3hPa | 2.9V | 00:00:00 | 02:11:02 | 00:00:00 | |
| BIOWL1-15 | 2026-09-03 00:27:58 | 50.20572 | 6.56359 | 119° | 119km/h | 10467m | -5.3m/s | -45.9°C | 33.8% | 259.8hPa | 3V | 00:00:00 | 00:00:00 | 00:00:00 | |
| DM0DOS-11 | 2026-09-03 00:27:57 | 50.20572 | 6.56359 | 118° | 119km/h | 10467m | -5.4m/s | -45.9°C | 33.7% | 259.8hPa | 3V | 00:00:00 | 02:10:52 | 00:00:00 | |
| BIOWL1-15 | 2026-09-03 00:27:49 | 50.20720 | 6.55948 | 118° | 120km/h | 10521m | -6m/s | -46.4°C | 32.6% | 257.6hPa | 3V | 00:00:00 | 00:00:00 | 00:00:00 | |
| DM0DOS-11 | 2026-09-03 00:27:47 | 50.20720 | 6.55948 | 117° | 122km/h | 10521m | -5.9m/s | -46.4°C | 32.5% | 257.5hPa | 3V | 00:00:00 | 02:10:42 | 00:00:00 | |
| DM0DOS-11 | 2026-09-03 00:27:36 | 50.20871 | 6.55524 | 120° | 122km/h | 10582m | -5.3m/s | -46.9°C | 31.3% | 255.2hPa | 3.1V | 00:00:00 | 02:10:32 | 00:00:00 | |
| BIOWL1-15 | 2026-09-03 00:27:36 | 50.20871 | 6.55524 | 120° | 122km/h | 10582m | -5m/s | -46.9°C | 31.4% | 255.2hPa | 3.1V | 00:00:00 | 00:00:00 | 00:00:00 | |
| DM0DOS-11 | 2026-09-03 00:27:31 | 50.21040 | 6.55054 | 121° | 122km/h | 10640m | -6.4m/s | -47.4°C | 30% | 252.8hPa | 3.1V | 00:00:00 | 02:10:21 | 00:00:00 | |
| BIOWL1-15 | 2026-09-03 00:27:26 | 50.21121 | 6.54849 | 122° | 115km/h | 10672m | -5m/s | -47.7°C | 29.6% | 251.6hPa | 3.1V | 00:00:00 | 00:00:00 | 00:00:00 | |
| DM0DOS-11 | 2026-09-03 00:27:18 | 50.21185 | 6.54690 | 122° | 133km/h | 10692m | -5.3m/s | -47.9°C | 29% | 250.8hPa | 3.2V | 00:00:00 | 02:10:12 | 00:00:00 | |
| BIOWL1-15 | 2026-09-03 00:27:16 | 50.21203 | 6.54647 | 122° | 135km/h | 10697m | -6m/s | -47.9°C | 29% | 250.6hPa | 3.2V | 00:00:00 | 00:00:00 | 00:00:00 | |
| DM0DOS-11 | 2026-09-03 00:27:07 | 50.21349 | 6.54233 | 122° | 115km/h | 10744m | -4.8m/s | -48.3°C | 27.8% | 248.9hPa | 3.2V | 00:00:00 | 02:10:02 | 00:00:00 | |
| BIOWL1-15 | 2026-09-03 00:27:06 | 50.21381 | 6.54157 | 125° | 115km/h | 10753m | -5m/s | -48.4°C | 27.7% | 248.6hPa | 3.2V | 00:00:00 | 00:00:00 | 00:00:00 | |
| DM0DOS-11 | 2026-09-03 00:26:58 | 50.21503 | 6.53848 | 119° | 115km/h | 10795m | -5.6m/s | -48.7°C | 26.7% | 247hPa | 3.2V | 00:00:00 | 02:09:52 | 00:00:00 | |
| BIOWL1-15 | 2026-09-03 00:26:56 | 50.21546 | 6.53735 | 124° | 115km/h | 10812m | -5m/s | -48.9°C | 26.5% | 246.4hPa | 3.3V | 00:00:00 | 00:00:00 | 00:00:00 | |
| DM0DOS-11 | 2026-09-03 00:26:48 | 50.21675 | 6.53454 | 122° | 126km/h | 10849m | -5.5m/s | -49.2°C | 25.6% | 245.1hPa | 3.3V | 00:00:00 | 02:09:42 | 00:00:00 | |
| BIOWL1-15 | 2026-09-03 00:26:44 | 50.21725 | 6.53327 | 120° | 122km/h | 10867m | -5m/s | -49.3°C | 25.4% | 244.5hPa | 3.3V | 00:00:00 | 00:00:00 | 00:00:00 | |
| DM0DOS-11 | 2026-09-03 00:26:36 | 50.21840 | 6.53026 | 121° | 124km/h | 10901m | -5m/s | -49.5°C | 24.6% | 243.2hPa | 3.3V | 00:00:00 | 02:09:32 | 00:00:00 | |
| BIOWL1-15 | 2026-09-03 00:26:33 | 50.22194 | 6.52175 | 127° | 124km/h | 11016m | -6m/s | -50.4°C | 22.5% | 239.1hPa | 3.4V | 00:00:00 | 00:00:00 | 00:00:00 | |
| DM0DOS-11 | 2026-09-03 00:26:28 | 50.22002 | 6.52609 | 123° | 120km/h | 10951m | -5.9m/s | -49.9°C | 23.5% | 241.5hPa | 3.4V | 00:00:00 | 02:09:22 | 00:00:00 | |
| BIOWL1-15 | 2026-09-03 00:26:23 | 50.22319 | 6.51877 | 119° | 126km/h | 11056m | -6m/s | -50.6°C | 21.8% | 237.7hPa | 3.4V | 00:00:00 | 00:00:00 | 00:00:00 | |
| DJ8HS-15 | 2026-09-03 00:26:17 | 50.22158 | 6.52252 | 126° | 124km/h | 11005m | -5.6m/s | -50.3°C | 22.6% | 239.5hPa | 3.4V | 00:00:00 | 02:09:13 | 00:00:00 | |
| DM0DOS-11 | 2026-09-03 00:26:16 | 50.22176 | 6.52214 | 126° | 124km/h | 11011m | -5.6m/s | -50.4°C | 22.5% | 239.4hPa | 3.4V | 00:00:00 | 02:09:12 | 00:00:00 | |
| DM0DOS-11 | 2026-09-03 00:26:08 | 50.22350 | 6.51791 | 119° | 119km/h | 11069m | -6.2m/s | -50.7°C | 21.6% | 237.3hPa | 3.4V | 00:00:00 | 02:09:02 | 00:00:00 | |
| BIOWL1-15 | 2026-09-03 00:26:02 | 50.22429 | 6.51593 | 124° | 122km/h | 11100m | -6m/s | -51°C | 21.1% | 236.1hPa | 3.5V | 00:00:00 | 00:00:00 | 00:00:00 | |
| DM0DOS-11 | 2026-09-03 00:25:57 | 50.22515 | 6.51389 | 124° | 126km/h | 11132m | -6.5m/s | -51.2°C | 20.6% | 235hPa | 3.5V | 00:00:00 | 02:08:52 | 00:00:00 | |
| BIOWL1-15 | 2026-09-03 00:25:51 | 50.22605 | 6.51182 | 123° | 128km/h | 11165m | -6.7m/s | -51.4°C | 20.3% | 233.9hPa | 3.5V | 00:00:00 | 00:00:00 | 00:00:00 | |
| DM0DOS-11 | 2026-09-03 00:25:47 | 50.22693 | 6.50968 | 122° | 126km/h | 11197m | -6.6m/s | -51.6°C | 19.7% | 232.8hPa | 3.5V | 00:00:00 | 02:08:42 | 00:00:00 | |
| DM0DOS-11 | 2026-09-03 00:25:37 | 50.22864 | 6.50548 | 121° | 131km/h | 11263m | -5.8m/s | -52°C | 18.8% | 230.6hPa | 3.5V | 00:00:00 | 02:08:32 | 00:00:00 | |
| BIOWL1-15 | 2026-09-03 00:25:36 | 50.22936 | 6.50374 | 125° | 130km/h | 11285m | -6m/s | -52.2°C | 18.6% | 229.8hPa | 3.5V | 00:00:00 | 00:00:00 | 00:00:00 | |
| BIOWL1-15 | 2026-09-03 00:25:24 | 50.23222 | 6.49617 | 127° | 130km/h | 11383m | -6m/s | -53°C | 17.1% | 226.4hPa | 3.6V | 00:00:00 | 00:00:00 | 00:00:00 | |
| DM0DOS-11 | 2026-09-03 00:25:18 | 50.23204 | 6.49656 | 125° | 133km/h | 11378m | -4.9m/s | -52.9°C | 17.1% | 226.6hPa | 3.6V | 00:00:00 | 02:08:12 | 00:00:00 | |
| BIOWL1-15 | 2026-09-03 00:25:11 | 50.23335 | 6.49331 | 113° | 135km/h | 11412m | -4m/s | -53.2°C | 16.4% | 225.4hPa | 3.6V | 00:00:00 | 00:00:00 | 00:00:00 | |
| DM0DOS-11 | 2026-09-03 00:25:06 | 50.23375 | 6.49195 | 120° | 130km/h | 11424m | -4.6m/s | -53.3°C | 16.1% | 224.9hPa | 3.6V | 00:00:00 | 02:08:02 | 00:00:00 | |
| BIOWL1-15 | 2026-09-03 00:24:59 | 50.23578 | 6.48645 | 124° | 119km/h | 11479m | -4m/s | -53.7°C | 15.1% | 223hPa | 3.6V | 00:00:00 | 00:00:00 | 00:00:00 | |
| DM0DOS-11 | 2026-09-03 00:24:56 | 50.23551 | 6.48732 | 114° | 126km/h | 11470m | -4.3m/s | -53.7°C | 15.2% | 223.3hPa | 3.6V | 00:00:00 | 02:07:52 | 00:00:00 | |
| BIOWL1-15 | 2026-09-03 00:24:47 | 50.23799 | 6.48069 | 128° | 131km/h | 11536m | -4m/s | -54.1°C | 14% | 220.9hPa | 3.7V | 00:00:00 | 00:00:00 | 00:00:00 | |
| DM0DOS-11 | 2026-09-03 00:24:46 | 50.23725 | 6.48282 | 114° | 128km/h | 11514m | -4.3m/s | -54°C | 14.5% | 221.7hPa | 3.7V | 00:00:00 | 02:07:42 | 00:00:00 | |
| DM0DOS-11 | 2026-09-03 00:24:38 | 50.23899 | 6.47840 | 116° | 131km/h | 11557m | -4.4m/s | -54.2°C | 13.6% | 220.1hPa | 3.7V | 00:00:00 | 02:07:32 | 00:00:00 | |
| BIOWL1-15 | 2026-09-03 00:24:35 | 50.23915 | 6.47790 | 115° | 135km/h | 11561m | -5m/s | -54.2°C | 13.6% | 219.9hPa | 3.7V | 00:00:00 | 00:00:00 | 00:00:00 | |
| DM0DOS-11 | 2026-09-03 00:24:26 | 50.24077 | 6.47402 | 123° | 144km/h | 11601m | -4.7m/s | -54.5°C | 13% | 218.4hPa | 3.7V | 00:00:00 | 02:07:22 | 00:00:00 | |
| BIOWL1-15 | 2026-09-03 00:24:25 | 50.24099 | 6.47353 | 122° | 153km/h | 11606m | -5m/s | -54.6°C | 12.9% | 218.3hPa | 3.7V | 00:00:00 | 00:00:00 | 00:00:00 | |
| DM0DOS-11 | 2026-09-03 00:24:21 | 50.24270 | 6.46894 | 128° | 139km/h | 11651m | -4.7m/s | -55°C | 12.3% | 216.7hPa | 3.7V | 00:00:00 | 02:07:11 | 00:00:00 | |
| BIOWL1-15 | 2026-09-03 00:24:15 | 50.24291 | 6.46852 | 124° | 139km/h | 11656m | -4.5m/s | -55°C | 12.2% | 216.5hPa | 3.7V | 00:00:00 | 00:00:00 | 00:00:00 | |
| DM0DOS-11 | 2026-09-03 00:24:09 | 50.24451 | 6.46412 | 124° | 139km/h | 11699m | -5.1m/s | -55.4°C | 11.5% | 215.1hPa | 3.8V | 00:00:00 | 02:07:01 | 00:00:00 | |
| BIOWL1-15 | 2026-09-03 00:24:05 | 50.24492 | 6.46321 | 126° | 137km/h | 11708m | -5m/s | -55.4°C | 11.5% | 214.8hPa | 3.8V | 00:00:00 | 00:00:00 | 00:00:00 | |
| DM0DOS-11 | 2026-09-03 00:23:57 | 50.24636 | 6.45941 | 116° | 133km/h | 11755m | -5.2m/s | -55.8°C | 11% | 213.2hPa | 3.8V | 00:00:00 | 02:06:51 | 00:00:00 | |
| BIOWL1-15 | 2026-09-03 00:23:54 | 50.24683 | 6.45803 | 120° | 131km/h | 11769m | -6m/s | -55.9°C | 10.9% | 212.8hPa | 3.8V | 00:00:00 | 00:00:00 | 00:00:00 | |
| DM0DOS-11 | 2026-09-03 00:23:45 | 50.24803 | 6.45477 | 120° | 135km/h | 11810m | -5.8m/s | -56.2°C | 10.3% | 211.4hPa | 3.8V | 00:00:00 | 02:06:41 | 00:00:00 | |
| BIOWL1-15 | 2026-09-03 00:23:41 | 50.24874 | 6.45292 | 122° | 135km/h | 11833m | -6m/s | -56.4°C | 10.2% | 210.7hPa | 3.8V | 00:00:00 | 00:00:00 | 00:00:00 | |
| DM0DOS-11 | 2026-09-03 00:23:40 | 50.24981 | 6.45020 | 121° | 137km/h | 11866m | -6m/s | -56.6°C | 9.8% | 209.5hPa | 3.8V | 00:00:00 | 02:06:31 | 00:00:00 | |
| BIOWL1-15 | 2026-09-03 00:23:33 | 50.25122 | 6.44643 | 125° | 135km/h | 11914m | -6m/s | -56.9°C | 9.6% | 208hPa | 3.8V | 00:00:00 | 00:00:00 | 00:00:00 | |
| DM0DOS-11 | 2026-09-03 00:23:29 | 50.25161 | 6.44555 | 125° | 135km/h | 11926m | -5.4m/s | -57°C | 9.5% | 207.6hPa | 3.9V | 00:00:00 | 02:06:21 | 00:00:00 | |
| BIOWL1-15 | 2026-09-03 00:23:21 | 50.25274 | 6.44288 | 122° | 139km/h | 11958m | -4.5m/s | -57.2°C | 9.2% | 206.6hPa | 3.9V | 00:00:00 | 00:00:00 | 00:00:00 | |
| DM0DOS-11 | 2026-09-03 00:23:19 | 50.25349 | 6.44099 | 122° | 142km/h | 11978m | -5.5m/s | -57.3°C | 9% | 205.9hPa | 3.9V | 00:00:00 | 02:06:11 | 00:00:00 | |
| DJ8HS-15 | 2026-09-03 00:23:16 | 50.25310 | 6.44195 | 123° | 141km/h | 11967m | -5.2m/s | -57.2°C | 9.0% | 206.2hPa | 3.9V | 00:00:00 | 02:06:13 | 00:00:00 | |
| DM0DOS-11 | 2026-09-03 00:23:09 | 50.25534 | 6.43622 | 124° | 142km/h | 12031m | -5m/s | -57.7°C | 8.5% | 204.2hPa | 3.9V | 00:00:00 | 02:06:01 | 00:00:00 | |
| BIOWL1-15 | 2026-09-03 00:23:07 | 50.25497 | 6.43715 | 121° | 139km/h | 12020m | -5m/s | -57.6°C | 8.7% | 204.6hPa | 3.9V | 00:00:00 | 00:00:00 | 00:00:00 | |
| BIOWL1-15 | 2026-09-03 00:23:00 | 50.25715 | 6.43198 | 126° | 141km/h | 12076m | -5m/s | -58°C | 8.3% | 202.8hPa | 3.9V | 00:00:00 | 00:00:00 | 00:00:00 | |
| DM0DOS-11 | 2026-09-03 00:22:58 | 50.25736 | 6.43153 | 126° | 141km/h | 12081m | -4.9m/s | -58°C | 8.1% | 202.6hPa | 3.9V | 00:00:00 | 02:05:51 | 00:00:00 | |
| DM0DOS-11 | 2026-09-03 00:22:48 | 50.25946 | 6.42704 | 124° | 142km/h | 12130m | -4.9m/s | -58.2°C | 7.8% | 201.1hPa | 3.9V | 00:00:00 | 02:05:41 | 00:00:00 | |
| BIOWL1-15 | 2026-09-03 00:22:47 | 50.25946 | 6.42704 | 124° | 142km/h | 12130m | -5m/s | -58.2°C | 7.9% | 201.1hPa | 3.9V | 00:00:00 | 00:00:00 | 00:00:00 | |
| DJ8HS-15 | 2026-09-03 00:22:41 | 50.26005 | 6.42562 | 125° | 137km/h | 12144m | -5.4m/s | -58.3°C | 7.6% | 200.6hPa | 3.9V | 00:00:00 | 02:05:38 | 00:00:00 | |
| DM0DOS-11 | 2026-09-03 00:22:36 | 50.26153 | 6.42242 | 127° | 135km/h | 12182m | -6.2m/s | -58.3°C | 7.5% | 199.4hPa | 3.9V | 00:00:00 | 02:05:31 | 00:00:00 | |
| BIOWL1-15 | 2026-09-03 00:22:34 | 50.26174 | 6.42199 | 127° | 133km/h | 12189m | -6m/s | -58.3°C | 7.5% | 199.2hPa | 3.9V | 00:00:00 | 00:00:00 | 00:00:00 | |
| DM0DOS-11 | 2026-09-03 00:22:30 | 50.26363 | 6.41815 | 124° | 139km/h | 12241m | -5.3m/s | -58.7°C | 7.1% | 197.6hPa | 3.9V | 00:00:00 | 02:05:21 | 00:00:00 | |
| BIOWL1-15 | 2026-09-03 00:22:25 | 50.26384 | 6.41767 | 125° | 142km/h | 12247m | -6m/s | -58.7°C | 7.2% | 197.4hPa | 4V | 00:00:00 | 00:00:00 | 00:00:00 | |
| DM0DOS-11 | 2026-09-03 00:22:19 | 50.26570 | 6.41393 | 124° | 139km/h | 12294m | -4.3m/s | -59°C | 6.8% | 195.9hPa | 4V | 00:00:00 | 02:05:11 | 00:00:00 | |
| BIOWL1-15 | 2026-09-03 00:22:14 | 50.26650 | 6.41206 | 124° | 137km/h | 12311m | -4.7m/s | -59.2°C | 6.8% | 195.3hPa | 4V | 00:00:00 | 00:00:00 | 00:00:00 | |
| DM0DOS-11 | 2026-09-03 00:22:07 | 50.26764 | 6.40945 | 127° | 131km/h | 12338m | -4.8m/s | -59.3°C | 6.5% | 194.5hPa | 4V | 00:00:00 | 02:05:01 | 00:00:00 | |
| BIOWL1-15 | 2026-09-03 00:22:05 | 50.26985 | 6.40535 | 128° | 141km/h | 12390m | -6m/s | -59.4°C | 6.3% | 192.8hPa | 4V | 00:00:00 | 00:00:00 | 00:00:00 | |
| DM0DOS-11 | 2026-09-03 00:21:56 | 50.26985 | 6.40535 | 127° | 130km/h | 12390m | -5.6m/s | -59.4°C | 6.2% | 192.8hPa | 4V | 00:00:00 | 02:04:51 | 00:00:00 | |
| BIOWL1-15 | 2026-09-03 00:21:47 | 50.27204 | 6.40116 | 131° | 131km/h | 12450m | -4.5m/s | -59.6°C | 6.1% | 191hPa | 4V | 00:00:00 | 00:00:00 | 00:00:00 | |
| DM0DOS-11 | 2026-09-03 00:21:46 | 50.27182 | 6.40152 | 134° | 126km/h | 12445m | -4.8m/s | -59.5°C | 6% | 191.2hPa | 4V | 00:00:00 | 02:04:41 | 00:00:00 | |
| BIOWL1-15 | 2026-09-03 00:21:38 | 50.27333 | 6.39828 | 123° | 110km/h | 12485m | -6m/s | -59.7°C | 5.9% | 189.9hPa | 4V | 00:00:00 | 00:00:00 | 00:00:00 | |
| DM0DOS-11 | 2026-09-03 00:21:36 | 50.27364 | 6.39758 | 130° | 119km/h | 12496m | -4.2m/s | -59.7°C | 5.7% | 189.6hPa | 4V | 00:00:00 | 02:04:31 | 00:00:00 | |
| BIOWL1-15 | 2026-09-03 00:21:26 | 50.27538 | 6.39419 | 130° | 106km/h | 12535m | -5m/s | -60°C | 5.7% | 188.4hPa | 4V | 00:00:00 | 00:00:00 | 00:00:00 | |
| DM0DOS-11 | 2026-09-03 00:21:25 | 50.27556 | 6.39386 | 129° | 106km/h | 12539m | -5.4m/s | -60°C | 5.6% | 188.3hPa | 4V | 00:00:00 | 02:04:21 | 00:00:00 | |
| DM0DOS-11 | 2026-09-03 00:21:19 | 50.27707 | 6.39018 | 124° | 120km/h | 12591m | -4.8m/s | -60.3°C | 5.4% | 186.7hPa | 4V | 00:00:00 | 02:04:11 | 00:00:00 | |
| BIOWL1-15 | 2026-09-03 00:21:13 | 50.27794 | 6.38818 | 121° | 110km/h | 12614m | -5m/s | -60.4°C | 5.3% | 186.1hPa | 4V | 00:00:00 | 00:00:00 | 00:00:00 | |
| DM0DOS-11 | 2026-09-03 00:21:09 | 50.27863 | 6.38628 | 119° | 113km/h | 12642m | -5.8m/s | -60.4°C | 5.1% | 185.3hPa | 4V | 00:00:00 | 02:04:01 | 00:00:00 | |
| BIOWL1-15 | 2026-09-03 00:21:00 | 50.27998 | 6.38239 | 114° | 110km/h | 12698m | -5m/s | -60.5°C | 5% | 183.6hPa | 4V | 00:00:00 | 00:00:00 | 00:00:00 | |
| DM0DOS-11 | 2026-09-03 00:20:57 | 50.27998 | 6.38239 | 113° | 113km/h | 12698m | -5.4m/s | -60.5°C | 5% | 183.6hPa | 4V | 00:00:00 | 02:03:51 | 00:00:00 | |
| BIOWL1-15 | 2026-09-03 00:20:48 | 50.28119 | 6.37863 | 125° | 113km/h | 12747m | -5m/s | -60.7°C | 4.9% | 182.2hPa | 4V | 00:00:00 | 00:00:00 | 00:00:00 | |
| DM0DOS-11 | 2026-09-03 00:20:46 | 50.28135 | 6.37826 | 125° | 106km/h | 12752m | -5.5m/s | -60.7°C | 4.9% | 182.1hPa | 4V | 00:00:00 | 02:03:41 | 00:00:00 | |
| DL1XH1-15 | 2026-09-03 00:20:40 | 50.28223 | 6.37579 | 109° | 124km/h | 12789m | -5.2m/s | -61°C | 4.6% | 181.1hPa | 4V | 00:00:00 | 02:03:34 | 00:00:00 | |
| BIOWL1-15 | 2026-09-03 00:20:39 | 50.28263 | 6.37400 | 110° | 128km/h | 12810m | -5m/s | -61.2°C | 4.6% | 180.5hPa | 4V | 00:00:00 | 00:00:00 | 00:00:00 | |
| DB0UT-7 | 2026-09-03 00:20:36 | 50.28242 | 6.37492 | 109° | 122km/h | 12800m | -5.0m/s | -61.0°C | 4.5% | 180.8hPa | 4V | 00:00:00 | 00:00:00 | 00:00:00 | |
| DM0DOS-11 | 2026-09-03 00:20:35 | 50.28252 | 6.37447 | 109° | 128km/h | 12805m | -5.1m/s | -61.1°C | 4.5% | 180.7hPa | 4V | 00:00:00 | 02:03:31 | 00:00:00 | |
| BIOWL1-15 | 2026-09-03 00:20:28 | 50.28379 | 6.37032 | 122° | 115km/h | 12851m | -5m/s | -61.5°C | 4.4% | 179.3hPa | 3.9V | 00:00:00 | 00:00:00 | 00:00:00 | |
| DM0DOS-11 | 2026-09-03 00:20:25 | 50.28394 | 6.36993 | 120° | 111km/h | 12856m | -5.3m/s | -61.5°C | 4.4% | 179.2hPa | 3.9V | 00:00:00 | 02:03:21 | 00:00:00 | |
| DM0DOS-11 | 2026-09-03 00:20:20 | 50.28516 | 6.36572 | 120° | 126km/h | 12908m | -5.6m/s | -61.2°C | 4.1% | 177.7hPa | 3.9V | 00:00:00 | 02:03:11 | 00:00:00 | |
| BIOWL1-15 | 2026-09-03 00:20:18 | 50.28568 | 6.36434 | 122° | 131km/h | 12924m | -6m/s | -60.8°C | 4.1% | 177.3hPa | 3.9V | 00:00:00 | 00:00:00 | 00:00:00 | |
| DJ8HS-15 | 2026-09-03 00:20:09 | 50.28605 | 6.36347 | 126° | 117km/h | 12935m | -5.7m/s | -60.5°C | 4.0% | 176.9hPa | 3.9V | 00:00:00 | 02:03:06 | 00:00:00 | |
| DM0DOS-11 | 2026-09-03 00:20:08 | 50.28704 | 6.36115 | 116° | 113km/h | 12970m | -5.8m/s | -60°C | 4% | 176hPa | 3.9V | 00:00:00 | 02:03:00 | 00:00:00 | |
| BIOWL1-15 | 2026-09-03 00:20:08 | 50.28797 | 6.35843 | 124° | 122km/h | 13010m | -6.3m/s | -59.8°C | 3.9% | 174.9hPa | 3.8V | 00:00:00 | 00:00:00 | 00:00:00 | |
| DB0UT-7 | 2026-09-03 00:20:05 | 50.28675 | 6.36192 | 123° | 117km/h | 12958m | -5.7m/s | -60.1°C | 4.0% | 176.3hPa | 3.9V | 00:00:00 | 02:03:02 | 00:00:00 | |
| DL1XH1-15 | 2026-09-03 00:19:59 | 50.28797 | 6.35843 | 124° | 115km/h | 13010m | -6m/s | -59.8°C | 3.8% | 174.9hPa | 3.8V | 00:00:00 | 02:02:53 | 00:00:00 | |
| DM0DOS-11 | 2026-09-03 00:19:55 | 50.28849 | 6.35723 | 120° | 124km/h | 13029m | -6.1m/s | -59.7°C | 3.8% | 174.4hPa | 3.8V | 00:00:00 | 02:02:50 | 00:00:00 | |
| DM0DOS-11 | 2026-09-03 00:19:49 | 50.28967 | 6.35309 | 125° | 119km/h | 13088m | -5.9m/s | -59.8°C | 3.6% | 172.8hPa | 3.8V | 00:00:00 | 02:02:40 | 00:00:00 | |
| DL1XH1-15 | 2026-09-03 00:19:49 | 50.28942 | 6.35376 | 117° | 110km/h | 13076m | -5.9m/s | -59.8°C | 3.7% | 173.1hPa | 3.8V | 00:00:00 | 02:02:42 | 00:00:00 | |
| BIOWL1-15 | 2026-09-03 00:19:47 | 50.28942 | 6.35376 | 117° | 95km/h | 13076m | -6m/s | -59.8°C | 3.8% | 173.1hPa | 3.8V | 00:00:00 | 00:00:00 | 00:00:00 | |
| DL1XH1-15 | 2026-09-03 00:19:38 | 50.29093 | 6.34924 | 113° | 113km/h | 13139m | -6.3m/s | -59.3°C | 3.6% | 171.5hPa | 3.7V | 00:00:00 | 02:02:31 | 00:00:00 | |
| BIOWL1-15 | 2026-09-03 00:19:36 | 50.29146 | 6.34782 | 127° | 122km/h | 13164m | -6m/s | -59.2°C | 3.6% | 170.9hPa | 3.6V | 00:00:00 | 00:00:00 | 00:00:00 | |
| DB0UT-7 | 2026-09-03 00:19:36 | 50.29084 | 6.34964 | 110° | 115km/h | 13133m | -6.2m/s | -59.3°C | 3.6% | 171.5hPa | 3.7V | 00:00:00 | 00:00:00 | 00:00:00 | |
| DM0DOS-11 | 2026-09-03 00:19:34 | 50.29103 | 6.34887 | 118° | 113km/h | 13146m | -6m/s | -59.3°C | 3.5% | 171.3hPa | 3.7V | 00:00:00 | 02:02:30 | 00:00:00 | |
| DJ8HS-15 | 2026-09-03 00:19:29 | 50.29165 | 6.34743 | 125° | 115km/h | 13170m | -6.1m/s | -59.0°C | 3.5% | 170.7hPa | 3.6V | 00:00:00 | 02:02:26 | 00:00:00 | |
| DM0DOS-11 | 2026-09-03 00:19:28 | 50.29253 | 6.34474 | 108° | 106km/h | 13207m | -6.4m/s | -58.4°C | 3.5% | 169.8hPa | 3.6V | 00:00:00 | 02:02:20 | 00:00:00 | |
| DL1XH1-15 | 2026-09-03 00:19:27 | 50.29261 | 6.34433 | 117° | 110km/h | 13213m | -6.2m/s | -58.3°C | 3.5% | 169.7hPa | 3.5V | 00:00:00 | 02:02:19 | 00:00:00 | |
| BIOWL1-15 | 2026-09-03 00:19:24 | 50.29253 | 6.34474 | 109° | 108km/h | 13207m | -6m/s | -58.4°C | 3.5% | 169.8hPa | 3.6V | 00:00:00 | 00:00:00 | 00:00:00 | |
| DL1XH1-15 | 2026-09-03 00:19:15 | 50.29435 | 6.33914 | 112° | 106km/h | 13297m | -6m/s | -57.9°C | 3.3% | 167.7hPa | 3V | 00:00:00 | 02:02:06 | 00:00:00 | |
| DM0DOS-11 | 2026-09-03 00:19:15 | 50.29392 | 6.34090 | 113° | 117km/h | 13271m | -6.3m/s | -58°C | 3.3% | 168.3hPa | 3.3V | 00:00:00 | 02:02:10 | 00:00:00 | |
| BIOWL1-15 | 2026-09-03 00:19:14 | 50.29445 | 6.33877 | 118° | 99km/h | 13303m | -6m/s | -57.9°C | 3.4% | 167.6hPa | 3V | 00:00:00 | 00:00:00 | 00:00:00 | |
| DJ8HS-15 | 2026-09-03 00:19:10 | 50.29435 | 6.33914 | 113° | 111km/h | 13297m | -6.0m/s | -57.8°C | 3.3% | 167.6hPa | 3V | 00:00:00 | 02:02:06 | 00:00:00 | |
| DM0DOS-11 | 2026-09-03 00:19:09 | 50.29518 | 6.33694 | 117° | 119km/h | 13333m | -6.2m/s | -57.6°C | 3.2% | 166.8hPa | 3V | 00:00:00 | 02:02:00 | 00:00:00 | |
| DB0UT-7 | 2026-09-03 00:19:05 | 50.29485 | 6.33773 | 125° | 110km/h | 13321m | -6.1m/s | -57.6°C | 3.3% | 167.1hPa | 3V | 00:00:00 | 02:02:02 | 00:00:00 | |
| DL1XH1-15 | 2026-09-03 00:19:04 | 50.29570 | 6.33522 | 115° | 113km/h | 13357m | -6.8m/s | -57.4°C | 3.2% | 166.2hPa | 3V | 00:00:00 | 02:01:56 | 00:00:00 | |
| BIOWL1-15 | 2026-09-03 00:19:03 | 50.29532 | 6.33651 | 115° | 120km/h | 13339m | -6m/s | -57.6°C | 3.4% | 166.7hPa | 3V | 00:00:00 | 00:00:00 | 00:00:00 | |
| DL1XH-west | 2026-09-03 00:18:58 | 50.29597 | 6.33440 | 0° | 0km/h | 13371m | 0m/s | -57.5°C | 3.3% | 165.9hPa | 3V | 00:00:00 | 00:00:00 | 00:00:00 | |
| DM0DOS-11 | 2026-09-03 00:18:56 | 50.29652 | 6.33284 | 119° | 106km/h | 13397m | -6.6m/s | -57.6°C | 3.2% | 165.2hPa | 3V | 00:00:00 | 02:01:50 | 00:00:00 | |
| BIOWL1-15 | 2026-09-03 00:18:53 | 50.29702 | 6.33135 | 116° | 108km/h | 13423m | -7m/s | -57.6°C | 3.3% | 164.6hPa | 3V | 00:00:00 | 00:00:00 | 00:00:00 | |
| DL1XH1-15 | 2026-09-03 00:18:52 | 50.29702 | 6.33135 | 115° | 110km/h | 13423m | -6.7m/s | -57.6°C | 3.2% | 164.6hPa | 3V | 00:00:00 | 02:01:46 | 00:00:00 | |
| DL1XH-west | 2026-09-03 00:18:48 | 50.29726 | 6.33057 | 0° | 0km/h | 13436m | 0m/s | -57.7°C | 3.3% | 164.3hPa | 3V | 00:00:00 | 00:00:00 | 00:00:00 | |
| DM0DOS-11 | 2026-09-03 00:18:44 | 50.29784 | 6.32906 | 122° | 102km/h | 13463m | -6.7m/s | -57.7°C | 3.1% | 163.7hPa | 3V | 00:00:00 | 02:01:40 | 00:00:00 | |
| DL1XH1-15 | 2026-09-03 00:18:41 | 50.29836 | 6.32767 | 115° | 106km/h | 13489m | -6.7m/s | -57.6°C | 3.1% | 163hPa | 3V | 00:00:00 | 02:01:36 | 00:00:00 | |
| BIOWL1-15 | 2026-09-03 00:18:40 | 50.29847 | 6.32732 | 114° | 104km/h | 13496m | -6.5m/s | -57.5°C | 3.2% | 162.9hPa | 3V | 00:00:00 | 00:00:00 | 00:00:00 | |
| DM0DOS-11 | 2026-09-03 00:18:39 | 50.29905 | 6.32539 | 117° | 111km/h | 13529m | -6.9m/s | -57.4°C | 3.1% | 162.1hPa | 3V | 00:00:00 | 02:01:30 | 00:00:00 | |
| DB0UT-7 | 2026-09-03 00:18:36 | 50.29880 | 6.32618 | 117° | 100km/h | 13515m | -6.9m/s | -57.3°C | 3.1% | 162.3hPa | 3.0V | 00:00:00 | 00:00:00 | 00:00:00 | |
| DL1XH1-15 | 2026-09-03 00:18:31 | 50.29959 | 6.32377 | 116° | 104km/h | 13557m | -6.7m/s | -57.6°C | 3.1% | 161.4hPa | 3V | 00:00:00 | 02:01:26 | 00:00:00 | |
| BIOWL1-15 | 2026-09-03 00:18:28 | 50.30018 | 6.32195 | 119° | 97km/h | 13590m | -6m/s | -57.7°C | 3.2% | 160.6hPa | 3V | 00:00:00 | 00:00:00 | 00:00:00 | |
| DM0DOS-11 | 2026-09-03 00:18:26 | 50.30030 | 6.32162 | 120° | 102km/h | 13596m | -6.8m/s | -57.7°C | 3.1% | 160.5hPa | 3V | 00:00:00 | 02:01:20 | 00:00:00 | |
| DL1XH1-15 | 2026-09-03 00:18:21 | 50.30085 | 6.32027 | 124° | 102km/h | 13624m | -6.5m/s | -57.5°C | 3.1% | 159.9hPa | 3V | 00:00:00 | 02:01:16 | 00:00:00 | |
| BIOWL1-15 | 2026-09-03 00:18:18 | 50.30143 | 6.31879 | 121° | 99km/h | 13651m | -6m/s | -57.4°C | 3.1% | 159.3hPa | 3V | 00:00:00 | 00:00:00 | 00:00:00 | |
| DM0DOS-11 | 2026-09-03 00:18:16 | 50.30169 | 6.31812 | 123° | 89km/h | 13663m | -6.6m/s | -57.3°C | 3% | 158.9hPa | 3V | 00:00:00 | 02:01:10 | 00:00:00 | |
| DL1XH1-15 | 2026-09-03 00:18:11 | 50.30219 | 6.31699 | 127° | 93km/h | 13691m | -6.2m/s | -57.3°C | 3% | 158.3hPa | 3V | 00:00:00 | 02:01:06 | 00:00:00 | |
| BIOWL1-15 | 2026-09-03 00:18:06 | 50.30301 | 6.31501 | 110° | 104km/h | 13727m | -7m/s | -57.3°C | 3.1% | 157.4hPa | 3V | 00:00:00 | 00:00:00 | 00:00:00 | |
| DB0UT-7 | 2026-09-03 00:18:05 | 50.30276 | 6.31575 | 120° | 89km/h | 13714m | -6.5m/s | -57.3°C | 3.0% | 157.7hPa | 3V | 00:00:00 | 02:01:02 | 00:00:00 | |
| DM0DOS-11 | 2026-09-03 00:18:04 | 50.30301 | 6.31501 | 110° | 89km/h | 13727m | -6.7m/s | -57.3°C | 3% | 157.4hPa | 3V | 00:00:00 | 02:01:00 | 00:00:00 | |
| BIOWL1-15 | 2026-09-03 00:17:58 | 50.30382 | 6.31278 | 123° | 106km/h | 13777m | -5.7m/s | -57.4°C | 3.1% | 156.1hPa | 3V | 00:00:00 | 00:00:00 | 00:00:00 | |
| DM0DOS-11 | 2026-09-03 00:17:58 | 50.30426 | 6.31172 | 111° | 91km/h | 13794m | -6.1m/s | -57.3°C | 3% | 155.7hPa | 3V | 00:00:00 | 02:00:49 | 00:00:00 | |
| DJ8HS-15 | 2026-09-03 00:17:48 | 50.30453 | 6.31027 | 106° | 89km/h | 13819m | -5.8m/s | -57.2°C | 3.0% | 155.0hPa | 3.1V | 00:00:00 | 02:00:45 | 00:00:00 | |
| DM0DOS-11 | 2026-09-03 00:17:47 | 50.30496 | 6.30900 | 125° | 97km/h | 13848m | -6.2m/s | -57.4°C | 3% | 154.4hPa | 3.1V | 00:00:00 | 02:00:40 | 00:00:00 | |
| BIOWL1-15 | 2026-09-03 00:17:45 | 50.30496 | 6.30900 | 124° | 97km/h | 13848m | -6m/s | -57.4°C | 3.1% | 154.4hPa | 3.1V | 00:00:00 | 00:00:00 | 00:00:00 | |
| DL1XH1-15 | 2026-09-03 00:17:41 | 50.30564 | 6.30648 | 114° | 97km/h | 13892m | -6.8m/s | -57.6°C | 3% | 153.3hPa | 3.1V | 00:00:00 | 02:00:33 | 00:00:00 | |
| DB0UT-7 | 2026-09-03 00:17:35 | 50.30569 | 6.30616 | 104° | 95km/h | 13898m | -6.6m/s | -57.6°C | 3.0% | 153.1hPa | 3.1V | 00:00:00 | 00:00:00 | 00:00:00 | |
| DM0DOS-11 | 2026-09-03 00:17:34 | 50.30579 | 6.30559 | 115° | 86km/h | 13911m | -6.7m/s | -57.8°C | 3% | 152.9hPa | 3.1V | 00:00:00 | 02:00:30 | 00:00:00 | |
| BIOWL1-15 | 2026-09-03 00:17:32 | 50.30597 | 6.30506 | 121° | 88km/h | 13924m | -6.5m/s | -57.9°C | 3% | 152.6hPa | 3.1V | 00:00:00 | 00:00:00 | 00:00:00 | |
| DJ8HS-15 | 2026-09-03 00:17:29 | 50.30632 | 6.30412 | 117° | 97km/h | 13944m | -7.0m/s | -57.9°C | 3.0% | 152.1hPa | 3.1V | 00:00:00 | 02:00:25 | 00:00:00 | |
| DL1XH1-15 | 2026-09-03 00:17:26 | 50.30676 | 6.30213 | 102° | 91km/h | 13979m | -6.9m/s | -58.2°C | 3% | 151.3hPa | 3.1V | 00:00:00 | 02:00:20 | 00:00:00 | |
| BIOWL1-15 | 2026-09-03 00:17:22 | 50.30772 | 6.29875 | 108° | 111km/h | 14048m | -7m/s | -58.1°C | 3% | 149.7hPa | 3.1V | 00:00:00 | 00:00:00 | 00:00:00 | |
| DM0DOS-11 | 2026-09-03 00:17:18 | 50.30772 | 6.29875 | 109° | 100km/h | 14048m | -7m/s | -58.1°C | 3% | 149.7hPa | 3.1V | 00:00:00 | 02:00:10 | 00:00:00 | |
| DL1XH1-15 | 2026-09-03 00:17:15 | 50.30782 | 6.29832 | 105° | 88km/h | 14055m | -6.9m/s | -58.1°C | 3% | 149.6hPa | 3.1V | 00:00:00 | 02:00:09 | 00:00:00 | |
| BIOWL1-15 | 2026-09-03 00:17:06 | 50.30832 | 6.29595 | 122° | 86km/h | 14104m | -7m/s | -58°C | 2.9% | 148.5hPa | 3.1V | 00:00:00 | 00:00:00 | 00:00:00 | |
| DM0DOS-11 | 2026-09-03 00:17:06 | 50.30855 | 6.29536 | 123° | 100km/h | 14118m | -6.7m/s | -58°C | 2.8% | 148.1hPa | 3.1V | 00:00:00 | 02:00:00 | 00:00:00 | |
| DL1XH1-15 | 2026-09-03 00:17:05 | 50.30869 | 6.29504 | 113° | 88km/h | 14124m | -6.8m/s | -58°C | 2.8% | 148hPa | 3.1V | 00:00:00 | 01:59:59 | 00:00:00 | |
| BIOWL1-15 | 2026-09-03 00:16:55 | 50.30939 | 6.29209 | 103° | 77km/h | 14180m | -7m/s | -57.7°C | 2.9% | 146.7hPa | 3.1V | 00:00:00 | 00:00:00 | 00:00:00 | |
| DM0DOS-11 | 2026-09-03 00:16:55 | 50.30943 | 6.29179 | 109° | 78km/h | 14187m | -6.6m/s | -57.7°C | 2.8% | 146.6hPa | 3.1V | 00:00:00 | 01:59:50 | 00:00:00 | |
| DL1XH-west | 2026-09-03 00:16:51 | 50.30966 | 6.29103 | 0° | 0km/h | 14206m | 0m/s | -57.6°C | 2.9% | 146.1hPa | 3.1V | 00:00:00 | 00:00:00 | 00:00:00 | |
| DJ8HS-15 | 2026-09-03 00:16:48 | 50.30990 | 6.29052 | 126° | 93km/h | 14219m | -6.8m/s | -57.6°C | 2.8% | 145.8hPa | 3.1V | 00:00:00 | 01:59:45 | 00:00:00 | |
| DM0DOS-11 | 2026-09-03 00:16:47 | 50.31051 | 6.28877 | 106° | 91km/h | 14254m | -6.3m/s | -57.8°C | 2.8% | 145.1hPa | 3.1V | 00:00:00 | 01:59:40 | 00:00:00 | |
| BIOWL1-15 | 2026-09-03 00:16:44 | 50.31051 | 6.28877 | 106° | 104km/h | 14254m | -7m/s | -57.8°C | 2.9% | 145.1hPa | 3.1V | 00:00:00 | 00:00:00 | 00:00:00 | |
| DL1XH1-15 | 2026-09-03 00:16:40 | 50.31073 | 6.28728 | 100° | 80km/h | 14279m | -6.2m/s | -57.6°C | 2.8% | 144.5hPa | 3.2V | 00:00:00 | 01:59:36 | 00:00:00 | |
| BIOWL1-15 | 2026-09-03 00:16:36 | 50.31126 | 6.28574 | 131° | 99km/h | 14316m | -6m/s | -57.2°C | 2.9% | 143.6hPa | 3.2V | 00:00:00 | 00:00:00 | 00:00:00 | |
| DB0UT-7 | 2026-09-03 00:16:35 | 50.31099 | 6.28625 | 128° | 95km/h | 14304m | -6.1m/s | -57.4°C | 2.8% | 143.9hPa | 3.2V | 00:00:00 | 00:00:00 | 00:00:00 | |
| DM0DOS-11 | 2026-09-03 00:16:34 | 50.31126 | 6.28574 | 130° | 104km/h | 14316m | -6.3m/s | -57.2°C | 2.8% | 143.6hPa | 3.2V | 00:00:00 | 01:59:30 | 00:00:00 | |
| DL1XH-west | 2026-09-03 00:16:31 | 50.31173 | 6.28473 | 0° | 0km/h | 14335m | 0m/s | -57°C | 2.9% | 143.2hPa | 3.2V | 00:00:00 | 00:00:00 | 00:00:00 | |
| DM0DOS-11 | 2026-09-03 00:16:29 | 50.31232 | 6.28216 | 112° | 84km/h | 14378m | -6.4m/s | -57.1°C | 2.8% | 142.2hPa | 3.2V | 00:00:00 | 01:59:20 | 00:00:00 | |
| BIOWL1-15 | 2026-09-03 00:16:24 | 50.31232 | 6.28216 | 117° | 73km/h | 14378m | -6.5m/s | -57.1°C | 2.9% | 142.2hPa | 3.2V | 00:00:00 | 00:00:00 | 00:00:00 | |
| DL1XH1-15 | 2026-09-03 00:16:23 | 50.31289 | 6.28083 | 127° | 106km/h | 14410m | -6.1m/s | -57.3°C | 2.7% | 141.5hPa | 3.2V | 00:00:00 | 01:59:15 | 00:00:00 | |
| DL1XH-west | 2026-09-03 00:16:20 | 50.31274 | 6.28111 | 0° | 0km/h | 14403m | 0m/s | -57.3°C | 2.9% | 141.7hPa | 3.2V | 00:00:00 | 00:00:00 | 00:00:00 | |
| DM0DOS-11 | 2026-09-03 00:16:18 | 50.31359 | 6.27892 | 108° | 99km/h | 14441m | -6.1m/s | -57.3°C | 2.7% | 140.8hPa | 3.2V | 00:00:00 | 01:59:10 | 00:00:00 | |
| BIOWL1-15 | 2026-09-03 00:16:14 | 50.31368 | 6.27849 | 105° | 108km/h | 14447m | -6m/s | -57.4°C | 2.8% | 140.7hPa | 3.2V | 00:00:00 | 00:00:00 | 00:00:00 | |
| DL1XH1-15 | 2026-09-03 00:16:13 | 50.31390 | 6.27702 | 109° | 84km/h | 14471m | -6.1m/s | -57.5°C | 2.7% | 140.1hPa | 3.2V | 00:00:00 | 01:59:05 | 00:00:00 | |
| DL1XH-west | 2026-09-03 00:16:09 | 50.31390 | 6.27702 | 0° | 0km/h | 14471m | 0m/s | -57.6°C | 2.8% | 140.1hPa | 3.2V | 00:00:00 | 00:00:00 | 00:00:00 | |
| DJ8HS-15 | 2026-09-03 00:16:08 | 50.31390 | 6.27702 | 110° | 93km/h | 14471m | -6.0m/s | -57.5°C | 2.7% | 140.0hPa | 3.2V | 00:00:00 | 01:59:05 | 00:00:00 | |
| DM0DOS-11 | 2026-09-03 00:16:07 | 50.31440 | 6.27564 | 127° | 104km/h | 14501m | -6.1m/s | -57.7°C | 2.7% | 139.4hPa | 3.2V | 00:00:00 | 01:59:00 | 00:00:00 | |
| BIOWL1-15 | 2026-09-03 00:16:03 | 50.31455 | 6.27533 | 126° | 106km/h | 14507m | -6m/s | -57.8°C | 2.8% | 139.3hPa | 3.2V | 00:00:00 | 00:00:00 | 00:00:00 | |
| DM0DOS-11 | 2026-09-03 00:15:54 | 50.31559 | 6.27201 | 106° | 84km/h | 14561m | -6.3m/s | -57.7°C | 2.7% | 138.1hPa | 3.2V | 00:00:00 | 01:58:50 | 00:00:00 | |
| BIOWL1-15 | 2026-09-03 00:15:53 | 50.31565 | 6.27168 | 105° | 86km/h | 14568m | -6m/s | -57.7°C | 2.8% | 138hPa | 3.2V | 00:00:00 | 00:00:00 | 00:00:00 | |
| DL1XH1-15 | 2026-09-03 00:15:51 | 50.31612 | 6.26995 | 126° | 102km/h | 14604m | -5.9m/s | -57.4°C | 2.7% | 137.1hPa | 3.2V | 00:00:00 | 01:58:43 | 00:00:00 | |
| DJ8HS-15 | 2026-09-03 00:15:48 | 50.31590 | 6.27049 | 121° | 91km/h | 14593m | -5.7m/s | -57.4°C | 2.7% | 137.3hPa | 3.2V | 00:00:00 | 01:58:45 | 00:00:00 | |
| DM0DOS-11 | 2026-09-03 00:15:47 | 50.31656 | 6.26895 | 119° | 104km/h | 14621m | -6.3m/s | -57.4°C | 2.7% | 136.7hPa | 3.2V | 00:00:00 | 01:58:40 | 00:00:00 | |
| BIOWL1-15 | 2026-09-03 00:15:42 | 50.31683 | 6.26817 | 109° | 102km/h | 14633m | -6.2m/s | -57.4°C | 2.8% | 136.4hPa | 3.2V | 00:00:00 | 00:00:00 | 00:00:00 | |
| DL1XH-west | 2026-09-03 00:15:42 | 50.31694 | 6.26776 | 0° | 0km/h | 14640m | 0m/s | -57.4°C | 2.8% | 136.3hPa | 3.3V | 00:00:00 | 00:00:00 | 00:00:00 | |
| DL1XH1-15 | 2026-09-03 00:15:40 | 50.31730 | 6.26600 | 109° | 78km/h | 14671m | -6.9m/s | -57.4°C | 2.7% | 135.6hPa | 3.3V | 00:00:00 | 01:58:32 | 00:00:00 | |
| DM0DOS-11 | 2026-09-03 00:15:36 | 50.31744 | 6.26545 | 116° | 82km/h | 14685m | -6.9m/s | -57.4°C | 2.7% | 135.2hPa | 3.3V | 00:00:00 | 01:58:30 | 00:00:00 | |
| DL1XH-west | 2026-09-03 00:15:31 | 50.31772 | 6.26469 | 0° | 0km/h | 14706m | 0m/s | -57.5°C | 2.7% | 134.8hPa | 3.3V | 00:00:00 | 00:00:00 | 00:00:00 | |
| DL1XH1-15 | 2026-09-03 00:15:30 | 50.31853 | 6.26283 | 122° | 97km/h | 14747m | -7.1m/s | -57.6°C | 2.7% | 133.9hPa | 3.3V | 00:00:00 | 01:58:21 | 00:00:00 | |
| BIOWL1-15 | 2026-09-03 00:15:29 | 50.31896 | 6.26177 | 121° | 102km/h | 14768m | -7.5m/s | -57.7°C | 2.7% | 133.5hPa | 3.3V | 00:00:00 | 00:00:00 | 00:00:00 | |
| DL1XH-west | 2026-09-03 00:15:21 | 50.31923 | 6.26108 | 0° | 0km/h | 14783m | 0m/s | -57.7°C | 2.7% | 133.2hPa | 3.3V | 00:00:00 | 00:00:00 | 00:00:00 | |
| BIOWL1-15 | 2026-09-03 00:15:20 | 50.31948 | 6.26046 | 121° | 82km/h | 14797m | -8m/s | -57.8°C | 2.7% | 132.9hPa | 3.3V | 00:00:00 | 00:00:00 | 00:00:00 | |
| DL1XH1-15 | 2026-09-03 00:15:17 | 50.31969 | 6.25990 | 122° | 82km/h | 14813m | -6.7m/s | -57.8°C | 2.7% | 132.6hPa | 3.3V | 00:00:00 | 01:58:12 | 00:00:00 | |
| DM0DOS-11 | 2026-09-03 00:15:14 | 50.31991 | 6.25934 | 118° | 84km/h | 14827m | -6.5m/s | -57.8°C | 2.7% | 132.2hPa | 3.3V | 00:00:00 | 01:58:10 | 00:00:00 | |
| DL1XH1-15 | 2026-09-03 00:15:11 | 50.32074 | 6.25701 | 126° | 78km/h | 14880m | -6.7m/s | -57.8°C | 2.7% | 131.2hPa | 3.3V | 00:00:00 | 01:58:02 | 00:00:00 | |
| DM0DOS-11 | 2026-09-03 00:15:08 | 50.32098 | 6.25651 | 126° | 77km/h | 14893m | -6.9m/s | -57.8°C | 2.7% | 130.9hPa | 3.3V | 00:00:00 | 01:58:00 | 00:00:00 | |
| DL1XH-west | 2026-09-03 00:15:07 | 50.32063 | 6.25727 | 0° | 0km/h | 14873m | 0m/s | -57.8°C | 2.7% | 131.3hPa | 3.3V | 00:00:00 | 00:00:00 | 00:00:00 | |
| BIOWL1-15 | 2026-09-03 00:15:06 | 50.32121 | 6.25600 | 125° | 77km/h | 14907m | -6.7m/s | -57.8°C | 2.7% | 130.6hPa | 3.3V | 00:00:00 | 00:00:00 | 00:00:00 | |
| DB0UT-7 | 2026-09-03 00:15:05 | 50.32073 | 6.25701 | 127° | 71km/h | 14880m | -6.6m/s | -57.7°C | 2.7% | 131.1hPa | 3.3V | 00:00:00 | 01:58:02 | 00:00:00 | |
| DB0NH | 2026-09-03 00:15:00 | 50.32132 | 6.25575 | 126° | 69km/h | 14914m | -6.5m/s | -57.8°C | 2.7% | 130.5hPa | 3.3V | 00:00:00 | 01:57:57 | 00:00:00 | |
| DL1XH1-15 | 2026-09-03 00:14:56 | 50.32184 | 6.25452 | 118° | 69km/h | 14948m | -6m/s | -57.5°C | 2.7% | 129.8hPa | 3.3V | 00:00:00 | 01:57:52 | 00:00:00 | |
| DM0DOS-11 | 2026-09-03 00:14:55 | 50.32201 | 6.25404 | 119° | 71km/h | 14959m | -6.4m/s | -57.6°C | 2.7% | 129.6hPa | 3.3V | 00:00:00 | 01:57:50 | 00:00:00 | |
| DL1XH-west | 2026-09-03 00:14:52 | 50.32219 | 6.25356 | 0° | 0km/h | 14971m | 0m/s | -57.7°C | 2.7% | 129.3hPa | 3.3V | 00:00:00 | 00:00:00 | 00:00:00 | |
| DL1XH1-15 | 2026-09-03 00:14:50 | 50.32276 | 6.25209 | 112° | 69km/h | 15011m | -6.4m/s | -57.7°C | 2.7% | 128.5hPa | 3.3V | 00:00:00 | 01:57:42 | 00:00:00 | |
| DL1XH-west | 2026-09-03 00:14:41 | 50.32306 | 6.25082 | 0° | 0km/h | 15044m | 0m/s | -57.8°C | 2.7% | 127.9hPa | 3.3V | 00:00:00 | 00:00:00 | 00:00:00 | |
| BIOWL1-15 | 2026-09-03 00:14:41 | 50.32373 | 6.24853 | 111° | 64km/h | 15102m | -7m/s | -58.2°C | 2.7% | 126.7hPa | 3.3V | 00:00:00 | 00:00:00 | 00:00:00 | |
| DL1XH1-15 | 2026-09-03 00:14:36 | 50.32347 | 6.24947 | 116° | 66km/h | 15077m | -6.2m/s | -58°C | 2.7% | 127.2hPa | 3.3V | 00:00:00 | 01:57:32 | 00:00:00 | |
| DB0UT-7 | 2026-09-03 00:14:35 | 50.32347 | 6.24947 | 117° | 73km/h | 15077m | -6.1m/s | -58.0°C | 2.7% | 127.2hPa | 3.3V | 00:00:00 | 00:00:00 | 00:00:00 | |
| DM0DOS-11 | 2026-09-03 00:14:34 | 50.32362 | 6.24899 | 111° | 64km/h | 15089m | -6.3m/s | -58.1°C | 2.7% | 127hPa | 3.3V | 00:00:00 | 01:57:30 | 00:00:00 | |
| DL1XH1-15 | 2026-09-03 00:14:30 | 50.32408 | 6.24704 | 105° | 73km/h | 15138m | -6.5m/s | -58.3°C | 2.7% | 126hPa | 3.4V | 00:00:00 | 01:57:22 | 00:00:00 | |
| DL1XH-west | 2026-09-03 00:14:28 | 50.32396 | 6.24757 | 0° | 0km/h | 15126m | 0m/s | -58.3°C | 2.7% | 126.3hPa | 3.3V | 00:00:00 | 00:00:00 | 00:00:00 | |
| BIOWL1-15 | 2026-09-03 00:14:27 | 50.32402 | 6.24731 | 107° | 73km/h | 15132m | -6m/s | -58.3°C | 2.7% | 126.1hPa | 3.3V | 00:00:00 | 00:00:00 | 00:00:00 | |
| DL1XH1-15 | 2026-09-03 00:14:20 | 50.32438 | 6.24436 | 112° | 77km/h | 15204m | -7.8m/s | -57.8°C | 2.5% | 124.7hPa | 3.4V | 00:00:00 | 01:57:12 | 00:00:00 | |
| DL1XH-west | 2026-09-03 00:14:18 | 50.32429 | 6.24482 | 0° | 0km/h | 15189m | 0m/s | -58°C | 2.7% | 125hPa | 3.4V | 00:00:00 | 00:00:00 | 00:00:00 | |
| BIOWL1-15 | 2026-09-03 00:14:15 | 50.32445 | 6.24412 | 113° | 73km/h | 15212m | -8m/s | -57.7°C | 2.7% | 124.5hPa | 3.4V | 00:00:00 | 00:00:00 | 00:00:00 | |
| DL1XH1-15 | 2026-09-03 00:14:10 | 50.32500 | 6.24129 | 100° | 80km/h | 15281m | -6.8m/s | -57.6°C | 2.5% | 123.1hPa | 3.4V | 00:00:00 | 01:57:02 | 00:00:00 | |
| DL1XH-west | 2026-09-03 00:14:08 | 50.32497 | 6.24162 | 0° | 0km/h | 15274m | 0m/s | -57.6°C | 2.6% | 123.3hPa | 3.4V | 00:00:00 | 00:00:00 | 00:00:00 | |
| BIOWL1-15 | 2026-09-03 00:14:05 | 50.32520 | 6.24010 | 115° | 77km/h | 15308m | -6m/s | -57.6°C | 2.6% | 122.6hPa | 3.4V | 00:00:00 | 00:00:00 | 00:00:00 | |
| DL1XH-west | 2026-09-03 00:13:57 | 50.32567 | 6.23860 | 0° | 0km/h | 15341m | 0m/s | -57.7°C | 2.6% | 122hPa | 3.4V | 00:00:00 | 00:00:00 | 00:00:00 | |
| DL1XH1-15 | 2026-09-03 00:13:56 | 50.32577 | 6.23824 | 110° | 97km/h | 15349m | -7.5m/s | -57.7°C | 2.5% | 121.8hPa | 3.4V | 00:00:00 | 01:56:52 | 00:00:00 | |
| DM0DOS-11 | 2026-09-03 00:13:54 | 50.32594 | 6.23751 | 108° | 95km/h | 15364m | -7.5m/s | -57.7°C | 2.5% | 121.5hPa | 3.4V | 00:00:00 | 01:56:50 | 00:00:00 | |
| BIOWL1-15 | 2026-09-03 00:13:53 | 50.32616 | 6.23638 | 102° | 95km/h | 15386m | -7m/s | -57.6°C | 2.6% | 121.1hPa | 3.4V | 00:00:00 | 00:00:00 | 00:00:00 | |
| DL1XH1-15 | 2026-09-03 00:13:51 | 50.32635 | 6.23463 | 103° | 77km/h | 15425m | -7.7m/s | -57.3°C | 2.5% | 120.4hPa | 3.4V | 00:00:00 | 01:56:42 | 00:00:00 | |
| DM0DOS-11 | 2026-09-03 00:13:48 | 50.32645 | 6.23405 | 112° | 77km/h | 15440m | -7.7m/s | -57°C | 2.5% | 120.1hPa | 3.4V | 00:00:00 | 01:56:40 | 00:00:00 | |
| DL1XH-west | 2026-09-03 00:13:47 | 50.32632 | 6.23495 | 0° | 0km/h | 15417m | 0m/s | -57.5°C | 2.6% | 120.6hPa | 3.4V | 00:00:00 | 00:00:00 | 00:00:00 | |
| BIOWL1-15 | 2026-09-03 00:13:42 | 50.32680 | 6.23303 | 126° | 82km/h | 15471m | -7.5m/s | -56.7°C | 2.6% | 119.6hPa | 3.4V | 00:00:00 | 00:00:00 | 00:00:00 | |
| DL1XH1-15 | 2026-09-03 00:13:40 | 50.32730 | 6.23192 | 120° | 88km/h | 15501m | -7.9m/s | -56.7°C | 2.5% | 119hPa | 3.4V | 00:00:00 | 01:56:32 | 00:00:00 | |
| DL1XH-west | 2026-09-03 00:13:36 | 50.32730 | 6.23192 | 0° | 0km/h | 15501m | 0m/s | -56.7°C | 2.6% | 119hPa | 3.4V | 00:00:00 | 00:00:00 | 00:00:00 | |
| DM0DOS-11 | 2026-09-03 00:13:35 | 50.32752 | 6.23127 | 111° | 84km/h | 15517m | -7.8m/s | -56.6°C | 2.5% | 118.7hPa | 3.4V | 00:00:00 | 01:56:30 | 00:00:00 | |
| NBG1-10 | 2026-09-03 00:13:34 | 50.32742 | 6.23160 | 113° | 82km/h | 15509m | -7.7m/s | -56.6°C | 2.5% | 118.8hPa | 3.4V | 00:00:00 | 01:56:31 | 00:00:00 | |
| DL1XH1-15 | 2026-09-03 00:13:30 | 50.32814 | 6.22894 | 121° | 78km/h | 15579m | -7.7m/s | -56.1°C | 2.5% | 117.5hPa | 3.4V | 00:00:00 | 01:56:22 | 00:00:00 | |
| BIOWL1-15 | 2026-09-03 00:13:29 | 50.32833 | 6.22843 | 119° | 78km/h | 15595m | -8.5m/s | -56°C | 2.6% | 117.3hPa | 3.4V | 00:00:00 | 00:00:00 | 00:00:00 | |
| DM0DOS-11 | 2026-09-03 00:13:26 | 50.32833 | 6.22843 | 119° | 82km/h | 15595m | -7.6m/s | -56°C | 2.5% | 117.3hPa | 3.4V | 00:00:00 | 01:56:20 | 00:00:00 | |
| DL1XH-west | 2026-09-03 00:13:25 | 50.32824 | 6.22868 | 0° | 0km/h | 15586m | 0m/s | -56°C | 2.6% | 117.4hPa | 3.4V | 00:00:00 | 00:00:00 | 00:00:00 | |
| DL1XH1-15 | 2026-09-03 00:13:17 | 50.32911 | 6.22604 | 120° | 80km/h | 15652m | -7.2m/s | -55.9°C | 2.5% | 116.2hPa | 3.4V | 00:00:00 | 01:56:12 | 00:00:00 | |
| DL1XH-west | 2026-09-03 00:13:15 | 50.32921 | 6.22576 | 0° | 0km/h | 15659m | 0m/s | -56°C | 2.6% | 116.1hPa | 3.4V | 00:00:00 | 00:00:00 | 00:00:00 | |
| DM0DOS-11 | 2026-09-03 00:13:14 | 50.32931 | 6.22550 | 122° | 78km/h | 15666m | -7.2m/s | -56°C | 2.5% | 116hPa | 3.4V | 00:00:00 | 01:56:10 | 00:00:00 | |
| BIOWL1-15 | 2026-09-03 00:13:14 | 50.32941 | 6.22524 | 122° | 73km/h | 15672m | -8m/s | -56°C | 2.6% | 115.9hPa | 3.4V | 00:00:00 | 00:00:00 | 00:00:00 | |
| DL1XH1-15 | 2026-09-03 00:13:11 | 50.33006 | 6.22324 | 110° | 91km/h | 15725m | -7.5m/s | -55.7°C | 2.5% | 114.9hPa | 3.4V | 00:00:00 | 01:56:02 | 00:00:00 | |
| DM0DOS-11 | 2026-09-03 00:13:09 | 50.33023 | 6.22253 | 116° | 88km/h | 15741m | -7.2m/s | -55.7°C | 2.5% | 114.6hPa | 3.4V | 00:00:00 | 01:56:00 | 00:00:00 | |
| BIOWL1-15 | 2026-09-03 00:13:04 | 50.33059 | 6.22153 | 130° | 82km/h | 15761m | -8m/s | -55.9°C | 2.6% | 114.3hPa | 3.4V | 00:00:00 | 00:00:00 | 00:00:00 | |
| DL1XH-west | 2026-09-03 00:13:02 | 50.33046 | 6.22184 | 0° | 0km/h | 15754m | 0m/s | -55.9°C | 2.6% | 114.4hPa | 3.4V | 00:00:00 | 00:00:00 | 00:00:00 | |
| DM0DOS-11 | 2026-09-03 00:12:58 | 50.33129 | 6.21995 | 105° | 86km/h | 15815m | -7.2m/s | -55.7°C | 2.5% | 113.3hPa | 3.4V | 00:00:00 | 01:55:50 | 00:00:00 | |
| BIOWL1-15 | 2026-09-03 00:12:52 | 50.33141 | 6.21935 | 123° | 95km/h | 15829m | -7.2m/s | -55.7°C | 2.6% | 113.1hPa | 3.4V | 00:00:00 | 00:00:00 | 00:00:00 | |
| DL1XH-west | 2026-09-03 00:12:51 | 50.33150 | 6.21901 | 0° | 0km/h | 15836m | 0m/s | -55.6°C | 2.6% | 113hPa | 3.4V | 00:00:00 | 00:00:00 | 00:00:00 | |
| DM0DOS-11 | 2026-09-03 00:12:48 | 50.33254 | 6.21726 | 134° | 68km/h | 15890m | -7.1m/s | -55.3°C | 2.5% | 112hPa | 3.4V | 00:00:00 | 01:55:40 | 00:00:00 | |
| DL1XH1-15 | 2026-09-03 00:12:46 | 50.33226 | 6.21761 | 141° | 71km/h | 15874m | -7.4m/s | -55.3°C | 2.5% | 112.3hPa | 3.4V | 00:00:00 | 01:55:42 | 00:00:00 | |
| BIOWL1-15 | 2026-09-03 00:12:43 | 50.33278 | 6.21668 | 112° | 78km/h | 15911m | -7m/s | -55.3°C | 2.6% | 111.7hPa | 3.4V | 00:00:00 | 00:00:00 | 00:00:00 | |
| DL1XH1-15 | 2026-09-03 00:12:40 | 50.33331 | 6.21519 | 133° | 69km/h | 15947m | -7.9m/s | -55.4°C | 2.5% | 111hPa | 3.5V | 00:00:00 | 01:55:32 | 00:00:00 | |
| DL1XH-west | 2026-09-03 00:12:40 | 50.33292 | 6.21610 | 0° | 0km/h | 15925m | 0m/s | -55.2°C | 2.6% | 111.5hPa | 3.4V | 00:00:00 | 00:00:00 | 00:00:00 | |
| DM0DOS-11 | 2026-09-03 00:12:38 | 50.33360 | 6.21475 | 137° | 64km/h | 15963m | -7.7m/s | -55.4°C | 2.5% | 110.8hPa | 3.5V | 00:00:00 | 01:55:30 | 00:00:00 | |
| BIOWL1-15 | 2026-09-03 00:12:30 | 50.33427 | 6.21283 | 120° | 78km/h | 16032m | -7m/s | -55.5°C | 2.5% | 109.7hPa | 3.5V | 00:00:00 | 00:00:00 | 00:00:00 | |
| DL1XH1-15 | 2026-09-03 00:12:29 | 50.33419 | 6.21311 | 114° | 73km/h | 16025m | -7.1m/s | -55.4°C | 2.5% | 109.8hPa | 3.5V | 00:00:00 | 01:55:22 | 00:00:00 | |
| DL1XH-west | 2026-09-03 00:12:28 | 50.33409 | 6.21363 | 0° | 0km/h | 16010m | 0m/s | -55.2°C | 2.6% | 110hPa | 3.5V | 00:00:00 | 00:00:00 | 00:00:00 | |
| DM0DOS-11 | 2026-09-03 00:12:28 | 50.33437 | 6.21256 | 126° | 69km/h | 16039m | -7.2m/s | -55.5°C | 2.5% | 109.5hPa | 3.5V | 00:00:00 | 01:55:20 | 00:00:00 | |
| NBG1-10 | 2026-09-03 00:12:22 | 50.33448 | 6.21232 | 132° | 53km/h | 16046m | -7.3m/s | -55.5°C | 2.5% | 109.4hPa | 3.5V | 00:00:00 | 01:55:19 | 00:00:00 | |
| DL1XH1-15 | 2026-09-03 00:12:19 | 50.33530 | 6.21102 | 128° | 60km/h | 16098m | -7.2m/s | -55.8°C | 2.5% | 108.5hPa | 3.5V | 00:00:00 | 01:55:12 | 00:00:00 | |
| BIOWL1-15 | 2026-09-03 00:12:18 | 50.33509 | 6.21138 | 135° | 62km/h | 16083m | -8m/s | -55.6°C | 2.6% | 108.8hPa | 3.5V | 00:00:00 | 00:00:00 | 00:00:00 | |
| DM0DOS-11 | 2026-09-03 00:12:18 | 50.33549 | 6.21061 | 119° | 57km/h | 16111m | -7.6m/s | -55.7°C | 2.5% | 108.3hPa | 3.5V | 00:00:00 | 01:55:10 | 00:00:00 | |
| DL1XH-west | 2026-09-03 00:12:18 | 50.33540 | 6.21083 | 0° | 0km/h | 16105m | 0m/s | -55.8°C | 2.6% | 108.5hPa | 3.5V | 00:00:00 | 00:00:00 | 00:00:00 | |
| DL1XH1-15 | 2026-09-03 00:12:09 | 50.33609 | 6.20912 | 127° | 55km/h | 16171m | -7.9m/s | -55.8°C | 2.5% | 107.3hPa | 3.5V | 00:00:00 | 01:55:02 | 00:00:00 | |
| DJ8HS-15 | 2026-09-03 00:12:09 | 50.33585 | 6.20961 | 125° | 51km/h | 16148m | -7.8m/s | -55.7°C | 2.5% | 107.7hPa | 3.5V | 00:00:00 | 01:55:05 | 00:00:00 | |
| DM0DOS-11 | 2026-09-03 00:12:07 | 50.33635 | 6.20855 | 117° | 51km/h | 16195m | -7.7m/s | -55.9°C | 2.5% | 106.9hPa | 3.5V | 00:00:00 | 01:54:59 | 00:00:00 | |
| DL1XH-west | 2026-09-03 00:12:06 | 50.33627 | 6.20875 | 0° | 0km/h | 16187m | 0m/s | -55.8°C | 2.6% | 107.1hPa | 3.5V | 00:00:00 | 00:00:00 | 00:00:00 | |
| DB0UT-7 | 2026-09-03 00:12:05 | 50.33609 | 6.20912 | 128° | 51km/h | 16171m | -7.8m/s | -55.7°C | 2.5% | 107.3hPa | 3.5V | 00:00:00 | 01:55:02 | 00:00:00 | |
| DL1XH1-15 | 2026-09-03 00:11:56 | 50.33672 | 6.20732 | 116° | 51km/h | 16251m | -7.7m/s | -56.3°C | 2.5% | 106hPa | 3.5V | 00:00:00 | 01:54:52 | 00:00:00 | |
| DM0DOS-11 | 2026-09-03 00:11:56 | 50.33689 | 6.20676 | 115° | 49km/h | 16274m | -7.7m/s | -56.5°C | 2.5% | 105.7hPa | 3.5V | 00:00:00 | 01:54:49 | 00:00:00 | |
| BIOWL1-15 | 2026-09-03 00:11:56 | 50.33672 | 6.20732 | 116° | 51km/h | 16251m | -8m/s | -56.3°C | 2.6% | 106.1hPa | 3.5V | 00:00:00 | 00:00:00 | 00:00:00 | |
| DL1XH-west | 2026-09-03 00:11:56 | 50.33678 | 6.20714 | 0° | 0km/h | 16259m | 0m/s | -56.4°C | 2.6% | 105.9hPa | 3.5V | 00:00:00 | 00:00:00 | 00:00:00 | |
| DL1XH1-15 | 2026-09-03 00:11:50 | 50.33731 | 6.20538 | 108° | 53km/h | 16336m | -7.6m/s | -56.9°C | 2.5% | 104.7hPa | 3.5V | 00:00:00 | 01:54:41 | 00:00:00 | |
| DJ8HS-15 | 2026-09-03 00:11:48 | 50.33711 | 6.20607 | 116° | 55km/h | 16305m | -7.7m/s | -56.7°C | 2.5% | 105.1hPa | 3.5V | 00:00:00 | 01:54:45 | 00:00:00 | |
| DM0DOS-11 | 2026-09-03 00:11:46 | 50.33739 | 6.20498 | 101° | 53km/h | 16351m | -7.7m/s | -56.8°C | 2.5% | 104.4hPa | 3.5V | 00:00:00 | 01:54:39 | 00:00:00 | |
| DL1XH-west | 2026-09-03 00:11:46 | 50.33731 | 6.20538 | 0° | 0km/h | 16336m | 0m/s | -56.9°C | 2.6% | 104.7hPa | 3.5V | 00:00:00 | 00:00:00 | 00:00:00 | |
| BIOWL1-15 | 2026-09-03 00:11:46 | 50.33739 | 6.20498 | 102° | 53km/h | 16351m | -8m/s | -56.8°C | 2.6% | 104.4hPa | 3.5V | 00:00:00 | 00:00:00 | 00:00:00 | |
| DL1XH1-15 | 2026-09-03 00:11:38 | 50.33771 | 6.20363 | 119° | 58km/h | 16404m | -7.7m/s | -56.8°C | 2.5% | 103.6hPa | 3.5V | 00:00:00 | 01:54:32 | 00:00:00 | |
| DL1XH-west | 2026-09-03 00:11:36 | 50.33798 | 6.20279 | 0° | 0km/h | 16434m | 0m/s | -56.7°C | 2.6% | 103.1hPa | 3.5V | 00:00:00 | 00:00:00 | 00:00:00 | |
| BIOWL1-15 | 2026-09-03 00:11:35 | 50.33792 | 6.20301 | 116° | 60km/h | 16427m | -7.5m/s | -56.8°C | 2.6% | 103.2hPa | 3.5V | 00:00:00 | 00:00:00 | 00:00:00 | |
| NBG1-10 | 2026-09-03 00:11:34 | 50.33778 | 6.20343 | 118° | 47km/h | 16412m | -7.6m/s | -56.7°C | 2.5% | 103.4hPa | 3.5V | 00:00:00 | 01:54:31 | 00:00:00 | |
| DJ8HS-15 | 2026-09-03 00:11:28 | 50.33818 | 6.20218 | 121° | 47km/h | 16457m | -7.6m/s | -56.7°C | 2.5% | 102.7hPa | 3.5V | 00:00:00 | 01:54:25 | 00:00:00 | |
| DL1XH1-15 | 2026-09-03 00:11:26 | 50.33839 | 6.20167 | 126° | 55km/h | 16480m | -7.6m/s | -56.6°C | 2.5% | 102.4hPa | 3.5V | 00:00:00 | 01:54:22 | 00:00:00 | |
| DM0DOS-11 | 2026-09-03 00:11:25 | 50.33864 | 6.20114 | 124° | 53km/h | 16502m | -7.9m/s | -56.5°C | 2.5% | 102hPa | 3.5V | 00:00:00 | 01:54:19 | 00:00:00 | |
| DL1XH-west | 2026-09-03 00:11:22 | 50.33881 | 6.20075 | 0° | 0km/h | 16518m | 0m/s | -56.5°C | 2.6% | 101.8hPa | 3.5V | 00:00:00 | 00:00:00 | 00:00:00 | |
| BIOWL1-15 | 2026-09-03 00:11:22 | 50.33913 | 6.19993 | 118° | 38km/h | 16558m | -7m/s | -55.9°C | 2.6% | 101.2hPa | 3.5V | 00:00:00 | 00:00:00 | 00:00:00 | |
| DL1XH1-15 | 2026-09-03 00:11:20 | 50.33913 | 6.19993 | 117° | 42km/h | 16558m | -7.6m/s | -55.9°C | 2.5% | 101.2hPa | 3.5V | 00:00:00 | 01:54:12 | 00:00:00 | |
| DL1XH-west | 2026-09-03 00:11:12 | 50.33949 | 6.19907 | 0° | 0km/h | 16602m | 0m/s | -55.6°C | 2.6% | 100.5hPa | 3.5V | 00:00:00 | 00:00:00 | 00:00:00 | |
| BIOWL1-15 | 2026-09-03 00:11:09 | 50.33981 | 6.19828 | 122° | 40km/h | 16644m | -8m/s | -55.5°C | 2.6% | 99.8hPa | 3.5V | 00:00:00 | 00:00:00 | 00:00:00 | |
| DJ8HS-15 | 2026-09-03 00:11:08 | 50.33955 | 6.19890 | 122° | 37km/h | 16611m | -8.1m/s | -55.5°C | 2.5% | 100.3hPa | 3.5V | 00:00:00 | 01:54:05 | 00:00:00 | |
| DL1XH1-15 | 2026-09-03 00:11:06 | 50.33974 | 6.19842 | 123° | 38km/h | 16636m | -8m/s | -55.5°C | 2.5% | 99.9hPa | 3.5V | 00:00:00 | 01:54:02 | 00:00:00 | |
| DB0UT-7 | 2026-09-03 00:11:06 | 50.33974 | 6.19842 | 124° | 38km/h | 16636m | -7.8m/s | -55.5°C | 2.5% | 99.9hPa | 3.5V | 00:00:00 | 01:54:02 | 00:00:00 | |
| DM0DOS-11 | 2026-09-03 00:11:05 | 50.33992 | 6.19802 | 122° | 35km/h | 16661m | -7.6m/s | -55.4°C | 2.5% | 99.6hPa | 3.5V | 00:00:00 | 01:53:59 | 00:00:00 | |
| DL1XH-west | 2026-09-03 00:11:01 | 50.34003 | 6.19764 | 0° | 0km/h | 16684m | 0m/s | -55.5°C | 2.6% | 99.2hPa | 3.5V | 00:00:00 | 00:00:00 | 00:00:00 | |
| DL1XH1-15 | 2026-09-03 00:11:00 | 50.34010 | 6.19710 | 102° | 37km/h | 16714m | -7.9m/s | -55.3°C | 2.5% | 98.8hPa | 3.5V | 00:00:00 | 01:53:52 | 00:00:00 | |
| BIOWL1-15 | 2026-09-03 00:10:57 | 50.34010 | 6.19710 | 102° | 37km/h | 16714m | -8m/s | -55.3°C | 2.6% | 98.8hPa | 3.5V | 00:00:00 | 00:00:00 | 00:00:00 | |
| DM0DOS-11 | 2026-09-03 00:10:54 | 50.34019 | 6.19669 | 118° | 35km/h | 16737m | -8m/s | -55°C | 2.5% | 98.4hPa | 3.5V | 00:00:00 | 01:53:49 | 00:00:00 | |
| DL1XH-west | 2026-09-03 00:10:51 | 50.34033 | 6.19634 | 0° | 0km/h | 16761m | 0m/s | -55°C | 2.6% | 98.1hPa | 3.5V | 00:00:00 | 00:00:00 | 00:00:00 | |
| DL1XH1-15 | 2026-09-03 00:10:49 | 50.34048 | 6.19585 | 106° | 40km/h | 16794m | -7.8m/s | -55.2°C | 2.5% | 97.6hPa | 3.5V | 00:00:00 | 01:53:42 | 00:00:00 | |
| BIOWL1-15 | 2026-09-03 00:10:45 | 50.34056 | 6.19541 | 104° | 42km/h | 16818m | -8m/s | -55.2°C | 2.6% | 97.2hPa | 3.5V | 00:00:00 | 00:00:00 | 00:00:00 | |
| DM0DOS-11 | 2026-09-03 00:10:44 | 50.34056 | 6.19541 | 104° | 42km/h | 16818m | -7.5m/s | -55.2°C | 2.5% | 97.2hPa | 3.5V | 00:00:00 | 01:53:39 | 00:00:00 | |
| DL1XH-west | 2026-09-03 00:10:40 | 50.34064 | 6.19490 | 0° | 0km/h | 16840m | 0m/s | -55.3°C | 2.6% | 96.9hPa | 3.5V | 00:00:00 | 00:00:00 | 00:00:00 | |
| DL1XH1-15 | 2026-09-03 00:10:36 | 50.34074 | 6.19428 | 87° | 37km/h | 16870m | -7.4m/s | -55.4°C | 2.5% | 96.4hPa | 3.5V | 00:00:00 | 01:53:32 | 00:00:00 | |
| DB0UT-7 | 2026-09-03 00:10:35 | 50.34074 | 6.19428 | 88° | 51km/h | 16870m | -7.3m/s | -55.4°C | 2.5% | 96.4hPa | 3.5V | 00:00:00 | 00:00:00 | 00:00:00 | |
| DM0DOS-11 | 2026-09-03 00:10:33 | 50.34072 | 6.19388 | 92° | 42km/h | 16892m | -7.5m/s | -55.5°C | 2.5% | 96.2hPa | 3.5V | 00:00:00 | 01:53:29 | 00:00:00 | |
| BIOWL1-15 | 2026-09-03 00:10:33 | 50.34072 | 6.19388 | 92° | 37km/h | 16892m | -7m/s | -55.5°C | 2.6% | 96.2hPa | 3.5V | 00:00:00 | 00:00:00 | 00:00:00 | |
| DL1XH-west | 2026-09-03 00:10:30 | 50.34077 | 6.19342 | 0° | 0km/h | 16914m | 0m/s | -55.5°C | 2.6% | 95.8hPa | 3.5V | 00:00:00 | 00:00:00 | 00:00:00 | |
| DM0DOS-11 | 2026-09-03 00:10:28 | 50.34096 | 6.19223 | 93° | 49km/h | 16968m | -8m/s | -55.6°C | 2.5% | 95hPa | 3.5V | 00:00:00 | 01:53:19 | 00:00:00 | |
| BIOWL1-15 | 2026-09-03 00:10:21 | 50.34098 | 6.19186 | 97° | 49km/h | 16985m | -8m/s | -55.7°C | 2.6% | 94.8hPa | 3.5V | 00:00:00 | 00:00:00 | 00:00:00 | |
| DL1XH-west | 2026-09-03 00:10:21 | 50.34100 | 6.19166 | 0° | 0km/h | 16993m | 0m/s | -55.7°C | 2.6% | 94.7hPa | 3.5V | 00:00:00 | 00:00:00 | 00:00:00 | |
| DL1XH1-15 | 2026-09-03 00:10:16 | 50.34109 | 6.19089 | 95° | 53km/h | 17023m | -7.6m/s | -55.8°C | 2.5% | 94.2hPa | 3.5V | 00:00:00 | 01:53:12 | 00:00:00 | |
| BIOWL1-15 | 2026-09-03 00:10:13 | 50.34114 | 6.18967 | 102° | 60km/h | 17070m | -7m/s | -55.8°C | 2.6% | 93.6hPa | 3.6V | 00:00:00 | 00:00:00 | 00:00:00 | |
| DL1XH1-15 | 2026-09-03 00:10:10 | 50.34129 | 6.18874 | 100° | 66km/h | 17101m | -7.6m/s | -55.9°C | 2.5% | 93.1hPa | 3.6V | 00:00:00 | 01:53:02 | 00:00:00 | |
| DL1XH-west | 2026-09-03 00:10:09 | 50.34117 | 6.18944 | 0° | 0km/h | 17077m | 0m/s | -55.8°C | 2.6% | 93.5hPa | 3.5V | 00:00:00 | 00:00:00 | 00:00:00 | |
| DJ8HS-15 | 2026-09-03 00:10:08 | 50.34117 | 6.18944 | 105° | 64km/h | 17077m | -7.7m/s | -55.7°C | 2.5% | 93.4hPa | 3.6V | 00:00:00 | 01:53:05 | 00:00:00 | |
| DM0DOS-11 | 2026-09-03 00:10:07 | 50.34137 | 6.18794 | 98° | 66km/h | 17123m | -7.9m/s | -55.7°C | 2.5% | 92.8hPa | 3.6V | 00:00:00 | 01:52:59 | 00:00:00 | |
| BIOWL1-15 | 2026-09-03 00:09:59 | 50.34154 | 6.18621 | 106° | 58km/h | 17180m | -8.5m/s | -55.5°C | 2.6% | 92hPa | 3.6V | 00:00:00 | 00:00:00 | 00:00:00 | |
| DL1XH-west | 2026-09-03 00:09:59 | 50.34150 | 6.18666 | 0° | 0km/h | 17163m | 0m/s | -55.6°C | 2.6% | 92.2hPa | 3.6V | 00:00:00 | 00:00:00 | 00:00:00 | |
| DL1XH1-15 | 2026-09-03 00:09:56 | 50.34154 | 6.18621 | 105° | 62km/h | 17180m | -8.3m/s | -55.5°C | 2.5% | 92hPa | 3.6V | 00:00:00 | 01:52:52 | 00:00:00 | |
| NBG1-10 | 2026-09-03 00:09:55 | 50.34158 | 6.18598 | 107° | 58km/h | 17189m | -8.0m/s | -55.4°C | 2.5% | 91.8hPa | 3.6V | 00:00:00 | 01:52:51 | 00:00:00 | |
| DL1XH1-15 | 2026-09-03 00:09:50 | 50.34208 | 6.18380 | 111° | 58km/h | 17261m | -8m/s | -55.5°C | 2.5% | 90.9hPa | 3.6V | 00:00:00 | 01:52:42 | 00:00:00 | |
| BIOWL1-15 | 2026-09-03 00:09:48 | 50.34197 | 6.18430 | 109° | 66km/h | 17246m | -7.5m/s | -55.5°C | 2.6% | 91.1hPa | 3.6V | 00:00:00 | 00:00:00 | 00:00:00 | |
| GOEST3-10 | 2026-09-03 00:09:41 | 50.34234 | 6.18296 | 122° | 60km/h | 17293m | -7.8m/s | -55.4°C | 2.5% | 90.4hPa | 3.6V | 00:00:00 | 01:52:38 | 00:00:00 | |
| DL1XH1-15 | 2026-09-03 00:09:40 | 50.34283 | 6.18180 | 123° | 62km/h | 17342m | -7.5m/s | -55.3°C | 2.5% | 89.7hPa | 3.6V | 00:00:00 | 01:52:32 | 00:00:00 | |
| BIOWL1-15 | 2026-09-03 00:09:38 | 50.34283 | 6.18180 | 124° | 62km/h | 17342m | -7m/s | -55.3°C | 2.6% | 89.7hPa | 3.6V | 00:00:00 | 00:00:00 | 00:00:00 | |
| DL1XH-west | 2026-09-03 00:09:38 | 50.34274 | 6.18200 | 0° | 0km/h | 17334m | 0m/s | -55.4°C | 2.6% | 89.8hPa | 3.6V | 00:00:00 | 00:00:00 | 00:00:00 | |
| GOEST3-10 | 2026-09-03 00:09:36 | 50.34274 | 6.18200 | 127° | 57km/h | 17334m | -7.7m/s | -55.3°C | 2.5% | 89.8hPa | 3.6V | 00:00:00 | 00:00:00 | 00:00:00 | |
| DB0UT-7 | 2026-09-03 00:09:35 | 50.34283 | 6.18180 | 124° | 53km/h | 17342m | -7.5m/s | -55.3°C | 2.5% | 89.7hPa | 3.6V | 00:00:00 | 00:00:00 | 00:00:00 | |
| DB0NH | 2026-09-03 00:09:34 | 50.34292 | 6.18160 | 123° | 53km/h | 17349m | -7.6m/s | -55.3°C | 2.5% | 89.6hPa | 3.6V | 00:00:00 | 01:52:31 | 00:00:00 | |
| DL1XH1-15 | 2026-09-03 00:09:30 | 50.34382 | 6.17969 | 130° | 55km/h | 17425m | -8.3m/s | -54.8°C | 2.5% | 88.6hPa | 3.6V | 00:00:00 | 01:52:21 | 00:00:00 | |
| DL1XH-west | 2026-09-03 00:09:27 | 50.34373 | 6.17984 | 0° | 0km/h | 17417m | 0m/s | -54.8°C | 2.6% | 88.7hPa | 3.6V | 00:00:00 | 00:00:00 | 00:00:00 | |
| DM0DOS-11 | 2026-09-03 00:09:26 | 50.34400 | 6.17936 | 126° | 57km/h | 17443m | -7.7m/s | -54.6°C | 2.5% | 88.4hPa | 3.6V | 00:00:00 | 01:52:19 | 00:00:00 | |
| BIOWL1-15 | 2026-09-03 00:09:25 | 50.34408 | 6.17918 | 126° | 58km/h | 17451m | -8m/s | -54.6°C | 2.6% | 88.3hPa | 3.6V | 00:00:00 | 00:00:00 | 00:00:00 | |
| NBG1-10 | 2026-09-03 00:09:21 | 50.34408 | 6.17918 | 129° | 46km/h | 17451m | -8.2m/s | -54.5°C | 2.5% | 88.2hPa | 3.6V | 00:00:00 | 01:52:18 | 00:00:00 | |
| DL1XH1-15 | 2026-09-03 00:09:19 | 50.34461 | 6.17810 | 131° | 47km/h | 17495m | -8.2m/s | -54.7°C | 2.5% | 87.7hPa | 3.6V | 00:00:00 | 01:52:12 | 00:00:00 | |
| DL1XH-west | 2026-09-03 00:09:18 | 50.34461 | 6.17810 | 0° | 0km/h | 17495m | 0m/s | -54.7°C | 2.6% | 87.7hPa | 3.6V | 00:00:00 | 00:00:00 | 00:00:00 | |
| BIOWL1-15 | 2026-09-03 00:09:14 | 50.34476 | 6.17783 | 130° | 44km/h | 17511m | -8m/s | -54.8°C | 2.6% | 87.5hPa | 3.6V | 00:00:00 | 00:00:00 | 00:00:00 | |
| DM0DOS-11 | 2026-09-03 00:09:13 | 50.34484 | 6.17769 | 130° | 49km/h | 17519m | -8.4m/s | -54.9°C | 2.5% | 87.4hPa | 3.6V | 00:00:00 | 01:52:09 | 00:00:00 | |
| DJ8HS-15 | 2026-09-03 00:09:08 | 50.34514 | 6.17706 | 129° | 46km/h | 17553m | -8.1m/s | -55.0°C | 2.5% | 86.9hPa | 3.6V | 00:00:00 | 01:52:05 | 00:00:00 | |
| DL1XH1-15 | 2026-09-03 00:09:06 | 50.34539 | 6.17661 | 136° | 44km/h | 17577m | -8.3m/s | -55.2°C | 2.5% | 86.6hPa | 3.6V | 00:00:00 | 01:52:02 | 00:00:00 | |
| BIOWL1-15 | 2026-09-03 00:09:06 | 50.34574 | 6.17597 | 117° | 44km/h | 17619m | -8m/s | -55.4°C | 2.6% | 86hPa | 3.6V | 00:00:00 | 00:00:00 | 00:00:00 | |
| DL1XH-west | 2026-09-03 00:09:05 | 50.34548 | 6.17648 | 0° | 0km/h | 17585m | 0m/s | -55.2°C | 2.6% | 86.5hPa | 3.6V | 00:00:00 | 00:00:00 | 00:00:00 | |
| DB0UT-7 | 2026-09-03 00:09:05 | 50.34539 | 6.17660 | 137° | 46km/h | 17577m | -8.2m/s | -55.2°C | 2.5% | 86.5hPa | 3.6V | 00:00:00 | 01:52:02 | 00:00:00 | |
| DB0NH | 2026-09-03 00:09:04 | 50.34548 | 6.17648 | 134° | 46km/h | 17585m | -8.3m/s | -55.2°C | 2.5% | 86.4hPa | 3.6V | 00:00:00 | 01:52:01 | 00:00:00 | |
| GOEST3-10 | 2026-09-03 00:09:03 | 50.34555 | 6.17636 | 128° | 46km/h | 17593m | -8.2m/s | -55.2°C | 2.5% | 86.3hPa | 3.6V | 00:00:00 | 01:52:00 | 00:00:00 | |
| DL1XH1-15 | 2026-09-03 00:08:59 | 50.34597 | 6.17513 | 111° | 44km/h | 17660m | -8.5m/s | -55.3°C | 2.5% | 85.5hPa | 3.6V | 00:00:00 | 01:51:52 | 00:00:00 | |
| DM0DOS-11 | 2026-09-03 00:08:56 | 50.34610 | 6.17466 | 113° | 46km/h | 17687m | -8.1m/s | -55°C | 2.5% | 85.2hPa | 3.6V | 00:00:00 | 01:51:49 | 00:00:00 | |
| DL1XH-west | 2026-09-03 00:08:55 | 50.34605 | 6.17481 | 0° | 0km/h | 17677m | 0m/s | -55.1°C | 2.6% | 85.3hPa | 3.6V | 00:00:00 | 00:00:00 | 00:00:00 | |
| BIOWL1-15 | 2026-09-03 00:08:52 | 50.34636 | 6.17344 | 104° | 46km/h | 17744m | -8m/s | -54.6°C | 2.6% | 84.4hPa | 3.6V | 00:00:00 | 00:00:00 | 00:00:00 | |
| DJ8HS-15 | 2026-09-03 00:08:48 | 50.34626 | 6.17397 | 107° | 46km/h | 17720m | -7.8m/s | -54.6°C | 2.5% | 84.7hPa | 3.6V | 00:00:00 | 01:51:45 | 00:00:00 | |
| DL1XH1-15 | 2026-09-03 00:08:47 | 50.34636 | 6.17344 | 103° | 46km/h | 17744m | -7.8m/s | -54.6°C | 2.5% | 84.4hPa | 3.6V | 00:00:00 | 01:51:42 | 00:00:00 | |
| DL1XH-west | 2026-09-03 00:08:45 | 50.34644 | 6.17292 | 0° | 0km/h | 17767m | 0m/s | -54.8°C | 2.6% | 84.2hPa | 3.6V | 00:00:00 | 00:00:00 | 00:00:00 | |
| DM0DOS-11 | 2026-09-03 00:08:45 | 50.34644 | 6.17292 | 97° | 46km/h | 17767m | -7.9m/s | -54.8°C | 2.5% | 84.2hPa | 3.6V | 00:00:00 | 01:51:39 | 00:00:00 | |
| GOEST3-10 | 2026-09-03 00:08:42 | 50.34643 | 6.17292 | 97° | 46km/h | 17767m | -7.9m/s | -54.7°C | 2.5% | 84.1hPa | 3.6V | 00:00:00 | 01:51:39 | 00:00:00 | |
| DL1XH1-15 | 2026-09-03 00:08:40 | 50.34654 | 6.17163 | 102° | 47km/h | 17823m | -7.9m/s | -54.9°C | 2.5% | 83.4hPa | 3.6V | 00:00:00 | 01:51:32 | 00:00:00 | |
| BIOWL1-15 | 2026-09-03 00:08:36 | 50.34662 | 6.17107 | 101° | 47km/h | 17846m | -8m/s | -54.8°C | 2.6% | 83.2hPa | 3.6V | 00:00:00 | 00:00:00 | 00:00:00 | |
| GOEST3-10 | 2026-09-03 00:08:36 | 50.34654 | 6.17163 | 103° | 44km/h | 17823m | -7.9m/s | -54.8°C | 2.5% | 83.4hPa | 3.6V | 00:00:00 | 00:00:00 | 00:00:00 | |
| DB0UT-7 | 2026-09-03 00:08:35 | 50.34654 | 6.17163 | 103° | 42km/h | 17823m | -7.9m/s | -54.8°C | 2.5% | 83.4hPa | 3.6V | 00:00:00 | 00:00:00 | 00:00:00 | |
| DM0DOS-11 | 2026-09-03 00:08:34 | 50.34662 | 6.17107 | 101° | 46km/h | 17846m | -8.4m/s | -54.8°C | 2.5% | 83.2hPa | 3.6V | 00:00:00 | 01:51:29 | 00:00:00 | |
| DL1XH-west | 2026-09-03 00:08:33 | 50.34664 | 6.17089 | 0° | 0km/h | 17854m | 0m/s | -54.7°C | 2.6% | 83hPa | 3.6V | 00:00:00 | 00:00:00 | 00:00:00 | |
| DL1XH1-15 | 2026-09-03 00:08:29 | 50.34665 | 6.16981 | 98° | 44km/h | 17907m | -8.7m/s | -54.1°C | 2.5% | 82.4hPa | 3.6V | 00:00:00 | 01:51:22 | 00:00:00 | |
| DJ8HS-15 | 2026-09-03 00:08:28 | 50.34666 | 6.17034 | 87° | 42km/h | 17879m | -9.0m/s | -54.4°C | 2.5% | 82.7hPa | 3.6V | 00:00:00 | 01:51:25 | 00:00:00 | |
| DM0DOS-11 | 2026-09-03 00:08:24 | 50.34674 | 6.16937 | 123° | 49km/h | 17933m | -8.7m/s | -54.1°C | 2.5% | 82hPa | 3.6V | 00:00:00 | 01:51:19 | 00:00:00 | |
| DL1XH-west | 2026-09-03 00:08:23 | 50.34681 | 6.16921 | 0° | 0km/h | 17941m | 0m/s | -54.2°C | 2.6% | 81.9hPa | 3.6V | 00:00:00 | 00:00:00 | 00:00:00 | |
| BIOWL1-15 | 2026-09-03 00:08:22 | 50.34704 | 6.16842 | 95° | 57km/h | 17975m | -8m/s | -54.3°C | 2.7% | 81.5hPa | 3.6V | 00:00:00 | 00:00:00 | 00:00:00 | |
| DL1XH1-15 | 2026-09-03 00:08:16 | 50.34705 | 6.16799 | 86° | 35km/h | 17994m | -9.1m/s | -54.3°C | 2.7% | 81.3hPa | 3.6V | 00:00:00 | 01:51:12 | 00:00:00 | |
| DM0DOS-11 | 2026-09-03 00:08:13 | 50.34704 | 6.16755 | 111° | 29km/h | 18021m | -9.1m/s | -54.5°C | 2.7% | 80.9hPa | 3.6V | 00:00:00 | 01:51:09 | 00:00:00 | |
| DL1XH-west | 2026-09-03 00:08:12 | 50.34710 | 6.16737 | 0° | 0km/h | 18040m | 0m/s | -54.6°C | 2.7% | 80.7hPa | 3.6V | 00:00:00 | 00:00:00 | 00:00:00 | |
| BIOWL1-15 | 2026-09-03 00:08:11 | 50.34714 | 6.16728 | 127° | 33km/h | 18049m | -8m/s | -54.6°C | 2.7% | 80.6hPa | 3.6V | 00:00:00 | 00:00:00 | 00:00:00 | |
| DL1XH1-15 | 2026-09-03 00:08:09 | 50.34734 | 6.16676 | 117° | 33km/h | 18083m | -9.3m/s | -54.8°C | 2.7% | 80.2hPa | 3.6V | 00:00:00 | 01:51:02 | 00:00:00 | |
| DJ8HS-15 | 2026-09-03 00:08:08 | 50.34719 | 6.16717 | 126° | 27km/h | 18057m | -8.9m/s | -54.6°C | 2.7% | 80.4hPa | 3.6V | 00:00:00 | 01:51:05 | 00:00:00 | |
| DB0UT-7 | 2026-09-03 00:08:05 | 50.34734 | 6.16676 | 118° | 26km/h | 18083m | -9.2m/s | -54.7°C | 2.7% | 80.1hPa | 3.6V | 00:00:00 | 01:51:02 | 00:00:00 | |
| DB0NH | 2026-09-03 00:08:04 | 50.34739 | 6.16661 | 113° | 26km/h | 18093m | -9.0m/s | -54.8°C | 2.7% | 80.0hPa | 3.6V | 00:00:00 | 01:51:01 | 00:00:00 | |
| DM0DOS-11 | 2026-09-03 00:08:03 | 50.34747 | 6.16634 | 111° | 26km/h | 18112m | -8.6m/s | -55°C | 2.7% | 79.8hPa | 3.6V | 00:00:00 | 01:50:59 | 00:00:00 | |
| DL1XH-west | 2026-09-03 00:08:02 | 50.34750 | 6.16624 | 0° | 0km/h | 18120m | 0m/s | -55°C | 2.7% | 79.7hPa | 3.6V | 00:00:00 | 00:00:00 | 00:00:00 | |
| BIOWL1-15 | 2026-09-03 00:08:00 | 50.34771 | 6.16593 | 140° | 29km/h | 18165m | -8m/s | -55°C | 2.7% | 79.2hPa | 3.6V | 00:00:00 | 00:00:00 | 00:00:00 | |
| DL1XH1-15 | 2026-09-03 00:07:56 | 50.34776 | 6.16585 | 137° | 29km/h | 18173m | -8.3m/s | -54.9°C | 2.7% | 79hPa | 3.6V | 00:00:00 | 01:50:52 | 00:00:00 | |
| DL1XH-west | 2026-09-03 00:07:52 | 50.34805 | 6.16545 | 0° | 0km/h | 18215m | 0m/s | -55°C | 2.6% | 78.5hPa | 3.6V | 00:00:00 | 00:00:00 | 00:00:00 | |
| DL1XH1-15 | 2026-09-03 00:07:50 | 50.34825 | 6.16524 | 122° | 26km/h | 18258m | -8.8m/s | -55.1°C | 2.7% | 78hPa | 3.6V | 00:00:00 | 01:50:42 | 00:00:00 | |
| BIOWL1-15 | 2026-09-03 00:07:47 | 50.34834 | 6.16494 | 105° | 29km/h | 18284m | -9m/s | -55.3°C | 2.7% | 77.7hPa | 3.6V | 00:00:00 | 00:00:00 | 00:00:00 | |
| DL1XH-west | 2026-09-03 00:07:41 | 50.34839 | 6.16462 | 0° | 0km/h | 18310m | 0m/s | -55.5°C | 2.7% | 77.4hPa | 3.6V | 00:00:00 | 00:00:00 | 00:00:00 | |
| BIOWL1-15 | 2026-09-03 00:07:36 | 50.34843 | 6.16436 | 111° | 22km/h | 18345m | -9m/s | -55.7°C | 2.7% | 77hPa | 3.6V | 00:00:00 | 00:00:00 | 00:00:00 | |
| DL1XH-west | 2026-09-03 00:07:31 | 50.34860 | 6.16365 | 0° | 0km/h | 18399m | 0m/s | -55.9°C | 2.7% | 76.4hPa | 3.6V | 00:00:00 | 00:00:00 | 00:00:00 | |
| BIOWL1-15 | 2026-09-03 00:07:26 | 50.34863 | 6.16308 | 90° | 33km/h | 18434m | -9m/s | -55.8°C | 2.7% | 76hPa | 3.6V | 00:00:00 | 00:00:00 | 00:00:00 | |
| DM0DOS-11 | 2026-09-03 00:07:23 | 50.34866 | 6.16271 | 101° | 27km/h | 18461m | -8.6m/s | -55.6°C | 2.7% | 75.7hPa | 3.6V | 00:00:00 | 01:50:19 | 00:00:00 | |
| DL1XH-west | 2026-09-03 00:07:20 | 50.34872 | 6.16228 | 0° | 0km/h | 18496m | 0m/s | -55.5°C | 2.7% | 75.3hPa | 3.6V | 00:00:00 | 00:00:00 | 00:00:00 | |
| GOEST3-10 | 2026-09-03 00:07:19 | 50.34872 | 6.16228 | 104° | 26km/h | 18496m | -8.6m/s | -55.5°C | 2.7% | 75.2hPa | 3.6V | 00:00:00 | 01:50:15 | 00:00:00 | |
| DM0DOS-11 | 2026-09-03 00:07:17 | 50.34880 | 6.16170 | 100° | 29km/h | 18547m | -8.9m/s | -55.6°C | 2.7% | 74.7hPa | 3.6V | 00:00:00 | 01:50:09 | 00:00:00 | |
| BIOWL1-15 | 2026-09-03 00:07:16 | 50.34877 | 6.16199 | 104° | 26km/h | 18522m | -9m/s | -55.5°C | 2.7% | 75hPa | 3.6V | 00:00:00 | 00:00:00 | 00:00:00 | |
| DL1XH-west | 2026-09-03 00:07:10 | 50.34884 | 6.16126 | 0° | 0km/h | 18583m | 0m/s | -55.6°C | 2.7% | 74.3hPa | 3.6V | 00:00:00 | 00:00:00 | 00:00:00 | |
| DL1XH1-15 | 2026-09-03 00:07:09 | 50.34885 | 6.16089 | 87° | 35km/h | 18609m | -8.6m/s | -55.5°C | 2.7% | 74hPa | 3.7V | 00:00:00 | 01:50:02 | 00:00:00 | |
| BIOWL1-15 | 2026-09-03 00:07:06 | 50.34883 | 6.16049 | 90° | 38km/h | 18634m | -8.5m/s | -55.5°C | 2.7% | 73.7hPa | 3.7V | 00:00:00 | 00:00:00 | 00:00:00 | |
| DL1XH-west | 2026-09-03 00:07:00 | 50.34885 | 6.15988 | 0° | 0km/h | 18672m | 0m/s | -55.5°C | 2.7% | 73.3hPa | 3.7V | 00:00:00 | 00:00:00 | 00:00:00 | |
| DL1XH1-15 | 2026-09-03 00:06:56 | 50.34887 | 6.15946 | 90° | 38km/h | 18699m | -8.6m/s | -55.5°C | 2.7% | 73hPa | 3.7V | 00:00:00 | 01:49:52 | 00:00:00 | |
| BIOWL1-15 | 2026-09-03 00:06:51 | 50.34903 | 6.15816 | 95° | 51km/h | 18768m | -8m/s | -55.9°C | 2.7% | 72.2hPa | 3.7V | 00:00:00 | 00:00:00 | 00:00:00 | |
| DL1XH1-15 | 2026-09-03 00:06:49 | 50.34904 | 6.15776 | 86° | 44km/h | 18785m | -9.6m/s | -55.9°C | 2.7% | 72hPa | 3.7V | 00:00:00 | 01:49:42 | 00:00:00 | |
| DL1XH-west | 2026-09-03 00:06:49 | 50.34904 | 6.15776 | 0° | 0km/h | 18785m | 0m/s | -55.9°C | 2.7% | 72hPa | 3.7V | 00:00:00 | 00:00:00 | 00:00:00 | |
| GOEST3-10 | 2026-09-03 00:06:48 | 50.34904 | 6.15795 | 91° | 44km/h | 18776m | -9.3m/s | -55.9°C | 2.7% | 72.1hPa | 3.7V | 00:00:00 | 01:49:43 | 00:00:00 | |
| DM0DOS-11 | 2026-09-03 00:06:44 | 50.34903 | 6.15723 | 101° | 44km/h | 18814m | -9.3m/s | -55.6°C | 2.7% | 71.7hPa | 3.7V | 00:00:00 | 01:49:39 | 00:00:00 | |
| BIOWL1-15 | 2026-09-03 00:06:39 | 50.34925 | 6.15624 | 109° | 37km/h | 18870m | -9m/s | -55.3°C | 2.7% | 71.1hPa | 3.7V | 00:00:00 | 00:00:00 | 00:00:00 | |
| DL1XH-west | 2026-09-03 00:06:38 | 50.34928 | 6.15610 | 0° | 0km/h | 18879m | 0m/s | -55.3°C | 2.7% | 71hPa | 3.7V | 00:00:00 | 00:00:00 | 00:00:00 | |
| DL1XH1-15 | 2026-09-03 00:06:36 | 50.34928 | 6.15610 | 112° | 37km/h | 18879m | -9.2m/s | -55.3°C | 2.7% | 71hPa | 3.7V | 00:00:00 | 01:49:32 | 00:00:00 | |
| BIOWL1-15 | 2026-09-03 00:06:27 | 50.34958 | 6.15486 | 126° | 31km/h | 18962m | -10m/s | -55°C | 2.7% | 70.1hPa | 3.7V | 00:00:00 | 00:00:00 | 00:00:00 | |
| DL1XH1-15 | 2026-09-03 00:06:26 | 50.34963 | 6.15476 | 132° | 33km/h | 18972m | -9.2m/s | -55°C | 2.7% | 70hPa | 3.7V | 00:00:00 | 01:49:22 | 00:00:00 | |
| DL1XH-west | 2026-09-03 00:06:25 | 50.34968 | 6.15467 | 0° | 0km/h | 18981m | 0m/s | -54.9°C | 2.7% | 69.9hPa | 3.7V | 00:00:00 | 00:00:00 | 00:00:00 | |
| DM0DOS-11 | 2026-09-03 00:06:24 | 50.34977 | 6.15448 | 122° | 35km/h | 19000m | -9.2m/s | -54.8°C | 2.7% | 69.7hPa | 3.7V | 00:00:00 | 01:49:19 | 00:00:00 | |
| GOEST3-10 | 2026-09-03 00:06:23 | 50.34973 | 6.15458 | 125° | 37km/h | 18990m | -9.2m/s | -54.8°C | 2.7% | 69.8hPa | 3.7V | 00:00:00 | 01:49:20 | 00:00:00 | |
| DL1XH1-15 | 2026-09-03 00:06:19 | 50.35001 | 6.15357 | 116° | 40km/h | 19064m | -9.4m/s | -54.9°C | 2.7% | 69hPa | 3.7V | 00:00:00 | 01:49:12 | 00:00:00 | |
| BIOWL1-15 | 2026-09-03 00:06:16 | 50.35001 | 6.15357 | 121° | 42km/h | 19064m | -9.7m/s | -54.9°C | 2.7% | 69hPa | 3.7V | 00:00:00 | 00:00:00 | 00:00:00 | |
| DL1XH-west | 2026-09-03 00:06:15 | 50.35012 | 6.15328 | 0° | 0km/h | 19083m | 0m/s | -54.8°C | 2.7% | 68.9hPa | 3.7V | 00:00:00 | 00:00:00 | 00:00:00 | |
| DM0DOS-11 | 2026-09-03 00:06:14 | 50.35018 | 6.15314 | 126° | 38km/h | 19093m | -9.1m/s | -54.7°C | 2.7% | 68.8hPa | 3.7V | 00:00:00 | 01:49:09 | 00:00:00 | |
| BIOWL1-15 | 2026-09-03 00:06:07 | 50.35076 | 6.15181 | 126° | 38km/h | 19194m | -10m/s | -54.7°C | 2.8% | 67.8hPa | 3.7V | 00:00:00 | 00:00:00 | 00:00:00 | |
| DL1XH1-15 | 2026-09-03 00:06:06 | 50.35055 | 6.15231 | 118° | 37km/h | 19156m | -9.6m/s | -54.7°C | 2.7% | 68.1hPa | 3.7V | 00:00:00 | 01:49:02 | 00:00:00 | |
| DL1XH-west | 2026-09-03 00:06:04 | 50.35070 | 6.15194 | 0° | 0km/h | 19184m | 0m/s | -54.7°C | 2.7% | 67.8hPa | 3.7V | 00:00:00 | 00:00:00 | 00:00:00 | |
| DB0NH | 2026-09-03 00:06:04 | 50.35059 | 6.15219 | 125° | 38km/h | 19167m | -9.1m/s | -54.6°C | 2.7% | 68.0hPa | 3.7V | 00:00:00 | 01:49:01 | 00:00:00 | |
| DM0DOS-11 | 2026-09-03 00:06:03 | 50.35070 | 6.15194 | 124° | 37km/h | 19184m | -9.7m/s | -54.7°C | 2.7% | 67.8hPa | 3.7V | 00:00:00 | 01:48:59 | 00:00:00 | |
| DL1XH1-15 | 2026-09-03 00:05:59 | 50.35101 | 6.15112 | 117° | 37km/h | 19251m | -9.9m/s | -54.7°C | 2.7% | 67.2hPa | 3.7V | 00:00:00 | 01:48:52 | 00:00:00 | |
| GOEST3-10 | 2026-09-03 00:05:58 | 50.35091 | 6.15145 | 117° | 33km/h | 19223m | -9.4m/s | -54.6°C | 2.7% | 67.4hPa | 3.7V | 00:00:00 | 00:00:00 | 00:00:00 | |
| DM0DOS-11 | 2026-09-03 00:05:53 | 50.35115 | 6.15074 | 118° | 35km/h | 19282m | -9.3m/s | -54.6°C | 2.7% | 66.9hPa | 3.7V | 00:00:00 | 01:48:49 | 00:00:00 | |
| DL1XH-west | 2026-09-03 00:05:53 | 50.35119 | 6.15061 | 0° | 0km/h | 19291m | 0m/s | -54.6°C | 2.8% | 66.8hPa | 3.7V | 00:00:00 | 00:00:00 | 00:00:00 | |
| BIOWL1-15 | 2026-09-03 00:05:51 | 50.35162 | 6.14927 | 114° | 40km/h | 19385m | -9m/s | -54.6°C | 2.7% | 65.8hPa | 3.7V | 00:00:00 | 00:00:00 | 00:00:00 | |
| DJ8HS-15 | 2026-09-03 00:05:48 | 50.35132 | 6.15030 | 120° | 44km/h | 19319m | -9.5m/s | -54.7°C | 2.7% | 66.5hPa | 3.7V | 00:00:00 | 01:48:45 | 00:00:00 | |
| DL1XH1-15 | 2026-09-03 00:05:46 | 50.35146 | 6.14991 | 112° | 42km/h | 19348m | -9.2m/s | -54.8°C | 2.7% | 66.2hPa | 3.7V | 00:00:00 | 01:48:42 | 00:00:00 | |
| DM0DOS-11 | 2026-09-03 00:05:43 | 50.35158 | 6.14942 | 111° | 40km/h | 19375m | -9.6m/s | -54.7°C | 2.7% | 65.9hPa | 3.7V | 00:00:00 | 01:48:39 | 00:00:00 | |
| DL1XH-west | 2026-09-03 00:05:42 | 50.35166 | 6.14912 | 0° | 0km/h | 19394m | 0m/s | -54.6°C | 2.7% | 65.7hPa | 3.7V | 00:00:00 | 00:00:00 | 00:00:00 | |
| DL1XH1-15 | 2026-09-03 00:05:40 | 50.35186 | 6.14844 | 113° | 46km/h | 19441m | -9.8m/s | -54°C | 2.7% | 65.3hPa | 3.7V | 00:00:00 | 01:48:32 | 00:00:00 | |
| BIOWL1-15 | 2026-09-03 00:05:39 | 50.35183 | 6.14858 | 114° | 40km/h | 19432m | -9m/s | -54.1°C | 2.8% | 65.4hPa | 3.7V | 00:00:00 | 00:00:00 | 00:00:00 | |
| DB0UT-7 | 2026-09-03 00:05:35 | 50.35186 | 6.14844 | 114° | 40km/h | 19441m | -9.7m/s | -54.0°C | 2.7% | 65.2hPa | 3.7V | 00:00:00 | 00:00:00 | 00:00:00 | |
| DB0NH | 2026-09-03 00:05:34 | 50.35190 | 6.14829 | 113° | 37km/h | 19450m | -10.0m/s | -54.0°C | 2.7% | 65.1hPa | 3.7V | 00:00:00 | 01:48:31 | 00:00:00 | |
| DM0DOS-11 | 2026-09-03 00:05:33 | 50.35199 | 6.14796 | 110° | 49km/h | 19470m | -10m/s | -54°C | 2.7% | 65hPa | 3.7V | 00:00:00 | 01:48:29 | 00:00:00 | |
| DL1XH-west | 2026-09-03 00:05:31 | 50.35207 | 6.14760 | 0° | 0km/h | 19489m | 0m/s | -54°C | 2.8% | 64.8hPa | 3.7V | 00:00:00 | 00:00:00 | 00:00:00 | |
| DJ8HS-15 | 2026-09-03 00:05:28 | 50.35214 | 6.14720 | 103° | 38km/h | 19511m | -9.9m/s | -54.0°C | 2.7% | 64.5hPa | 3.7V | 00:00:00 | 01:48:25 | 00:00:00 | |
| DL1XH1-15 | 2026-09-03 00:05:26 | 50.35222 | 6.14665 | 106° | 46km/h | 19540m | -10.3m/s | -54.1°C | 2.7% | 64.3hPa | 3.7V | 00:00:00 | 01:48:22 | 00:00:00 | |
| BIOWL1-15 | 2026-09-03 00:05:24 | 50.35348 | 6.14369 | 113° | 24km/h | 19798m | -9m/s | -53.4°C | 2.8% | 61.9hPa | 3.7V | 00:00:00 | 00:00:00 | 00:00:00 | |
| DM0DOS-11 | 2026-09-03 00:05:23 | 50.35235 | 6.14613 | 121° | 46km/h | 19572m | -9.9m/s | -53.8°C | 2.7% | 64hPa | 3.7V | 00:00:00 | 01:48:19 | 00:00:00 | |
| DL1XH-west | 2026-09-03 00:05:21 | 50.35326 | 6.14417 | 0° | 0km/h | 19735m | 0m/s | -53.1°C | 2.8% | 62.5hPa | 3.7V | 00:00:00 | 00:00:00 | 00:00:00 | |
| GOEST3-10 | 2026-09-03 00:05:19 | 50.35256 | 6.14566 | 132° | 29km/h | 19601m | -10.1m/s | -53.5°C | 2.7% | 63.7hPa | 3.7V | 00:00:00 | 00:00:00 | 00:00:00 | |
| DM0DOS-11 | 2026-09-03 00:05:18 | 50.35303 | 6.14477 | 122° | 29km/h | 19674m | -9.9m/s | -53.3°C | 2.7% | 63hPa | 3.7V | 00:00:00 | 01:48:09 | 00:00:00 | |
| BIOWL1-15 | 2026-09-03 00:05:17 | 50.35350 | 6.14361 | 109° | 24km/h | 19807m | -11m/s | -53.5°C | 2.8% | 61.8hPa | 3.7V | 00:00:00 | 00:00:00 | 00:00:00 | |
| GOEST3-10 | 2026-09-03 00:05:09 | 50.35316 | 6.14445 | 116° | 26km/h | 19702m | -10.3m/s | -53.1°C | 2.7% | 62.7hPa | 3.7V | 00:00:00 | 01:48:06 | 00:00:00 | |
| DM0DOS-11 | 2026-09-03 00:05:08 | 50.35341 | 6.14386 | 123° | 24km/h | 19778m | -9.9m/s | -53.3°C | 2.7% | 62hPa | 3.7V | 00:00:00 | 01:47:59 | 00:00:00 | |
| BIOWL1-15 | 2026-09-03 00:05:01 | 50.35352 | 6.14352 | 102° | 22km/h | 19818m | -9.5m/s | -53.5°C | 2.8% | 61.7hPa | 3.7V | 00:00:00 | 00:00:00 | 00:00:00 | |
| GOEST3-10 | 2026-09-03 00:05:00 | 50.35348 | 6.14369 | 113° | 24km/h | 19798m | -9.8m/s | -53.4°C | 2.7% | 61.8hPa | 3.7V | 00:00:00 | 00:00:00 | 00:00:00 | |
| DL1XH1-15 | 2026-09-03 00:04:59 | 50.35355 | 6.14326 | 103° | 24km/h | 19847m | -10.2m/s | -53.5°C | 2.7% | 61.4hPa | 3.7V | 00:00:00 | 01:47:52 | 00:00:00 | |
| DL1XH-west | 2026-09-03 00:04:57 | 50.35354 | 6.14334 | 0° | 0km/h | 19837m | 0m/s | -53.5°C | 2.8% | 61.5hPa | 3.7V | 00:00:00 | 00:00:00 | 00:00:00 | |
| BIOWL1-15 | 2026-09-03 00:04:50 | 50.35364 | 6.14260 | 99° | 38km/h | 19917m | -10.5m/s | -53.7°C | 2.8% | 60.8hPa | 3.7V | 00:00:00 | 00:00:00 | 00:00:00 | |
| DJ8HS-15 | 2026-09-03 00:04:49 | 50.35364 | 6.14260 | 100° | 29km/h | 19917m | -10.1m/s | -53.6°C | 2.7% | 60.7hPa | 3.7V | 00:00:00 | 01:47:45 | 00:00:00 | |
| DM0DOS-11 | 2026-09-03 00:04:48 | 50.35376 | 6.14170 | 107° | 31km/h | 19998m | -10.1m/s | -53.9°C | 2.8% | 60hPa | 3.7V | 00:00:00 | 01:47:37 | 00:00:00 | |
| DL1XH-west | 2026-09-03 00:04:48 | 50.35373 | 6.14187 | 0° | 0km/h | 19978m | 0m/s | -53.9°C | 2.8% | 60.2hPa | 3.7V | 00:00:00 | 00:00:00 | 00:00:00 | |
| DL1XH1-15 | 2026-09-03 00:04:47 | 50.35369 | 6.14217 | 98° | 27km/h | 19947m | -10.2m/s | -53.8°C | 2.7% | 60.5hPa | 3.7V | 00:00:00 | 01:47:42 | 00:00:00 | |
| DO3MHA-12 | 2026-09-03 00:04:45 | 50.35370 | 6.14206 | 104° | 29km/h | 19957m | -10.1m/s | -53.8°C | 2.7% | 60.4hPa | 3.7V | 00:00:00 | 01:47:41 | 00:00:00 | |
| DL1XH1-15 | 2026-09-03 00:04:41 | 50.35385 | 6.14104 | 103° | 27km/h | 20049m | -10.2m/s | -53.6°C | 2.8% | 59.6hPa | 3.7V | 00:00:00 | 01:47:32 | 00:00:00 | |
| BIOWL1-15 | 2026-09-03 00:04:40 | 50.35385 | 6.14104 | 104° | 31km/h | 20049m | -11m/s | -53.7°C | 2.9% | 59.6hPa | 3.7V | 00:00:00 | 00:00:00 | 00:00:00 | |
| DL1XH-west | 2026-09-03 00:04:36 | 50.35387 | 6.14091 | 0° | 0km/h | 20060m | 0m/s | -53.7°C | 2.8% | 59.5hPa | 3.7V | 00:00:00 | 00:00:00 | 00:00:00 | |
| DB0UT-7 | 2026-09-03 00:04:36 | 50.35385 | 6.14103 | 104° | 35km/h | 20049m | -10.1m/s | -53.6°C | 2.8% | 59.5hPa | 3.7V | 00:00:00 | 00:00:00 | 00:00:00 | |
| DM0DOS-11 | 2026-09-03 00:04:34 | 50.35390 | 6.14073 | 114° | 27km/h | 20079m | -10.1m/s | -53.7°C | 2.7% | 59.3hPa | 3.7V | 00:00:00 | 01:47:29 | 00:00:00 | |
| BIOWL1-15 | 2026-09-03 00:04:29 | 50.35416 | 6.13948 | 104° | 38km/h | 20180m | -9m/s | -54°C | 2.9% | 58.4hPa | 3.7V | 00:00:00 | 00:00:00 | 00:00:00 | |
| DL1XH1-15 | 2026-09-03 00:04:26 | 50.35410 | 6.13996 | 102° | 38km/h | 20149m | -10.2m/s | -54°C | 2.8% | 58.7hPa | 3.7V | 00:00:00 | 01:47:22 | 00:00:00 | |
| DL1XH-west | 2026-09-03 00:04:26 | 50.35413 | 6.13980 | 0° | 0km/h | 20159m | 0m/s | -54°C | 2.8% | 58.6hPa | 3.7V | 00:00:00 | 00:00:00 | 00:00:00 | |
| GOEST3-10 | 2026-09-03 00:04:21 | 50.35418 | 6.13934 | 103° | 37km/h | 20189m | -10.4m/s | -53.9°C | 2.8% | 58.3hPa | 3.7V | 00:00:00 | 01:47:18 | 00:00:00 | |
| DL1XH1-15 | 2026-09-03 00:04:20 | 50.35430 | 6.13853 | 108° | 38km/h | 20253m | -10.3m/s | -53.3°C | 2.8% | 57.8hPa | 3.7V | 00:00:00 | 01:47:12 | 00:00:00 | |
| DL1XH-west | 2026-09-03 00:04:16 | 50.35442 | 6.13810 | 0° | 0km/h | 20285m | 0m/s | -53°C | 2.9% | 57.5hPa | 3.7V | 00:00:00 | 00:00:00 | 00:00:00 | |
| DM0DOS-11 | 2026-09-03 00:04:15 | 50.35442 | 6.13810 | 118° | 38km/h | 20285m | -9.8m/s | -52.9°C | 2.8% | 57.5hPa | 3.7V | 00:00:00 | 01:47:09 | 00:00:00 | |
| BIOWL1-15 | 2026-09-03 00:04:13 | 50.35476 | 6.13714 | 132° | 35km/h | 20355m | -10m/s | -52.4°C | 2.9% | 56.9hPa | 3.7V | 00:00:00 | 00:00:00 | 00:00:00 | |
| DJ8HS-15 | 2026-09-03 00:04:11 | 50.35462 | 6.13754 | 118° | 27km/h | 20324m | -10.3m/s | -52.4°C | 2.8% | 57.1hPa | 3.7V | 00:00:00 | 01:47:05 | 00:00:00 | |
| DM0DOS-11 | 2026-09-03 00:04:08 | 50.35494 | 6.13684 | 139° | 31km/h | 20386m | -10.6m/s | -52.3°C | 2.8% | 56.6hPa | 3.7V | 00:00:00 | 01:46:59 | 00:00:00 | |
| DO3MHA-12 | 2026-09-03 00:04:08 | 50.35471 | 6.13727 | 129° | 24km/h | 20344m | -11.2m/s | -52.3°C | 2.8% | 56.9hPa | 3.7V | 00:00:00 | 01:47:03 | 00:00:00 | |
| DL1XH1-15 | 2026-09-03 00:04:07 | 50.35476 | 6.13714 | 128° | 33km/h | 20355m | -10.4m/s | -52.3°C | 2.8% | 56.9hPa | 3.7V | 00:00:00 | 01:47:02 | 00:00:00 | |
| DL1XH-west | 2026-09-03 00:04:03 | 50.35494 | 6.13684 | 0° | 0km/h | 20386m | 0m/s | -52.3°C | 2.9% | 56.7hPa | 3.7V | 00:00:00 | 00:00:00 | 00:00:00 | |
| BIOWL1-15 | 2026-09-03 00:04:01 | 50.35511 | 6.13659 | 126° | 31km/h | 20417m | -11m/s | -52.4°C | 2.9% | 56.4hPa | 3.7V | 00:00:00 | 00:00:00 | 00:00:00 | |
| DL1XH1-15 | 2026-09-03 00:04:00 | 50.35529 | 6.13618 | 126° | 24km/h | 20461m | -10.8m/s | -52.3°C | 2.8% | 56hPa | 3.7V | 00:00:00 | 01:46:52 | 00:00:00 | |
| DB0NH | 2026-09-03 00:03:59 | 50.35511 | 6.13658 | 127° | 24km/h | 20417m | -10.9m/s | -52.3°C | 2.8% | 56.3hPa | 3.7V | 00:00:00 | 01:46:56 | 00:00:00 | |
| DM0DOS-11 | 2026-09-03 00:03:57 | 50.35545 | 6.13589 | 130° | 22km/h | 20505m | -10.6m/s | -52.2°C | 2.8% | 55.6hPa | 3.7V | 00:00:00 | 01:46:48 | 00:00:00 | |
| DL1XH-west | 2026-09-03 00:03:53 | 50.35549 | 6.13583 | 0° | 0km/h | 20516m | 0m/s | -52.3°C | 2.9% | 55.6hPa | 3.7V | 00:00:00 | 00:00:00 | 00:00:00 | |
| GOEST3-10 | 2026-09-03 00:03:52 | 50.35542 | 6.13595 | 132° | 22km/h | 20494m | -10.5m/s | -52.2°C | 2.8% | 55.7hPa | 3.7V | 00:00:00 | 00:00:00 | 00:00:00 | |
| DL1XH1-15 | 2026-09-03 00:03:50 | 50.35563 | 6.13542 | 111° | 20km/h | 20569m | -10.7m/s | -52.2°C | 2.8% | 55.1hPa | 3.7V | 00:00:00 | 01:46:42 | 00:00:00 | |
| BIOWL1-15 | 2026-09-03 00:03:48 | 50.35571 | 6.13427 | 96° | 31km/h | 20710m | -12m/s | -52.2°C | 2.9% | 54hPa | 3.7V | 00:00:00 | 00:00:00 | 00:00:00 | |
| DJ8HS-15 | 2026-09-03 00:03:47 | 50.35557 | 6.13559 | 116° | 24km/h | 20546m | -11.0m/s | -52.1°C | 2.8% | 55.3hPa | 3.7V | 00:00:00 | 01:46:44 | 00:00:00 | |
| DM0DOS-11 | 2026-09-03 00:03:46 | 50.35566 | 6.13512 | 80° | 22km/h | 20611m | -10.7m/s | -52.4°C | 2.8% | 54.8hPa | 3.7V | 00:00:00 | 01:46:38 | 00:00:00 | |
| DL1XH-west | 2026-09-03 00:03:42 | 50.35567 | 6.13470 | 0° | 0km/h | 20665m | 0m/s | -52.5°C | 2.9% | 54.4hPa | 3.7V | 00:00:00 | 00:00:00 | 00:00:00 | |
| GOEST3-10 | 2026-09-03 00:03:39 | 50.35566 | 6.13480 | 101° | 27km/h | 20653m | -11.1m/s | -52.4°C | 2.8% | 54.4hPa | 3.7V | 00:00:00 | 00:00:00 | 00:00:00 | |
| DB0UT-7 | 2026-09-03 00:03:38 | 50.35568 | 6.13460 | 103° | 24km/h | 20677m | -11.0m/s | -52.4°C | 2.8% | 54.2hPa | 3.7V | 00:00:00 | 00:00:00 | 00:00:00 | |
| DM0DOS-11 | 2026-09-03 00:03:34 | 50.35572 | 6.13415 | 98° | 27km/h | 20722m | -10.5m/s | -52.1°C | 3% | 53.9hPa | 3.7V | 00:00:00 | 01:46:28 | 00:00:00 | |
| DL1XH-west | 2026-09-03 00:03:32 | 50.35572 | 6.13415 | 0° | 0km/h | 20722m | 0m/s | -52.2°C | 3% | 53.9hPa | 3.7V | 00:00:00 | 00:00:00 | 00:00:00 | |
| DB0NH | 2026-09-03 00:03:29 | 50.35578 | 6.13383 | 112° | 20km/h | 20754m | -10.3m/s | -52.2°C | 2.8% | 53.6hPa | 3.7V | 00:00:00 | 01:46:25 | 00:00:00 | |
| DL1XH1-15 | 2026-09-03 00:03:28 | 50.35583 | 6.13357 | 93° | 26km/h | 20785m | -10.3m/s | -52.3°C | 2.8% | 53.4hPa | 3.7V | 00:00:00 | 01:46:22 | 00:00:00 | |
| DK7TD | 2026-09-03 00:03:28 | 50.35582 | 6.13366 | 97° | 26km/h | 20775m | -10m/s | -52.3°C | 3% | 53.5hPa | 3.7V | 00:00:00 | 00:00:00 | 00:00:00 | |
| DJ8HS-15 | 2026-09-03 00:03:28 | 50.35580 | 6.13374 | 110° | 22km/h | 20764m | -10.4m/s | -52.2°C | 2.8% | 53.5hPa | 3.7V | 00:00:00 | 01:46:24 | 00:00:00 | |
| DM0DOS-11 | 2026-09-03 00:03:26 | 50.35586 | 6.13312 | 105° | 24km/h | 20827m | -10.3m/s | -52.3°C | 3% | 53.1hPa | 3.7V | 00:00:00 | 01:46:18 | 00:00:00 | |
| BIOWL1-15 | 2026-09-03 00:03:25 | 50.35585 | 6.13324 | 108° | 26km/h | 20816m | -10.5m/s | -52.3°C | 3% | 53.2hPa | 3.7V | 00:00:00 | 00:00:00 | 00:00:00 | |
| DL1XH-west | 2026-09-03 00:03:22 | 50.35593 | 6.13284 | 0° | 0km/h | 20858m | 0m/s | -52.2°C | 3% | 52.8hPa | 3.7V | 00:00:00 | 00:00:00 | 00:00:00 | |
| DL1XH1-15 | 2026-09-03 00:03:21 | 50.35603 | 6.13268 | 127° | 20km/h | 20888m | -10.4m/s | -52.2°C | 3% | 52.6hPa | 3.7V | 00:00:00 | 01:46:12 | 00:00:00 | |
| DK7TD | 2026-09-03 00:03:17 | 50.35603 | 6.13268 | 127° | 18km/h | 20888m | -10m/s | -52.3°C | 3% | 52.6hPa | 3.7V | 00:00:00 | 00:00:00 | 00:00:00 | |
| BIOWL1-15 | 2026-09-03 00:03:14 | 50.35606 | 6.13256 | 102° | 22km/h | 20908m | -11m/s | -52.3°C | 3% | 52.4hPa | 3.7V | 00:00:00 | 00:00:00 | 00:00:00 | |
| DM0DOS-11 | 2026-09-03 00:03:12 | 50.35609 | 6.13237 | 107° | 22km/h | 20930m | -10.6m/s | -52.4°C | 3% | 52.3hPa | 3.7V | 00:00:00 | 01:46:08 | 00:00:00 | |
| DL1XH-west | 2026-09-03 00:03:09 | 50.35622 | 6.13207 | 0° | 0km/h | 20971m | 0m/s | -52.5°C | 3% | 51.9hPa | 3.7V | 00:00:00 | 00:00:00 | 00:00:00 | |
| GOEST3-10 | 2026-09-03 00:03:09 | 50.35613 | 6.13219 | 139° | 16km/h | 20951m | -10.7m/s | -52.4°C | 3.0% | 52.0hPa | 3.7V | 00:00:00 | 01:46:06 | 00:00:00 | |
| DL1XH1-15 | 2026-09-03 00:03:08 | 50.35630 | 6.13201 | 146° | 15km/h | 20992m | -11.3m/s | -52.6°C | 3% | 51.8hPa | 3.7V | 00:00:00 | 01:46:02 | 00:00:00 | |
| DK7TD | 2026-09-03 00:03:07 | 50.35630 | 6.13201 | 108° | 15km/h | 20992m | -11.4m/s | -52.6°C | 3% | 51.8hPa | 3.7V | 00:00:00 | 00:00:00 | 00:00:00 | |
| DB0UT-7 | 2026-09-03 00:03:06 | 50.35630 | 6.13201 | 147° | 22km/h | 20992m | -11.3m/s | -52.6°C | 3.0% | 51.7hPa | 3.7V | 00:00:00 | 01:46:02 | 00:00:00 | |
| BIOWL1-15 | 2026-09-03 00:03:04 | 50.35646 | 6.13078 | 94° | 22km/h | 21226m | -10m/s | -53.8°C | 3.1% | 50.1hPa | 3.7V | 00:00:00 | 00:00:00 | 00:00:00 | |
| GOEST3-10 | 2026-09-03 00:03:02 | 50.35627 | 6.12945 | 131° | 16km/h | 21346m | -12.6m/s | -53.9°C | 3.0% | 49.1hPa | 3.7V | 00:00:00 | 00:00:00 | 00:00:00 | |
| DL1XH-west | 2026-09-03 00:02:59 | 50.35641 | 6.13154 | 0° | 0km/h | 21082m | 0m/s | -53°C | 3% | 51.1hPa | 3.7V | 00:00:00 | 00:00:00 | 00:00:00 | |
| DB0NH | 2026-09-03 00:02:58 | 50.35637 | 6.12920 | 66° | 24km/h | 21411m | -11.9m/s | -53.9°C | 3.0% | 48.6hPa | 3.7V | 00:00:00 | 01:45:25 | 00:00:00 | |
| DJ8HS-15 | 2026-09-03 00:02:57 | 50.35635 | 6.12913 | 67° | 20km/h | 21423m | -11.8m/s | -53.9°C | 3.0% | 48.5hPa | 3.7V | 00:00:00 | 01:45:24 | 00:00:00 | |
| AM1SDL-15 | 2026-09-03 00:02:56 | 50.35635 | 6.12913 | 65° | 20km/h | 21423m | -11.7m/s | -53.9°C | 3.0% | 48.5hPa | 3.7V | 00:00:00 | 01:45:24 | 00:00:00 | |
| DK7TD | 2026-09-03 00:02:55 | 50.35648 | 6.13131 | 86° | 20km/h | 21126m | -10m/s | -53.3°C | 3.1% | 50.8hPa | 3.7V | 00:00:00 | 00:00:00 | 00:00:00 | |
| GOEST3-10 | 2026-09-03 00:02:51 | 50.35630 | 6.12888 | 81° | 24km/h | 21470m | -11.6m/s | -54.1°C | 3.0% | 48.2hPa | 3.7V | 00:00:00 | 00:00:00 | 00:00:00 | |
| DL1XH-west | 2026-09-03 00:02:49 | 50.35645 | 6.13091 | 0° | 0km/h | 21202m | 0m/s | -53.6°C | 3.1% | 50.2hPa | 3.7V | 00:00:00 | 00:00:00 | 00:00:00 | |
| BIOWL1-15 | 2026-09-03 00:02:49 | 50.35647 | 6.13069 | 90° | 31km/h | 21236m | -11m/s | -53.8°C | 3.1% | 50hPa | 3.7V | 00:00:00 | 00:00:00 | 00:00:00 | |
| DM0DOS-11 | 2026-09-03 00:02:48 | 50.35645 | 6.13043 | 77° | 37km/h | 21257m | -11.1m/s | -53.9°C | 3% | 49.8hPa | 3.7V | 00:00:00 | 01:45:38 | 00:00:00 | |
| DL1XH1-15 | 2026-09-03 00:02:46 | 50.35646 | 6.13085 | 94° | 27km/h | 21214m | -11m/s | -53.7°C | 3% | 50.1hPa | 3.7V | 00:00:00 | 01:45:42 | 00:00:00 | |
| DK7TD | 2026-09-03 00:02:44 | 50.35645 | 6.13043 | 78° | 42km/h | 21257m | -10m/s | -54°C | 3.1% | 49.8hPa | 3.7V | 00:00:00 | 00:00:00 | 00:00:00 | |
| DL1XH1-15 | 2026-09-03 00:02:41 | 50.35627 | 6.12959 | 80° | 16km/h | 21324m | -12.1m/s | -54°C | 3% | 49.3hPa | 3.7V | 00:00:00 | 01:45:32 | 00:00:00 | |
| DL1XH-west | 2026-09-03 00:02:39 | 50.35635 | 6.12994 | 0° | 0km/h | 21289m | 0m/s | -54.1°C | 3.1% | 49.5hPa | 3.7V | 00:00:00 | 00:00:00 | 00:00:00 | |
| AM1SDL-15 | 2026-09-03 00:02:37 | 50.35603 | 6.12840 | 51° | 26km/h | 21577m | -11.8m/s | -54.2°C | 3.0% | 47.4hPa | 3.7V | 00:00:00 | 01:45:11 | 00:00:00 | |
| BIOWL1-15 | 2026-09-03 00:02:36 | 50.35626 | 6.12952 | 118° | 16km/h | 21335m | -12.5m/s | -53.9°C | 3.1% | 49.2hPa | 3.7V | 00:00:00 | 00:00:00 | 00:00:00 | |
| DK7TD | 2026-09-03 00:02:33 | 50.35633 | 6.12935 | 126° | 15km/h | 21372m | -15m/s | -54°C | 3.1% | 48.9hPa | 3.7V | 00:00:00 | 00:00:00 | 00:00:00 | |
| DM0DOS-11 | 2026-09-03 00:02:32 | 50.35633 | 6.12935 | 126° | 16km/h | 21372m | -12.7m/s | -54°C | 3% | 48.9hPa | 3.7V | 00:00:00 | 01:45:28 | 00:00:00 | |
| DJ8HS-15 | 2026-09-03 00:02:29 | 50.35591 | 6.12784 | 75° | 35km/h | 21661m | -11.2m/s | -54.3°C | 3.0% | 46.8hPa | 3.7V | 00:00:00 | 01:45:04 | 00:00:00 | |
| DL1XH-west | 2026-09-03 00:02:28 | 50.35635 | 6.12913 | 0° | 0km/h | 21423m | 0m/s | -53.9°C | 3.1% | 48.6hPa | 3.7V | 00:00:00 | 00:00:00 | 00:00:00 | |
| GOEST3-10 | 2026-09-03 00:02:27 | 50.35588 | 6.12767 | 97° | 33km/h | 21684m | -11.1m/s | -54.3°C | 3.0% | 46.7hPa | 3.7V | 00:00:00 | 00:00:00 | 00:00:00 | |
| DL1XH1-15 | 2026-09-03 00:02:27 | 50.35631 | 6.12900 | 68° | 16km/h | 21448m | -11.4m/s | -54°C | 3% | 48.4hPa | 3.7V | 00:00:00 | 01:45:22 | 00:00:00 | |
| DB0UT-7 | 2026-09-03 00:02:26 | 50.35588 | 6.12767 | 91° | 35km/h | 21684m | -11.1m/s | -54.3°C | 3.0% | 46.7hPa | 3.7V | 00:00:00 | 01:45:02 | 00:00:00 | |
| AM1SDL-15 | 2026-09-03 00:02:22 | 50.35591 | 6.12741 | 105° | 38km/h | 21718m | -11.1m/s | -54.4°C | 3.0% | 46.5hPa | 3.7V | 00:00:00 | 01:44:59 | 00:00:00 | |
| DK7TD | 2026-09-03 00:02:20 | 50.35627 | 6.12867 | 34° | 24km/h | 21516m | -11.5m/s | -54.3°C | 3.1% | 47.9hPa | 3.7V | 00:00:00 | 00:00:00 | 00:00:00 | |
| GOEST3-10 | 2026-09-03 00:02:20 | 50.35595 | 6.12718 | 93° | 37km/h | 21739m | -11.4m/s | -54.5°C | 3.0% | 46.3hPa | 3.7V | 00:00:00 | 01:44:57 | 00:00:00 | |
| DL1XH-west | 2026-09-03 00:02:19 | 50.35617 | 6.12857 | 0° | 0km/h | 21539m | 0m/s | -54.3°C | 3.1% | 47.7hPa | 3.7V | 00:00:00 | 00:00:00 | 00:00:00 | |
| DB0NH | 2026-09-03 00:02:15 | 50.35597 | 6.12690 | 91° | 29km/h | 21762m | -10.8m/s | -54.5°C | 3.1% | 46.1hPa | 3.7V | 00:00:00 | 01:44:55 | 00:00:00 | |
| DM0DOS-11 | 2026-09-03 00:02:12 | 50.35596 | 6.12819 | 77° | 24km/h | 21613m | -11.8m/s | -54.3°C | 3% | 47.2hPa | 3.7V | 00:00:00 | 01:45:08 | 00:00:00 | |
| NBG1-10 | 2026-09-03 00:02:12 | 50.35597 | 6.12647 | 95° | 13km/h | 21793m | -11.5m/s | -54.3°C | 3.0% | 45.9hPa | 3.7V | 00:00:00 | 01:44:52 | 00:00:00 | |
| GOEST3-10 | 2026-09-03 00:02:11 | 50.35597 | 6.12634 | 106° | 37km/h | 21804m | -11.8m/s | -54.1°C | 3.1% | 45.8hPa | 3.7V | 00:00:00 | 00:00:00 | 00:00:00 | |
| DL1XH-west | 2026-09-03 00:02:08 | 50.35588 | 6.12759 | 0° | 0km/h | 21695m | 0m/s | -54.4°C | 3.1% | 46.7hPa | 3.7V | 00:00:00 | 00:00:00 | 00:00:00 | |
| DK7TD | 2026-09-03 00:02:08 | 50.35590 | 6.12775 | 74° | 22km/h | 21672m | -12m/s | -54.4°C | 3.1% | 46.8hPa | 3.7V | 00:00:00 | 00:00:00 | 00:00:00 | |
| DL1XH1-15 | 2026-09-03 00:02:07 | 50.35588 | 6.12767 | 90° | 27km/h | 21684m | -11.1m/s | -54.4°C | 3% | 46.7hPa | 3.7V | 00:00:00 | 01:45:02 | 00:00:00 | |
| AM1SDL-15 | 2026-09-03 00:02:01 | 50.35635 | 6.12523 | 122° | 27km/h | 21898m | -12.2m/s | -53.4°C | 3.1% | 45.2hPa | 3.7V | 00:00:00 | 01:44:43 | 00:00:00 | |
| DL1XH1-15 | 2026-09-03 00:02:00 | 50.35597 | 6.12647 | 94° | 37km/h | 21793m | -11.4m/s | -54.3°C | 3% | 46hPa | 3.7V | 00:00:00 | 01:44:52 | 00:00:00 | |
| BIOWL1-15 | 2026-09-03 00:02:00 | 50.35597 | 6.12690 | 90° | 37km/h | 21762m | -10m/s | -54.5°C | 3.2% | 46.2hPa | 3.7V | 00:00:00 | 00:00:00 | 00:00:00 | |
| GOEST3-10 | 2026-09-03 00:01:59 | 50.35641 | 6.12509 | 118° | 31km/h | 21910m | -12.3m/s | -53.2°C | 3.1% | 45.1hPa | 3.7V | 00:00:00 | 01:44:42 | 00:00:00 | |
| DL1XH-west | 2026-09-03 00:01:56 | 50.35597 | 6.12647 | 0° | 0km/h | 21793m | 0m/s | -54.3°C | 3.1% | 46hPa | 3.7V | 00:00:00 | 00:00:00 | 00:00:00 | |
| DM0DOS-11 | 2026-09-03 00:01:53 | 50.35608 | 6.12594 | 117° | 40km/h | 21838m | -11.9m/s | -53.8°C | 3.1% | 45.6hPa | 3.7V | 00:00:00 | 01:44:48 | 00:00:00 | |
| BIOWL1-15 | 2026-09-03 00:01:48 | 50.35641 | 6.12509 | 124° | 38km/h | 21910m | -11.5m/s | -53.3°C | 3.2% | 45.2hPa | 3.7V | 00:00:00 | 00:00:00 | 00:00:00 | |
| AM1SDL-15 | 2026-09-03 00:01:48 | 50.35703 | 6.12403 | 142° | 13km/h | 22046m | -12.1m/s | -52.7°C | 3.1% | 44.2hPa | 3.8V | 00:00:00 | 01:44:31 | 00:00:00 | |
| DM0DOS-11 | 2026-09-03 00:01:47 | 50.35664 | 6.12465 | 134° | 31km/h | 21957m | -13m/s | -53°C | 3.1% | 44.9hPa | 3.8V | 00:00:00 | 01:44:38 | 00:00:00 | |
| DL1XH-west | 2026-09-03 00:01:46 | 50.35646 | 6.12495 | 0° | 0km/h | 21921m | 0m/s | -53.2°C | 3.2% | 45.1hPa | 3.8V | 00:00:00 | 00:00:00 | 00:00:00 | |
| DL1XH1-15 | 2026-09-03 00:01:41 | 50.35699 | 6.12409 | 138° | 20km/h | 22035m | -11.9m/s | -52.8°C | 3.1% | 44.3hPa | 3.8V | 00:00:00 | 01:44:32 | 00:00:00 | |
| DK7TD | 2026-09-03 00:01:40 | 50.35676 | 6.12445 | 136° | 33km/h | 21985m | -12.7m/s | -52.8°C | 3.2% | 44.7hPa | 3.8V | 00:00:00 | 00:00:00 | 00:00:00 | |
| DL1XH-west | 2026-09-03 00:01:35 | 50.35712 | 6.12391 | 0° | 0km/h | 22071m | 0m/s | -52.9°C | 3.2% | 44.1hPa | 3.8V | 00:00:00 | 00:00:00 | 00:00:00 | |
| AM1SDL-15 | 2026-09-03 00:01:34 | 50.35738 | 6.12360 | 140° | 13km/h | 22193m | -13.3m/s | -53.3°C | 3.2% | 43.3hPa | 3.7V | 00:00:00 | 01:44:19 | 00:00:00 | |
| DM0DOS-11 | 2026-09-03 00:01:33 | 50.35716 | 6.12387 | 142° | 13km/h | 22083m | -12m/s | -52.9°C | 3.1% | 44hPa | 3.7V | 00:00:00 | 01:44:28 | 00:00:00 | |
| DK7TD | 2026-09-03 00:01:29 | 50.35725 | 6.12376 | 144° | 15km/h | 22118m | -11m/s | -53°C | 3.2% | 43.8hPa | 3.8V | 00:00:00 | 00:00:00 | 00:00:00 | |
| DL1XH1-15 | 2026-09-03 00:01:28 | 50.35732 | 6.12367 | 148° | 9km/h | 22152m | -13.6m/s | -53.1°C | 3.1% | 43.6hPa | 3.8V | 00:00:00 | 01:44:22 | 00:00:00 | |
| DM0DOS-11 | 2026-09-03 00:01:27 | 50.35740 | 6.12358 | 122° | 7km/h | 22207m | -13.3m/s | -53.4°C | 3.1% | 43.2hPa | 3.8V | 00:00:00 | 01:44:18 | 00:00:00 | |
| DL1XH-west | 2026-09-03 00:01:24 | 50.35736 | 6.12362 | 0° | 0km/h | 22180m | 0m/s | -53.2°C | 3.3% | 43.4hPa | 3.8V | 00:00:00 | 00:00:00 | 00:00:00 | |
| BIOWL1-15 | 2026-09-03 00:01:22 | 50.35740 | 6.12358 | 122° | 4km/h | 22207m | -13m/s | -53.4°C | 3.2% | 43.2hPa | 3.8V | 00:00:00 | 00:00:00 | 00:00:00 | |
| DK7TD | 2026-09-03 00:01:20 | 50.35736 | 6.12353 | 42° | 11km/h | 22259m | -15m/s | -53.6°C | 3.3% | 42.9hPa | 3.8V | 00:00:00 | 00:00:00 | 00:00:00 | |
| AM1SDL-15 | 2026-09-03 00:01:19 | 50.35726 | 6.12331 | 80° | 16km/h | 22357m | -13.5m/s | -53.5°C | 3.2% | 42.2hPa | 3.7V | 00:00:00 | 01:44:07 | 00:00:00 | |
| DL1XH-west | 2026-09-03 00:01:14 | 50.35727 | 6.12339 | 0° | 0km/h | 22331m | 0m/s | -53.5°C | 3.3% | 42.4hPa | 3.8V | 00:00:00 | 00:00:00 | 00:00:00 | |
| DJ8HS-15 | 2026-09-03 00:01:14 | 50.35721 | 6.12310 | 57° | 13km/h | 22397m | -13.4m/s | -53.7°C | 3.2% | 42.0hPa | 3.8V | 00:00:00 | 01:44:04 | 00:00:00 | |
| DM0DOS-11 | 2026-09-03 00:01:13 | 50.35726 | 6.12336 | 90° | 16km/h | 22344m | -13.3m/s | -53.5°C | 3.2% | 42.3hPa | 3.8V | 00:00:00 | 01:44:08 | 00:00:00 | |
| BIOWL1-15 | 2026-09-03 00:01:12 | 50.35719 | 6.12304 | 53° | 18km/h | 22410m | -13m/s | -53.8°C | 3.3% | 42hPa | 3.8V | 00:00:00 | 00:00:00 | 00:00:00 | |
| DK7TD | 2026-09-03 00:01:09 | 50.35722 | 6.12310 | 57° | 18km/h | 22397m | -13m/s | -53.7°C | 3.3% | 42hPa | 3.8V | 00:00:00 | 00:00:00 | 00:00:00 | |
| DM0DOS-11 | 2026-09-03 00:01:07 | 50.35717 | 6.12250 | 106° | 16km/h | 22520m | -14.2m/s | -53.6°C | 3.2% | 41.3hPa | 3.8V | 00:00:00 | 01:43:55 | 00:00:00 | |
| DL1XH-west | 2026-09-03 00:01:04 | 50.35716 | 6.12260 | 0° | 0km/h | 22505m | 0m/s | -53.6°C | 3.3% | 41.4hPa | 3.8V | 00:00:00 | 00:00:00 | 00:00:00 | |
| DL1XH1-15 | 2026-09-03 00:01:02 | 50.35721 | 6.12222 | 90° | 7km/h | 22563m | -14.2m/s | -53.4°C | 3.2% | 41hPa | 3.8V | 00:00:00 | 01:43:52 | 00:00:00 | |
| BIOWL1-15 | 2026-09-03 00:01:01 | 50.35717 | 6.12250 | 107° | 27km/h | 22520m | -13m/s | -53.6°C | 3.3% | 41.3hPa | 3.8V | 00:00:00 | 00:00:00 | 00:00:00 | |
| AM1SDL-15 | 2026-09-03 00:01:01 | 50.35719 | 6.12240 | 98° | 9km/h | 22533m | -14.8m/s | -53.5°C | 3.2% | 41.1hPa | 3.8V | 00:00:00 | 01:43:54 | 00:00:00 | |
| DK7TD | 2026-09-03 00:01:00 | 50.35719 | 6.12240 | 103° | 27km/h | 22533m | -16m/s | -53.5°C | 3.3% | 41.2hPa | 3.8V | 00:00:00 | 00:00:00 | 00:00:00 | |
| DL1XH-west | 2026-09-03 00:00:53 | 50.35720 | 6.12213 | 0° | 0km/h | 22619m | 0m/s | -53.4°C | 3.4% | 40.7hPa | 3.8V | 00:00:00 | 00:00:00 | 00:00:00 | |
| DM0DOS-11 | 2026-09-03 00:00:53 | 50.35720 | 6.12213 | 334° | 5km/h | 22619m | -14.3m/s | -53.4°C | 3.3% | 40.6hPa | 3.8V | 00:00:00 | 01:43:48 | 00:00:00 | |
| BIOWL1-15 | 2026-09-03 00:00:51 | 50.35720 | 6.12211 | 116° | 7km/h | 22660m | -13m/s | -53.5°C | 3.4% | 40.4hPa | 3.8V | 00:00:00 | 00:00:00 | 00:00:00 | |
| AM1SDL-15 | 2026-09-03 00:00:49 | 50.35726 | 6.12198 | 144° | 9km/h | 22721m | -15.3m/s | -53.4°C | 3.2% | 40.0hPa | 3.8V | 00:00:00 | 01:43:41 | 00:00:00 | |
| DK7TD | 2026-09-03 00:00:48 | 50.35720 | 6.12209 | 132° | 11km/h | 22673m | -16.2m/s | -53.4°C | 3.4% | 40.3hPa | 3.8V | 00:00:00 | 00:00:00 | 00:00:00 | |
| GOEST3-10 | 2026-09-03 00:00:46 | 50.35731 | 6.12190 | 113° | 11km/h | 22769m | -14.3m/s | -53.3°C | 3.3% | 39.7hPa | 3.8V | 00:00:00 | 01:43:38 | 00:00:00 | |
| DL1XH1-15 | 2026-09-03 00:00:46 | 50.35724 | 6.12201 | 128° | 9km/h | 22704m | -15.8m/s | -53.4°C | 3.3% | 40.2hPa | 3.8V | 00:00:00 | 01:43:42 | 00:00:00 | |
| GOEST3-10 | 2026-09-03 00:00:44 | 50.35734 | 6.12176 | 143° | 16km/h | 22844m | -14.3m/s | -53.4°C | 3.2% | 39.3hPa | 3.8V | 00:00:00 | 00:00:00 | 00:00:00 | |
| DL1XH-west | 2026-09-03 00:00:43 | 50.35733 | 6.12178 | 0° | 0km/h | 22829m | 0m/s | -53.3°C | 3.4% | 39.5hPa | 3.8V | 00:00:00 | 00:00:00 | 00:00:00 | |
| DB0UT-7 | 2026-09-03 00:00:42 | 50.35735 | 6.12173 | 157° | 16km/h | 22859m | -13.8m/s | -53.5°C | 3.3% | 39.2hPa | 3.7V | 00:00:00 | 00:00:00 | 00:00:00 | |
| BIOWL1-15 | 2026-09-03 00:00:41 | 50.35735 | 6.12176 | 104° | 5km/h | 22844m | -15m/s | -53.5°C | 3.3% | 39.4hPa | 3.8V | 00:00:00 | 00:00:00 | 00:00:00 | |
| DL1XH1-15 | 2026-09-03 00:00:41 | 50.35735 | 6.12174 | 156° | 9km/h | 22859m | -13.9m/s | -53.5°C | 3.3% | 39.3hPa | 3.8V | 00:00:00 | 01:43:32 | 00:00:00 | |
| DK7TD | 2026-09-03 00:00:39 | 50.35735 | 6.12174 | 150° | 7km/h | 22859m | -13m/s | -53.6°C | 3.4% | 39.3hPa | 3.8V | 00:00:00 | 00:00:00 | 00:00:00 | |
| AM1SDL-15 | 2026-09-03 00:00:38 | 50.35740 | 6.12169 | 133° | 20km/h | 22900m | -11.7m/s | -53.7°C | 3.3% | 39.0hPa | 3.7V | 00:00:00 | 01:43:29 | 00:00:00 | |
| DL1XH-west | 2026-09-03 00:00:32 | 50.35761 | 6.12135 | 0° | 0km/h | 23031m | 0m/s | -54°C | 3.4% | 38.3hPa | 3.8V | 00:00:00 | 00:00:00 | 00:00:00 | |
| DB0NH | 2026-09-03 00:00:31 | 50.35747 | 6.12152 | 138° | 1363km/h | 22985m | 101.5m/s | -54.0°C | 3.3% | 38.5hPa | 3.7V | 00:00:00 | 01:43:23 | 00:00:00 | |
| DL1XH1-15 | 2026-09-03 00:00:30 | 50.35761 | 6.12135 | 151° | 24km/h | 23031m | -14.3m/s | -54°C | 3.3% | 38.3hPa | 3.8V | 00:00:00 | 01:43:20 | 00:00:00 | |
| BIOWL1-15 | 2026-09-03 00:00:29 | 50.35744 | 6.12157 | 129° | 15km/h | 22971m | -14m/s | -54°C | 3.4% | 38.6hPa | 3.8V | 00:00:00 | 00:00:00 | 00:00:00 | |
| DK7TD | 2026-09-03 00:00:29 | 50.35756 | 6.12141 | 143° | 24km/h | 23016m | -15m/s | -54°C | 3.4% | 38.4hPa | 3.8V | 00:00:00 | 00:00:00 | 00:00:00 | |
| GOEST3-10 | 2026-09-03 00:00:26 | 50.35767 | 6.12130 | 163° | 20km/h | 23044m | -14.7m/s | -53.9°C | 3.5% | 38.2hPa | 3.8V | 00:00:00 | 00:00:00 | 00:00:00 | |
| BIOWL1-15 | 2026-09-03 00:00:20 | 50.35808 | 6.12103 | 145° | 22km/h | 23162m | -14m/s | -53.4°C | 3.4% | 37.5hPa | 3.8V | 00:00:00 | 00:00:00 | 00:00:00 | |
| DL1XH-west | 2026-09-03 00:00:20 | 50.35798 | 6.12112 | 0° | 0km/h | 23132m | 0m/s | -53.6°C | 3.4% | 37.7hPa | 3.8V | 00:00:00 | 00:00:00 | 00:00:00 | |
| GOEST3-10 | 2026-09-03 00:00:19 | 50.35793 | 6.12116 | 155° | 16km/h | 23117m | -14.9m/s | -53.6°C | 3.3% | 37.7hPa | 3.8V | 00:00:00 | 01:43:14 | 00:00:00 | |
| DM0DOS-11 | 2026-09-03 00:00:17 | 50.35820 | 6.12090 | 145° | 11km/h | 23205m | -15.3m/s | -53.2°C | 3.3% | 37.3hPa | 3.8V | 00:00:00 | 01:43:08 | 00:00:00 | |
| DK7TD | 2026-09-03 00:00:17 | 50.35803 | 6.12108 | 149° | 24km/h | 23147m | -15m/s | -53.5°C | 3.4% | 37.6hPa | 3.8V | 00:00:00 | 00:00:00 | 00:00:00 | |
| GOEST3-10 | 2026-09-03 00:00:13 | 50.35817 | 6.12094 | 145° | 16km/h | 23191m | -15.0m/s | -53.2°C | 3.3% | 37.3hPa | 3.7V | 00:00:00 | 00:00:00 | 00:00:00 | |
| DJ8HS-15 | 2026-09-03 00:00:08 | 50.35830 | 6.12080 | 215° | 22km/h | 23265m | -16.1m/s | -53.2°C | 3.5% | 36.9hPa | 3.8V | 00:00:00 | 01:43:04 | 00:00:00 | |
| DB0UT-7 | 2026-09-03 00:00:07 | 50.35832 | 6.12083 | 219° | 26km/h | 23298m | -15.7m/s | -53.3°C | 3.3% | 36.7hPa | 3.8V | 00:00:00 | 01:43:02 | 00:00:00 | |
| DK7TD | 2026-09-03 00:00:06 | 50.35834 | 6.12085 | 201° | 11km/h | 23316m | -15.5m/s | -53.5°C | 3.5% | 36.7hPa | 3.8V | 00:00:00 | 00:00:00 | 00:00:00 | |
| BIOWL1-15 | 2026-09-03 00:00:06 | 50.35839 | 6.12088 | 193° | 15km/h | 23347m | -15m/s | -53.6°C | 3.5% | 36.5hPa | 3.8V | 00:00:00 | 00:00:00 | 00:00:00 | |
| DM0DOS-11 | 2026-09-03 00:00:03 | 50.35842 | 6.12090 | 182° | 15km/h | 23362m | -14.5m/s | -53.6°C | 3.5% | 36.4hPa | 3.8V | 00:00:00 | 01:42:58 | 00:00:00 | |
| DL1XH-west | 2026-09-02 23:59:59 | 50.35856 | 6.12080 | 0° | 0km/h | 23433m | 0m/s | -53.5°C | 3.5% | 36.1hPa | 3.8V | 00:00:00 | 00:00:00 | 00:00:00 | |
| DM0DOS-11 | 2026-09-02 23:59:57 | 50.35876 | 6.12057 | 147° | 35km/h | 23515m | -16.6m/s | -52.7°C | 3.5% | 35.6hPa | 3.8V | 00:00:00 | 01:42:48 | 00:00:00 | |
| DK7TD | 2026-09-02 23:59:54 | 50.35870 | 6.12064 | 145° | 29km/h | 23498m | -17m/s | -52.8°C | 3.5% | 35.7hPa | 3.8V | 00:00:00 | 00:00:00 | 00:00:00 | |
| BIOWL1-15 | 2026-09-02 23:59:52 | 50.35904 | 6.12025 | 147° | 38km/h | 23583m | -17m/s | -52.4°C | 3.5% | 35.3hPa | 3.8V | 00:00:00 | 00:00:00 | 00:00:00 | |
| DO3MHA-12 | 2026-09-02 23:59:50 | 50.35882 | 6.12050 | 144° | 35km/h | 23532m | -14.4m/s | -52.6°C | 3.5% | 35.5hPa | 3.8V | 00:00:00 | 01:42:47 | 00:00:00 | |
| DL1XH1-15 | 2026-09-02 23:59:48 | 50.35938 | 6.12001 | 161° | 29km/h | 23648m | -16.1m/s | -52.3°C | 3.5% | 34.9hPa | 3.8V | 00:00:00 | 01:42:40 | 00:00:00 | |
| DL1XH-west | 2026-09-02 23:59:47 | 50.35912 | 6.12017 | 0° | 0km/h | 23600m | 0m/s | -52.4°C | 3.6% | 35.2hPa | 3.8V | 00:00:00 | 00:00:00 | 00:00:00 | |
| GOEST3-10 | 2026-09-02 23:59:43 | 50.35938 | 6.12001 | 163° | 24km/h | 23648m | -16.3m/s | -52.3°C | 3.5% | 34.9hPa | 3.7V | 00:00:00 | 01:42:40 | 00:00:00 | |
| DK7TD | 2026-09-02 23:59:42 | 50.35954 | 6.11993 | 164° | 29km/h | 23681m | -15m/s | -52.1°C | 3.5% | 34.8hPa | 3.8V | 00:00:00 | 00:00:00 | 00:00:00 | |
| BIOWL1-15 | 2026-09-02 23:59:42 | 50.35997 | 6.11983 | 202° | 22km/h | 23775m | -17m/s | -51.8°C | 3.6% | 34.3hPa | 3.8V | 00:00:00 | 00:00:00 | 00:00:00 | |
| DO3MHA-12 | 2026-09-02 23:59:38 | 50.35976 | 6.11983 | 207° | 44km/h | 23726m | -10.1m/s | -51.8°C | 3.5% | 34.5hPa | 3.7V | 00:00:00 | 01:42:35 | 00:00:00 | |
| DL1XH-west | 2026-09-02 23:59:37 | 50.35991 | 6.11981 | 0° | 0km/h | 23758m | 0m/s | -51.8°C | 3.6% | 34.4hPa | 3.8V | 00:00:00 | 00:00:00 | 00:00:00 | |
| DB0UT-7 | 2026-09-02 23:59:35 | 50.35997 | 6.11983 | 203° | 11km/h | 23775m | -17.2m/s | -51.7°C | 3.5% | 34.2hPa | 3.8V | 00:00:00 | 00:00:00 | 00:00:00 | |
| DK7TD | 2026-09-02 23:59:32 | 50.36013 | 6.12011 | 247° | 20km/h | 23860m | -19m/s | -51.9°C | 3.6% | 33.8hPa | 3.8V | 00:00:00 | 00:00:00 | 00:00:00 | |
| GOEST3-10 | 2026-09-02 23:59:30 | 50.36012 | 6.12011 | 248° | 9km/h | 23860m | -18.3m/s | -51.8°C | 3.5% | 33.8hPa | 3.8V | 00:00:00 | 01:42:27 | 00:00:00 | |
| DL1XH-west | 2026-09-02 23:59:27 | 50.36018 | 6.12035 | 0° | 0km/h | 23967m | 0m/s | -51.7°C | 3.6% | 33.3hPa | 3.8V | 00:00:00 | 00:00:00 | 00:00:00 | |
| GOEST3-10 | 2026-09-02 23:59:26 | 50.36018 | 6.12033 | 290° | 7km/h | 23951m | -17.7m/s | -51.7°C | 3.5% | 33.3hPa | 3.7V | 00:00:00 | 00:00:00 | 00:00:00 | |
| DK7TD | 2026-09-02 23:59:21 | 50.36015 | 6.12041 | 216° | 4km/h | 24040m | -18m/s | -51.3°C | 3.6% | 33hPa | 3.8V | 00:00:00 | 00:00:00 | 00:00:00 | |
| GOEST3-10 | 2026-09-02 23:59:20 | 50.36014 | 6.12041 | 209° | 9km/h | 24040m | -18.9m/s | -51.2°C | 3.5% | 32.9hPa | 3.8V | 00:00:00 | 01:42:17 | 00:00:00 | |
| BIOWL1-15 | 2026-09-02 23:59:18 | 50.36020 | 6.12046 | 214° | 11km/h | 24111m | -18m/s | -51.1°C | 3.7% | 32.6hPa | 3.8V | 00:00:00 | 00:00:00 | 00:00:00 | |
| DL1XH-west | 2026-09-02 23:59:15 | 50.36026 | 6.12050 | 0° | 0km/h | 24148m | 0m/s | -50.9°C | 3.7% | 32.5hPa | 3.8V | 00:00:00 | 00:00:00 | 00:00:00 | |
| GOEST3-10 | 2026-09-02 23:59:15 | 50.36025 | 6.12050 | 215° | 11km/h | 24148m | -20.0m/s | -50.8°C | 3.6% | 32.4hPa | 3.8V | 00:00:00 | 00:00:00 | 00:00:00 | |
| DL1XH1-15 | 2026-09-02 23:59:14 | 50.36029 | 6.12053 | 206° | 13km/h | 24165m | -19.1m/s | -50.8°C | 3.6% | 32.3hPa | 3.8V | 00:00:00 | 01:42:10 | 00:00:00 | |
| DK7TD | 2026-09-02 23:59:12 | 50.36036 | 6.12062 | 277° | 11km/h | 24219m | -20.5m/s | -50.6°C | 3.6% | 32.1hPa | 3.8V | 00:00:00 | 00:00:00 | 00:00:00 | |
| BIOWL1-15 | 2026-09-02 23:59:09 | 50.36033 | 6.12082 | 278° | 16km/h | 24301m | -21m/s | -50.9°C | 3.7% | 31.7hPa | 3.8V | 00:00:00 | 00:00:00 | 00:00:00 | |
| DL1XH1-15 | 2026-09-02 23:59:08 | 50.36032 | 6.12099 | 288° | 7km/h | 24365m | -21.2m/s | -50.9°C | 3.6% | 31.4hPa | 3.8V | 00:00:00 | 01:42:00 | 00:00:00 | |
| DJ8HS-15 | 2026-09-02 23:59:07 | 50.36034 | 6.12076 | 288° | 9km/h | 24280m | -21.1m/s | -50.8°C | 3.6% | 31.8hPa | 3.8V | 00:00:00 | 01:42:04 | 00:00:00 | |
| DL1XH-west | 2026-09-02 23:59:05 | 50.36032 | 6.12095 | 0° | 0km/h | 24343m | 0m/s | -50.9°C | 3.7% | 31.5hPa | 3.8V | 00:00:00 | 00:00:00 | 00:00:00 | |
| GOEST3-10 | 2026-09-02 23:59:04 | 50.36032 | 6.12095 | 271° | 5km/h | 24343m | -20.8m/s | -50.9°C | 3.6% | 31.5hPa | 3.8V | 00:00:00 | 00:00:00 | 00:00:00 | |
| DK7TD | 2026-09-02 23:59:00 | 50.36029 | 6.12107 | 14° | 2km/h | 24452m | -19m/s | -51.1°C | 3.8% | 31hPa | 3.8V | 00:00:00 | 00:00:00 | 00:00:00 | |
| BIOWL1-15 | 2026-09-02 23:58:57 | 50.36022 | 6.12124 | 343° | 7km/h | 24590m | -22m/s | -51.2°C | 3.7% | 30.4hPa | 3.8V | 00:00:00 | 00:00:00 | 00:00:00 | |
| DM0DOS-11 | 2026-09-02 23:58:56 | 50.36020 | 6.12125 | 12° | 7km/h | 24612m | -18.1m/s | -51.2°C | 3.6% | 30.3hPa | 3.8V | 00:00:00 | 01:41:48 | 00:00:00 | |
| DL1XH-west | 2026-09-02 23:58:55 | 50.36026 | 6.12117 | 0° | 0km/h | 24552m | 0m/s | -51.2°C | 3.7% | 30.5hPa | 3.8V | 00:00:00 | 00:00:00 | 00:00:00 | |
| DL1XH1-15 | 2026-09-02 23:58:54 | 50.36024 | 6.12122 | 317° | 9km/h | 24571m | -19m/s | -51.2°C | 3.7% | 30.4hPa | 3.8V | 00:00:00 | 01:41:50 | 00:00:00 | |
| DK7TD | 2026-09-02 23:58:50 | 50.36016 | 6.12122 | 60° | 9km/h | 24650m | -18m/s | -51.2°C | 3.7% | 30.1hPa | 3.8V | 00:00:00 | 00:00:00 | 00:00:00 | |
| DL1XH1-15 | 2026-09-02 23:58:48 | 50.36011 | 6.12126 | 275° | 11km/h | 24764m | -8.7m/s | -51°C | 3.7% | 29.6hPa | 3.8V | 00:00:00 | 01:41:40 | 00:00:00 | |
| DJ8HS-15 | 2026-09-02 23:58:47 | 50.36014 | 6.12116 | 16° | 7km/h | 24688m | -15.9m/s | -51.1°C | 3.6% | 29.9hPa | 3.7V | 00:00:00 | 01:41:44 | 00:00:00 | |
| GOEST3-10 | 2026-09-02 23:58:46 | 50.36014 | 6.12116 | 308° | 9km/h | 24708m | -11.6m/s | -51.0°C | 3.6% | 29.8hPa | 3.8V | 00:00:00 | 01:41:43 | 00:00:00 | |
| DM0DOS-11 | 2026-09-02 23:58:45 | 50.36010 | 6.12137 | 239° | 9km/h | 24798m | -2.1m/s | -50.8°C | 3.7% | 29.4hPa | 3.8V | 00:00:00 | 01:41:38 | 00:00:00 | |
| DL1XH-west | 2026-09-02 23:58:45 | 50.36012 | 6.12121 | 0° | 0km/h | 24746m | 0m/s | -51°C | 3.7% | 29.7hPa | 3.8V | 00:00:00 | 00:00:00 | 00:00:00 | |
| BIOWL1-15 | 2026-09-02 23:58:44 | 50.36011 | 6.12126 | 276° | 15km/h | 24764m | -18m/s | -51°C | 3.8% | 29.6hPa | 3.8V | 00:00:00 | 00:00:00 | 00:00:00 | |
| DK7TD | 2026-09-02 23:58:39 | 50.36016 | 6.12143 | 165° | 9km/h | 24816m | 5m/s | -51°C | 3.8% | 29.3hPa | 3.8V | 00:00:00 | 00:00:00 | 00:00:00 | |
| DM0DOS-11 | 2026-09-02 23:58:35 | 50.36022 | 6.12138 | 46° | 5km/h | 24781m | 5m/s | -51.2°C | 3.7% | 29.4hPa | 3.8V | 00:00:00 | 01:41:28 | 00:00:00 | |
| DL1XH1-15 | 2026-09-02 23:58:34 | 50.36023 | 6.12138 | 304° | 4km/h | 24791m | 5m/s | -51.2°C | 3.7% | 29.4hPa | 3.8V | 00:00:00 | 01:41:30 | 00:00:00 | |
| BIOWL1-15 | 2026-09-02 23:58:34 | 50.36023 | 6.12138 | 337° | 2km/h | 24791m | 5m/s | -51.2°C | 3.8% | 29.4hPa | 3.8V | 00:00:00 | 00:00:00 | 00:00:00 | |
| DK7TD | 2026-09-02 23:58:28 | 50.36022 | 6.12140 | 278° | 11km/h | 24761m | 5m/s | -51.2°C | 3.8% | 29.6hPa | 3.8V | 00:00:00 | 00:00:00 | 00:00:00 | |
| DJ8HS-15 | 2026-09-02 23:58:27 | 50.36022 | 6.12140 | 279° | 11km/h | 24761m | 4.9m/s | -51.2°C | 3.7% | 29.5hPa | 3.8V | 00:00:00 | 01:41:24 | 00:00:00 | |
| GOEST3-10 | 2026-09-02 23:58:25 | 50.36021 | 6.12147 | 7° | 11km/h | 24752m | 5.2m/s | -51.2°C | 3.7% | 29.5hPa | 3.8V | 00:00:00 | 01:41:22 | 00:00:00 | |
| DM0DOS-11 | 2026-09-02 23:58:24 | 50.36013 | 6.12137 | 358° | 9km/h | 24731m | 5.1m/s | -51.4°C | 3.7% | 29.6hPa | 3.8V | 00:00:00 | 01:41:18 | 00:00:00 | |
| BIOWL1-15 | 2026-09-02 23:58:23 | 50.36015 | 6.12140 | 19° | 9km/h | 24736m | 5.5m/s | -51.4°C | 3.8% | 29.7hPa | 3.8V | 00:00:00 | 00:00:00 | 00:00:00 | |
| DK7TD | 2026-09-02 23:58:18 | 50.36006 | 6.12146 | 6° | 5km/h | 24711m | 6m/s | -51.3°C | 3.8% | 29.8hPa | 3.8V | 00:00:00 | 00:00:00 | 00:00:00 | |
| GOEST3-10 | 2026-09-02 23:58:15 | 50.35999 | 6.12143 | 347° | 13km/h | 24695m | 5.0m/s | -51.3°C | 3.7% | 29.7hPa | 3.8V | 00:00:00 | 01:41:11 | 00:00:00 | |
| DM0DOS-11 | 2026-09-02 23:58:14 | 50.35987 | 6.12151 | 343° | 11km/h | 24681m | 5.2m/s | -51.3°C | 3.7% | 29.9hPa | 3.8V | 00:00:00 | 01:41:08 | 00:00:00 | |
| BIOWL1-15 | 2026-09-02 23:58:13 | 50.35991 | 6.12148 | 333° | 18km/h | 24685m | 4m/s | -51.3°C | 3.8% | 29.9hPa | 3.8V | 00:00:00 | 00:00:00 | 00:00:00 | |
| DL1XH-west | 2026-09-02 23:58:12 | 50.35987 | 6.12151 | 0° | 0km/h | 24681m | 0m/s | -51.3°C | 3.8% | 29.9hPa | 3.8V | 00:00:00 | 00:00:00 | 00:00:00 | |
| GOEST3-10 | 2026-09-02 23:58:09 | 50.35979 | 6.12153 | 16° | 9km/h | 24670m | 5.0m/s | -51.3°C | 3.7% | 29.9hPa | 3.8V | 00:00:00 | 00:00:00 | 00:00:00 | |
| DL1XH1-15 | 2026-09-02 23:58:08 | 50.35970 | 6.12157 | 356° | 11km/h | 24639m | 4.9m/s | -51.4°C | 3.7% | 30.1hPa | 3.8V | 00:00:00 | 01:41:00 | 00:00:00 | |
| DK7TD | 2026-09-02 23:58:07 | 50.35975 | 6.12152 | 309° | 7km/h | 24654m | 5m/s | -51.4°C | 3.8% | 30hPa | 3.8V | 00:00:00 | 00:00:00 | 00:00:00 | |
| GOEST3-10 | 2026-09-02 23:58:04 | 50.35972 | 6.12156 | 352° | 9km/h | 24644m | 4.9m/s | -51.3°C | 3.7% | 30.0hPa | 3.7V | 00:00:00 | 01:41:01 | 00:00:00 | |
| DM0DOS-11 | 2026-09-02 23:58:03 | 50.35966 | 6.12159 | 313° | 11km/h | 24630m | 5.3m/s | -51.4°C | 3.7% | 30.1hPa | 3.8V | 00:00:00 | 01:40:58 | 00:00:00 | |
| DL1XH-west | 2026-09-02 23:58:02 | 50.35963 | 6.12163 | 0° | 0km/h | 24624m | 0m/s | -51.4°C | 3.8% | 30.1hPa | 3.8V | 00:00:00 | 00:00:00 | 00:00:00 | |
| BIOWL1-15 | 2026-09-02 23:58:00 | 50.35962 | 6.12168 | 295° | 11km/h | 24619m | 5m/s | -51.4°C | 3.8% | 30.1hPa | 3.8V | 00:00:00 | 00:00:00 | 00:00:00 | |
| DK7TD | 2026-09-02 23:57:57 | 50.35958 | 6.12171 | 63° | 7km/h | 24603m | 4m/s | -51.4°C | 3.8% | 30.2hPa | 3.8V | 00:00:00 | 00:00:00 | 00:00:00 | |
| NBG1-10 | 2026-09-02 23:57:55 | 50.35957 | 6.12169 | 18° | 11km/h | 24599m | 4.6m/s | -51.4°C | 3.7% | 30.2hPa | 3.8V | 00:00:00 | 01:40:52 | 00:00:00 | |
| DL1XH1-15 | 2026-09-02 23:57:54 | 50.35954 | 6.12170 | 306° | 13km/h | 24589m | 5.1m/s | -51.4°C | 3.7% | 30.2hPa | 3.8V | 00:00:00 | 01:40:50 | 00:00:00 | |
| DM0DOS-11 | 2026-09-02 23:57:52 | 50.35949 | 6.12180 | 317° | 9km/h | 24578m | 4.9m/s | -51.4°C | 3.7% | 30.3hPa | 3.8V | 00:00:00 | 01:40:48 | 00:00:00 | |
| DL1XH-west | 2026-09-02 23:57:51 | 50.35944 | 6.12186 | 0° | 0km/h | 24568m | 0m/s | -51.4°C | 3.8% | 30.4hPa | 3.8V | 00:00:00 | 00:00:00 | 00:00:00 | |
| BIOWL1-15 | 2026-09-02 23:57:49 | 50.35943 | 6.12188 | 298° | 7km/h | 24564m | 5m/s | -51.4°C | 3.8% | 30.4hPa | 3.8V | 00:00:00 | 00:00:00 | 00:00:00 | |
| DL1XH1-15 | 2026-09-02 23:57:48 | 50.35942 | 6.12198 | 44° | 9km/h | 24538m | 4.9m/s | -51.4°C | 3.7% | 30.5hPa | 3.8V | 00:00:00 | 01:40:40 | 00:00:00 | |
| DK7TD | 2026-09-02 23:57:46 | 50.35942 | 6.12197 | 270° | 4km/h | 24549m | 5m/s | -51.4°C | 3.8% | 30.4hPa | 3.8V | 00:00:00 | 00:00:00 | 00:00:00 | |
| DM0DOS-11 | 2026-09-02 23:57:46 | 50.35938 | 6.12194 | 345° | 9km/h | 24529m | 5.1m/s | -51.4°C | 3.7% | 30.5hPa | 3.8V | 00:00:00 | 01:40:38 | 00:00:00 | |
| BIOWL1-15 | 2026-09-02 23:57:42 | 50.35931 | 6.12208 | 340° | 5km/h | 24509m | 5.5m/s | -51.3°C | 3.9% | 30.6hPa | 3.8V | 00:00:00 | 00:00:00 | 00:00:00 | |
| DL1XH-west | 2026-09-02 23:57:40 | 50.35933 | 6.12204 | 0° | 0km/h | 24514m | 0m/s | -51.3°C | 3.8% | 30.6hPa | 3.8V | 00:00:00 | 00:00:00 | 00:00:00 | |
| DK7TD | 2026-09-02 23:57:36 | 50.35929 | 6.12210 | 39° | 4km/h | 24498m | 4m/s | -51.3°C | 3.8% | 30.6hPa | 3.8V | 00:00:00 | 00:00:00 | 00:00:00 | |
| DL1XH-west | 2026-09-02 23:57:28 | 50.35919 | 6.12224 | 0° | 0km/h | 24459m | 0m/s | -51.3°C | 3.8% | 30.8hPa | 3.8V | 00:00:00 | 00:00:00 | 00:00:00 | |
| DL1XH1-15 | 2026-09-02 23:57:28 | 50.35921 | 6.12242 | 90° | 7km/h | 24438m | 5.1m/s | -51.3°C | 3.8% | 30.9hPa | 3.8V | 00:00:00 | 01:40:20 | 00:00:00 | |
| DK7TD | 2026-09-02 23:57:26 | 50.35919 | 6.12235 | 256° | 13km/h | 24448m | 5m/s | -51.3°C | 3.9% | 30.9hPa | 3.8V | 00:00:00 | 00:00:00 | 00:00:00 | |
| BIOWL1-15 | 2026-09-02 23:57:26 | 50.35919 | 6.12260 | 287° | 15km/h | 24407m | 5m/s | -51.2°C | 3.9% | 31.1hPa | 3.8V | 00:00:00 | 00:00:00 | 00:00:00 | |
| DM0DOS-11 | 2026-09-02 23:57:26 | 50.35921 | 6.12241 | 270° | 11km/h | 24428m | 5.1m/s | -51.3°C | 3.8% | 31hPa | 3.8V | 00:00:00 | 01:40:18 | 00:00:00 | |
| DL1XH-west | 2026-09-02 23:57:18 | 50.35918 | 6.12265 | 0° | 0km/h | 24402m | 0m/s | -51.2°C | 3.9% | 31.1hPa | 3.8V | 00:00:00 | 00:00:00 | 00:00:00 | |
| DK7TD | 2026-09-02 23:57:15 | 50.35915 | 6.12274 | 263° | 11km/h | 24393m | 5.5m/s | -51.2°C | 3.8% | 31.1hPa | 3.8V | 00:00:00 | 00:00:00 | 00:00:00 | |
| BIOWL1-15 | 2026-09-02 23:57:14 | 50.35915 | 6.12279 | 256° | 13km/h | 24387m | 5m/s | -51.2°C | 3.9% | 31.1hPa | 3.8V | 00:00:00 | 00:00:00 | 00:00:00 | |
| DL1XH1-15 | 2026-09-02 23:57:14 | 50.35915 | 6.12279 | 255° | 11km/h | 24387m | 5m/s | -51.2°C | 3.8% | 31.1hPa | 3.8V | 00:00:00 | 01:40:10 | 00:00:00 | |
| GOEST3-10 | 2026-09-02 23:57:13 | 50.35915 | 6.12279 | 236° | 13km/h | 24387m | 5.0m/s | -51.1°C | 3.8% | 31.1hPa | 3.7V | 00:00:00 | 00:00:00 | 00:00:00 | |
| DL1XH1-15 | 2026-09-02 23:57:08 | 50.35908 | 6.12324 | 294° | 9km/h | 24337m | 5.2m/s | -51.2°C | 3.8% | 31.4hPa | 3.8V | 00:00:00 | 01:40:00 | 00:00:00 | |
| DL1XH-west | 2026-09-02 23:57:07 | 50.35913 | 6.12308 | 0° | 0km/h | 24346m | 0m/s | -51.2°C | 3.9% | 31.4hPa | 3.8V | 00:00:00 | 00:00:00 | 00:00:00 | |
| BIOWL1-15 | 2026-09-02 23:57:04 | 50.35908 | 6.12324 | 295° | 7km/h | 24337m | 6m/s | -51.2°C | 3.9% | 31.4hPa | 3.8V | 00:00:00 | 00:00:00 | 00:00:00 | |
| DL1XH-west | 2026-09-02 23:56:55 | 50.35911 | 6.12348 | 0° | 0km/h | 24290m | 0m/s | -51°C | 3.9% | 31.6hPa | 3.8V | 00:00:00 | 00:00:00 | 00:00:00 | |
| DL1XH1-15 | 2026-09-02 23:56:54 | 50.35909 | 6.12349 | 312° | 15km/h | 24286m | 4.8m/s | -51°C | 3.8% | 31.6hPa | 3.8V | 00:00:00 | 01:39:50 | 00:00:00 | |
| BIOWL1-15 | 2026-09-02 23:56:53 | 50.35913 | 6.12361 | 229° | 29km/h | 24271m | 5m/s | -50.9°C | 3.9% | 31.7hPa | 3.8V | 00:00:00 | 00:00:00 | 00:00:00 | |
| DK7TD | 2026-09-02 23:56:52 | 50.35910 | 6.12354 | 236° | 22km/h | 24277m | 6m/s | -51°C | 3.9% | 31.6hPa | 3.8V | 00:00:00 | 00:00:00 | 00:00:00 | |
| DL1XH1-15 | 2026-09-02 23:56:48 | 50.35931 | 6.12379 | 292° | 16km/h | 24236m | 5m/s | -50.9°C | 4% | 31.8hPa | 3.8V | 00:00:00 | 01:39:40 | 00:00:00 | |
| DJ8HS-15 | 2026-09-02 23:56:47 | 50.35928 | 6.12382 | 186° | 15km/h | 24257m | 5.1m/s | -50.8°C | 4.0% | 31.7hPa | 3.7V | 00:00:00 | 01:39:44 | 00:00:00 | |
| DM0DOS-11 | 2026-09-02 23:56:46 | 50.35930 | 6.12391 | 243° | 18km/h | 24227m | 5.3m/s | -50.9°C | 3.8% | 31.9hPa | 3.8V | 00:00:00 | 01:39:38 | 00:00:00 | |
| DL1XH-west | 2026-09-02 23:56:46 | 50.35932 | 6.12379 | 0° | 0km/h | 24241m | 0m/s | -50.9°C | 3.9% | 31.8hPa | 3.8V | 00:00:00 | 00:00:00 | 00:00:00 | |
| DK7TD | 2026-09-02 23:56:42 | 50.35930 | 6.12391 | 244° | 20km/h | 24227m | 6m/s | -50.9°C | 3.9% | 31.9hPa | 3.8V | 00:00:00 | 00:00:00 | 00:00:00 | |
| BIOWL1-15 | 2026-09-02 23:56:41 | 50.35932 | 6.12398 | 229° | 20km/h | 24221m | 5m/s | -50.9°C | 3.9% | 31.9hPa | 3.8V | 00:00:00 | 00:00:00 | 00:00:00 | |
| GOEST3-10 | 2026-09-02 23:56:40 | 50.35932 | 6.12398 | 229° | 15km/h | 24221m | 5.0m/s | -50.9°C | 3.8% | 31.9hPa | 3.8V | 00:00:00 | 01:39:37 | 00:00:00 | |
| DM0DOS-11 | 2026-09-02 23:56:36 | 50.35954 | 6.12426 | 259° | 15km/h | 24175m | 5m/s | -51.2°C | 4% | 32.1hPa | 3.8V | 00:00:00 | 01:39:28 | 00:00:00 | |
| DL1XH-west | 2026-09-02 23:56:35 | 50.35955 | 6.12424 | 0° | 0km/h | 24191m | 0m/s | -51.1°C | 3.9% | 32hPa | 3.8V | 00:00:00 | 00:00:00 | 00:00:00 | |
| DL1XH1-15 | 2026-09-02 23:56:34 | 50.35955 | 6.12425 | 4° | 9km/h | 24185m | 5m/s | -51.2°C | 4% | 32.1hPa | 3.8V | 00:00:00 | 01:39:30 | 00:00:00 | |
| DK7TD | 2026-09-02 23:56:32 | 50.35954 | 6.12426 | 260° | 9km/h | 24175m | 5m/s | -51.2°C | 4% | 32.1hPa | 3.8V | 00:00:00 | 00:00:00 | 00:00:00 | |
| BIOWL1-15 | 2026-09-02 23:56:31 | 50.35956 | 6.12436 | 235° | 24km/h | 24164m | 4m/s | -51.3°C | 4% | 32.2hPa | 3.8V | 00:00:00 | 00:00:00 | 00:00:00 | |
| DL1XH1-15 | 2026-09-02 23:56:28 | 50.35974 | 6.12450 | 270° | 9km/h | 24136m | 5m/s | -51.5°C | 4% | 32.3hPa | 3.8V | 00:00:00 | 01:39:20 | 00:00:00 | |
| DL1XH-west | 2026-09-02 23:56:25 | 50.35974 | 6.12450 | 0° | 0km/h | 24136m | 0m/s | -51.5°C | 4% | 32.3hPa | 3.8V | 00:00:00 | 00:00:00 | 00:00:00 | |
| GOEST3-10 | 2026-09-02 23:56:23 | 50.35974 | 6.12450 | 271° | 11km/h | 24136m | 5.0m/s | -51.5°C | 4.0% | 32.2hPa | 3.8V | 00:00:00 | 00:00:00 | 00:00:00 | |
| DM0DOS-11 | 2026-09-02 23:56:22 | 50.35975 | 6.12454 | 256° | 13km/h | 24126m | 4.9m/s | -51.5°C | 3.8% | 32.3hPa | 3.8V | 00:00:00 | 01:39:18 | 00:00:00 | |
| BIOWL1-15 | 2026-09-02 23:56:22 | 50.35977 | 6.12464 | 213° | 15km/h | 24116m | 5m/s | -51.5°C | 4% | 32.4hPa | 3.8V | 00:00:00 | 00:00:00 | 00:00:00 | |
| DK7TD | 2026-09-02 23:56:22 | 50.35975 | 6.12459 | 237° | 15km/h | 24121m | 5m/s | -51.5°C | 4% | 32.4hPa | 3.8V | 00:00:00 | 00:00:00 | 00:00:00 | |
| GOEST3-10 | 2026-09-02 23:56:18 | 50.35980 | 6.12467 | 200° | 9km/h | 24111m | 4.8m/s | -51.5°C | 4.0% | 32.4hPa | 3.7V | 00:00:00 | 01:39:15 | 00:00:00 | |
| DM0DOS-11 | 2026-09-02 23:56:16 | 50.35992 | 6.12486 | 23° | 9km/h | 24077m | 4.8m/s | -51.5°C | 3.8% | 32.6hPa | 3.8V | 00:00:00 | 01:39:08 | 00:00:00 | |
| DL1XH1-15 | 2026-09-02 23:56:14 | 50.35994 | 6.12483 | 292° | 7km/h | 24088m | 5.1m/s | -51.5°C | 4% | 32.5hPa | 3.8V | 00:00:00 | 01:39:10 | 00:00:00 | |
| DL1XH-west | 2026-09-02 23:56:14 | 50.35993 | 6.12486 | 0° | 0km/h | 24083m | 0m/s | -51.5°C | 4% | 32.6hPa | 3.8V | 00:00:00 | 00:00:00 | 00:00:00 | |
| BIOWL1-15 | 2026-09-02 23:56:10 | 50.35987 | 6.12484 | 321° | 5km/h | 24068m | 5m/s | -51.6°C | 4% | 32.6hPa | 3.8V | 00:00:00 | 00:00:00 | 00:00:00 | |
| DL1XH1-15 | 2026-09-02 23:56:08 | 50.35991 | 6.12502 | 342° | 4km/h | 24037m | 5.1m/s | -52°C | 4% | 32.8hPa | 3.8V | 00:00:00 | 01:39:00 | 00:00:00 | |
| DL1XH-west | 2026-09-02 23:56:03 | 50.35989 | 6.12506 | 0° | 0km/h | 24021m | 0m/s | -52°C | 4% | 32.9hPa | 3.8V | 00:00:00 | 00:00:00 | 00:00:00 | |
| DM0DOS-11 | 2026-09-02 23:56:03 | 50.35989 | 6.12503 | 296° | 5km/h | 24027m | 5.4m/s | -52°C | 4% | 32.8hPa | 3.8V | 00:00:00 | 01:38:58 | 00:00:00 | |
| DK7TD | 2026-09-02 23:56:00 | 50.35988 | 6.12508 | 295° | 4km/h | 24016m | 6m/s | -52°C | 4% | 32.9hPa | 3.8V | 00:00:00 | 00:00:00 | 00:00:00 | |
| BIOWL1-15 | 2026-09-02 23:55:59 | 50.35988 | 6.12509 | 9° | 2km/h | 24010m | 5m/s | -52°C | 4% | 32.9hPa | 3.8V | 00:00:00 | 00:00:00 | 00:00:00 | |
| DM0DOS-11 | 2026-09-02 23:55:56 | 50.35987 | 6.12529 | 326° | 11km/h | 23974m | 4.9m/s | -52°C | 4% | 33.1hPa | 3.8V | 00:00:00 | 01:38:48 | 00:00:00 | |
| DL1XH-west | 2026-09-02 23:55:51 | 50.35984 | 6.12534 | 0° | 0km/h | 23965m | 0m/s | -52°C | 4% | 33.1hPa | 3.8V | 00:00:00 | 00:00:00 | 00:00:00 | |
| DK7TD | 2026-09-02 23:55:49 | 50.35983 | 6.12538 | 270° | 15km/h | 23959m | 5m/s | -52°C | 4% | 33.1hPa | 3.8V | 00:00:00 | 00:00:00 | 00:00:00 | |
| BIOWL1-15 | 2026-09-02 23:55:48 | 50.35983 | 6.12545 | 259° | 16km/h | 23954m | 5m/s | -52°C | 4% | 33.2hPa | 3.8V | 00:00:00 | 00:00:00 | 00:00:00 | |
| DJ8HS-15 | 2026-09-02 23:55:47 | 50.35983 | 6.12545 | 260° | 16km/h | 23954m | 4.9m/s | -52.0°C | 4.0% | 33.1hPa | 3.7V | 00:00:00 | 01:38:44 | 00:00:00 | |
| GOEST3-10 | 2026-09-02 23:55:45 | 50.35985 | 6.12555 | 218° | 13km/h | 23944m | 5.2m/s | -52.0°C | 4.0% | 33.2hPa | 3.7V | 00:00:00 | 01:38:42 | 00:00:00 | |
| DM0DOS-11 | 2026-09-02 23:55:43 | 50.35987 | 6.12563 | 278° | 20km/h | 23925m | 5m/s | -52°C | 4% | 33.3hPa | 3.8V | 00:00:00 | 01:38:38 | 00:00:00 | |
| DL1XH-west | 2026-09-02 23:55:40 | 50.35986 | 6.12593 | 0° | 0km/h | 23911m | 0m/s | -52.1°C | 4% | 33.4hPa | 3.8V | 00:00:00 | 00:00:00 | 00:00:00 | |
| DK7TD | 2026-09-02 23:55:38 | 50.35987 | 6.12600 | 233° | 13km/h | 23906m | 6m/s | -52.1°C | 4% | 33.4hPa | 3.8V | 00:00:00 | 00:00:00 | 00:00:00 | |
| BIOWL1-15 | 2026-09-02 23:55:37 | 50.35989 | 6.12604 | 178° | 9km/h | 23900m | 6m/s | -52.1°C | 4% | 33.4hPa | 3.8V | 00:00:00 | 00:00:00 | 00:00:00 | |
| DM0DOS-11 | 2026-09-02 23:55:36 | 50.36001 | 6.12615 | 254° | 22km/h | 23875m | 5.3m/s | -52°C | 4% | 33.5hPa | 3.8V | 00:00:00 | 01:38:28 | 00:00:00 | |
| DL1XH-west | 2026-09-02 23:55:29 | 50.36008 | 6.12643 | 0° | 0km/h | 23859m | 0m/s | -52°C | 4% | 33.6hPa | 3.8V | 00:00:00 | 00:00:00 | 00:00:00 | |
| BIOWL1-15 | 2026-09-02 23:55:29 | 50.36015 | 6.12649 | 195° | 11km/h | 23849m | 5.3m/s | -52.1°C | 4% | 33.7hPa | 3.8V | 00:00:00 | 00:00:00 | 00:00:00 | |
| DK7TD | 2026-09-02 23:55:28 | 50.36011 | 6.12648 | 200° | 15km/h | 23854m | 5m/s | -52°C | 4% | 33.6hPa | 3.8V | 00:00:00 | 00:00:00 | 00:00:00 | |
| DJ8HS-15 | 2026-09-02 23:55:27 | 50.36011 | 6.12647 | 200° | 26km/h | 23854m | 5.2m/s | -52.0°C | 4.0% | 33.6hPa | 3.8V | 00:00:00 | 01:38:24 | 00:00:00 | |
| DM0DOS-11 | 2026-09-02 23:55:23 | 50.36029 | 6.12655 | 187° | 26km/h | 23822m | 5.3m/s | -52°C | 4% | 33.8hPa | 3.8V | 00:00:00 | 01:38:18 | 00:00:00 | |
| DL1XH-west | 2026-09-02 23:55:19 | 50.36054 | 6.12670 | 0° | 0km/h | 23801m | 0m/s | -52°C | 4% | 33.9hPa | 3.8V | 00:00:00 | 00:00:00 | 00:00:00 | |
| DK7TD | 2026-09-02 23:55:17 | 50.36058 | 6.12676 | 202° | 20km/h | 23796m | 4m/s | -51.9°C | 4% | 33.9hPa | 3.8V | 00:00:00 | 00:00:00 | 00:00:00 | |
| BIOWL1-15 | 2026-09-02 23:55:16 | 50.36095 | 6.12667 | 205° | 27km/h | 23765m | 6m/s | -52°C | 4% | 34.1hPa | 3.8V | 00:00:00 | 00:00:00 | 00:00:00 | |
| DL1XH1-15 | 2026-09-02 23:55:14 | 50.36074 | 6.12675 | 156° | 29km/h | 23780m | 5.1m/s | -51.9°C | 4% | 34hPa | 3.8V | 00:00:00 | 01:38:10 | 00:00:00 | |
| DM0DOS-11 | 2026-09-02 23:55:13 | 50.36088 | 6.12667 | 182° | 29km/h | 23771m | 5.5m/s | -52°C | 4% | 34.1hPa | 3.8V | 00:00:00 | 01:38:08 | 00:00:00 | |
| DL1XH1-15 | 2026-09-02 23:55:08 | 50.36145 | 6.12686 | 169° | 31km/h | 23728m | 5m/s | -52.1°C | 4% | 34.3hPa | 3.8V | 00:00:00 | 01:38:00 | 00:00:00 | |
| DK7TD | 2026-09-02 23:55:07 | 50.36123 | 6.12688 | 183° | 31km/h | 23744m | 5m/s | -52.1°C | 4% | 34.2hPa | 3.8V | 00:00:00 | 00:00:00 | 00:00:00 | |
| BIOWL1-15 | 2026-09-02 23:55:01 | 50.36194 | 6.12671 | 186° | 31km/h | 23697m | 6m/s | -52.2°C | 4% | 34.5hPa | 3.8V | 00:00:00 | 00:00:00 | 00:00:00 | |
| DK7TD | 2026-09-02 23:54:56 | 50.36209 | 6.12674 | 179° | 26km/h | 23687m | 4m/s | -52.3°C | 4% | 34.5hPa | 3.8V | 00:00:00 | 00:00:00 | 00:00:00 | |
| DM0DOS-11 | 2026-09-02 23:54:56 | 50.36240 | 6.12655 | 153° | 40km/h | 23667m | 5.1m/s | -52.4°C | 4% | 34.6hPa | 3.8V | 00:00:00 | 01:37:48 | 00:00:00 | |
| DL1XH1-15 | 2026-09-02 23:54:54 | 50.36223 | 6.12670 | 151° | 40km/h | 23677m | 5.1m/s | -52.3°C | 4% | 34.5hPa | 3.8V | 00:00:00 | 01:37:50 | 00:00:00 | |
| GOEST3-10 | 2026-09-02 23:54:49 | 50.36259 | 6.12643 | 172° | 38km/h | 23656m | 4.8m/s | -52.3°C | 4.0% | 34.6hPa | 3.8V | 00:00:00 | 01:37:46 | 00:00:00 | |
| DL1XH1-15 | 2026-09-02 23:54:48 | 50.36318 | 6.12619 | 159° | 38km/h | 23627m | 5m/s | -52.5°C | 4% | 34.8hPa | 3.8V | 00:00:00 | 01:37:40 | 00:00:00 | |
| DL1XH-west | 2026-09-02 23:54:46 | 50.36297 | 6.12633 | 0° | 0km/h | 23636m | 0m/s | -52.5°C | 4% | 34.7hPa | 3.8V | 00:00:00 | 00:00:00 | 00:00:00 | |
| DK7TD | 2026-09-02 23:54:45 | 50.36308 | 6.12626 | 158° | 44km/h | 23632m | 5m/s | -52.5°C | 4% | 34.8hPa | 3.8V | 00:00:00 | 00:00:00 | 00:00:00 | |
| DL1XH-west | 2026-09-02 23:54:36 | 50.36381 | 6.12560 | 0° | 0km/h | 23587m | 0m/s | -52.5°C | 4.1% | 35hPa | 3.8V | 00:00:00 | 00:00:00 | 00:00:00 | |
| BIOWL1-15 | 2026-09-02 23:54:35 | 50.36440 | 6.12515 | 147° | 31km/h | 23545m | 5m/s | -52.7°C | 4.1% | 35.2hPa | 3.8V | 00:00:00 | 00:00:00 | 00:00:00 | |
| DK7TD | 2026-09-02 23:54:34 | 50.36396 | 6.12551 | 159° | 33km/h | 23577m | 5.5m/s | -52.5°C | 4.1% | 35hPa | 3.8V | 00:00:00 | 00:00:00 | 00:00:00 | |
| DL1XH1-15 | 2026-09-02 23:54:34 | 50.36396 | 6.12551 | 161° | 33km/h | 23577m | 5.3m/s | -52.5°C | 4% | 35hPa | 3.8V | 00:00:00 | 01:37:30 | 00:00:00 | |
| GOEST3-10 | 2026-09-02 23:54:33 | 50.36396 | 6.12551 | 159° | 31km/h | 23577m | 5.1m/s | -52.5°C | 4.0% | 35.0hPa | 3.7V | 00:00:00 | 00:00:00 | 00:00:00 | |
| NBG1-10 | 2026-09-02 23:54:31 | 50.36411 | 6.12542 | 148° | 20km/h | 23566m | 5.1m/s | -52.5°C | 4.0% | 35.1hPa | 3.7V | 00:00:00 | 01:37:28 | 00:00:00 | |
| DL1XH1-15 | 2026-09-02 23:54:28 | 50.36465 | 6.12488 | 160° | 29km/h | 23524m | 5m/s | -52.8°C | 4% | 35.3hPa | 3.8V | 00:00:00 | 01:37:20 | 00:00:00 | |
| DL1XH-west | 2026-09-02 23:54:25 | 50.36459 | 6.12494 | 0° | 0km/h | 23529m | 0m/s | -52.8°C | 4.1% | 35.3hPa | 3.8V | 00:00:00 | 00:00:00 | 00:00:00 | |
| DM0DOS-11 | 2026-09-02 23:54:24 | 50.36479 | 6.12481 | 155° | 29km/h | 23514m | 5m/s | -52.9°C | 4% | 35.4hPa | 3.8V | 00:00:00 | 01:37:18 | 00:00:00 | |
| BIOWL1-15 | 2026-09-02 23:54:22 | 50.36479 | 6.12481 | 147° | 29km/h | 23514m | 5m/s | -52.9°C | 4.1% | 35.4hPa | 3.8V | 00:00:00 | 00:00:00 | 00:00:00 | |
| DL1XH-west | 2026-09-02 23:54:15 | 50.36517 | 6.12424 | 0° | 0km/h | 23478m | 0m/s | -53.2°C | 4.1% | 35.5hPa | 3.8V | 00:00:00 | 00:00:00 | 00:00:00 | |
| DL1XH1-15 | 2026-09-02 23:54:14 | 50.36522 | 6.12421 | 153° | 22km/h | 23473m | 4.9m/s | -53.3°C | 4% | 35.6hPa | 3.8V | 00:00:00 | 01:37:10 | 00:00:00 | |
| DM0DOS-11 | 2026-09-02 23:54:13 | 50.36533 | 6.12411 | 138° | 20km/h | 23463m | 4.8m/s | -53.4°C | 4% | 35.6hPa | 3.8V | 00:00:00 | 01:37:08 | 00:00:00 | |
| DK7TD | 2026-09-02 23:54:11 | 50.36538 | 6.12404 | 139° | 24km/h | 23459m | 5m/s | -53.5°C | 4.1% | 35.7hPa | 3.8V | 00:00:00 | 00:00:00 | 00:00:00 | |
| BIOWL1-15 | 2026-09-02 23:54:11 | 50.36546 | 6.12393 | 144° | 15km/h | 23448m | 5m/s | -53.5°C | 4.1% | 35.7hPa | 3.8V | 00:00:00 | 00:00:00 | 00:00:00 | |
| GOEST3-10 | 2026-09-02 23:54:09 | 50.36542 | 6.12397 | 140° | 16km/h | 23454m | 5.0m/s | -53.5°C | 4.0% | 35.7hPa | 3.8V | 00:00:00 | 00:00:00 | 00:00:00 | |
| DJ8HS-15 | 2026-09-02 23:54:07 | 50.36549 | 6.12389 | 146° | 13km/h | 23443m | 4.7m/s | -53.5°C | 4.0% | 35.7hPa | 3.8V | 00:00:00 | 01:37:04 | 00:00:00 | |
| DM0DOS-11 | 2026-09-02 23:54:06 | 50.36570 | 6.12366 | 207° | 13km/h | 23414m | 4.9m/s | -53.6°C | 4% | 35.9hPa | 3.8V | 00:00:00 | 01:36:58 | 00:00:00 | |
| DL1XH-west | 2026-09-02 23:54:05 | 50.36563 | 6.12369 | 0° | 0km/h | 23425m | 0m/s | -53.7°C | 4.1% | 35.8hPa | 3.8V | 00:00:00 | 00:00:00 | 00:00:00 | |
| DK7TD | 2026-09-02 23:54:01 | 50.36573 | 6.12368 | 187° | 13km/h | 23409m | 5m/s | -53.6°C | 4.1% | 35.9hPa | 3.8V | 00:00:00 | 00:00:00 | 00:00:00 | |
| BIOWL1-15 | 2026-09-02 23:54:00 | 50.36579 | 6.12369 | 142° | 18km/h | 23399m | 5m/s | -53.6°C | 4.1% | 36hPa | 3.8V | 00:00:00 | 00:00:00 | 00:00:00 | |
| DL1XH-west | 2026-09-02 23:53:55 | 50.36591 | 6.12354 | 0° | 0km/h | 23374m | 0m/s | -53.6°C | 4.1% | 36.1hPa | 3.8V | 00:00:00 | 00:00:00 | 00:00:00 | |
| DM0DOS-11 | 2026-09-02 23:53:53 | 50.36592 | 6.12355 | 176° | 11km/h | 23364m | 4.8m/s | -53.7°C | 4% | 36.1hPa | 3.8V | 00:00:00 | 01:36:48 | 00:00:00 | |
| DK7TD | 2026-09-02 23:53:50 | 50.36598 | 6.12356 | 201° | 13km/h | 23355m | 5m/s | -53.7°C | 4.1% | 36.2hPa | 3.8V | 00:00:00 | 00:00:00 | 00:00:00 | |
| DL1XH1-15 | 2026-09-02 23:53:48 | 50.36613 | 6.12361 | 143° | 13km/h | 23324m | 4.7m/s | -53.5°C | 4% | 36.4hPa | 3.8V | 00:00:00 | 01:36:40 | 00:00:00 | |
| BIOWL1-15 | 2026-09-02 23:53:47 | 50.36607 | 6.12364 | 202° | 9km/h | 23340m | 5m/s | -53.6°C | 4.1% | 36.3hPa | 3.8V | 00:00:00 | 00:00:00 | 00:00:00 | |
| DM0DOS-11 | 2026-09-02 23:53:46 | 50.36617 | 6.12360 | 220° | 16km/h | 23314m | 4.5m/s | -53.5°C | 4% | 36.4hPa | 3.8V | 00:00:00 | 01:36:38 | 00:00:00 | |
| DL1XH-west | 2026-09-02 23:53:43 | 50.36614 | 6.12360 | 0° | 0km/h | 23320m | 0m/s | -53.5°C | 4.1% | 36.4hPa | 3.8V | 00:00:00 | 00:00:00 | 00:00:00 | |
| DK7TD | 2026-09-02 23:53:40 | 50.36623 | 6.12370 | 209° | 20km/h | 23305m | 4m/s | -53.5°C | 4.1% | 36.5hPa | 3.8V | 00:00:00 | 00:00:00 | 00:00:00 | |
| BIOWL1-15 | 2026-09-02 23:53:37 | 50.36637 | 6.12372 | 144° | 18km/h | 23291m | 3m/s | -53.4°C | 4.1% | 36.6hPa | 3.8V | 00:00:00 | 00:00:00 | 00:00:00 | |
| GOEST3-10 | 2026-09-02 23:53:36 | 50.36637 | 6.12372 | 145° | 15km/h | 23291m | 4.2m/s | -53.3°C | 4.0% | 36.5hPa | 3.8V | 00:00:00 | 00:00:00 | 00:00:00 | |
| DL1XH1-15 | 2026-09-02 23:53:35 | 50.36644 | 6.12364 | 256° | 13km/h | 23278m | 4.5m/s | -53.4°C | 4% | 36.6hPa | 3.8V | 00:00:00 | 01:36:30 | 00:00:00 | |
| DM0DOS-11 | 2026-09-02 23:53:35 | 50.36645 | 6.12371 | 239° | 16km/h | 23269m | 4.5m/s | -53.3°C | 4% | 36.7hPa | 3.8V | 00:00:00 | 01:36:28 | 00:00:00 | |
| DL1XH-west | 2026-09-02 23:53:32 | 50.36645 | 6.12371 | 0° | 0km/h | 23269m | 0m/s | -53.3°C | 4.1% | 36.7hPa | 3.8V | 00:00:00 | 00:00:00 | 00:00:00 | |
| DK7TD | 2026-09-02 23:53:30 | 50.36649 | 6.12374 | 148° | 22km/h | 23261m | 6m/s | -53.3°C | 4.2% | 36.8hPa | 3.8V | 00:00:00 | 00:00:00 | 00:00:00 | |
| DL1XH1-15 | 2026-09-02 23:53:28 | 50.36670 | 6.12343 | 224° | 15km/h | 23231m | 4.8m/s | -53.3°C | 4% | 36.9hPa | 3.8V | 00:00:00 | 01:36:20 | 00:00:00 | |
| DJ8HS-15 | 2026-09-02 23:53:27 | 50.36658 | 6.12362 | 131° | 18km/h | 23250m | 4.6m/s | -53.3°C | 4.0% | 36.8hPa | 3.8V | 00:00:00 | 01:36:24 | 00:00:00 | |
| GOEST3-10 | 2026-09-02 23:53:26 | 50.36663 | 6.12353 | 130° | 15km/h | 23246m | 4.9m/s | -53.3°C | 4.0% | 36.8hPa | 3.8V | 00:00:00 | 00:00:00 | 00:00:00 | |
| DM0DOS-11 | 2026-09-02 23:53:24 | 50.36674 | 6.12348 | 189° | 18km/h | 23221m | 4.7m/s | -53.4°C | 4% | 37hPa | 3.8V | 00:00:00 | 01:36:18 | 00:00:00 | |
| DL1XH-west | 2026-09-02 23:53:22 | 50.36674 | 6.12348 | 0° | 0km/h | 23221m | 0m/s | -53.4°C | 4.1% | 37hPa | 3.8V | 00:00:00 | 00:00:00 | 00:00:00 | |
| DK7TD | 2026-09-02 23:53:19 | 50.36684 | 6.12343 | 136° | 18km/h | 23207m | 5m/s | -53.4°C | 4.2% | 37hPa | 3.8V | 00:00:00 | 00:00:00 | 00:00:00 | |
| GOEST3-10 | 2026-09-02 23:53:15 | 50.36698 | 6.12325 | 157° | 22km/h | 23192m | 4.6m/s | -53.3°C | 4.0% | 37.1hPa | 3.7V | 00:00:00 | 00:00:00 | 00:00:00 | |
| DL1XH1-15 | 2026-09-02 23:53:14 | 50.36711 | 6.12316 | 164° | 16km/h | 23183m | 4.8m/s | -53.4°C | 4% | 37.2hPa | 3.8V | 00:00:00 | 01:36:10 | 00:00:00 | |
| DM0DOS-11 | 2026-09-02 23:53:13 | 50.36719 | 6.12314 | 182° | 16km/h | 23173m | 4.8m/s | -53.5°C | 4.1% | 37.2hPa | 3.8V | 00:00:00 | 01:36:08 | 00:00:00 | |
| BIOWL1-15 | 2026-09-02 23:53:11 | 50.36721 | 6.12314 | 175° | 9km/h | 23168m | 4m/s | -53.5°C | 4.1% | 37.2hPa | 3.8V | 00:00:00 | 00:00:00 | 00:00:00 | |
| DK7TD | 2026-09-02 23:53:09 | 50.36727 | 6.12312 | 160° | 29km/h | 23159m | 5m/s | -53.6°C | 4.1% | 37.3hPa | 3.8V | 00:00:00 | 00:00:00 | 00:00:00 | |
| DL1XH1-15 | 2026-09-02 23:53:08 | 50.36760 | 6.12289 | 158° | 24km/h | 23135m | 5m/s | -53.9°C | 4.1% | 37.4hPa | 3.8V | 00:00:00 | 01:36:00 | 00:00:00 | |
| DJ8HS-15 | 2026-09-02 23:53:07 | 50.36733 | 6.12309 | 159° | 26km/h | 23154m | 4.8m/s | -53.7°C | 4.1% | 37.2hPa | 3.8V | 00:00:00 | 01:36:04 | 00:00:00 | |
| DM0DOS-11 | 2026-09-02 23:53:06 | 50.36771 | 6.12283 | 168° | 26km/h | 23125m | 4.9m/s | -53.9°C | 4% | 37.5hPa | 3.8V | 00:00:00 | 01:35:58 | 00:00:00 | |
| DL1XH-west | 2026-09-02 23:53:01 | 50.36783 | 6.12279 | 0° | 0km/h | 23115m | 0m/s | -53.9°C | 4.2% | 37.5hPa | 3.8V | 00:00:00 | 00:00:00 | 00:00:00 | |
| DK7TD | 2026-09-02 23:52:58 | 50.36792 | 6.12273 | 132° | 26km/h | 23105m | 4m/s | -53.9°C | 4.1% | 37.6hPa | 3.8V | 00:00:00 | 00:00:00 | 00:00:00 | |
| GOEST3-10 | 2026-09-02 23:52:56 | 50.36796 | 6.12267 | 132° | 27km/h | 23101m | 4.7m/s | -53.9°C | 4.1% | 37.6hPa | 3.7V | 00:00:00 | 01:35:53 | 00:00:00 | |
| DM0DOS-11 | 2026-09-02 23:52:54 | 50.36832 | 6.12223 | 157° | 18km/h | 23076m | 4.9m/s | -54°C | 4.1% | 37.8hPa | 3.8V | 00:00:00 | 01:35:48 | 00:00:00 | |
| BIOWL1-15 | 2026-09-02 23:52:50 | 50.36841 | 6.12218 | 160° | 11km/h | 23066m | 4m/s | -54°C | 4.2% | 37.8hPa | 3.8V | 00:00:00 | 00:00:00 | 00:00:00 | |
| DL1XH-west | 2026-09-02 23:52:49 | 50.36843 | 6.12217 | 0° | 0km/h | 23062m | 0m/s | -54.1°C | 4.2% | 37.8hPa | 3.8V | 00:00:00 | 00:00:00 | 00:00:00 | |
| DK7TD | 2026-09-02 23:52:46 | 50.36859 | 6.12204 | 145° | 27km/h | 23048m | 5m/s | -54.1°C | 4.2% | 37.9hPa | 3.8V | 00:00:00 | 00:00:00 | 00:00:00 | |
| BIOWL1-15 | 2026-09-02 23:52:39 | 50.36896 | 6.12163 | 134° | 22km/h | 23002m | 4.8m/s | -54.1°C | 4.2% | 38.2hPa | 3.8V | 00:00:00 | 00:00:00 | 00:00:00 | |
| DL1XH-west | 2026-09-02 23:52:39 | 50.36893 | 6.12166 | 0° | 0km/h | 23007m | 0m/s | -54.1°C | 4.2% | 38.1hPa | 3.8V | 00:00:00 | 00:00:00 | 00:00:00 | |
| DM0DOS-11 | 2026-09-02 23:52:36 | 50.36916 | 6.12129 | 116° | 15km/h | 22979m | 4.8m/s | -54°C | 4.1% | 38.3hPa | 3.8V | 00:00:00 | 01:35:28 | 00:00:00 | |
| DK7TD | 2026-09-02 23:52:36 | 50.36898 | 6.12160 | 133° | 18km/h | 22999m | 5m/s | -54.1°C | 4.2% | 38.2hPa | 3.8V | 00:00:00 | 00:00:00 | 00:00:00 | |
| DL1XH1-15 | 2026-09-02 23:52:34 | 50.36905 | 6.12147 | 135° | 22km/h | 22988m | 4.7m/s | -54°C | 4.1% | 38.3hPa | 3.8V | 00:00:00 | 01:35:30 | 00:00:00 | |
| BIOWL1-15 | 2026-09-02 23:52:29 | 50.36919 | 6.12111 | 115° | 4km/h | 22964m | 4m/s | -53.9°C | 4.2% | 38.3hPa | 3.8V | 00:00:00 | 00:00:00 | 00:00:00 | |
| DL1XH1-15 | 2026-09-02 23:52:28 | 50.36934 | 6.12099 | 121° | 15km/h | 22941m | 4.7m/s | -53.9°C | 4.1% | 38.5hPa | 3.8V | 00:00:00 | 01:35:20 | 00:00:00 | |
| DL1XH-west | 2026-09-02 23:52:28 | 50.36921 | 6.12109 | 0° | 0km/h | 22955m | 0m/s | -53.9°C | 4.2% | 38.4hPa | 3.8V | 00:00:00 | 00:00:00 | 00:00:00 | |
| DK7TD | 2026-09-02 23:52:25 | 50.36930 | 6.12105 | 0° | 0km/h | 22946m | 0m/s | -53.9°C | 4.2% | 38.4hPa | 3.8V | 00:00:00 | 00:00:00 | 00:00:00 | |
| DM0DOS-11 | 2026-09-02 23:52:24 | 50.36938 | 6.12086 | 97° | 11km/h | 22932m | 4.8m/s | -53.8°C | 4.1% | 38.5hPa | 3.8V | 00:00:00 | 01:35:18 | 00:00:00 | |
| BIOWL1-15 | 2026-09-02 23:52:16 | 50.36948 | 6.12070 | 141° | 18km/h | 22903m | 4m/s | -53.8°C | 4.2% | 38.7hPa | 3.8V | 00:00:00 | 00:00:00 | 00:00:00 | |
| DM0DOS-11 | 2026-09-02 23:52:14 | 50.36962 | 6.12056 | 121° | 15km/h | 22884m | 4.8m/s | -53.8°C | 4.1% | 38.8hPa | 3.8V | 00:00:00 | 01:35:08 | 00:00:00 | |
| DL1XH1-15 | 2026-09-02 23:52:14 | 50.36955 | 6.12061 | 155° | 15km/h | 22893m | 4.7m/s | -53.8°C | 4.1% | 38.8hPa | 3.8V | 00:00:00 | 01:35:10 | 00:00:00 | |
| DL1XH1-15 | 2026-09-02 23:52:08 | 50.36966 | 6.12032 | 162° | 18km/h | 22846m | 4.8m/s | -53.5°C | 4.1% | 39hPa | 3.8V | 00:00:00 | 01:35:00 | 00:00:00 | |
| DL1XH-west | 2026-09-02 23:52:06 | 50.36958 | 6.12030 | 0° | 0km/h | 22855m | 0m/s | -53.5°C | 4.2% | 39hPa | 3.8V | 00:00:00 | 00:00:00 | 00:00:00 | |
| BIOWL1-15 | 2026-09-02 23:52:06 | 50.36966 | 6.12032 | 163° | 24km/h | 22846m | 5m/s | -53.5°C | 4.2% | 39hPa | 3.8V | 00:00:00 | 00:00:00 | 00:00:00 | |
| DB0UT-7 | 2026-09-02 23:52:04 | 50.36961 | 6.12031 | 183° | 13km/h | 22850m | 4.5m/s | -53.5°C | 4.1% | 38.9hPa | 3.8V | 00:00:00 | 01:35:01 | 00:00:00 | |
| DM0DOS-11 | 2026-09-02 23:51:56 | 50.36988 | 6.11985 | 132° | 11km/h | 22787m | 4.8m/s | -53.6°C | 4.2% | 39.4hPa | 3.8V | 00:00:00 | 01:34:48 | 00:00:00 | |
| DL1XH-west | 2026-09-02 23:51:56 | 50.36976 | 6.12009 | 0° | 0km/h | 22809m | 0m/s | -53.4°C | 4.3% | 39.2hPa | 3.8V | 00:00:00 | 00:00:00 | 00:00:00 | |
| DL1XH1-15 | 2026-09-02 23:51:54 | 50.36980 | 6.12000 | 126° | 18km/h | 22797m | 4.9m/s | -53.5°C | 4.2% | 39.3hPa | 3.8V | 00:00:00 | 01:34:50 | 00:00:00 | |
| BIOWL1-15 | 2026-09-02 23:51:53 | 50.36984 | 6.11992 | 130° | 18km/h | 22792m | 4.7m/s | -53.6°C | 4.3% | 39.3hPa | 3.8V | 00:00:00 | 00:00:00 | 00:00:00 | |
| DL1XH1-15 | 2026-09-02 23:51:48 | 50.37001 | 6.11975 | 150° | 18km/h | 22748m | 4.9m/s | -53.6°C | 4.2% | 39.6hPa | 3.8V | 00:00:00 | 01:34:40 | 00:00:00 | |
| DL1XH-west | 2026-09-02 23:51:45 | 50.36999 | 6.11974 | 0° | 0km/h | 22752m | 0m/s | -53.7°C | 4.3% | 39.6hPa | 3.8V | 00:00:00 | 00:00:00 | 00:00:00 | |
| GOEST3-10 | 2026-09-02 23:51:44 | 50.36999 | 6.11974 | 163° | 11km/h | 22752m | 4.7m/s | -53.6°C | 4.2% | 39.5hPa | 3.8V | 00:00:00 | 00:00:00 | 00:00:00 | |
| DM0DOS-11 | 2026-09-02 23:51:43 | 50.37009 | 6.11964 | 115° | 16km/h | 22737m | 4.5m/s | -53.7°C | 4.2% | 39.7hPa | 3.8V | 00:00:00 | 01:34:38 | 00:00:00 | |
| BIOWL1-15 | 2026-09-02 23:51:40 | 50.37015 | 6.11938 | 351° | 2km/h | 22724m | 5.5m/s | -53.6°C | 4.3% | 39.7hPa | 3.8V | 00:00:00 | 00:00:00 | 00:00:00 | |
| DM0DOS-11 | 2026-09-02 23:51:37 | 50.37016 | 6.11931 | 139° | 11km/h | 22691m | 4.9m/s | -53.6°C | 4.2% | 39.9hPa | 3.8V | 00:00:00 | 01:34:28 | 00:00:00 | |
| DL1XH-west | 2026-09-02 23:51:34 | 50.37013 | 6.11940 | 0° | 0km/h | 22700m | 0m/s | -53.6°C | 4.3% | 39.9hPa | 3.8V | 00:00:00 | 00:00:00 | 00:00:00 | |
| DL1XH1-15 | 2026-09-02 23:51:34 | 50.37013 | 6.11940 | 113° | 11km/h | 22700m | 4.7m/s | -53.6°C | 4.2% | 39.9hPa | 3.8V | 00:00:00 | 01:34:30 | 00:00:00 | |
| GOEST3-10 | 2026-09-02 23:51:33 | 50.37013 | 6.11940 | 114° | 11km/h | 22700m | 4.5m/s | -53.6°C | 4.2% | 39.8hPa | 3.8V | 00:00:00 | 01:34:30 | 00:00:00 | |
| DL1XH1-15 | 2026-09-02 23:51:28 | 50.37029 | 6.11913 | 341° | 11km/h | 22652m | 4.6m/s | -53.6°C | 4.2% | 40.1hPa | 3.8V | 00:00:00 | 01:34:20 | 00:00:00 | |
| BIOWL1-15 | 2026-09-02 23:51:27 | 50.37024 | 6.11915 | 27° | 4km/h | 22644m | 5m/s | -53.6°C | 4.3% | 40.2hPa | 3.8V | 00:00:00 | 00:00:00 | 00:00:00 | |
| DL1XH-west | 2026-09-02 23:51:23 | 50.37026 | 6.11914 | 0° | 0km/h | 22648m | 0m/s | -53.6°C | 4.3% | 40.2hPa | 3.8V | 00:00:00 | 00:00:00 | 00:00:00 | |
| DM0DOS-11 | 2026-09-02 23:51:23 | 50.37024 | 6.11915 | 27° | 9km/h | 22644m | 5m/s | -53.6°C | 4.2% | 40.2hPa | 3.8V | 00:00:00 | 01:34:18 | 00:00:00 | |
| GOEST3-10 | 2026-09-02 23:51:18 | 50.37027 | 6.11907 | 145° | 16km/h | 22628m | 4.6m/s | -53.6°C | 4.2% | 40.3hPa | 3.8V | 00:00:00 | 01:34:15 | 00:00:00 | |
| DM0DOS-11 | 2026-09-02 23:51:16 | 50.37029 | 6.11891 | 84° | 16km/h | 22595m | 4.7m/s | -53.6°C | 4.2% | 40.5hPa | 3.8V | 00:00:00 | 01:34:08 | 00:00:00 | |
| DL1XH1-15 | 2026-09-02 23:51:14 | 50.37033 | 6.11900 | 43° | 15km/h | 22605m | 4.9m/s | -53.6°C | 4.2% | 40.4hPa | 3.8V | 00:00:00 | 01:34:10 | 00:00:00 | |
| BIOWL1-15 | 2026-09-02 23:51:14 | 50.37029 | 6.11885 | 96° | 13km/h | 22591m | 6m/s | -53.6°C | 4.3% | 40.5hPa | 3.8V | 00:00:00 | 00:00:00 | 00:00:00 | |
| DL1XH-west | 2026-09-02 23:51:12 | 50.37029 | 6.11891 | 0° | 0km/h | 22595m | 0m/s | -53.6°C | 4.3% | 40.5hPa | 3.8V | 00:00:00 | 00:00:00 | 00:00:00 | |
| GOEST3-10 | 2026-09-02 23:51:12 | 50.37029 | 6.11891 | 85° | 22km/h | 22595m | 4.5m/s | -53.6°C | 4.2% | 40.4hPa | 3.8V | 00:00:00 | 00:00:00 | 00:00:00 | |
| DL1XH1-15 | 2026-09-02 23:51:08 | 50.37039 | 6.11846 | 65° | 18km/h | 22556m | 4.5m/s | -53.7°C | 4.2% | 40.8hPa | 3.8V | 00:00:00 | 01:34:00 | 00:00:00 | |
| DL1XH-west | 2026-09-02 23:51:02 | 50.37037 | 6.11839 | 0° | 0km/h | 22549m | 0m/s | -53.8°C | 4.4% | 40.8hPa | 3.8V | 00:00:00 | 00:00:00 | 00:00:00 | |
| BIOWL1-15 | 2026-09-02 23:51:02 | 50.37037 | 6.11832 | 90° | 27km/h | 22543m | 6m/s | -53.8°C | 4.3% | 40.8hPa | 3.8V | 00:00:00 | 00:00:00 | 00:00:00 | |
| DM0DOS-11 | 2026-09-02 23:50:56 | 50.37046 | 6.11742 | 69° | 18km/h | 22500m | 5.1m/s | -53.9°C | 4.2% | 41.1hPa | 3.8V | 00:00:00 | 01:33:48 | 00:00:00 | |
| DL1XH1-15 | 2026-09-02 23:50:54 | 50.37047 | 6.11760 | 90° | 20km/h | 22509m | 4.9m/s | -53.9°C | 4.4% | 41.1hPa | 3.8V | 00:00:00 | 01:33:50 | 00:00:00 | |
| DL1XH-west | 2026-09-02 23:50:51 | 50.37045 | 6.11736 | 0° | 0km/h | 22494m | 0m/s | -53.9°C | 4.3% | 41.1hPa | 3.8V | 00:00:00 | 00:00:00 | 00:00:00 | |
| BIOWL1-15 | 2026-09-02 23:50:51 | 50.37041 | 6.11682 | 90° | 20km/h | 22466m | 6m/s | -54°C | 4.3% | 41.3hPa | 3.8V | 00:00:00 | 00:00:00 | 00:00:00 | |
| DL1XH1-15 | 2026-09-02 23:50:48 | 50.37041 | 6.11674 | 75° | 16km/h | 22460m | 4.4m/s | -53.9°C | 4.4% | 41.3hPa | 3.8V | 00:00:00 | 01:33:40 | 00:00:00 | |
| DJ8HS-15 | 2026-09-02 23:50:47 | 50.37040 | 6.11717 | 91° | 20km/h | 22479m | 4.6m/s | -53.9°C | 4.4% | 41.2hPa | 3.7V | 00:00:00 | 01:33:44 | 00:00:00 | |
| DM0DOS-11 | 2026-09-02 23:50:44 | 50.37039 | 6.11666 | 64° | 20km/h | 22452m | 4.8m/s | -53.9°C | 4.4% | 41.4hPa | 3.8V | 00:00:00 | 01:33:38 | 00:00:00 | |
| DL1XH-west | 2026-09-02 23:50:41 | 50.37037 | 6.11661 | 0° | 0km/h | 22447m | 0m/s | -53.9°C | 4.4% | 41.4hPa | 3.8V | 00:00:00 | 00:00:00 | 00:00:00 | |
| GOEST3-10 | 2026-09-02 23:50:36 | 50.37038 | 6.11625 | 84° | 18km/h | 22427m | 4.8m/s | -53.8°C | 4.4% | 41.5hPa | 3.8V | 00:00:00 | 00:00:00 | 00:00:00 | |
| DL1XH1-15 | 2026-09-02 23:50:35 | 50.37038 | 6.11597 | 66° | 22km/h | 22414m | 4.6m/s | -53.8°C | 4.4% | 41.6hPa | 3.8V | 00:00:00 | 01:33:30 | 00:00:00 | |
| DM0DOS-11 | 2026-09-02 23:50:34 | 50.37032 | 6.11576 | 52° | 15km/h | 22406m | 5.1m/s | -53.8°C | 4.4% | 41.6hPa | 3.8V | 00:00:00 | 01:33:28 | 00:00:00 | |
| DL1XH-west | 2026-09-02 23:50:30 | 50.37025 | 6.11566 | 0° | 0km/h | 22395m | 0m/s | -53.7°C | 4.4% | 41.7hPa | 3.8V | 00:00:00 | 00:00:00 | 00:00:00 | |
| DL1XH1-15 | 2026-09-02 23:50:28 | 50.37023 | 6.11533 | 73° | 18km/h | 22365m | 4.7m/s | -53.6°C | 4.4% | 41.9hPa | 3.8V | 00:00:00 | 01:33:20 | 00:00:00 | |
| DJ8HS-15 | 2026-09-02 23:50:27 | 50.37024 | 6.11563 | 99° | 16km/h | 22385m | 4.8m/s | -53.6°C | 4.4% | 41.7hPa | 3.8V | 00:00:00 | 01:33:24 | 00:00:00 | |
| DM0DOS-11 | 2026-09-02 23:50:26 | 50.37019 | 6.11518 | 53° | 16km/h | 22356m | 4.8m/s | -53.6°C | 4.4% | 42hPa | 3.8V | 00:00:00 | 01:33:18 | 00:00:00 | |
| BIOWL1-15 | 2026-09-02 23:50:23 | 50.37009 | 6.11494 | 142° | 9km/h | 22327m | 4m/s | -53.4°C | 4.4% | 42.2hPa | 3.8V | 00:00:00 | 00:00:00 | 00:00:00 | |
| DL1XH-west | 2026-09-02 23:50:19 | 50.37009 | 6.11500 | 0° | 0km/h | 22342m | 0m/s | -53.5°C | 4.4% | 42.1hPa | 3.8V | 00:00:00 | 00:00:00 | 00:00:00 | |
| GOEST3-10 | 2026-09-02 23:50:17 | 50.37008 | 6.11496 | 141° | 13km/h | 22338m | 4.7m/s | -53.4°C | 4.4% | 42.0hPa | 3.7V | 00:00:00 | 00:00:00 | 00:00:00 | |
| DL1XH1-15 | 2026-09-02 23:50:14 | 50.37012 | 6.11487 | 64° | 22km/h | 22318m | 4.7m/s | -53.4°C | 4.4% | 42.2hPa | 3.8V | 00:00:00 | 01:33:10 | 00:00:00 | |
| DM0DOS-11 | 2026-09-02 23:50:13 | 50.37004 | 6.11472 | 31° | 20km/h | 22309m | 4.8m/s | -53.4°C | 4.4% | 42.3hPa | 3.8V | 00:00:00 | 01:33:08 | 00:00:00 | |
| BIOWL1-15 | 2026-09-02 23:50:10 | 50.36984 | 6.11462 | 46° | 2km/h | 22290m | 5m/s | -53.5°C | 4.4% | 42.4hPa | 3.8V | 00:00:00 | 00:00:00 | 00:00:00 | |
| DL1XH-west | 2026-09-02 23:50:09 | 50.36986 | 6.11462 | 0° | 0km/h | 22295m | 0m/s | -53.5°C | 4.4% | 42.4hPa | 3.8V | 00:00:00 | 00:00:00 | 00:00:00 | |
| DJ8HS-15 | 2026-09-02 23:50:07 | 50.36984 | 6.11462 | 47° | 11km/h | 22290m | 4.8m/s | -53.5°C | 4.4% | 42.3hPa | 3.8V | 00:00:00 | 01:33:04 | 00:00:00 | |
| DM0DOS-11 | 2026-09-02 23:50:06 | 50.36988 | 6.11443 | 352° | 15km/h | 22261m | 4.8m/s | -53.6°C | 4.4% | 42.6hPa | 3.8V | 00:00:00 | 01:32:58 | 00:00:00 | |
| BIOWL1-15 | 2026-09-02 23:50:02 | 50.36969 | 6.11440 | 197° | 9km/h | 22232m | 4.5m/s | -53.5°C | 4.4% | 42.8hPa | 3.8V | 00:00:00 | 00:00:00 | 00:00:00 | |
| DL1XH-west | 2026-09-02 23:49:58 | 50.36972 | 6.11441 | 0° | 0km/h | 22243m | 0m/s | -53.6°C | 4.5% | 42.7hPa | 3.8V | 00:00:00 | 00:00:00 | 00:00:00 | |
| DM0DOS-11 | 2026-09-02 23:49:55 | 50.36980 | 6.11439 | 130° | 9km/h | 22212m | 5m/s | -53.4°C | 4.5% | 42.8hPa | 3.8V | 00:00:00 | 01:32:48 | 00:00:00 | |
| GOEST3-10 | 2026-09-02 23:49:54 | 50.36971 | 6.11441 | 154° | 11km/h | 22228m | 5.0m/s | -53.4°C | 4.4% | 42.7hPa | 3.7V | 00:00:00 | 01:32:51 | 00:00:00 | |
| DL1XH1-15 | 2026-09-02 23:49:48 | 50.36978 | 6.11425 | 183° | 13km/h | 22171m | 4.8m/s | -53.2°C | 4.4% | 43.2hPa | 3.8V | 00:00:00 | 01:32:40 | 00:00:00 | |
| BIOWL1-15 | 2026-09-02 23:49:47 | 50.36973 | 6.11432 | 90° | 7km/h | 22187m | 5m/s | -53.3°C | 4.5% | 43hPa | 3.8V | 00:00:00 | 00:00:00 | 00:00:00 | |
| DM0DOS-11 | 2026-09-02 23:49:45 | 50.36984 | 6.11426 | 143° | 13km/h | 22163m | 5.2m/s | -53.1°C | 4.5% | 43.2hPa | 3.8V | 00:00:00 | 01:32:38 | 00:00:00 | |
| BIOWL1-15 | 2026-09-02 23:49:37 | 50.36985 | 6.11400 | 169° | 4km/h | 22137m | 5m/s | -53°C | 4.5% | 43.4hPa | 3.8V | 00:00:00 | 00:00:00 | 00:00:00 | |
| DM0DOS-11 | 2026-09-02 23:49:35 | 50.37001 | 6.11397 | 130° | 16km/h | 22111m | 4.9m/s | -52.8°C | 4.5% | 43.5hPa | 3.8V | 00:00:00 | 01:32:28 | 00:00:00 | |
| DL1XH1-15 | 2026-09-02 23:49:34 | 50.36992 | 6.11403 | 169° | 18km/h | 22122m | 5.2m/s | -52.9°C | 4.5% | 43.5hPa | 3.8V | 00:00:00 | 01:32:30 | 00:00:00 | |
| DL1XH1-15 | 2026-09-02 23:49:28 | 50.37019 | 6.11357 | 122° | 18km/h | 22072m | 5.1m/s | -52.7°C | 4.5% | 43.8hPa | 3.8V | 00:00:00 | 01:32:20 | 00:00:00 | |
| BIOWL1-15 | 2026-09-02 23:49:26 | 50.37014 | 6.11368 | 124° | 16km/h | 22082m | 5m/s | -52.7°C | 4.5% | 43.7hPa | 3.8V | 00:00:00 | 00:00:00 | 00:00:00 | |
| DL1XH-west | 2026-09-02 23:49:16 | 50.37048 | 6.11309 | 0° | 0km/h | 22031m | 0m/s | -52.8°C | 4.5% | 44hPa | 3.8V | 00:00:00 | 00:00:00 | 00:00:00 | |
| BIOWL1-15 | 2026-09-02 23:49:15 | 50.37057 | 6.11289 | 130° | 24km/h | 22015m | 4m/s | -52.8°C | 4.5% | 44.1hPa | 3.8V | 00:00:00 | 00:00:00 | 00:00:00 | |
| DL1XH1-15 | 2026-09-02 23:49:14 | 50.37054 | 6.11296 | 128° | 26km/h | 22021m | 5m/s | -52.8°C | 4.5% | 44.1hPa | 3.8V | 00:00:00 | 01:32:10 | 00:00:00 | |
| DM0DOS-11 | 2026-09-02 23:49:13 | 50.37061 | 6.11282 | 136° | 27km/h | 22011m | 5m/s | -52.8°C | 4.5% | 44.2hPa | 3.8V | 00:00:00 | 01:32:08 | 00:00:00 | |
| DL1XH1-15 | 2026-09-02 23:49:08 | 50.37106 | 6.11211 | 129° | 31km/h | 21971m | 5m/s | -52.9°C | 4.5% | 44.4hPa | 3.8V | 00:00:00 | 01:32:00 | 00:00:00 | |
| DJ8HS-15 | 2026-09-02 23:49:08 | 50.37080 | 6.11256 | 137° | 38km/h | 21992m | 5.1m/s | -52.8°C | 4.5% | 44.3hPa | 3.8V | 00:00:00 | 01:32:04 | 00:00:00 | |
| DM0DOS-11 | 2026-09-02 23:49:07 | 50.37115 | 6.11194 | 137° | 33km/h | 21961m | 5m/s | -53°C | 4.5% | 44.5hPa | 3.8V | 00:00:00 | 01:31:58 | 00:00:00 | |
| BIOWL1-15 | 2026-09-02 23:49:05 | 50.37100 | 6.11223 | 129° | 38km/h | 21976m | 5m/s | -52.9°C | 4.5% | 44.4hPa | 3.8V | 00:00:00 | 00:00:00 | 00:00:00 | |
| DB0UT-7 | 2026-09-02 23:49:04 | 50.37100 | 6.11223 | 130° | 38km/h | 21976m | 4.9m/s | -52.8°C | 4.5% | 44.3hPa | 3.8V | 00:00:00 | 01:32:01 | 00:00:00 | |
| GOEST3-10 | 2026-09-02 23:49:00 | 50.37125 | 6.11181 | 139° | 37km/h | 21951m | 4.9m/s | -53.1°C | 4.5% | 44.5hPa | 3.8V | 00:00:00 | 01:31:56 | 00:00:00 | |
| DM0DOS-11 | 2026-09-02 23:48:56 | 50.37176 | 6.11076 | 126° | 38km/h | 21911m | 4.7m/s | -53.4°C | 4.5% | 44.8hPa | 3.8V | 00:00:00 | 01:31:48 | 00:00:00 | |
| DL1XH-west | 2026-09-02 23:48:55 | 50.37161 | 6.11106 | 0° | 0km/h | 21921m | 0m/s | -53.4°C | 4.5% | 44.8hPa | 3.8V | 00:00:00 | 00:00:00 | 00:00:00 | |
| BIOWL1-15 | 2026-09-02 23:48:55 | 50.37176 | 6.11076 | 127° | 42km/h | 21911m | 4m/s | -53.4°C | 4.5% | 44.8hPa | 3.8V | 00:00:00 | 00:00:00 | 00:00:00 | |
| DL1XH1-15 | 2026-09-02 23:48:54 | 50.37161 | 6.11106 | 126° | 42km/h | 21921m | 4.9m/s | -53.4°C | 4.5% | 44.8hPa | 3.8V | 00:00:00 | 01:31:50 | 00:00:00 | |
| DL1XH1-15 | 2026-09-02 23:48:48 | 50.37220 | 6.10974 | 120° | 35km/h | 21874m | 5.1m/s | -53.7°C | 4.5% | 45.1hPa | 3.8V | 00:00:00 | 01:31:40 | 00:00:00 | |
| DJ8HS-15 | 2026-09-02 23:48:47 | 50.37195 | 6.11023 | 121° | 37km/h | 21892m | 4.7m/s | -53.6°C | 4.5% | 44.9hPa | 3.7V | 00:00:00 | 01:31:44 | 00:00:00 | |
| DM0DOS-11 | 2026-09-02 23:48:46 | 50.37227 | 6.10951 | 108° | 38km/h | 21863m | 4.7m/s | -53.7°C | 4.5% | 45.1hPa | 3.8V | 00:00:00 | 01:31:38 | 00:00:00 | |
| DL1XH-west | 2026-09-02 23:48:44 | 50.37220 | 6.10974 | 0° | 0km/h | 21874m | 0m/s | -53.7°C | 4.5% | 45.1hPa | 3.8V | 00:00:00 | 00:00:00 | 00:00:00 | |
| BIOWL1-15 | 2026-09-02 23:48:42 | 50.37227 | 6.10951 | 108° | 33km/h | 21863m | 4m/s | -53.7°C | 4.5% | 45.2hPa | 3.8V | 00:00:00 | 00:00:00 | 00:00:00 | |
| AM1SDL-15 | 2026-09-02 23:48:38 | 50.37238 | 6.10911 | 120° | 37km/h | 21849m | 4.6m/s | -53.8°C | 4.5% | 45.2hPa | 3.8V | 00:00:00 | 01:31:35 | 00:00:00 | |
| DL1XH1-15 | 2026-09-02 23:48:34 | 50.37260 | 6.10835 | 113° | 37km/h | 21824m | 4.7m/s | -54°C | 4.5% | 45.4hPa | 3.8V | 00:00:00 | 01:31:30 | 00:00:00 | |
| DL1XH-west | 2026-09-02 23:48:33 | 50.37264 | 6.10820 | 0° | 0km/h | 21819m | 0m/s | -54.1°C | 4.5% | 45.5hPa | 3.8V | 00:00:00 | 00:00:00 | 00:00:00 | |
| BIOWL1-15 | 2026-09-02 23:48:32 | 50.37271 | 6.10766 | 99° | 29km/h | 21801m | 4m/s | -54.2°C | 4.5% | 45.6hPa | 3.8V | 00:00:00 | 00:00:00 | 00:00:00 | |
| DL1XH1-15 | 2026-09-02 23:48:28 | 50.37285 | 6.10705 | 94° | 40km/h | 21777m | 4.9m/s | -54.5°C | 4.5% | 45.8hPa | 3.8V | 00:00:00 | 01:31:20 | 00:00:00 | |
| DM0DOS-11 | 2026-09-02 23:48:24 | 50.37286 | 6.10671 | 93° | 38km/h | 21767m | 4.9m/s | -54.5°C | 4.5% | 45.8hPa | 3.8V | 00:00:00 | 01:31:18 | 00:00:00 | |
| DL1XH-west | 2026-09-02 23:48:23 | 50.37286 | 6.10671 | 0° | 0km/h | 21767m | 0m/s | -54.5°C | 4.6% | 45.8hPa | 3.8V | 00:00:00 | 00:00:00 | 00:00:00 | |
| BIOWL1-15 | 2026-09-02 23:48:21 | 50.37288 | 6.10571 | 100° | 33km/h | 21733m | 5.2m/s | -54.5°C | 4.6% | 46.1hPa | 3.8V | 00:00:00 | 00:00:00 | 00:00:00 | |
| AM1SDL-15 | 2026-09-02 23:48:21 | 50.37287 | 6.10652 | 93° | 38km/h | 21762m | 4.3m/s | -54.5°C | 4.5% | 45.8hPa | 3.8V | 00:00:00 | 01:31:17 | 00:00:00 | |
| DM0DOS-11 | 2026-09-02 23:48:16 | 50.37293 | 6.10536 | 94° | 33km/h | 21718m | 5m/s | -54.5°C | 4.5% | 46.2hPa | 3.8V | 00:00:00 | 01:31:08 | 00:00:00 | |
| DL1XH1-15 | 2026-09-02 23:48:14 | 50.37289 | 6.10561 | 101° | 33km/h | 21727m | 4.8m/s | -54.5°C | 4.5% | 46.1hPa | 3.8V | 00:00:00 | 01:31:10 | 00:00:00 | |
| DL1XH-west | 2026-09-02 23:48:12 | 50.37294 | 6.10521 | 0° | 0km/h | 21712m | 0m/s | -54.5°C | 4.6% | 46.2hPa | 3.8V | 00:00:00 | 00:00:00 | 00:00:00 | |
| DL1XH1-15 | 2026-09-02 23:48:08 | 50.37291 | 6.10449 | 66° | 26km/h | 21678m | 4.9m/s | -54.3°C | 4.5% | 46.4hPa | 3.8V | 00:00:00 | 01:31:00 | 00:00:00 | |
| BIOWL1-15 | 2026-09-02 23:48:07 | 50.37291 | 6.10459 | 97° | 13km/h | 21688m | 4m/s | -54.4°C | 4.6% | 46.4hPa | 3.8V | 00:00:00 | 00:00:00 | 00:00:00 | |
| DM0DOS-11 | 2026-09-02 23:48:06 | 50.37287 | 6.10433 | 77° | 29km/h | 21669m | 5.1m/s | -54.3°C | 4.5% | 46.5hPa | 3.8V | 00:00:00 | 01:30:58 | 00:00:00 | |
| DL1XH-west | 2026-09-02 23:48:00 | 50.37286 | 6.10409 | 0° | 0km/h | 21658m | 0m/s | -54.3°C | 4.6% | 46.6hPa | 3.8V | 00:00:00 | 00:00:00 | 00:00:00 | |
| DM0DOS-11 | 2026-09-02 23:47:56 | 50.37275 | 6.10335 | 85° | 26km/h | 21618m | 4.9m/s | -54.2°C | 4.5% | 46.8hPa | 3.8V | 00:00:00 | 01:30:48 | 00:00:00 | |
| BIOWL1-15 | 2026-09-02 23:47:55 | 50.37275 | 6.10341 | 84° | 13km/h | 21623m | 5m/s | -54.2°C | 4.6% | 46.8hPa | 3.8V | 00:00:00 | 00:00:00 | 00:00:00 | |
| DL1XH1-15 | 2026-09-02 23:47:54 | 50.37276 | 6.10345 | 83° | 20km/h | 21628m | 5m/s | -54.2°C | 4.5% | 46.8hPa | 3.8V | 00:00:00 | 01:30:50 | 00:00:00 | |
| DL1XH-west | 2026-09-02 23:47:49 | 50.37270 | 6.10307 | 0° | 0km/h | 21603m | 0m/s | -54.2°C | 4.7% | 47hPa | 3.8V | 00:00:00 | 00:00:00 | 00:00:00 | |
| DL1XH1-15 | 2026-09-02 23:47:48 | 50.37259 | 6.10257 | 21° | 22km/h | 21579m | 5m/s | -54.2°C | 4.6% | 47.1hPa | 3.8V | 00:00:00 | 01:30:40 | 00:00:00 | |
| GOEST3-10 | 2026-09-02 23:47:47 | 50.37267 | 6.10280 | 57° | 20km/h | 21593m | 4.9m/s | -54.2°C | 4.5% | 47.0hPa | 3.8V | 00:00:00 | 00:00:00 | 00:00:00 | |
| DM0DOS-11 | 2026-09-02 23:47:46 | 50.37249 | 6.10249 | 40° | 20km/h | 21569m | 5m/s | -54.3°C | 4.6% | 47.2hPa | 3.8V | 00:00:00 | 01:30:38 | 00:00:00 | |
| BIOWL1-15 | 2026-09-02 23:47:45 | 50.37259 | 6.10257 | 22° | 24km/h | 21579m | 5m/s | -54.2°C | 4.7% | 47.1hPa | 3.8V | 00:00:00 | 00:00:00 | 00:00:00 | |
| DL1XH-west | 2026-09-02 23:47:38 | 50.37241 | 6.10218 | 0° | 0km/h | 21549m | 0m/s | -54.4°C | 4.7% | 47.3hPa | 3.8V | 00:00:00 | 00:00:00 | 00:00:00 | |
| GOEST3-10 | 2026-09-02 23:47:38 | 50.37241 | 6.10218 | 72° | 18km/h | 21549m | 5.0m/s | -54.3°C | 4.6% | 47.3hPa | 3.7V | 00:00:00 | 01:30:34 | 00:00:00 | |
| DM0DOS-11 | 2026-09-02 23:47:37 | 50.37230 | 6.10185 | 10° | 18km/h | 21519m | 4.9m/s | -54.4°C | 4.6% | 47.5hPa | 3.8V | 00:00:00 | 01:30:28 | 00:00:00 | |
| DL1XH1-15 | 2026-09-02 23:47:34 | 50.37234 | 6.10187 | 41° | 13km/h | 21529m | 5m/s | -54.4°C | 4.6% | 47.5hPa | 3.8V | 00:00:00 | 01:30:30 | 00:00:00 | |
| BIOWL1-15 | 2026-09-02 23:47:34 | 50.37233 | 6.10185 | 28° | 15km/h | 21524m | 4.8m/s | -54.4°C | 4.7% | 47.5hPa | 3.8V | 00:00:00 | 00:00:00 | 00:00:00 | |
| DL1XH-west | 2026-09-02 23:47:28 | 50.37219 | 6.10167 | 0° | 0km/h | 21499m | 0m/s | -54.2°C | 4.7% | 47.7hPa | 3.8V | 00:00:00 | 00:00:00 | 00:00:00 | |
| DL1XH1-15 | 2026-09-02 23:47:28 | 50.37224 | 6.10135 | 55° | 15km/h | 21480m | 4.7m/s | -54.1°C | 4.6% | 47.8hPa | 3.8V | 00:00:00 | 01:30:20 | 00:00:00 | |
| GOEST3-10 | 2026-09-02 23:47:27 | 50.37219 | 6.10167 | 97° | 16km/h | 21499m | 4.8m/s | -54.2°C | 4.6% | 47.7hPa | 3.8V | 00:00:00 | 01:30:24 | 00:00:00 | |
| DM0DOS-11 | 2026-09-02 23:47:26 | 50.37218 | 6.10126 | 34° | 13km/h | 21471m | 4.8m/s | -54°C | 4.6% | 47.9hPa | 3.8V | 00:00:00 | 01:30:18 | 00:00:00 | |
| BIOWL1-15 | 2026-09-02 23:47:23 | 50.37218 | 6.10126 | 39° | 9km/h | 21471m | 5m/s | -54°C | 4.7% | 47.9hPa | 3.8V | 00:00:00 | 00:00:00 | 00:00:00 | |
| DL1XH-west | 2026-09-02 23:47:18 | 50.37217 | 6.10114 | 0° | 0km/h | 21453m | 0m/s | -53.9°C | 4.7% | 48hPa | 3.8V | 00:00:00 | 00:00:00 | 00:00:00 | |
| DM0DOS-11 | 2026-09-02 23:47:16 | 50.37209 | 6.10067 | 108° | 13km/h | 21424m | 5.1m/s | -53.7°C | 4.6% | 48.2hPa | 3.8V | 00:00:00 | 01:30:08 | 00:00:00 | |
| BIOWL1-15 | 2026-09-02 23:47:13 | 50.37211 | 6.10059 | 98° | 11km/h | 21414m | 5m/s | -53.7°C | 4.8% | 48.3hPa | 3.8V | 00:00:00 | 00:00:00 | 00:00:00 | |
| DL1XH-west | 2026-09-02 23:47:08 | 50.37210 | 6.10050 | 0° | 0km/h | 21403m | 0m/s | -53.7°C | 4.7% | 48.4hPa | 3.8V | 00:00:00 | 00:00:00 | 00:00:00 | |
| DJ8HS-15 | 2026-09-02 23:47:07 | 50.37210 | 6.10050 | 67° | 20km/h | 21403m | 4.9m/s | -53.7°C | 4.6% | 48.3hPa | 3.8V | 00:00:00 | 01:30:04 | 00:00:00 | |
| DM0DOS-11 | 2026-09-02 23:47:06 | 50.37214 | 6.10016 | 84° | 18km/h | 21372m | 4.7m/s | -53.8°C | 4.7% | 48.6hPa | 3.8V | 00:00:00 | 01:29:58 | 00:00:00 | |
| BIOWL1-15 | 2026-09-02 23:47:02 | 50.37214 | 6.10003 | 95° | 18km/h | 21363m | 5m/s | -53.9°C | 4.8% | 48.7hPa | 3.8V | 00:00:00 | 00:00:00 | 00:00:00 | |
| DL1XH-west | 2026-09-02 23:46:57 | 50.37216 | 6.09979 | 0° | 0km/h | 21348m | 0m/s | -53.9°C | 4.8% | 48.8hPa | 3.8V | 00:00:00 | 00:00:00 | 00:00:00 | |
| DM0DOS-11 | 2026-09-02 23:46:55 | 50.37221 | 6.09939 | 121° | 20km/h | 21324m | 4.6m/s | -54°C | 4.7% | 49hPa | 3.8V | 00:00:00 | 01:29:48 | 00:00:00 | |
| DL1XH1-15 | 2026-09-02 23:46:55 | 50.37216 | 6.09955 | 109° | 22km/h | 21334m | 4.8m/s | -53.9°C | 4.7% | 48.9hPa | 3.8V | 00:00:00 | 01:29:50 | 00:00:00 | |
| BIOWL1-15 | 2026-09-02 23:46:51 | 50.37223 | 6.09932 | 93° | 15km/h | 21320m | 5m/s | -54.1°C | 4.8% | 49hPa | 3.8V | 00:00:00 | 00:00:00 | 00:00:00 | |
| DL1XH1-15 | 2026-09-02 23:46:48 | 50.37217 | 6.09869 | 81° | 27km/h | 21287m | 4.9m/s | -54.2°C | 4.7% | 49.2hPa | 3.8V | 00:00:00 | 01:29:40 | 00:00:00 | |
| DL1XH-west | 2026-09-02 23:46:48 | 50.37220 | 6.09905 | 0° | 0km/h | 21301m | 0m/s | -54.3°C | 4.8% | 49.1hPa | 3.8V | 00:00:00 | 00:00:00 | 00:00:00 | |
| DL1XH-west | 2026-09-02 23:46:36 | 50.37206 | 6.09790 | 0° | 0km/h | 21247m | 0m/s | -54.1°C | 4.8% | 49.5hPa | 3.8V | 00:00:00 | 00:00:00 | 00:00:00 | |
| DM0DOS-11 | 2026-09-02 23:46:36 | 50.37203 | 6.09753 | 92° | 22km/h | 21228m | 4.7m/s | -54.1°C | 4.7% | 49.7hPa | 3.8V | 00:00:00 | 01:29:28 | 00:00:00 | |
| DL1XH1-15 | 2026-09-02 23:46:34 | 50.37202 | 6.09774 | 86° | 24km/h | 21238m | 4.9m/s | -54°C | 4.7% | 49.6hPa | 3.8V | 00:00:00 | 01:29:30 | 00:00:00 | |
| BIOWL1-15 | 2026-09-02 23:46:30 | 50.37202 | 6.09641 | 90° | 16km/h | 21152m | 5m/s | -53.7°C | 4.8% | 50.2hPa | 3.8V | 00:00:00 | 00:00:00 | 00:00:00 | |
| DL1XH1-15 | 2026-09-02 23:46:28 | 50.37199 | 6.09691 | 82° | 20km/h | 21190m | 4.8m/s | -53.9°C | 4.7% | 50hPa | 3.8V | 00:00:00 | 01:29:20 | 00:00:00 | |
| DL1XH-west | 2026-09-02 23:46:26 | 50.37199 | 6.09699 | 0° | 0km/h | 21195m | 0m/s | -54°C | 4.8% | 49.9hPa | 3.8V | 00:00:00 | 00:00:00 | 00:00:00 | |
| DM0DOS-11 | 2026-09-02 23:46:26 | 50.37197 | 6.09672 | 85° | 16km/h | 21181m | 4.9m/s | -53.9°C | 4.7% | 50hPa | 3.8V | 00:00:00 | 01:29:18 | 00:00:00 | |
| DM0DOS-11 | 2026-09-02 23:46:17 | 50.37207 | 6.09607 | 96° | 18km/h | 21133m | 4.7m/s | -53.6°C | 4.9% | 50.4hPa | 3.8V | 00:00:00 | 01:29:08 | 00:00:00 | |
| DL1XH-west | 2026-09-02 23:46:15 | 50.37203 | 6.09627 | 0° | 0km/h | 21142m | 0m/s | -53.6°C | 4.9% | 50.3hPa | 3.8V | 00:00:00 | 00:00:00 | 00:00:00 | |
| DL1XH1-15 | 2026-09-02 23:46:14 | 50.37203 | 6.09627 | 107° | 22km/h | 21142m | 4.6m/s | -53.6°C | 4.9% | 50.3hPa | 3.8V | 00:00:00 | 01:29:10 | 00:00:00 | |
| DL1XH1-15 | 2026-09-02 23:46:08 | 50.37220 | 6.09568 | 107° | 18km/h | 21095m | 4.6m/s | -53.4°C | 4.9% | 50.7hPa | 3.8V | 00:00:00 | 01:29:00 | 00:00:00 | |
| DJ8HS-15 | 2026-09-02 23:46:07 | 50.37206 | 6.09580 | 137° | 18km/h | 21116m | 5.1m/s | -53.5°C | 4.7% | 50.5hPa | 3.8V | 00:00:00 | 01:29:04 | 00:00:00 | |
| DM0DOS-11 | 2026-09-02 23:46:05 | 50.37221 | 6.09554 | 93° | 20km/h | 21086m | 4.7m/s | -53.4°C | 4.9% | 50.8hPa | 3.8V | 00:00:00 | 01:28:58 | 00:00:00 | |
| DL1XH-west | 2026-09-02 23:46:04 | 50.37221 | 6.09562 | 0° | 0km/h | 21090m | 0m/s | -53.4°C | 4.9% | 50.7hPa | 3.8V | 00:00:00 | 00:00:00 | 00:00:00 | |
| BIOWL1-15 | 2026-09-02 23:46:03 | 50.37221 | 6.09544 | 97° | 24km/h | 21081m | 5m/s | -53.4°C | 4.9% | 50.8hPa | 3.8V | 00:00:00 | 00:00:00 | 00:00:00 | |
| DM0DOS-11 | 2026-09-02 23:45:56 | 50.37235 | 6.09490 | 116° | 20km/h | 21039m | 5m/s | -53.2°C | 4.9% | 51.1hPa | 3.8V | 00:00:00 | 01:28:48 | 00:00:00 | |
| DL1XH1-15 | 2026-09-02 23:45:54 | 50.37228 | 6.09507 | 126° | 22km/h | 21049m | 5m/s | -53.2°C | 4.9% | 51hPa | 3.8V | 00:00:00 | 01:28:50 | 00:00:00 | |
| DL1XH-west | 2026-09-02 23:45:53 | 50.37231 | 6.09500 | 0° | 0km/h | 21044m | 0m/s | -53.2°C | 4.9% | 51.1hPa | 3.8V | 00:00:00 | 00:00:00 | 00:00:00 | |
| BIOWL1-15 | 2026-09-02 23:45:51 | 50.37238 | 6.09481 | 109° | 22km/h | 21034m | 5m/s | -53.1°C | 4.9% | 51.1hPa | 3.8V | 00:00:00 | 00:00:00 | 00:00:00 | |
| DJ8HS-15 | 2026-09-02 23:45:48 | 50.37242 | 6.09459 | 117° | 18km/h | 21020m | 5.2m/s | -53.0°C | 4.9% | 51.2hPa | 3.7V | 00:00:00 | 01:28:44 | 00:00:00 | |
| DM0DOS-11 | 2026-09-02 23:45:46 | 50.37257 | 6.09422 | 122° | 22km/h | 20984m | 4.8m/s | -52.9°C | 4.9% | 51.5hPa | 3.8V | 00:00:00 | 01:28:37 | 00:00:00 | |
| DL1XH-west | 2026-09-02 23:45:43 | 50.37254 | 6.09429 | 0° | 0km/h | 20990m | 0m/s | -52.9°C | 5% | 51.5hPa | 3.8V | 00:00:00 | 00:00:00 | 00:00:00 | |
| BIOWL1-15 | 2026-09-02 23:45:42 | 50.37270 | 6.09384 | 110° | 13km/h | 20960m | 5m/s | -52.8°C | 4.9% | 51.7hPa | 3.8V | 00:00:00 | 00:00:00 | 00:00:00 | |
| GOEST3-10 | 2026-09-02 23:45:39 | 50.37260 | 6.09414 | 116° | 20km/h | 20979m | 4.6m/s | -52.8°C | 4.9% | 51.5hPa | 3.7V | 00:00:00 | 00:00:00 | 00:00:00 | |
| DM0DOS-11 | 2026-09-02 23:45:35 | 50.37280 | 6.09356 | 120° | 20km/h | 20937m | 4.7m/s | -52.8°C | 5% | 51.9hPa | 3.8V | 00:00:00 | 01:28:27 | 00:00:00 | |
| DL1XH1-15 | 2026-09-02 23:45:35 | 50.37273 | 6.09374 | 120° | 18km/h | 20950m | 4.5m/s | -52.8°C | 4.9% | 51.8hPa | 3.8V | 00:00:00 | 01:28:30 | 00:00:00 | |
| DL1XH-west | 2026-09-02 23:45:32 | 50.37278 | 6.09362 | 0° | 0km/h | 20942m | 0m/s | -52.8°C | 5% | 51.9hPa | 3.8V | 00:00:00 | 00:00:00 | 00:00:00 | |
| BIOWL1-15 | 2026-09-02 23:45:27 | 50.37291 | 6.09328 | 116° | 27km/h | 20918m | 4m/s | -52.8°C | 5% | 52hPa | 3.8V | 00:00:00 | 00:00:00 | 00:00:00 | |
| DL1XH1-15 | 2026-09-02 23:45:24 | 50.37295 | 6.09302 | 74° | 22km/h | 20904m | 4.6m/s | -52.8°C | 5% | 52.1hPa | 3.8V | 00:00:00 | 01:28:20 | 00:00:00 | |
| GOEST3-10 | 2026-09-02 23:45:23 | 50.37295 | 6.09302 | 75° | 24km/h | 20904m | 4.4m/s | -52.8°C | 5.0% | 52.1hPa | 3.8V | 00:00:00 | 00:00:00 | 00:00:00 | |
| DM0DOS-11 | 2026-09-02 23:45:22 | 50.37294 | 6.09279 | 108° | 26km/h | 20890m | 4.7m/s | -52.8°C | 5% | 52.2hPa | 3.8V | 00:00:00 | 01:28:17 | 00:00:00 | |
| DL1XH-west | 2026-09-02 23:45:22 | 50.37296 | 6.09269 | 0° | 0km/h | 20885m | 0m/s | -52.8°C | 5% | 52.3hPa | 3.8V | 00:00:00 | 00:00:00 | 00:00:00 | |
| DL1XH1-15 | 2026-09-02 23:45:18 | 50.37309 | 6.09217 | 101° | 20km/h | 20857m | 4.4m/s | -52.7°C | 5% | 52.5hPa | 3.8V | 00:00:00 | 01:28:10 | 00:00:00 | |
| BIOWL1-15 | 2026-09-02 23:45:17 | 50.37314 | 6.09178 | 106° | 22km/h | 20835m | 5m/s | -52.7°C | 5% | 52.7hPa | 3.8V | 00:00:00 | 00:00:00 | 00:00:00 | |
| DM0DOS-11 | 2026-09-02 23:45:17 | 50.37313 | 6.09192 | 100° | 20km/h | 20844m | 4.6m/s | -52.7°C | 5% | 52.6hPa | 3.8V | 00:00:00 | 01:28:07 | 00:00:00 | |
| DL1XH-west | 2026-09-02 23:45:12 | 50.37313 | 6.09192 | 0° | 0km/h | 20844m | 0m/s | -52.7°C | 5% | 52.6hPa | 3.8V | 00:00:00 | 00:00:00 | 00:00:00 | |
| BIOWL1-15 | 2026-09-02 23:45:06 | 50.37318 | 6.09153 | 100° | 16km/h | 20821m | 5m/s | -52.7°C | 5% | 52.8hPa | 3.8V | 00:00:00 | 00:00:00 | 00:00:00 | |
| DM0DOS-11 | 2026-09-02 23:45:06 | 50.37321 | 6.09115 | 105° | 26km/h | 20797m | 4.5m/s | -52.5°C | 5% | 53hPa | 3.8V | 00:00:00 | 01:27:57 | 00:00:00 | |
| DL1XH1-15 | 2026-09-02 23:45:06 | 50.37319 | 6.09140 | 95° | 22km/h | 20812m | 4.7m/s | -52.6°C | 5% | 52.9hPa | 3.8V | 00:00:00 | 01:28:00 | 00:00:00 | |
| DL1XH-west | 2026-09-02 23:45:01 | 50.37321 | 6.09115 | 0° | 0km/h | 20797m | 0m/s | -52.5°C | 5% | 53hPa | 3.8V | 00:00:00 | 00:00:00 | 00:00:00 | |
| BIOWL1-15 | 2026-09-02 23:44:58 | 50.37321 | 6.09025 | 90° | 22km/h | 20756m | 5m/s | -52.5°C | 5.1% | 53.3hPa | 3.8V | 00:00:00 | 00:00:00 | 00:00:00 | |
| DL1XH1-15 | 2026-09-02 23:44:58 | 50.37323 | 6.09045 | 83° | 26km/h | 20766m | 4.9m/s | -52.5°C | 5% | 53.2hPa | 3.8V | 00:00:00 | 01:27:50 | 00:00:00 | |
| DM0DOS-11 | 2026-09-02 23:44:55 | 50.37321 | 6.09007 | 105° | 26km/h | 20746m | 4.8m/s | -52.5°C | 5% | 53.4hPa | 3.8V | 00:00:00 | 01:27:46 | 00:00:00 | |
| DL1XH-west | 2026-09-02 23:44:50 | 50.37321 | 6.09007 | 0° | 0km/h | 20746m | 0m/s | -52.5°C | 5.1% | 53.4hPa | 3.8V | 00:00:00 | 00:00:00 | 00:00:00 | |
| GOEST3-10 | 2026-09-02 23:44:48 | 50.37323 | 6.08996 | 101° | 26km/h | 20741m | 4.6m/s | -52.5°C | 5.0% | 53.4hPa | 3.7V | 00:00:00 | 00:00:00 | 00:00:00 | |
| DJ8HS-15 | 2026-09-02 23:44:47 | 50.37325 | 6.08985 | 104° | 24km/h | 20737m | 4.9m/s | -52.6°C | 5.0% | 53.4hPa | 3.7V | 00:00:00 | 01:27:44 | 00:00:00 | |
| DL1XH1-15 | 2026-09-02 23:44:44 | 50.37329 | 6.08946 | 90° | 26km/h | 20717m | 4.5m/s | -52.8°C | 5% | 53.6hPa | 3.8V | 00:00:00 | 01:27:40 | 00:00:00 | |
| BIOWL1-15 | 2026-09-02 23:44:44 | 50.37329 | 6.08935 | 79° | 26km/h | 20713m | 4.7m/s | -52.8°C | 5.1% | 53.7hPa | 3.8V | 00:00:00 | 00:00:00 | 00:00:00 | |
| DM0DOS-11 | 2026-09-02 23:44:44 | 50.37325 | 6.08906 | 86° | 26km/h | 20699m | 4.6m/s | -52.9°C | 5% | 53.8hPa | 3.8V | 00:00:00 | 01:27:36 | 00:00:00 | |
| DL1XH-west | 2026-09-02 23:44:40 | 50.37325 | 6.08906 | 0° | 0km/h | 20699m | 0m/s | -52.9°C | 5.1% | 53.8hPa | 3.8V | 00:00:00 | 00:00:00 | 00:00:00 | |
| GOEST3-10 | 2026-09-02 23:44:38 | 50.37325 | 6.08895 | 101° | 22km/h | 20694m | 4.5m/s | -52.9°C | 5.0% | 53.8hPa | 3.7V | 00:00:00 | 00:00:00 | 00:00:00 | |
| GOEST3-10 | 2026-09-02 23:44:34 | 50.37326 | 6.08847 | 73° | 22km/h | 20672m | 4.7m/s | -52.8°C | 5.0% | 53.9hPa | 3.8V | 00:00:00 | 01:27:30 | 00:00:00 | |
| DM0DOS-11 | 2026-09-02 23:44:33 | 50.37320 | 6.08809 | 73° | 22km/h | 20654m | 4.6m/s | -52.8°C | 5% | 54.1hPa | 3.8V | 00:00:00 | 01:27:26 | 00:00:00 | |
| DL1XH-west | 2026-09-02 23:44:29 | 50.37318 | 6.08798 | 0° | 0km/h | 20650m | 0m/s | -52.7°C | 5.1% | 54.1hPa | 3.8V | 00:00:00 | 00:00:00 | 00:00:00 | |
| GOEST3-10 | 2026-09-02 23:44:29 | 50.37318 | 6.08798 | 68° | 20km/h | 20650m | 4.9m/s | -52.7°C | 5.0% | 54.1hPa | 3.8V | 00:00:00 | 00:00:00 | 00:00:00 | |
| NBG1-10 | 2026-09-02 23:44:27 | 50.37316 | 6.08790 | 98° | 24km/h | 20645m | 4.4m/s | -52.6°C | 5.0% | 54.1hPa | 3.8V | 00:00:00 | 01:27:24 | 00:00:00 | |
| DL1XH1-15 | 2026-09-02 23:44:24 | 50.37317 | 6.08763 | 116° | 20km/h | 20626m | 4.9m/s | -52.5°C | 5% | 54.3hPa | 3.8V | 00:00:00 | 01:27:20 | 00:00:00 | |
| DM0DOS-11 | 2026-09-02 23:44:23 | 50.37321 | 6.08733 | 92° | 24km/h | 20606m | 4.7m/s | -52.4°C | 5% | 54.5hPa | 3.8V | 00:00:00 | 01:27:16 | 00:00:00 | |
| BIOWL1-15 | 2026-09-02 23:44:19 | 50.37323 | 6.08701 | 101° | 16km/h | 20592m | 5m/s | -52.3°C | 5.2% | 54.6hPa | 3.8V | 00:00:00 | 00:00:00 | 00:00:00 | |
| DL1XH-west | 2026-09-02 23:44:19 | 50.37321 | 6.08721 | 0° | 0km/h | 20601m | 0m/s | -52.4°C | 5.2% | 54.5hPa | 3.8V | 00:00:00 | 00:00:00 | 00:00:00 | |
| DL1XH1-15 | 2026-09-02 23:44:18 | 50.37327 | 6.08685 | 123° | 22km/h | 20578m | 4.8m/s | -52.3°C | 5.1% | 54.7hPa | 3.8V | 00:00:00 | 01:27:10 | 00:00:00 | |
| DM0DOS-11 | 2026-09-02 23:44:14 | 50.37335 | 6.08653 | 90° | 20km/h | 20558m | 4.6m/s | -52.4°C | 5.1% | 54.9hPa | 3.8V | 00:00:00 | 01:27:06 | 00:00:00 | |
| DL1XH-west | 2026-09-02 23:44:09 | 50.37335 | 6.08646 | 0° | 0km/h | 20553m | 0m/s | -52.5°C | 5.2% | 55hPa | 3.8V | 00:00:00 | 00:00:00 | 00:00:00 | |
| BIOWL1-15 | 2026-09-02 23:44:06 | 50.37337 | 6.08620 | 109° | 24km/h | 20540m | 4m/s | -52.6°C | 5.2% | 55.1hPa | 3.8V | 00:00:00 | 00:00:00 | 00:00:00 | |
| DB0UT-7 | 2026-09-02 23:44:04 | 50.37339 | 6.08612 | 130° | 29km/h | 20536m | 5.0m/s | -52.5°C | 5.1% | 55.0hPa | 3.7V | 00:00:00 | 01:27:01 | 00:00:00 | |
| DM0DOS-11 | 2026-09-02 23:44:03 | 50.37359 | 6.08579 | 113° | 24km/h | 20511m | 4.4m/s | -52.6°C | 5.1% | 55.3hPa | 3.8V | 00:00:00 | 01:26:56 | 00:00:00 | |
| DL1XH-west | 2026-09-02 23:43:58 | 50.37363 | 6.08563 | 0° | 0km/h | 20502m | 0m/s | -52.7°C | 5.2% | 55.4hPa | 3.8V | 00:00:00 | 00:00:00 | 00:00:00 | |
| BIOWL1-15 | 2026-09-02 23:43:54 | 50.37375 | 6.08529 | 131° | 35km/h | 20484m | 4m/s | -52.7°C | 5.2% | 55.5hPa | 3.8V | 00:00:00 | 00:00:00 | 00:00:00 | |
| DM0DOS-11 | 2026-09-02 23:43:53 | 50.37394 | 6.08499 | 140° | 29km/h | 20466m | 5m/s | -52.7°C | 5.1% | 55.7hPa | 3.8V | 00:00:00 | 01:26:46 | 00:00:00 | |
| GOEST3-10 | 2026-09-02 23:43:49 | 50.37394 | 6.08499 | 141° | 31km/h | 20466m | 4.6m/s | -52.6°C | 5.1% | 55.6hPa | 3.8V | 00:00:00 | 01:26:46 | 00:00:00 | |
| DL1XH1-15 | 2026-09-02 23:43:48 | 50.37420 | 6.08446 | 124° | 35km/h | 20437m | 4.5m/s | -52.6°C | 5.2% | 55.9hPa | 3.8V | 00:00:00 | 01:26:40 | 00:00:00 | |
| DL1XH-west | 2026-09-02 23:43:48 | 50.37408 | 6.08475 | 0° | 0km/h | 20451m | 0m/s | -52.7°C | 5.3% | 55.8hPa | 3.8V | 00:00:00 | 00:00:00 | 00:00:00 | |
| BIOWL1-15 | 2026-09-02 23:43:43 | 50.37439 | 6.08413 | 139° | 40km/h | 20423m | 4m/s | -52.5°C | 5.3% | 56hPa | 3.8V | 00:00:00 | 00:00:00 | 00:00:00 | |
| DM0DOS-11 | 2026-09-02 23:43:43 | 50.37446 | 6.08402 | 134° | 29km/h | 20419m | 4.5m/s | -52.5°C | 5.2% | 56.1hPa | 3.8V | 00:00:00 | 01:26:36 | 00:00:00 | |
| DL1XH-west | 2026-09-02 23:43:37 | 50.37458 | 6.08377 | 0° | 0km/h | 20405m | 0m/s | -52.6°C | 5.3% | 56.2hPa | 3.8V | 00:00:00 | 00:00:00 | 00:00:00 | |
| DL1XH1-15 | 2026-09-02 23:43:34 | 50.37468 | 6.08344 | 130° | 37km/h | 20392m | 4.6m/s | -52.6°C | 5.2% | 56.3hPa | 3.8V | 00:00:00 | 01:26:30 | 00:00:00 | |
| BIOWL1-15 | 2026-09-02 23:43:32 | 50.37480 | 6.08322 | 134° | 33km/h | 20383m | 4.5m/s | -52.7°C | 5.3% | 56.4hPa | 3.8V | 00:00:00 | 00:00:00 | 00:00:00 | |
| GOEST3-10 | 2026-09-02 23:43:31 | 50.37486 | 6.08313 | 134° | 37km/h | 20378m | 4.6m/s | -52.6°C | 5.2% | 56.4hPa | 3.8V | 00:00:00 | 00:00:00 | 00:00:00 | |
| DM0DOS-11 | 2026-09-02 23:43:30 | 50.37492 | 6.08303 | 130° | 37km/h | 20374m | 4.8m/s | -52.7°C | 5.4% | 56.4hPa | 3.8V | 00:00:00 | 01:26:26 | 00:00:00 | |
| DL1XH1-15 | 2026-09-02 23:43:28 | 50.37522 | 6.08229 | 108° | 38km/h | 20345m | 4.7m/s | -52.8°C | 5.2% | 56.7hPa | 3.8V | 00:00:00 | 01:26:20 | 00:00:00 | |
| DL1XH-west | 2026-09-02 23:43:26 | 50.37515 | 6.08255 | 0° | 0km/h | 20355m | 0m/s | -52.8°C | 5.3% | 56.6hPa | 3.8V | 00:00:00 | 00:00:00 | 00:00:00 | |
| DM0DOS-11 | 2026-09-02 23:43:24 | 50.37539 | 6.08176 | 118° | 40km/h | 20326m | 4.5m/s | -53.1°C | 5.4% | 56.8hPa | 3.8V | 00:00:00 | 01:26:16 | 00:00:00 | |
| BIOWL1-15 | 2026-09-02 23:43:20 | 50.37539 | 6.08176 | 118° | 42km/h | 20326m | 4.5m/s | -53.1°C | 5.4% | 56.9hPa | 3.8V | 00:00:00 | 00:00:00 | 00:00:00 | |
| DL1XH-west | 2026-09-02 23:43:16 | 50.37564 | 6.08101 | 0° | 0km/h | 20304m | 0m/s | -53.3°C | 5.4% | 57hPa | 3.8V | 00:00:00 | 00:00:00 | 00:00:00 | |
| DL1XH1-15 | 2026-09-02 23:43:14 | 50.37568 | 6.08087 | 111° | 37km/h | 20300m | 4.7m/s | -53.4°C | 5.4% | 57.1hPa | 3.8V | 00:00:00 | 01:26:10 | 00:00:00 | |
| NBG1-10 | 2026-09-02 23:43:13 | 50.37568 | 6.08087 | 113° | 40km/h | 20300m | 4.5m/s | -53.3°C | 5.4% | 57.0hPa | 3.8V | 00:00:00 | 01:26:10 | 00:00:00 | |
| DM0DOS-11 | 2026-09-02 23:43:10 | 50.37582 | 6.08037 | 111° | 44km/h | 20281m | 4.6m/s | -53.5°C | 5.4% | 57.2hPa | 3.8V | 00:00:00 | 01:26:06 | 00:00:00 | |
| BIOWL1-15 | 2026-09-02 23:43:09 | 50.37603 | 6.07934 | 110° | 38km/h | 20254m | 4m/s | -53.6°C | 5.4% | 57.5hPa | 3.8V | 00:00:00 | 00:00:00 | 00:00:00 | |
| DL1XH1-15 | 2026-09-02 23:43:08 | 50.37603 | 6.07934 | 110° | 37km/h | 20254m | 4.7m/s | -53.6°C | 5.4% | 57.5hPa | 3.8V | 00:00:00 | 01:26:00 | 00:00:00 | |
| DL1XH-west | 2026-09-02 23:43:05 | 50.37599 | 6.07950 | 0° | 0km/h | 20258m | 0m/s | -53.6°C | 5.4% | 57.4hPa | 3.8V | 00:00:00 | 00:00:00 | 00:00:00 | |
| DM0DOS-11 | 2026-09-02 23:43:04 | 50.37612 | 6.07882 | 111° | 38km/h | 20235m | 4.7m/s | -53.8°C | 5.4% | 57.6hPa | 3.8V | 00:00:00 | 01:25:56 | 00:00:00 | |
| BIOWL1-15 | 2026-09-02 23:42:56 | 50.37641 | 6.07757 | 107° | 31km/h | 20193m | 5m/s | -53.9°C | 5.5% | 58hPa | 3.8V | 00:00:00 | 00:00:00 | 00:00:00 | |
| DL1XH-west | 2026-09-02 23:42:55 | 50.37631 | 6.07811 | 0° | 0km/h | 20212m | 0m/s | -53.8°C | 5.4% | 57.9hPa | 3.8V | 00:00:00 | 00:00:00 | 00:00:00 | |
| DL1XH1-15 | 2026-09-02 23:42:54 | 50.37633 | 6.07797 | 102° | 35km/h | 20207m | 4.8m/s | -53.8°C | 5.5% | 57.9hPa | 3.8V | 00:00:00 | 01:25:50 | 00:00:00 | |
| DL1XH1-15 | 2026-09-02 23:42:48 | 50.37669 | 6.07658 | 99° | 40km/h | 20160m | 4.8m/s | -54°C | 5.5% | 58.3hPa | 3.8V | 00:00:00 | 01:25:40 | 00:00:00 | |
| DJ8HS-15 | 2026-09-02 23:42:46 | 50.37654 | 6.07711 | 120° | 37km/h | 20174m | 4.7m/s | -54.0°C | 5.5% | 58.1hPa | 3.7V | 00:00:00 | 01:25:43 | 00:00:00 | |
| DM0DOS-11 | 2026-09-02 23:42:45 | 50.37678 | 6.07582 | 110° | 35km/h | 20136m | 4.8m/s | -54.1°C | 5.5% | 58.5hPa | 3.8V | 00:00:00 | 01:25:35 | 00:00:00 | |
| DL1XH-west | 2026-09-02 23:42:44 | 50.37669 | 6.07658 | 0° | 0km/h | 20160m | 0m/s | -54.1°C | 5.5% | 58.3hPa | 3.8V | 00:00:00 | 00:00:00 | 00:00:00 | |
| BIOWL1-15 | 2026-09-02 23:42:41 | 50.37673 | 6.07608 | 108° | 35km/h | 20146m | 5m/s | -54.1°C | 5.5% | 58.4hPa | 3.8V | 00:00:00 | 00:00:00 | 00:00:00 | |
| NBG1-10 | 2026-09-02 23:42:38 | 50.37678 | 6.07582 | 111° | 33km/h | 20136m | 4.7m/s | -54.1°C | 5.5% | 58.5hPa | 3.7V | 00:00:00 | 01:25:35 | 00:00:00 | |
| GOEST3-10 | 2026-09-02 23:42:37 | 50.37681 | 6.07569 | 110° | 35km/h | 20132m | 4.9m/s | -54.1°C | 5.5% | 58.5hPa | 3.7V | 00:00:00 | 00:00:00 | 00:00:00 | |
| DL1XH1-15 | 2026-09-02 23:42:34 | 50.37692 | 6.07514 | 108° | 35km/h | 20112m | 4.8m/s | -54°C | 5.5% | 58.7hPa | 3.8V | 00:00:00 | 01:25:30 | 00:00:00 | |
| DL1XH-west | 2026-09-02 23:42:33 | 50.37695 | 6.07502 | 0° | 0km/h | 20107m | 0m/s | -54°C | 5.5% | 58.7hPa | 3.8V | 00:00:00 | 00:00:00 | 00:00:00 | |
| DM0DOS-11 | 2026-09-02 23:42:33 | 50.37698 | 6.07460 | 92° | 35km/h | 20092m | 4.5m/s | -53.9°C | 5.5% | 58.9hPa | 3.8V | 00:00:00 | 01:25:26 | 00:00:00 | |
| BIOWL1-15 | 2026-09-02 23:42:29 | 50.37712 | 6.07380 | 101° | 31km/h | 20064m | 4m/s | -53.7°C | 5.6% | 59.1hPa | 3.8V | 00:00:00 | 00:00:00 | 00:00:00 | |
| DL1XH1-15 | 2026-09-02 23:42:28 | 50.37712 | 6.07380 | 101° | 31km/h | 20064m | 4.5m/s | -53.7°C | 5.5% | 59.1hPa | 3.8V | 00:00:00 | 01:25:20 | 00:00:00 | |
| GOEST3-10 | 2026-09-02 23:42:27 | 50.37700 | 6.07430 | 112° | 33km/h | 20083m | 4.5m/s | -53.8°C | 5.5% | 58.9hPa | 3.8V | 00:00:00 | 00:00:00 | 00:00:00 | |
| DJ8HS-15 | 2026-09-02 23:42:26 | 50.37703 | 6.07417 | 116° | 31km/h | 20078m | 4.5m/s | -53.7°C | 5.5% | 59.0hPa | 3.8V | 00:00:00 | 01:25:23 | 00:00:00 | |
| DM0DOS-11 | 2026-09-02 23:42:23 | 50.37720 | 6.07332 | 104° | 35km/h | 20047m | 5m/s | -53.6°C | 5.5% | 59.3hPa | 3.8V | 00:00:00 | 01:25:16 | 00:00:00 | |
| DL1XH-west | 2026-09-02 23:42:22 | 50.37716 | 6.07356 | 0° | 0km/h | 20056m | 0m/s | -53.6°C | 5.6% | 59.2hPa | 3.8V | 00:00:00 | 00:00:00 | 00:00:00 | |
| BIOWL1-15 | 2026-09-02 23:42:15 | 50.37729 | 6.07262 | 115° | 27km/h | 20022m | 5m/s | -53.5°C | 5.6% | 59.5hPa | 3.8V | 00:00:00 | 00:00:00 | 00:00:00 | |
| DL1XH1-15 | 2026-09-02 23:42:14 | 50.37732 | 6.07252 | 107° | 27km/h | 20017m | 4.7m/s | -53.5°C | 5.5% | 59.5hPa | 3.8V | 00:00:00 | 01:25:10 | 00:00:00 | |
| DL1XH-west | 2026-09-02 23:42:13 | 50.37736 | 6.07223 | 0° | 0km/h | 20004m | 0m/s | -53.5°C | 5.6% | 59.7hPa | 3.8V | 00:00:00 | 00:00:00 | 00:00:00 | |
| DM0DOS-11 | 2026-09-02 23:42:13 | 50.37738 | 6.07212 | 106° | 31km/h | 19998m | 4.8m/s | -53.5°C | 5.5% | 59.7hPa | 3.8V | 00:00:00 | 01:25:06 | 00:00:00 | |
| GOEST3-10 | 2026-09-02 23:42:12 | 50.37735 | 6.07233 | 106° | 29km/h | 20008m | 4.7m/s | -53.4°C | 5.5% | 59.6hPa | 3.8V | 00:00:00 | 01:25:08 | 00:00:00 | |
| DL1XH1-15 | 2026-09-02 23:42:08 | 50.37746 | 6.07139 | 113° | 26km/h | 19968m | 4.5m/s | -53.7°C | 5.5% | 60hPa | 3.8V | 00:00:00 | 01:25:00 | 00:00:00 | |
| BIOWL1-15 | 2026-09-02 23:42:04 | 50.37751 | 6.07122 | 101° | 24km/h | 19960m | 5m/s | -53.7°C | 5.6% | 60.1hPa | 3.8V | 00:00:00 | 00:00:00 | 00:00:00 | |
| DL1XH-west | 2026-09-02 23:42:01 | 50.37752 | 6.07113 | 0° | 0km/h | 19955m | 0m/s | -53.6°C | 5.6% | 60.1hPa | 3.8V | 00:00:00 | 00:00:00 | 00:00:00 | |
| DM0DOS-11 | 2026-09-02 23:42:00 | 50.37752 | 6.07103 | 99° | 29km/h | 19950m | 4.7m/s | -53.6°C | 5.5% | 60.2hPa | 3.9V | 00:00:00 | 01:24:56 | 00:00:00 | |
| DM0DOS-11 | 2026-09-02 23:41:54 | 50.37771 | 6.06995 | 103° | 26km/h | 19901m | 4.9m/s | -53.4°C | 5.6% | 60.6hPa | 3.8V | 00:00:00 | 01:24:46 | 00:00:00 | |
| DL1XH1-15 | 2026-09-02 23:41:54 | 50.37768 | 6.07038 | 93° | 27km/h | 19921m | 5m/s | -53.5°C | 5.6% | 60.4hPa | 3.8V | 00:00:00 | 01:24:50 | 00:00:00 | |
| BIOWL1-15 | 2026-09-02 23:41:51 | 50.37781 | 6.06958 | 126° | 26km/h | 19881m | 4m/s | -53.4°C | 5.7% | 60.8hPa | 3.8V | 00:00:00 | 00:00:00 | 00:00:00 | |
| DL1XH-west | 2026-09-02 23:41:51 | 50.37771 | 6.06995 | 0° | 0km/h | 19901m | 0m/s | -53.4°C | 5.7% | 60.6hPa | 3.8V | 00:00:00 | 00:00:00 | 00:00:00 | |
| DL1XH1-15 | 2026-09-02 23:41:48 | 50.37788 | 6.06941 | 97° | 26km/h | 19871m | 4.7m/s | -53.3°C | 5.6% | 60.9hPa | 3.8V | 00:00:00 | 01:24:40 | 00:00:00 | |
| DJ8HS-15 | 2026-09-02 23:41:46 | 50.37777 | 6.06966 | 126° | 22km/h | 19886m | 4.8m/s | -53.3°C | 5.6% | 60.7hPa | 3.7V | 00:00:00 | 01:24:43 | 00:00:00 | |
| GOEST3-10 | 2026-09-02 23:41:42 | 50.37788 | 6.06921 | 94° | 24km/h | 19862m | 4.8m/s | -53.2°C | 5.6% | 60.9hPa | 3.9V | 00:00:00 | 00:00:00 | 00:00:00 | |
| DM0DOS-11 | 2026-09-02 23:41:41 | 50.37790 | 6.06899 | 110° | 22km/h | 19852m | 4.6m/s | -53.2°C | 5.6% | 61hPa | 3.9V | 00:00:00 | 01:24:36 | 00:00:00 | |
| DL1XH-west | 2026-09-02 23:41:40 | 50.37790 | 6.06899 | 0° | 0km/h | 19852m | 0m/s | -53.2°C | 5.7% | 61hPa | 3.9V | 00:00:00 | 00:00:00 | 00:00:00 | |
| DL1XH1-15 | 2026-09-02 23:41:34 | 50.37797 | 6.06850 | 117° | 24km/h | 19824m | 4.8m/s | -53.1°C | 5.7% | 61.3hPa | 3.8V | 00:00:00 | 01:24:30 | 00:00:00 | |
| BIOWL1-15 | 2026-09-02 23:41:32 | 50.37811 | 6.06785 | 103° | 20km/h | 19786m | 5m/s | -53.1°C | 5.8% | 61.7hPa | 3.9V | 00:00:00 | 00:00:00 | 00:00:00 | |
| DM0DOS-11 | 2026-09-02 23:41:31 | 50.37808 | 6.06815 | 99° | 20km/h | 19805m | 4.7m/s | -53.1°C | 5.7% | 61.5hPa | 3.8V | 00:00:00 | 01:24:26 | 00:00:00 | |
| DL1XH-west | 2026-09-02 23:41:30 | 50.37809 | 6.06807 | 0° | 0km/h | 19801m | 0m/s | -53.1°C | 5.8% | 61.5hPa | 3.9V | 00:00:00 | 00:00:00 | 00:00:00 | |
| DL1XH1-15 | 2026-09-02 23:41:28 | 50.37812 | 6.06771 | 100° | 22km/h | 19776m | 4.6m/s | -53.1°C | 5.7% | 61.8hPa | 3.8V | 00:00:00 | 01:24:20 | 00:00:00 | |
| DJ8HS-15 | 2026-09-02 23:41:26 | 50.37810 | 6.06792 | 99° | 24km/h | 19791m | 4.8m/s | -53.1°C | 5.7% | 61.6hPa | 3.9V | 00:00:00 | 01:24:23 | 00:00:00 | |
| DM0DOS-11 | 2026-09-02 23:41:24 | 50.37822 | 6.06738 | 119° | 22km/h | 19757m | 4.5m/s | -53°C | 5.7% | 61.9hPa | 3.9V | 00:00:00 | 01:24:16 | 00:00:00 | |
| DL1XH-west | 2026-09-02 23:41:19 | 50.37828 | 6.06721 | 0° | 0km/h | 19748m | 0m/s | -53°C | 5.8% | 62hPa | 3.9V | 00:00:00 | 00:00:00 | 00:00:00 | |
| BIOWL1-15 | 2026-09-02 23:41:18 | 50.37843 | 6.06678 | 130° | 24km/h | 19720m | 4m/s | -52.8°C | 5.9% | 62.3hPa | 3.9V | 00:00:00 | 00:00:00 | 00:00:00 | |
| DL1XH1-15 | 2026-09-02 23:41:14 | 50.37836 | 6.06693 | 125° | 26km/h | 19729m | 4.5m/s | -52.9°C | 5.7% | 62.2hPa | 3.9V | 00:00:00 | 01:24:10 | 00:00:00 | |
| DM0DOS-11 | 2026-09-02 23:41:10 | 50.37851 | 6.06663 | 119° | 29km/h | 19711m | 4.6m/s | -52.8°C | 5.9% | 62.3hPa | 3.9V | 00:00:00 | 01:24:06 | 00:00:00 | |
| DL1XH-west | 2026-09-02 23:41:08 | 50.37858 | 6.06641 | 0° | 0km/h | 19701m | 0m/s | -52.8°C | 5.9% | 62.4hPa | 3.9V | 00:00:00 | 00:00:00 | 00:00:00 | |
| DJ8HS-15 | 2026-09-02 23:41:06 | 50.37861 | 6.06629 | 108° | 33km/h | 19698m | 4.8m/s | -52.7°C | 5.9% | 62.4hPa | 3.9V | 00:00:00 | 01:24:03 | 00:00:00 | |
| DB0UT-7 | 2026-09-02 23:41:04 | 50.37865 | 6.06609 | 120° | 37km/h | 19687m | 4.4m/s | -52.8°C | 5.9% | 62.5hPa | 3.9V | 00:00:00 | 01:24:01 | 00:00:00 | |
| DM0DOS-11 | 2026-09-02 23:41:00 | 50.37889 | 6.06566 | 128° | 31km/h | 19665m | 4.8m/s | -53°C | 5.9% | 62.8hPa | 3.8V | 00:00:00 | 01:23:56 | 00:00:00 | |
| BIOWL1-15 | 2026-09-02 23:40:59 | 50.37894 | 6.06556 | 118° | 26km/h | 19660m | 5m/s | -53°C | 5.9% | 62.8hPa | 3.9V | 00:00:00 | 00:00:00 | 00:00:00 | |
| DL1XH-west | 2026-09-02 23:40:58 | 50.37897 | 6.06547 | 0° | 0km/h | 19655m | 0m/s | -53.1°C | 5.9% | 62.9hPa | 3.9V | 00:00:00 | 00:00:00 | 00:00:00 | |
| NBG1-10 | 2026-09-02 23:40:54 | 50.37907 | 6.06518 | 127° | 37km/h | 19640m | 4.5m/s | -53.0°C | 5.9% | 63.0hPa | 3.9V | 00:00:00 | 01:23:51 | 00:00:00 | |
| DM0DOS-11 | 2026-09-02 23:40:50 | 50.37935 | 6.06461 | 130° | 38km/h | 19617m | 4.5m/s | -53.2°C | 6% | 63.2hPa | 3.9V | 00:00:00 | 01:23:46 | 00:00:00 | |
| BIOWL1-15 | 2026-09-02 23:40:49 | 50.37941 | 6.06450 | 121° | 35km/h | 19613m | 5m/s | -53.2°C | 6% | 63.3hPa | 3.9V | 00:00:00 | 00:00:00 | 00:00:00 | |
| DL1XH1-15 | 2026-09-02 23:40:48 | 50.37963 | 6.06385 | 128° | 42km/h | 19590m | 4.7m/s | -53.5°C | 6% | 63.5hPa | 3.9V | 00:00:00 | 01:23:40 | 00:00:00 | |
| DL1XH-west | 2026-09-02 23:40:47 | 50.37949 | 6.06425 | 0° | 0km/h | 19603m | 0m/s | -53.3°C | 6% | 63.4hPa | 3.9V | 00:00:00 | 00:00:00 | 00:00:00 | |
| BIOWL1-15 | 2026-09-02 23:40:39 | 50.38010 | 6.06232 | 115° | 42km/h | 19541m | 5m/s | -53.8°C | 6% | 64hPa | 3.9V | 00:00:00 | 00:00:00 | 00:00:00 | |
| DL1XH-west | 2026-09-02 23:40:37 | 50.38000 | 6.06281 | 0° | 0km/h | 19556m | 0m/s | -53.6°C | 6% | 63.8hPa | 3.9V | 00:00:00 | 00:00:00 | 00:00:00 | |
| DL1XH1-15 | 2026-09-02 23:40:34 | 50.38010 | 6.06232 | 115° | 44km/h | 19541m | 4.7m/s | -53.8°C | 6% | 64hPa | 3.9V | 00:00:00 | 01:23:30 | 00:00:00 | |
| DM0DOS-11 | 2026-09-02 23:40:33 | 50.38031 | 6.06157 | 101° | 51km/h | 19518m | 4.6m/s | -54°C | 6% | 64.2hPa | 3.9V | 00:00:00 | 01:23:25 | 00:00:00 | |
| DL1XH1-15 | 2026-09-02 23:40:28 | 50.38046 | 6.06051 | 99° | 44km/h | 19496m | 4.8m/s | -53.8°C | 6% | 64.4hPa | 3.9V | 00:00:00 | 01:23:20 | 00:00:00 | |
| BIOWL1-15 | 2026-09-02 23:40:28 | 50.38048 | 6.06032 | 106° | 40km/h | 19491m | 5m/s | -53.8°C | 6.1% | 64.5hPa | 3.9V | 00:00:00 | 00:00:00 | 00:00:00 | |
| DL1XH-west | 2026-09-02 23:40:26 | 50.38040 | 6.06095 | 0° | 0km/h | 19504m | 0m/s | -53.9°C | 6% | 64.3hPa | 3.9V | 00:00:00 | 00:00:00 | 00:00:00 | |
| DM0DOS-11 | 2026-09-02 23:40:23 | 50.38063 | 6.05972 | 113° | 46km/h | 19472m | 4.7m/s | -53.7°C | 6% | 64.7hPa | 3.9V | 00:00:00 | 01:23:15 | 00:00:00 | |
| DL1XH-west | 2026-09-02 23:40:16 | 50.38074 | 6.05920 | 0° | 0km/h | 19458m | 0m/s | -53.7°C | 6.1% | 64.8hPa | 3.9V | 00:00:00 | 00:00:00 | 00:00:00 | |
| DL1XH1-15 | 2026-09-02 23:40:15 | 50.38082 | 6.05878 | 105° | 42km/h | 19449m | 4.7m/s | -53.7°C | 6% | 64.9hPa | 3.9V | 00:00:00 | 01:23:10 | 00:00:00 | |
| DM0DOS-11 | 2026-09-02 23:40:13 | 50.38095 | 6.05804 | 115° | 42km/h | 19425m | 4.4m/s | -53.7°C | 6% | 65.1hPa | 3.9V | 00:00:00 | 01:23:05 | 00:00:00 | |
| BIOWL1-15 | 2026-09-02 23:40:08 | 50.38110 | 6.05741 | 101° | 38km/h | 19407m | 4m/s | -53.9°C | 6.1% | 65.3hPa | 3.9V | 00:00:00 | 00:00:00 | 00:00:00 | |
| DL1XH-west | 2026-09-02 23:40:06 | 50.38108 | 6.05757 | 0° | 0km/h | 19412m | 0m/s | -53.9°C | 6.1% | 65.3hPa | 3.9V | 00:00:00 | 00:00:00 | 00:00:00 | |
| DL1XH1-15 | 2026-09-02 23:40:04 | 50.38112 | 6.05726 | 106° | 38km/h | 19403m | 4.7m/s | -54°C | 6% | 65.3hPa | 3.9V | 00:00:00 | 01:23:00 | 00:00:00 | |
| DL1XH1-15 | 2026-09-02 23:39:58 | 50.38138 | 6.05567 | 100° | 38km/h | 19357m | 4.7m/s | -54.4°C | 6.1% | 65.8hPa | 3.9V | 00:00:00 | 01:22:50 | 00:00:00 | |
| DL1XH-west | 2026-09-02 23:39:56 | 50.38132 | 6.05602 | 0° | 0km/h | 19366m | 0m/s | -54.3°C | 6.2% | 65.7hPa | 3.9V | 00:00:00 | 00:00:00 | 00:00:00 | |
| BIOWL1-15 | 2026-09-02 23:39:54 | 50.38138 | 6.05567 | 100° | 42km/h | 19357m | 5m/s | -54.4°C | 6.2% | 65.8hPa | 3.9V | 00:00:00 | 00:00:00 | 00:00:00 | |
| DM0DOS-11 | 2026-09-02 23:39:53 | 50.38152 | 6.05492 | 112° | 38km/h | 19334m | 4.8m/s | -54.5°C | 6.1% | 66hPa | 3.9V | 00:00:00 | 01:22:45 | 00:00:00 | |
| BIOWL1-15 | 2026-09-02 23:39:45 | 50.38174 | 6.05388 | 100° | 38km/h | 19302m | 5m/s | -54.5°C | 6.2% | 66.3hPa | 3.9V | 00:00:00 | 00:00:00 | 00:00:00 | |
| DL1XH-west | 2026-09-02 23:39:45 | 50.38163 | 6.05438 | 0° | 0km/h | 19315m | 0m/s | -54.5°C | 6.2% | 66.2hPa | 3.9V | 00:00:00 | 00:00:00 | 00:00:00 | |
| DL1XH1-15 | 2026-09-02 23:39:44 | 50.38166 | 6.05421 | 111° | 40km/h | 19310m | 4.4m/s | -54.5°C | 6.1% | 66.3hPa | 3.9V | 00:00:00 | 01:22:40 | 00:00:00 | |
| DM0DOS-11 | 2026-09-02 23:39:43 | 50.38178 | 6.05344 | 104° | 37km/h | 19288m | 4.8m/s | -54.6°C | 6.2% | 66.5hPa | 3.9V | 00:00:00 | 01:22:35 | 00:00:00 | |
| DL1XH1-15 | 2026-09-02 23:39:38 | 50.38194 | 6.05275 | 106° | 37km/h | 19264m | 4.6m/s | -54.6°C | 6.2% | 66.7hPa | 3.9V | 00:00:00 | 01:22:30 | 00:00:00 | |
| DL1XH-west | 2026-09-02 23:39:34 | 50.38194 | 6.05275 | 0° | 0km/h | 19264m | 0m/s | -54.6°C | 6.3% | 66.7hPa | 3.9V | 00:00:00 | 00:00:00 | 00:00:00 | |
| BIOWL1-15 | 2026-09-02 23:39:31 | 50.38208 | 6.05222 | 114° | 33km/h | 19246m | 5m/s | -54.6°C | 6.3% | 66.9hPa | 3.9V | 00:00:00 | 00:00:00 | 00:00:00 | |
| DJ8HS-15 | 2026-09-02 23:39:26 | 50.38214 | 6.05185 | 106° | 37km/h | 19232m | 4.7m/s | -54.6°C | 6.2% | 67.0hPa | 3.9V | 00:00:00 | 01:22:23 | 00:00:00 | |
| DL1XH1-15 | 2026-09-02 23:39:25 | 50.38226 | 6.05143 | 117° | 40km/h | 19217m | 4.5m/s | -54.6°C | 6.2% | 67.2hPa | 3.9V | 00:00:00 | 01:22:20 | 00:00:00 | |
| DM0DOS-11 | 2026-09-02 23:39:23 | 50.38242 | 6.05067 | 113° | 37km/h | 19194m | 4.6m/s | -54.6°C | 6.3% | 67.4hPa | 3.9V | 00:00:00 | 01:22:15 | 00:00:00 | |
| DL1XH-west | 2026-09-02 23:39:23 | 50.38231 | 6.05128 | 0° | 0km/h | 19213m | 0m/s | -54.6°C | 6.3% | 67.2hPa | 3.9V | 00:00:00 | 00:00:00 | 00:00:00 | |
| BIOWL1-15 | 2026-09-02 23:39:20 | 50.38242 | 6.05067 | 114° | 37km/h | 19194m | 4m/s | -54.6°C | 6.4% | 67.4hPa | 3.9V | 00:00:00 | 00:00:00 | 00:00:00 | |
| DL1XH1-15 | 2026-09-02 23:39:18 | 50.38261 | 6.05002 | 115° | 37km/h | 19171m | 4.8m/s | -54.6°C | 6.2% | 67.6hPa | 3.9V | 00:00:00 | 01:22:10 | 00:00:00 | |
| DM0DOS-11 | 2026-09-02 23:39:13 | 50.38277 | 6.04936 | 114° | 35km/h | 19148m | 4.3m/s | -54.5°C | 6.3% | 67.9hPa | 3.9V | 00:00:00 | 01:22:05 | 00:00:00 | |
| DL1XH-west | 2026-09-02 23:39:12 | 50.38269 | 6.04974 | 0° | 0km/h | 19161m | 0m/s | -54.5°C | 6.4% | 67.7hPa | 3.9V | 00:00:00 | 00:00:00 | 00:00:00 | |
| BIOWL1-15 | 2026-09-02 23:39:08 | 50.38292 | 6.04900 | 121° | 38km/h | 19135m | 5m/s | -54.5°C | 6.4% | 68hPa | 3.9V | 00:00:00 | 00:00:00 | 00:00:00 | |
| DJ8HS-15 | 2026-09-02 23:39:06 | 50.38286 | 6.04913 | 128° | 38km/h | 19139m | 4.5m/s | -54.4°C | 6.3% | 67.9hPa | 3.9V | 00:00:00 | 01:22:03 | 00:00:00 | |
| DB0UT-7 | 2026-09-02 23:39:05 | 50.38297 | 6.04887 | 112° | 38km/h | 19130m | 4.6m/s | -54.4°C | 6.3% | 68.0hPa | 3.9V | 00:00:00 | 01:22:01 | 00:00:00 | |
| DL1XH1-15 | 2026-09-02 23:39:04 | 50.38300 | 6.04874 | 106° | 38km/h | 19125m | 4.5m/s | -54.4°C | 6.3% | 68.1hPa | 3.9V | 00:00:00 | 01:22:00 | 00:00:00 | |
| DM0DOS-11 | 2026-09-02 23:39:03 | 50.38314 | 6.04799 | 116° | 38km/h | 19102m | 4.6m/s | -54.5°C | 6.3% | 68.4hPa | 3.9V | 00:00:00 | 01:21:55 | 00:00:00 | |
| DL1XH-west | 2026-09-02 23:39:01 | 50.38308 | 6.04829 | 0° | 0km/h | 19111m | 0m/s | -54.5°C | 6.4% | 68.3hPa | 3.9V | 00:00:00 | 00:00:00 | 00:00:00 | |
| DL1XH1-15 | 2026-09-02 23:38:58 | 50.38343 | 6.04735 | 113° | 38km/h | 19080m | 4.8m/s | -54.8°C | 6.5% | 68.6hPa | 3.9V | 00:00:00 | 01:21:50 | 00:00:00 | |
| DM0DOS-11 | 2026-09-02 23:38:53 | 50.38354 | 6.04659 | 107° | 38km/h | 19056m | 4.5m/s | -54.8°C | 6.5% | 68.8hPa | 3.9V | 00:00:00 | 01:21:45 | 00:00:00 | |
| DL1XH-west | 2026-09-02 23:38:51 | 50.38349 | 6.04694 | 0° | 0km/h | 19065m | 0m/s | -54.9°C | 6.4% | 68.8hPa | 3.9V | 00:00:00 | 00:00:00 | 00:00:00 | |
| DJ8HS-15 | 2026-09-02 23:38:46 | 50.38360 | 6.04627 | 112° | 35km/h | 19047m | 4.5m/s | -54.7°C | 6.5% | 68.9hPa | 3.9V | 00:00:00 | 01:21:43 | 00:00:00 | |
| DL1XH1-15 | 2026-09-02 23:38:44 | 50.38372 | 6.04587 | 108° | 33km/h | 19033m | 4.4m/s | -54.7°C | 6.5% | 69.1hPa | 3.9V | 00:00:00 | 01:21:40 | 00:00:00 | |
| BIOWL1-15 | 2026-09-02 23:38:43 | 50.38374 | 6.04575 | 102° | 29km/h | 19029m | 5m/s | -54.7°C | 6.5% | 69.1hPa | 3.9V | 00:00:00 | 00:00:00 | 00:00:00 | |
| DM0DOS-11 | 2026-09-02 23:38:43 | 50.38378 | 6.04525 | 110° | 38km/h | 19011m | 4.6m/s | -54.7°C | 6.5% | 69.3hPa | 3.9V | 00:00:00 | 01:21:35 | 00:00:00 | |
| DL1XH-west | 2026-09-02 23:38:41 | 50.38376 | 6.04552 | 0° | 0km/h | 19020m | 0m/s | -54.7°C | 6.5% | 69.2hPa | 3.9V | 00:00:00 | 00:00:00 | 00:00:00 | |
| DL1XH1-15 | 2026-09-02 23:38:38 | 50.38396 | 6.04452 | 108° | 33km/h | 18989m | 4.8m/s | -54.9°C | 6.5% | 69.6hPa | 3.9V | 00:00:00 | 01:21:30 | 00:00:00 | |
| DB0UT-7 | 2026-09-02 23:38:34 | 50.38394 | 6.04464 | 106° | 37km/h | 18993m | 4.5m/s | -54.8°C | 6.5% | 69.5hPa | 3.9V | 00:00:00 | 00:00:00 | 00:00:00 | |
| DM0DOS-11 | 2026-09-02 23:38:33 | 50.38408 | 6.04391 | 103° | 35km/h | 18965m | 4.6m/s | -55°C | 6.5% | 69.8hPa | 3.9V | 00:00:00 | 01:21:25 | 00:00:00 | |
| DL1XH-west | 2026-09-02 23:38:30 | 50.38407 | 6.04403 | 0° | 0km/h | 18970m | 0m/s | -55°C | 6.5% | 69.8hPa | 3.9V | 00:00:00 | 00:00:00 | 00:00:00 | |
| DJ8HS-15 | 2026-09-02 23:38:26 | 50.38411 | 6.04365 | 115° | 37km/h | 18956m | 4.6m/s | -55.0°C | 6.5% | 69.9hPa | 3.9V | 00:00:00 | 01:21:23 | 00:00:00 | |
| DL1XH1-15 | 2026-09-02 23:38:24 | 50.38425 | 6.04324 | 118° | 29km/h | 18942m | 4.6m/s | -55°C | 6.5% | 70hPa | 3.9V | 00:00:00 | 01:21:20 | 00:00:00 | |
| DM0DOS-11 | 2026-09-02 23:38:23 | 50.38442 | 6.04275 | 113° | 38km/h | 18919m | 4.6m/s | -55.1°C | 6.5% | 70.3hPa | 3.9V | 00:00:00 | 01:21:15 | 00:00:00 | |
| DL1XH-west | 2026-09-02 23:38:19 | 50.38442 | 6.04275 | 0° | 0km/h | 18919m | 0m/s | -55.1°C | 6.6% | 70.3hPa | 3.9V | 00:00:00 | 00:00:00 | 00:00:00 | |
| DL1XH1-15 | 2026-09-02 23:38:18 | 50.38461 | 6.04202 | 116° | 37km/h | 18896m | 4.8m/s | -55.2°C | 6.6% | 70.5hPa | 3.9V | 00:00:00 | 01:21:10 | 00:00:00 | |
| DM0DOS-11 | 2026-09-02 23:38:13 | 50.38480 | 6.04142 | 118° | 40km/h | 18872m | 4.5m/s | -55.2°C | 6.6% | 70.8hPa | 3.9V | 00:00:00 | 01:21:05 | 00:00:00 | |
| DL1XH-west | 2026-09-02 23:38:08 | 50.38485 | 6.04128 | 0° | 0km/h | 18868m | 0m/s | -55.2°C | 6.7% | 70.8hPa | 3.9V | 00:00:00 | 00:00:00 | 00:00:00 | |
| DJ8HS-15 | 2026-09-02 23:38:06 | 50.38489 | 6.04114 | 108° | 42km/h | 18864m | 4.9m/s | -55.1°C | 6.6% | 70.9hPa | 3.9V | 00:00:00 | 01:21:03 | 00:00:00 | |
| DB0UT-7 | 2026-09-02 23:38:04 | 50.38494 | 6.04082 | 101° | 42km/h | 18853m | 4.4m/s | -55.2°C | 6.6% | 71.0hPa | 3.9V | 00:00:00 | 01:21:01 | 00:00:00 | |
| DM0DOS-11 | 2026-09-02 23:38:03 | 50.38514 | 6.03988 | 106° | 42km/h | 18826m | 4.7m/s | -55.6°C | 6.6% | 71.3hPa | 3.9V | 00:00:00 | 01:20:55 | 00:00:00 | |
| DL1XH-west | 2026-09-02 23:37:58 | 50.38517 | 6.03974 | 0° | 0km/h | 18822m | 0m/s | -55.7°C | 6.7% | 71.4hPa | 3.9V | 00:00:00 | 00:00:00 | 00:00:00 | |
| BIOWL1-15 | 2026-09-02 23:37:58 | 50.38531 | 6.03910 | 95° | 46km/h | 18803m | 5m/s | -55.8°C | 6.8% | 71.6hPa | 3.9V | 00:00:00 | 00:00:00 | 00:00:00 | |
| DL1XH1-15 | 2026-09-02 23:37:57 | 50.38531 | 6.03910 | 93° | 46km/h | 18803m | 4.8m/s | -55.8°C | 6.7% | 71.6hPa | 3.9V | 00:00:00 | 01:20:50 | 00:00:00 | |
| DM0DOS-11 | 2026-09-02 23:37:53 | 50.38539 | 6.03817 | 100° | 40km/h | 18779m | 4.8m/s | -55.7°C | 6.7% | 71.8hPa | 3.9V | 00:00:00 | 01:20:45 | 00:00:00 | |
| DL1XH-west | 2026-09-02 23:37:47 | 50.38543 | 6.03787 | 0° | 0km/h | 18769m | 0m/s | -55.6°C | 6.8% | 71.9hPa | 3.9V | 00:00:00 | 00:00:00 | 00:00:00 | |
| DJ8HS-15 | 2026-09-02 23:37:46 | 50.38542 | 6.03786 | 97° | 38km/h | 18769m | 4.5m/s | -55.6°C | 6.7% | 71.9hPa | 3.9V | 00:00:00 | 01:20:43 | 00:00:00 | |
| DL1XH1-15 | 2026-09-02 23:37:44 | 50.38547 | 6.03737 | 91° | 44km/h | 18755m | 4.6m/s | -55.5°C | 6.7% | 72.1hPa | 3.9V | 00:00:00 | 01:20:40 | 00:00:00 | |
| DM0DOS-11 | 2026-09-02 23:37:43 | 50.38548 | 6.03647 | 103° | 35km/h | 18732m | 4.8m/s | -55.4°C | 6.7% | 72.3hPa | 3.9V | 00:00:00 | 01:20:35 | 00:00:00 | |
| DL1XH1-15 | 2026-09-02 23:37:37 | 50.38558 | 6.03581 | 97° | 38km/h | 18708m | 4.7m/s | -55.4°C | 6.8% | 72.6hPa | 3.9V | 00:00:00 | 01:20:30 | 00:00:00 | |
| DL1XH-west | 2026-09-02 23:37:36 | 50.38554 | 6.03607 | 0° | 0km/h | 18718m | 0m/s | -55.4°C | 6.8% | 72.5hPa | 3.9V | 00:00:00 | 00:00:00 | 00:00:00 | |
| DB0UT-7 | 2026-09-02 23:37:34 | 50.38556 | 6.03595 | 105° | 33km/h | 18713m | 4.7m/s | -55.4°C | 6.7% | 72.5hPa | 3.9V | 00:00:00 | 00:00:00 | 00:00:00 | |
| DM0DOS-11 | 2026-09-02 23:37:33 | 50.38557 | 6.03503 | 96° | 35km/h | 18684m | 4.6m/s | -55.4°C | 6.8% | 72.9hPa | 3.9V | 00:00:00 | 01:20:25 | 00:00:00 | |
| DL1XH-west | 2026-09-02 23:37:25 | 50.38560 | 6.03450 | 0° | 0km/h | 18666m | 0m/s | -55.3°C | 6.9% | 73.1hPa | 3.9V | 00:00:00 | 00:00:00 | 00:00:00 | |
| DL1XH1-15 | 2026-09-02 23:37:24 | 50.38560 | 6.03439 | 95° | 33km/h | 18660m | 4.4m/s | -55.3°C | 6.8% | 73.2hPa | 3.9V | 00:00:00 | 01:20:20 | 00:00:00 | |
| DM0DOS-11 | 2026-09-02 23:37:23 | 50.38556 | 6.03371 | 81° | 35km/h | 18638m | 4.8m/s | -55.3°C | 6.8% | 73.4hPa | 3.9V | 00:00:00 | 01:20:15 | 00:00:00 | |
| DL1XH1-15 | 2026-09-02 23:37:18 | 50.38553 | 6.03299 | 90° | 27km/h | 18614m | 4.8m/s | -55.2°C | 7% | 73.7hPa | 3.9V | 00:00:00 | 01:20:10 | 00:00:00 | |
| DL1XH-west | 2026-09-02 23:37:14 | 50.38553 | 6.03299 | 0° | 0km/h | 18614m | 0m/s | -55.2°C | 7% | 73.7hPa | 3.9V | 00:00:00 | 00:00:00 | 00:00:00 | |
| DM0DOS-11 | 2026-09-02 23:37:13 | 50.38554 | 6.03245 | 84° | 29km/h | 18590m | 4.7m/s | -55.2°C | 7% | 73.9hPa | 3.9V | 00:00:00 | 01:20:05 | 00:00:00 | |
| BIOWL1-15 | 2026-09-02 23:37:03 | 50.38558 | 6.03118 | 81° | 27km/h | 18538m | 5m/s | -55.1°C | 7.1% | 74.5hPa | 3.9V | 00:00:00 | 00:00:00 | 00:00:00 | |
| DL1XH-west | 2026-09-02 23:37:03 | 50.38553 | 6.03177 | 0° | 0km/h | 18562m | 0m/s | -55.2°C | 7% | 74.3hPa | 3.9V | 00:00:00 | 00:00:00 | 00:00:00 | |
| DL1XH1-15 | 2026-09-02 23:36:58 | 50.38558 | 6.03078 | 99° | 22km/h | 18520m | 4.6m/s | -55°C | 7% | 74.8hPa | 3.9V | 00:00:00 | 01:19:50 | 00:00:00 | |
| DL1XH-west | 2026-09-02 23:36:54 | 50.38559 | 6.03071 | 0° | 0km/h | 18515m | 0m/s | -55°C | 7.1% | 74.8hPa | 3.9V | 00:00:00 | 00:00:00 | 00:00:00 | |
| BIOWL1-15 | 2026-09-02 23:36:52 | 50.38568 | 6.03018 | 85° | 24km/h | 18487m | 4.3m/s | -54.9°C | 7.1% | 75.1hPa | 3.9V | 00:00:00 | 00:00:00 | 00:00:00 | |
| BIOWL1-15 | 2026-09-02 23:36:43 | 50.38572 | 6.02965 | 111° | 20km/h | 18461m | 4m/s | -54.8°C | 7.2% | 75.4hPa | 3.9V | 00:00:00 | 00:00:00 | 00:00:00 | |
| DM0DOS-11 | 2026-09-02 23:36:43 | 50.38577 | 6.02949 | 108° | 26km/h | 18452m | 4.6m/s | -54.8°C | 7.1% | 75.5hPa | 3.9V | 00:00:00 | 01:19:35 | 00:00:00 | |
| DL1XH-west | 2026-09-02 23:36:42 | 50.38570 | 6.02973 | 0° | 0km/h | 18466m | 0m/s | -54.8°C | 7.2% | 75.4hPa | 3.9V | 00:00:00 | 00:00:00 | 00:00:00 | |
| DL1XH1-15 | 2026-09-02 23:36:38 | 50.38585 | 6.02899 | 97° | 24km/h | 18429m | 4.8m/s | -54.8°C | 7.1% | 75.8hPa | 3.9V | 00:00:00 | 01:19:30 | 00:00:00 | |
| DB0UT-7 | 2026-09-02 23:36:34 | 50.38584 | 6.02907 | 103° | 27km/h | 18434m | 4.8m/s | -54.7°C | 7.1% | 75.7hPa | 3.9V | 00:00:00 | 00:00:00 | 00:00:00 | |
| DM0DOS-11 | 2026-09-02 23:36:33 | 50.38589 | 6.02855 | 103° | 31km/h | 18405m | 4.6m/s | -54.8°C | 7.1% | 76hPa | 3.9V | 00:00:00 | 01:19:25 | 00:00:00 | |
| DL1XH-west | 2026-09-02 23:36:32 | 50.38586 | 6.02881 | 0° | 0km/h | 18419m | 0m/s | -54.7°C | 7.2% | 75.9hPa | 3.9V | 00:00:00 | 00:00:00 | 00:00:00 | |
| BIOWL1-15 | 2026-09-02 23:36:30 | 50.38594 | 6.02830 | 107° | 31km/h | 18396m | 5m/s | -54.8°C | 7.3% | 76.2hPa | 3.9V | 00:00:00 | 00:00:00 | 00:00:00 | |
| DJ8HS-15 | 2026-09-02 23:36:26 | 50.38594 | 6.02830 | 107° | 29km/h | 18396m | 4.7m/s | -54.8°C | 7.2% | 76.1hPa | 3.9V | 00:00:00 | 01:19:23 | 00:00:00 | |
| DL1XH1-15 | 2026-09-02 23:36:24 | 50.38599 | 6.02798 | 106° | 29km/h | 18382m | 4.6m/s | -54.9°C | 7.2% | 76.3hPa | 3.9V | 00:00:00 | 01:19:20 | 00:00:00 | |
| DL1XH-west | 2026-09-02 23:36:21 | 50.38606 | 6.02765 | 0° | 0km/h | 18369m | 0m/s | -54.9°C | 7.3% | 76.5hPa | 3.9V | 00:00:00 | 00:00:00 | 00:00:00 | |
| DL1XH1-15 | 2026-09-02 23:36:18 | 50.38622 | 6.02685 | 97° | 29km/h | 18336m | 4.8m/s | -55.3°C | 7.2% | 76.9hPa | 3.9V | 00:00:00 | 01:19:10 | 00:00:00 | |
| DM0DOS-11 | 2026-09-02 23:36:13 | 50.38633 | 6.02627 | 108° | 26km/h | 18313m | 4.6m/s | -55.1°C | 7.3% | 77.2hPa | 3.9V | 00:00:00 | 01:19:05 | 00:00:00 | |
| DL1XH-west | 2026-09-02 23:36:10 | 50.38630 | 6.02636 | 0° | 0km/h | 18317m | 0m/s | -55.2°C | 7.4% | 77.1hPa | 3.9V | 00:00:00 | 00:00:00 | 00:00:00 | |
| DJ8HS-15 | 2026-09-02 23:36:06 | 50.38636 | 6.02614 | 103° | 26km/h | 18303m | 4.6m/s | -55.0°C | 7.3% | 77.2hPa | 3.9V | 00:00:00 | 01:19:03 | 00:00:00 | |
| DL1XH1-15 | 2026-09-02 23:36:04 | 50.38642 | 6.02583 | 109° | 29km/h | 18289m | 4.4m/s | -55°C | 7.3% | 77.4hPa | 3.9V | 00:00:00 | 01:19:00 | 00:00:00 | |
| DM0DOS-11 | 2026-09-02 23:36:03 | 50.38655 | 6.02530 | 128° | 24km/h | 18266m | 4.2m/s | -54.9°C | 7.5% | 77.7hPa | 3.9V | 00:00:00 | 01:18:55 | 00:00:00 | |
| BIOWL1-15 | 2026-09-02 23:36:03 | 50.38647 | 6.02557 | 111° | 26km/h | 18280m | 4m/s | -55°C | 7.5% | 77.5hPa | 3.9V | 00:00:00 | 00:00:00 | 00:00:00 | |
| DL1XH-west | 2026-09-02 23:36:00 | 50.38652 | 6.02538 | 0° | 0km/h | 18272m | 0m/s | -55°C | 7.5% | 77.6hPa | 3.9V | 00:00:00 | 00:00:00 | 00:00:00 | |
| DM0DOS-11 | 2026-09-02 23:35:53 | 50.38688 | 6.02451 | 125° | 24km/h | 18223m | 4.5m/s | -54.6°C | 7.5% | 78.2hPa | 3.9V | 00:00:00 | 01:18:45 | 00:00:00 | |
| BIOWL1-15 | 2026-09-02 23:35:52 | 50.38732 | 6.02361 | 150° | 20km/h | 18169m | 5m/s | -54.4°C | 7.6% | 78.9hPa | 3.9V | 00:00:00 | 00:00:00 | 00:00:00 | |
| DL1XH-west | 2026-09-02 23:35:50 | 50.38686 | 6.02459 | 0° | 0km/h | 18228m | 0m/s | -54.7°C | 7.5% | 78.2hPa | 3.9V | 00:00:00 | 00:00:00 | 00:00:00 | |
| BIOWL1-15 | 2026-09-02 23:35:48 | 50.38741 | 6.02353 | 155° | 26km/h | 18159m | 3.5m/s | -54.4°C | 7.7% | 79hPa | 3.9V | 00:00:00 | 00:00:00 | 00:00:00 | |
| DL1XH1-15 | 2026-09-02 23:35:44 | 50.38709 | 6.02419 | 119° | 24km/h | 18199m | 4.2m/s | -54.5°C | 7.5% | 78.5hPa | 3.9V | 00:00:00 | 01:18:40 | 00:00:00 | |
| DM0DOS-11 | 2026-09-02 23:35:43 | 50.38726 | 6.02374 | 122° | 22km/h | 18178m | 4.5m/s | -54.4°C | 7.5% | 78.8hPa | 3.9V | 00:00:00 | 01:18:35 | 00:00:00 | |
| DL1XH-west | 2026-09-02 23:35:39 | 50.38726 | 6.02374 | 0° | 0km/h | 18178m | 0m/s | -54.5°C | 7.6% | 78.8hPa | 3.9V | 00:00:00 | 00:00:00 | 00:00:00 | |
| DL1XH1-15 | 2026-09-02 23:35:38 | 50.38746 | 6.02349 | 153° | 26km/h | 18155m | 4.2m/s | -54.4°C | 7.6% | 79hPa | 3.9V | 00:00:00 | 01:18:30 | 00:00:00 | |
| DB0UT-7 | 2026-09-02 23:35:34 | 50.38740 | 6.02353 | 157° | 31km/h | 18159m | 4.1m/s | -54.4°C | 7.6% | 78.9hPa | 3.9V | 00:00:00 | 00:00:00 | 00:00:00 | |
| DM0DOS-11 | 2026-09-02 23:35:32 | 50.38765 | 6.02314 | 130° | 29km/h | 18134m | 4.5m/s | -54.5°C | 7.6% | 79.3hPa | 3.9V | 00:00:00 | 01:18:25 | 00:00:00 | |
| DL1XH-west | 2026-09-02 23:35:29 | 50.38765 | 6.02314 | 0° | 0km/h | 18134m | 0m/s | -54.5°C | 7.7% | 79.3hPa | 3.9V | 00:00:00 | 00:00:00 | 00:00:00 | |
| BIOWL1-15 | 2026-09-02 23:35:29 | 50.38816 | 6.02228 | 126° | 29km/h | 18088m | 4m/s | -54.5°C | 7.8% | 79.8hPa | 3.9V | 00:00:00 | 00:00:00 | 00:00:00 | |
| DJ8HS-15 | 2026-09-02 23:35:27 | 50.38776 | 6.02296 | 136° | 31km/h | 18125m | 4.5m/s | -54.5°C | 7.6% | 79.3hPa | 3.9V | 00:00:00 | 01:18:23 | 00:00:00 | |
| DL1XH1-15 | 2026-09-02 23:35:24 | 50.38791 | 6.02273 | 131° | 29km/h | 18111m | 4.4m/s | -54.5°C | 7.6% | 79.5hPa | 3.9V | 00:00:00 | 01:18:20 | 00:00:00 | |
| DM0DOS-11 | 2026-09-02 23:35:22 | 50.38816 | 6.02228 | 125° | 31km/h | 18088m | 4.2m/s | -54.5°C | 7.7% | 79.8hPa | 3.9V | 00:00:00 | 01:18:15 | 00:00:00 | |
| DL1XH-west | 2026-09-02 23:35:18 | 50.38821 | 6.02219 | 0° | 0km/h | 18084m | 0m/s | -54.5°C | 7.8% | 79.9hPa | 3.9V | 00:00:00 | 00:00:00 | 00:00:00 | |
| DM0DOS-11 | 2026-09-02 23:35:12 | 50.38862 | 6.02125 | 119° | 35km/h | 18045m | 4.6m/s | -54.3°C | 7.8% | 80.4hPa | 3.9V | 00:00:00 | 01:18:05 | 00:00:00 | |
| BIOWL1-15 | 2026-09-02 23:35:12 | 50.38892 | 6.02026 | 119° | 40km/h | 18009m | 5m/s | -54.1°C | 7.9% | 80.8hPa | 3.9V | 00:00:00 | 00:00:00 | 00:00:00 | |
| DL1XH-west | 2026-09-02 23:35:08 | 50.38866 | 6.02113 | 0° | 0km/h | 18040m | 0m/s | -54.3°C | 7.9% | 80.4hPa | 3.9V | 00:00:00 | 00:00:00 | 00:00:00 | |
| DJ8HS-15 | 2026-09-02 23:35:06 | 50.38870 | 6.02101 | 116° | 38km/h | 18036m | 4.6m/s | -54.3°C | 7.8% | 80.4hPa | 3.9V | 00:00:00 | 01:18:03 | 00:00:00 | |
| DB0UT-7 | 2026-09-02 23:35:05 | 50.38878 | 6.02075 | 118° | 38km/h | 18026m | 4.3m/s | -54.2°C | 7.8% | 80.5hPa | 3.9V | 00:00:00 | 01:18:01 | 00:00:00 | |
| DM0DOS-11 | 2026-09-02 23:35:02 | 50.38902 | 6.01996 | 112° | 38km/h | 18000m | 4.5m/s | -54.1°C | 8% | 80.9hPa | 3.9V | 00:00:00 | 01:17:55 | 00:00:00 | |
| BIOWL1-15 | 2026-09-02 23:35:01 | 50.38902 | 6.01996 | 112° | 44km/h | 18000m | 4m/s | -54.1°C | 8% | 80.9hPa | 3.9V | 00:00:00 | 00:00:00 | 00:00:00 | |
| DL1XH1-15 | 2026-09-02 23:34:58 | 50.38918 | 6.01923 | 116° | 35km/h | 17977m | 4.6m/s | -54°C | 8% | 81.2hPa | 3.9V | 00:00:00 | 01:17:50 | 00:00:00 | |
| DL1XH-west | 2026-09-02 23:34:57 | 50.38910 | 6.01964 | 0° | 0km/h | 17991m | 0m/s | -54°C | 8% | 81hPa | 3.9V | 00:00:00 | 00:00:00 | 00:00:00 | |
| BIOWL1-15 | 2026-09-02 23:34:52 | 50.38940 | 6.01844 | 108° | 44km/h | 17949m | 5m/s | -54°C | 8% | 81.5hPa | 3.9V | 00:00:00 | 00:00:00 | 00:00:00 | |
| DM0DOS-11 | 2026-09-02 23:34:52 | 50.38936 | 6.01860 | 111° | 42km/h | 17954m | 4.7m/s | -54°C | 8% | 81.5hPa | 3.9V | 00:00:00 | 01:17:45 | 00:00:00 | |
| DL1XH1-15 | 2026-09-02 23:34:48 | 50.38949 | 6.01780 | 106° | 38km/h | 17930m | 4.3m/s | -54.1°C | 8% | 81.8hPa | 3.9V | 00:00:00 | 01:17:40 | 00:00:00 | |
| DL1XH-west | 2026-09-02 23:34:47 | 50.38943 | 6.01827 | 0° | 0km/h | 17944m | 0m/s | -54°C | 8.1% | 81.6hPa | 3.9V | 00:00:00 | 00:00:00 | 00:00:00 | |
| DJ8HS-15 | 2026-09-02 23:34:46 | 50.38943 | 6.01827 | 103° | 42km/h | 17944m | 4.5m/s | -54.0°C | 8.0% | 81.5hPa | 3.9V | 00:00:00 | 01:17:43 | 00:00:00 | |
| DM0DOS-11 | 2026-09-02 23:34:41 | 50.38959 | 6.01710 | 106° | 44km/h | 17909m | 4.7m/s | -54.1°C | 8% | 82hPa | 3.9V | 00:00:00 | 01:17:35 | 00:00:00 | |
| DL1XH1-15 | 2026-09-02 23:34:38 | 50.38974 | 6.01625 | 102° | 40km/h | 17886m | 4.7m/s | -54.3°C | 8.1% | 82.3hPa | 3.9V | 00:00:00 | 01:17:30 | 00:00:00 | |
| BIOWL1-15 | 2026-09-02 23:34:38 | 50.38985 | 6.01564 | 100° | 42km/h | 17867m | 4.7m/s | -54.4°C | 8.2% | 82.6hPa | 3.9V | 00:00:00 | 00:00:00 | 00:00:00 | |
| DL1XH-west | 2026-09-02 23:34:36 | 50.38969 | 6.01659 | 0° | 0km/h | 17895m | 0m/s | -54.2°C | 8.2% | 82.2hPa | 3.9V | 00:00:00 | 00:00:00 | 00:00:00 | |
| DB0UT-7 | 2026-09-02 23:34:34 | 50.38972 | 6.01641 | 101° | 44km/h | 17890m | 4.5m/s | -54.2°C | 8.1% | 82.2hPa | 3.9V | 00:00:00 | 00:00:00 | 00:00:00 | |
| DM0DOS-11 | 2026-09-02 23:34:30 | 50.38986 | 6.01548 | 98° | 44km/h | 17862m | 4.5m/s | -54.4°C | 8.1% | 82.6hPa | 3.9V | 00:00:00 | 01:17:25 | 00:00:00 | |
| DL1XH-west | 2026-09-02 23:34:25 | 50.38999 | 6.01479 | 0° | 0km/h | 17844m | 0m/s | -54.4°C | 8.3% | 82.9hPa | 3.9V | 00:00:00 | 00:00:00 | 00:00:00 | |
| BIOWL1-15 | 2026-09-02 23:34:20 | 50.39022 | 6.01328 | 94° | 44km/h | 17804m | 4m/s | -54.6°C | 8.4% | 83.4hPa | 3.9V | 00:00:00 | 00:00:00 | 00:00:00 | |
| DM0DOS-11 | 2026-09-02 23:34:19 | 50.39016 | 6.01378 | 107° | 44km/h | 17818m | 4.6m/s | -54.6°C | 8.3% | 83.2hPa | 3.9V | 00:00:00 | 01:17:15 | 00:00:00 | |
| DL1XH1-15 | 2026-09-02 23:34:18 | 50.39024 | 6.01293 | 102° | 44km/h | 17795m | 4.4m/s | -54.6°C | 8.3% | 83.5hPa | 3.9V | 00:00:00 | 01:17:10 | 00:00:00 | |
| DL1XH-west | 2026-09-02 23:34:15 | 50.39024 | 6.01293 | 0° | 0km/h | 17795m | 0m/s | -54.6°C | 8.4% | 83.5hPa | 3.9V | 00:00:00 | 00:00:00 | 00:00:00 | |
| DM0DOS-11 | 2026-09-02 23:34:13 | 50.39037 | 6.01195 | 98° | 44km/h | 17768m | 4.8m/s | -54.5°C | 8.3% | 83.8hPa | 3.9V | 00:00:00 | 01:17:04 | 00:00:00 | |
| DL1XH1-15 | 2026-09-02 23:34:08 | 50.39039 | 6.01126 | 93° | 42km/h | 17750m | 4.9m/s | -54.5°C | 8.5% | 84hPa | 3.9V | 00:00:00 | 01:17:00 | 00:00:00 | |
| BIOWL1-15 | 2026-09-02 23:34:08 | 50.39038 | 6.01179 | 96° | 44km/h | 17763m | 5m/s | -54.5°C | 8.4% | 83.9hPa | 3.9V | 00:00:00 | 00:00:00 | 00:00:00 | |
| DL1XH-west | 2026-09-02 23:34:04 | 50.39039 | 6.01126 | 0° | 0km/h | 17750m | 0m/s | -54.5°C | 8.5% | 84.1hPa | 3.9V | 00:00:00 | 00:00:00 | 00:00:00 | |
| DB0UT-7 | 2026-09-02 23:34:04 | 50.39039 | 6.01144 | 91° | 42km/h | 17753m | 4.4m/s | -54.4°C | 8.3% | 84.0hPa | 3.9V | 00:00:00 | 01:17:01 | 00:00:00 | |
| DM0DOS-11 | 2026-09-02 23:34:02 | 50.39048 | 6.01028 | 98° | 42km/h | 17721m | 4.5m/s | -54.4°C | 8.5% | 84.4hPa | 3.9V | 00:00:00 | 01:16:54 | 00:00:00 | |
| DL1XH1-15 | 2026-09-02 23:33:58 | 50.39052 | 6.00963 | 95° | 44km/h | 17703m | 4.4m/s | -54.3°C | 8.5% | 84.6hPa | 3.9V | 00:00:00 | 01:16:50 | 00:00:00 | |
| BIOWL1-15 | 2026-09-02 23:33:57 | 50.39052 | 6.00963 | 102° | 44km/h | 17703m | 4.5m/s | -54.3°C | 8.6% | 84.6hPa | 3.9V | 00:00:00 | 00:00:00 | 00:00:00 | |
| DL1XH-west | 2026-09-02 23:33:53 | 50.39053 | 6.00945 | 0° | 0km/h | 17699m | 0m/s | -54.3°C | 8.6% | 84.7hPa | 3.9V | 00:00:00 | 00:00:00 | 00:00:00 | |
| DM0DOS-11 | 2026-09-02 23:33:52 | 50.39066 | 6.00862 | 102° | 40km/h | 17676m | 4.3m/s | -54.2°C | 8.5% | 85hPa | 3.9V | 00:00:00 | 01:16:44 | 00:00:00 | |
| DL1XH1-15 | 2026-09-02 23:33:48 | 50.39077 | 6.00801 | 102° | 42km/h | 17659m | 4.5m/s | -54.3°C | 8.5% | 85.2hPa | 3.9V | 00:00:00 | 01:16:40 | 00:00:00 | |
| DL1XH-west | 2026-09-02 23:33:42 | 50.39082 | 6.00769 | 0° | 0km/h | 17650m | 0m/s | -54.4°C | 8.7% | 85.3hPa | 3.9V | 00:00:00 | 00:00:00 | 00:00:00 | |
| BIOWL1-15 | 2026-09-02 23:33:37 | 50.39116 | 6.00632 | 111° | 46km/h | 17610m | 4m/s | -54.9°C | 8.8% | 85.9hPa | 3.9V | 00:00:00 | 00:00:00 | 00:00:00 | |
| DL1XH1-15 | 2026-09-02 23:33:35 | 50.39111 | 6.00648 | 116° | 46km/h | 17614m | 4.2m/s | -54.8°C | 8.6% | 85.8hPa | 3.9V | 00:00:00 | 01:16:30 | 00:00:00 | |
| DL1XH-west | 2026-09-02 23:33:32 | 50.39120 | 6.00615 | 0° | 0km/h | 17605m | 0m/s | -54.9°C | 8.8% | 85.9hPa | 3.9V | 00:00:00 | 00:00:00 | 00:00:00 | |
| BIOWL1-15 | 2026-09-02 23:33:26 | 50.39148 | 6.00516 | 122° | 42km/h | 17581m | 5.5m/s | -55°C | 8.8% | 86.3hPa | 3.9V | 00:00:00 | 00:00:00 | 00:00:00 | |
| DL1XH1-15 | 2026-09-02 23:33:25 | 50.39159 | 6.00487 | 128° | 47km/h | 17570m | 4.4m/s | -55.1°C | 8.8% | 86.4hPa | 3.9V | 00:00:00 | 01:16:20 | 00:00:00 | |
| DL1XH-west | 2026-09-02 23:33:22 | 50.39178 | 6.00442 | 0° | 0km/h | 17556m | 0m/s | -55°C | 8.9% | 86.6hPa | 3.9V | 00:00:00 | 00:00:00 | 00:00:00 | |
| DM0DOS-11 | 2026-09-02 23:33:22 | 50.39197 | 6.00390 | 129° | 53km/h | 17543m | 4.4m/s | -55°C | 9% | 86.8hPa | 3.9V | 00:00:00 | 01:16:14 | 00:00:00 | |
| DL1XH1-15 | 2026-09-02 23:33:14 | 50.39231 | 6.00320 | 124° | 49km/h | 17526m | 4.5m/s | -54.9°C | 9% | 87hPa | 3.9V | 00:00:00 | 01:16:10 | 00:00:00 | |
| DL1XH-west | 2026-09-02 23:33:11 | 50.39254 | 6.00276 | 0° | 0km/h | 17512m | 0m/s | -54.9°C | 9% | 87.2hPa | 3.9V | 00:00:00 | 00:00:00 | 00:00:00 | |
| DL1XH1-15 | 2026-09-02 23:33:08 | 50.39315 | 6.00150 | 126° | 58km/h | 17482m | 4.6m/s | -54.8°C | 9% | 87.6hPa | 3.9V | 00:00:00 | 01:16:00 | 00:00:00 | |
| DM0DOS-11 | 2026-09-02 23:33:07 | 50.39285 | 6.00210 | 127° | 62km/h | 17495m | 4.5m/s | -54.9°C | 9% | 87.4hPa | 3.9V | 00:00:00 | 01:16:03 | 00:00:00 | |
| DJ8HS-15 | 2026-09-02 23:33:05 | 50.39295 | 6.00190 | 128° | 62km/h | 17490m | 4.3m/s | -54.8°C | 9.0% | 87.5hPa | 3.9V | 00:00:00 | 01:16:02 | 00:00:00 | |
| DB0UT-7 | 2026-09-02 23:33:04 | 50.39305 | 6.00170 | 129° | 64km/h | 17486m | 4.4m/s | -54.8°C | 9.0% | 87.5hPa | 3.9V | 00:00:00 | 01:16:01 | 00:00:00 | |
| DM0DOS-11 | 2026-09-02 23:33:01 | 50.39378 | 6.00024 | 123° | 66km/h | 17450m | 4.5m/s | -55.3°C | 9% | 88hPa | 3.9V | 00:00:00 | 01:15:53 | 00:00:00 | |
| BIOWL1-15 | 2026-09-02 23:33:01 | 50.39370 | 6.00043 | 125° | 58km/h | 17454m | 4m/s | -55.2°C | 9.1% | 88hPa | 3.9V | 00:00:00 | 00:00:00 | 00:00:00 | |
| DL1XH-west | 2026-09-02 23:33:00 | 50.39351 | 6.00077 | 0° | 0km/h | 17463m | 0m/s | -55°C | 9.1% | 87.9hPa | 3.9V | 00:00:00 | 00:00:00 | 00:00:00 | |
| DL1XH1-15 | 2026-09-02 23:32:55 | 50.39406 | 5.99961 | 125° | 66km/h | 17436m | 4.3m/s | -55.6°C | 9.1% | 88.2hPa | 3.9V | 00:00:00 | 01:15:50 | 00:00:00 | |
| DL1XH-west | 2026-09-02 23:32:49 | 50.39455 | 5.99854 | 0° | 0km/h | 17415m | 0m/s | -55.6°C | 9.2% | 88.5hPa | 3.9V | 00:00:00 | 00:00:00 | 00:00:00 | |
| BIOWL1-15 | 2026-09-02 23:32:47 | 50.39491 | 5.99771 | 120° | 64km/h | 17397m | 4m/s | -55.7°C | 9.3% | 88.8hPa | 3.9V | 00:00:00 | 00:00:00 | 00:00:00 | |
| DM0DOS-11 | 2026-09-02 23:32:47 | 50.39475 | 5.99813 | 120° | 64km/h | 17406m | 4.5m/s | -55.7°C | 9.1% | 88.6hPa | 3.9V | 00:00:00 | 01:15:43 | 00:00:00 | |
| DJ8HS-15 | 2026-09-02 23:32:45 | 50.39483 | 5.99792 | 120° | 64km/h | 17401m | 4.2m/s | -55.6°C | 9.3% | 88.6hPa | 3.9V | 00:00:00 | 01:15:42 | 00:00:00 | |
| DM0DOS-11 | 2026-09-02 23:32:41 | 50.39561 | 5.99592 | 118° | 64km/h | 17361m | 4.4m/s | -55.7°C | 9.3% | 89.2hPa | 3.9V | 00:00:00 | 01:15:33 | 00:00:00 | |
| DL1XH-west | 2026-09-02 23:32:38 | 50.39553 | 5.99614 | 0° | 0km/h | 17366m | 0m/s | -55.7°C | 9.3% | 89.2hPa | 3.9V | 00:00:00 | 00:00:00 | 00:00:00 | |
| BIOWL1-15 | 2026-09-02 23:32:35 | 50.39581 | 5.99525 | 117° | 66km/h | 17348m | 5m/s | -55.6°C | 9.4% | 89.4hPa | 3.9V | 00:00:00 | 00:00:00 | 00:00:00 | |
| DB0UT-7 | 2026-09-02 23:32:34 | 50.39575 | 5.99547 | 114° | 62km/h | 17352m | 4.3m/s | -55.6°C | 9.3% | 89.3hPa | 3.9V | 00:00:00 | 00:00:00 | 00:00:00 | |
| DL1XH1-15 | 2026-09-02 23:32:34 | 50.39581 | 5.99525 | 117° | 66km/h | 17348m | 4.5m/s | -55.6°C | 9.3% | 89.4hPa | 3.9V | 00:00:00 | 01:15:30 | 00:00:00 | |
| DL1XH1-15 | 2026-09-02 23:32:28 | 50.39657 | 5.99299 | 111° | 62km/h | 17304m | 4.9m/s | -55.5°C | 9.5% | 90hPa | 3.9V | 00:00:00 | 01:15:20 | 00:00:00 | |
| DL1XH-west | 2026-09-02 23:32:28 | 50.39635 | 5.99364 | 0° | 0km/h | 17317m | 0m/s | -55.6°C | 9.5% | 89.8hPa | 3.9V | 00:00:00 | 00:00:00 | 00:00:00 | |
| DM0DOS-11 | 2026-09-02 23:32:27 | 50.39635 | 5.99364 | 119° | 62km/h | 17317m | 4.6m/s | -55.6°C | 9.5% | 89.8hPa | 3.9V | 00:00:00 | 01:15:23 | 00:00:00 | |
| BIOWL1-15 | 2026-09-02 23:32:23 | 50.39672 | 5.99231 | 111° | 66km/h | 17289m | 5m/s | -55.4°C | 9.5% | 90.2hPa | 3.9V | 00:00:00 | 00:00:00 | 00:00:00 | |
| DM0DOS-11 | 2026-09-02 23:32:21 | 50.39698 | 5.99138 | 116° | 60km/h | 17270m | 4.7m/s | -55.2°C | 9.5% | 90.5hPa | 3.9V | 00:00:00 | 01:15:13 | 00:00:00 | |
| DL1XH-west | 2026-09-02 23:32:16 | 50.39704 | 5.99118 | 0° | 0km/h | 17266m | 0m/s | -55.2°C | 9.6% | 90.5hPa | 3.9V | 00:00:00 | 00:00:00 | 00:00:00 | |
| DL1XH1-15 | 2026-09-02 23:32:14 | 50.39717 | 5.99076 | 110° | 64km/h | 17256m | 4.8m/s | -55.1°C | 9.5% | 90.7hPa | 3.9V | 00:00:00 | 01:15:10 | 00:00:00 | |
| BIOWL1-15 | 2026-09-02 23:32:13 | 50.39730 | 5.99004 | 103° | 68km/h | 17242m | 5m/s | -55.1°C | 9.6% | 90.9hPa | 3.9V | 00:00:00 | 00:00:00 | 00:00:00 | |
| DL1XH1-15 | 2026-09-02 23:32:08 | 50.39767 | 5.98836 | 112° | 64km/h | 17210m | 4.4m/s | -55.2°C | 9.6% | 91.3hPa | 3.9V | 00:00:00 | 01:15:00 | 00:00:00 | |
| DL1XH-west | 2026-09-02 23:32:05 | 50.39762 | 5.98858 | 0° | 0km/h | 17215m | 0m/s | -55.2°C | 9.7% | 91.2hPa | 3.9V | 00:00:00 | 00:00:00 | 00:00:00 | |
| BIOWL1-15 | 2026-09-02 23:32:01 | 50.39785 | 5.98763 | 107° | 62km/h | 17197m | 4m/s | -55.3°C | 9.8% | 91.5hPa | 3.9V | 00:00:00 | 00:00:00 | 00:00:00 | |
| DM0DOS-11 | 2026-09-02 23:32:01 | 50.39801 | 5.98671 | 104° | 64km/h | 17179m | 4.5m/s | -55.2°C | 9.8% | 91.8hPa | 3.9V | 00:00:00 | 01:14:53 | 00:00:00 | |
| DL1XH-west | 2026-09-02 23:31:55 | 50.39812 | 5.98594 | 0° | 0km/h | 17165m | 0m/s | -55.2°C | 9.9% | 91.9hPa | 3.9V | 00:00:00 | 00:00:00 | 00:00:00 | |
| GOEST3-10 | 2026-09-02 23:31:55 | 50.39809 | 5.98619 | 101° | 60km/h | 17170m | 4.5m/s | -55.1°C | 9.8% | 91.8hPa | 3.9V | 00:00:00 | 00:00:00 | 00:00:00 | |
| DL1XH1-15 | 2026-09-02 23:31:54 | 50.39812 | 5.98594 | 99° | 60km/h | 17165m | 4.3m/s | -55.2°C | 9.8% | 91.9hPa | 3.9V | 00:00:00 | 01:14:50 | 00:00:00 | |
| BIOWL1-15 | 2026-09-02 23:31:50 | 50.39822 | 5.98496 | 99° | 60km/h | 17148m | 4m/s | -55.2°C | 9.9% | 92.2hPa | 3.9V | 00:00:00 | 00:00:00 | 00:00:00 | |
| GOEST3-10 | 2026-09-02 23:31:49 | 50.39821 | 5.98495 | 102° | 84km/h | 17148m | 4.5m/s | -55.1°C | 9.8% | 92.1hPa | 3.9V | 00:00:00 | 01:14:46 | 00:00:00 | |
| DL1XH1-15 | 2026-09-02 23:31:48 | 50.39839 | 5.98361 | 105° | 60km/h | 17120m | 4.5m/s | -55.4°C | 10% | 92.6hPa | 3.9V | 00:00:00 | 01:14:40 | 00:00:00 | |
| DM0DOS-11 | 2026-09-02 23:31:47 | 50.39829 | 5.98430 | 102° | 60km/h | 17134m | 4.7m/s | -55.3°C | 9.8% | 92.4hPa | 3.9V | 00:00:00 | 01:14:43 | 00:00:00 | |
| DL1XH-west | 2026-09-02 23:31:44 | 50.39843 | 5.98336 | 0° | 0km/h | 17115m | 0m/s | -55.4°C | 10% | 92.7hPa | 3.9V | 00:00:00 | 00:00:00 | 00:00:00 | |
| DM0DOS-11 | 2026-09-02 23:31:41 | 50.39858 | 5.98194 | 90° | 58km/h | 17088m | 4.5m/s | -55.5°C | 10% | 93hPa | 3.9V | 00:00:00 | 01:14:33 | 00:00:00 | |
| BIOWL1-15 | 2026-09-02 23:31:40 | 50.39857 | 5.98217 | 91° | 60km/h | 17093m | 5m/s | -55.4°C | 10.1% | 93hPa | 3.9V | 00:00:00 | 00:00:00 | 00:00:00 | |
| DL1XH1-15 | 2026-09-02 23:31:34 | 50.39861 | 5.98122 | 101° | 55km/h | 17075m | 4.7m/s | -55.5°C | 10% | 93.2hPa | 3.9V | 00:00:00 | 01:14:30 | 00:00:00 | |
| DL1XH-west | 2026-09-02 23:31:33 | 50.39864 | 5.98098 | 0° | 0km/h | 17071m | 0m/s | -55.6°C | 10.1% | 93.3hPa | 3.9V | 00:00:00 | 00:00:00 | 00:00:00 | |
| BIOWL1-15 | 2026-09-02 23:31:29 | 50.39884 | 5.97890 | 101° | 47km/h | 17024m | 6m/s | -55.8°C | 10.3% | 94hPa | 3.9V | 00:00:00 | 00:00:00 | 00:00:00 | |
| DL1XH1-15 | 2026-09-02 23:31:28 | 50.39883 | 5.97909 | 93° | 46km/h | 17029m | 4.8m/s | -55.8°C | 10.1% | 93.9hPa | 3.9V | 00:00:00 | 01:14:20 | 00:00:00 | |
| DM0DOS-11 | 2026-09-02 23:31:27 | 50.39883 | 5.97973 | 94° | 51km/h | 17042m | 4.7m/s | -55.8°C | 10.1% | 93.7hPa | 3.9V | 00:00:00 | 01:14:23 | 00:00:00 | |
| DL1XH-west | 2026-09-02 23:31:22 | 50.39886 | 5.97872 | 0° | 0km/h | 17018m | 0m/s | -55.8°C | 10.3% | 94hPa | 3.9V | 00:00:00 | 00:00:00 | 00:00:00 | |
| BIOWL1-15 | 2026-09-02 23:31:20 | 50.39899 | 5.97800 | 97° | 47km/h | 17001m | 4m/s | -55.8°C | 10.3% | 94.3hPa | 3.9V | 00:00:00 | 00:00:00 | 00:00:00 | |
| DL1XH1-15 | 2026-09-02 23:31:14 | 50.39905 | 5.97732 | 98° | 40km/h | 16983m | 4.7m/s | -55.8°C | 10.3% | 94.5hPa | 3.9V | 00:00:00 | 01:14:10 | 00:00:00 | |
| DL1XH-west | 2026-09-02 23:31:12 | 50.39909 | 5.97683 | 0° | 0km/h | 16969m | 0m/s | -55.7°C | 10.4% | 94.8hPa | 3.9V | 00:00:00 | 00:00:00 | 00:00:00 | |
| DL1XH1-15 | 2026-09-02 23:31:08 | 50.39914 | 5.97580 | 99° | 37km/h | 16936m | 4.6m/s | -55.5°C | 10.5% | 95.2hPa | 3.9V | 00:00:00 | 01:14:00 | 00:00:00 | |
| DM0DOS-11 | 2026-09-02 23:31:07 | 50.39912 | 5.97626 | 92° | 37km/h | 16950m | 4.5m/s | -55.6°C | 10.3% | 95hPa | 3.9V | 00:00:00 | 01:14:03 | 00:00:00 | |
| BIOWL1-15 | 2026-09-02 23:31:06 | 50.39912 | 5.97610 | 95° | 38km/h | 16946m | 6m/s | -55.6°C | 10.5% | 95.1hPa | 3.9V | 00:00:00 | 00:00:00 | 00:00:00 | |
| DJ8HS-15 | 2026-09-02 23:31:05 | 50.39912 | 5.97610 | 95° | 35km/h | 16946m | 4.8m/s | -55.5°C | 10.5% | 95.0hPa | 3.9V | 00:00:00 | 01:14:02 | 00:00:00 | |
| DB0UT-7 | 2026-09-02 23:31:04 | 50.39913 | 5.97594 | 98° | 35km/h | 16940m | 4.4m/s | -55.5°C | 10.5% | 95.1hPa | 3.9V | 00:00:00 | 01:14:01 | 00:00:00 | |
| DM0DOS-11 | 2026-09-02 23:31:01 | 50.39923 | 5.97486 | 90° | 35km/h | 16905m | 4.6m/s | -55.4°C | 10.5% | 95.7hPa | 3.9V | 00:00:00 | 01:13:53 | 00:00:00 | |
| DL1XH-west | 2026-09-02 23:31:00 | 50.39921 | 5.97521 | 0° | 0km/h | 16917m | 0m/s | -55.5°C | 10.6% | 95.5hPa | 3.9V | 00:00:00 | 00:00:00 | 00:00:00 | |
| BIOWL1-15 | 2026-09-02 23:30:58 | 50.39923 | 5.97472 | 92° | 38km/h | 16900m | 4m/s | -55.3°C | 10.6% | 95.8hPa | 3.9V | 00:00:00 | 00:00:00 | 00:00:00 | |
| DL1XH1-15 | 2026-09-02 23:30:54 | 50.39924 | 5.97442 | 98° | 33km/h | 16891m | 4.6m/s | -55.2°C | 10.6% | 95.9hPa | 3.9V | 00:00:00 | 01:13:50 | 00:00:00 | |
| DL1XH-west | 2026-09-02 23:30:49 | 50.39929 | 5.97379 | 0° | 0km/h | 16868m | 0m/s | -55.2°C | 10.7% | 96.3hPa | 3.9V | 00:00:00 | 00:00:00 | 00:00:00 | |
| DL1XH1-15 | 2026-09-02 23:30:48 | 50.39933 | 5.97313 | 107° | 35km/h | 16846m | 4.6m/s | -55.2°C | 10.8% | 96.6hPa | 3.9V | 00:00:00 | 01:13:40 | 00:00:00 | |
| DM0DOS-11 | 2026-09-02 23:30:47 | 50.39930 | 5.97356 | 98° | 35km/h | 16859m | 4.5m/s | -55.2°C | 10.8% | 96.4hPa | 3.9V | 00:00:00 | 01:13:43 | 00:00:00 | |
| BIOWL1-15 | 2026-09-02 23:30:46 | 50.39932 | 5.97328 | 99° | 38km/h | 16850m | 4m/s | -55.2°C | 10.8% | 96.5hPa | 3.9V | 00:00:00 | 00:00:00 | 00:00:00 | |
| DL1XH-west | 2026-09-02 23:30:38 | 50.39947 | 5.97232 | 0° | 0km/h | 16819m | 0m/s | -55.2°C | 10.9% | 97hPa | 3.9V | 00:00:00 | 00:00:00 | 00:00:00 | |
| BIOWL1-15 | 2026-09-02 23:30:34 | 50.39958 | 5.97177 | 107° | 37km/h | 16801m | 5m/s | -55.1°C | 11% | 97.3hPa | 3.9V | 00:00:00 | 00:00:00 | 00:00:00 | |
| DL1XH1-15 | 2026-09-02 23:30:34 | 50.39958 | 5.97177 | 106° | 37km/h | 16801m | 4.4m/s | -55.1°C | 11% | 97.2hPa | 3.9V | 00:00:00 | 01:13:30 | 00:00:00 | |
| DL1XH-west | 2026-09-02 23:30:28 | 50.39974 | 5.97094 | 0° | 0km/h | 16775m | 0m/s | -55.3°C | 11% | 97.6hPa | 3.9V | 00:00:00 | 00:00:00 | 00:00:00 | |
| DM0DOS-11 | 2026-09-02 23:30:27 | 50.39985 | 5.97038 | 105° | 35km/h | 16758m | 4.3m/s | -55.3°C | 11% | 97.9hPa | 3.9V | 00:00:00 | 01:13:20 | 00:00:00 | |
| BIOWL1-15 | 2026-09-02 23:30:25 | 50.39988 | 5.97025 | 103° | 35km/h | 16754m | 5m/s | -55.4°C | 11.1% | 98hPa | 3.9V | 00:00:00 | 00:00:00 | 00:00:00 | |
| DL1XH-west | 2026-09-02 23:30:17 | 50.40018 | 5.96908 | 0° | 0km/h | 16714m | 0m/s | -55.7°C | 11.2% | 98.5hPa | 3.9V | 00:00:00 | 00:00:00 | 00:00:00 | |
| DL1XH1-15 | 2026-09-02 23:30:15 | 50.40018 | 5.96908 | 121° | 33km/h | 16714m | 4.2m/s | -55.7°C | 11.1% | 98.5hPa | 3.9V | 00:00:00 | 01:13:10 | 00:00:00 | |
| BIOWL1-15 | 2026-09-02 23:30:12 | 50.40029 | 5.96873 | 106° | 33km/h | 16701m | 4m/s | -55.7°C | 11.3% | 98.8hPa | 3.9V | 00:00:00 | 00:00:00 | 00:00:00 | |
| DM0DOS-11 | 2026-09-02 23:30:07 | 50.40053 | 5.96784 | 120° | 40km/h | 16671m | 4.3m/s | -55.7°C | 11.3% | 99.2hPa | 3.9V | 00:00:00 | 01:13:00 | 00:00:00 | |
| DL1XH-west | 2026-09-02 23:30:05 | 50.40053 | 5.96784 | 0° | 0km/h | 16671m | 0m/s | -55.7°C | 11.4% | 99.2hPa | 3.9V | 00:00:00 | 00:00:00 | 00:00:00 | |
| BIOWL1-15 | 2026-09-02 23:30:03 | 50.40074 | 5.96732 | 115° | 37km/h | 16655m | 6m/s | -55.8°C | 11.4% | 99.5hPa | 3.9V | 00:00:00 | 00:00:00 | 00:00:00 | |
| DL1XH-west | 2026-09-02 23:29:55 | 50.40102 | 5.96644 | 0° | 0km/h | 16628m | 0m/s | -55.9°C | 11.5% | 99.9hPa | 3.9V | 00:00:00 | 00:00:00 | 00:00:00 | |
| DL1XH1-15 | 2026-09-02 23:29:54 | 50.40102 | 5.96644 | 129° | 47km/h | 16628m | 4.6m/s | -55.9°C | 11.5% | 99.9hPa | 3.9V | 00:00:00 | 01:12:50 | 00:00:00 | |
| BIOWL1-15 | 2026-09-02 23:29:52 | 50.40134 | 5.96583 | 128° | 47km/h | 16610m | 5m/s | -56°C | 11.6% | 100.2hPa | 3.9V | 00:00:00 | 00:00:00 | 00:00:00 | |
| DM0DOS-11 | 2026-09-02 23:29:47 | 50.40167 | 5.96486 | 125° | 46km/h | 16582m | 4.5m/s | -55.9°C | 11.6% | 100.6hPa | 3.9V | 00:00:00 | 01:12:40 | 00:00:00 | |
| DL1XH-west | 2026-09-02 23:29:44 | 50.40180 | 5.96459 | 0° | 0km/h | 16573m | 0m/s | -55.8°C | 11.7% | 100.8hPa | 3.9V | 00:00:00 | 00:00:00 | 00:00:00 | |
| BIOWL1-15 | 2026-09-02 23:29:42 | 50.40202 | 5.96414 | 128° | 47km/h | 16561m | 5m/s | -55.7°C | 11.8% | 101hPa | 3.9V | 00:00:00 | 00:00:00 | 00:00:00 | |
| DM0DOS-11 | 2026-09-02 23:29:34 | 50.40239 | 5.96336 | 122° | 49km/h | 16538m | 4.6m/s | -55.8°C | 11.8% | 101.3hPa | 3.9V | 00:00:00 | 01:12:30 | 00:00:00 | |
| DL1XH-west | 2026-09-02 23:29:32 | 50.40259 | 5.96290 | 0° | 0km/h | 16525m | 0m/s | -56°C | 11.9% | 101.5hPa | 3.9V | 00:00:00 | 00:00:00 | 00:00:00 | |
| BIOWL1-15 | 2026-09-02 23:29:30 | 50.40300 | 5.96213 | 125° | 47km/h | 16500m | 4m/s | -56.3°C | 12% | 101.9hPa | 3.9V | 00:00:00 | 00:00:00 | 00:00:00 | |
| DM0DOS-11 | 2026-09-02 23:29:27 | 50.40314 | 5.96182 | 130° | 55km/h | 16491m | 4.4m/s | -56.3°C | 12% | 102hPa | 3.9V | 00:00:00 | 01:12:20 | 00:00:00 | |
| DJ8HS-15 | 2026-09-02 23:29:25 | 50.40300 | 5.96213 | 126° | 57km/h | 16500m | 4.4m/s | -56.2°C | 12.0% | 101.8hPa | 3.9V | 00:00:00 | 01:12:22 | 00:00:00 | |
| DL1XH1-15 | 2026-09-02 23:29:24 | 50.40323 | 5.96166 | 130° | 57km/h | 16487m | 4.5m/s | -56.3°C | 12% | 102.1hPa | 3.9V | 00:00:00 | 01:12:19 | 00:00:00 | |
| DL1XH-west | 2026-09-02 23:29:21 | 50.40342 | 5.96132 | 0° | 0km/h | 16478m | 0m/s | -56.4°C | 12% | 102.2hPa | 3.9V | 00:00:00 | 00:00:00 | 00:00:00 | |
| BIOWL1-15 | 2026-09-02 23:29:18 | 50.40383 | 5.96037 | 118° | 55km/h | 16456m | 4.7m/s | -56.6°C | 12.1% | 102.6hPa | 3.9V | 00:00:00 | 00:00:00 | 00:00:00 | |
| DL1XH1-15 | 2026-09-02 23:29:17 | 50.40409 | 5.95963 | 126° | 55km/h | 16437m | 4.5m/s | -56.6°C | 12.1% | 102.9hPa | 3.9V | 00:00:00 | 01:12:08 | 00:00:00 | |
| DM0DOS-11 | 2026-09-02 23:29:14 | 50.40396 | 5.95998 | 119° | 53km/h | 16447m | 4.7m/s | -56.6°C | 12% | 102.7hPa | 3.9V | 00:00:00 | 01:12:10 | 00:00:00 | |
| DL1XH-west | 2026-09-02 23:29:12 | 50.40417 | 5.95946 | 0° | 0km/h | 16433m | 0m/s | -56.6°C | 12.2% | 103hPa | 3.9V | 00:00:00 | 00:00:00 | 00:00:00 | |
| DM0DOS-11 | 2026-09-02 23:29:07 | 50.40467 | 5.95804 | 115° | 58km/h | 16401m | 4.6m/s | -56.5°C | 12.3% | 103.5hPa | 3.9V | 00:00:00 | 01:12:00 | 00:00:00 | |
| DL1XH1-15 | 2026-09-02 23:29:06 | 50.40482 | 5.95762 | 122° | 57km/h | 16392m | 4.7m/s | -56.4°C | 12.3% | 103.6hPa | 3.9V | 00:00:00 | 01:11:58 | 00:00:00 | |
| DL1XH-west | 2026-09-02 23:29:00 | 50.40497 | 5.95723 | 0° | 0km/h | 16382m | 0m/s | -56.4°C | 12.4% | 103.8hPa | 4V | 00:00:00 | 00:00:00 | 00:00:00 | |
| DL1XH1-15 | 2026-09-02 23:28:56 | 50.40545 | 5.95566 | 119° | 51km/h | 16346m | 4.6m/s | -56.2°C | 12.5% | 104.4hPa | 4V | 00:00:00 | 01:11:48 | 00:00:00 | |
| BIOWL1-15 | 2026-09-02 23:28:56 | 50.40551 | 5.95548 | 121° | 53km/h | 16341m | 4m/s | -56.2°C | 12.6% | 104.4hPa | 4V | 00:00:00 | 00:00:00 | 00:00:00 | |
| DM0DOS-11 | 2026-09-02 23:28:54 | 50.40534 | 5.95603 | 112° | 51km/h | 16355m | 4.5m/s | -56.2°C | 12.5% | 104.2hPa | 4V | 00:00:00 | 01:11:50 | 00:00:00 | |
| DL1XH-west | 2026-09-02 23:28:50 | 50.40558 | 5.95530 | 0° | 0km/h | 16337m | 0m/s | -56.2°C | 12.6% | 104.5hPa | 4V | 00:00:00 | 00:00:00 | 00:00:00 | |
| NBG1-10 | 2026-09-02 23:28:48 | 50.40564 | 5.95512 | 115° | 49km/h | 16332m | 4.5m/s | -56.2°C | 12.5% | 104.5hPa | 4V | 00:00:00 | 01:11:45 | 00:00:00 | |
| DM0DOS-11 | 2026-09-02 23:28:47 | 50.40590 | 5.95420 | 107° | 49km/h | 16309m | 4.5m/s | -56.2°C | 12.6% | 104.9hPa | 4V | 00:00:00 | 01:11:40 | 00:00:00 | |
| DL1XH1-15 | 2026-09-02 23:28:46 | 50.40598 | 5.95382 | 112° | 49km/h | 16300m | 4.6m/s | -56.2°C | 12.6% | 105.1hPa | 4V | 00:00:00 | 01:11:38 | 00:00:00 | |
| DL1XH-west | 2026-09-02 23:28:41 | 50.40608 | 5.95345 | 0° | 0km/h | 16291m | 0m/s | -56.2°C | 12.8% | 105.2hPa | 4V | 00:00:00 | 00:00:00 | 00:00:00 | |
| DL1XH1-15 | 2026-09-02 23:28:36 | 50.40646 | 5.95203 | 116° | 47km/h | 16254m | 4.5m/s | -56.2°C | 12.8% | 105.8hPa | 4V | 00:00:00 | 01:11:28 | 00:00:00 | |
| DL1XH-west | 2026-09-02 23:28:30 | 50.40657 | 5.95169 | 0° | 0km/h | 16245m | 0m/s | -56.2°C | 13% | 106hPa | 4V | 00:00:00 | 00:00:00 | 00:00:00 | |
| BIOWL1-15 | 2026-09-02 23:28:29 | 50.40662 | 5.95153 | 112° | 46km/h | 16241m | 5m/s | -56.1°C | 13% | 106.1hPa | 4V | 00:00:00 | 00:00:00 | 00:00:00 | |
| DM0DOS-11 | 2026-09-02 23:28:26 | 50.40685 | 5.95067 | 121° | 49km/h | 16218m | 4.7m/s | -55.9°C | 13% | 106.4hPa | 4V | 00:00:00 | 01:11:20 | 00:00:00 | |
| DJ8HS-15 | 2026-09-02 23:28:25 | 50.40673 | 5.95102 | 113° | 51km/h | 16227m | 4.6m/s | -56.0°C | 13.0% | 106.2hPa | 4V | 00:00:00 | 01:11:22 | 00:00:00 | |
| DL1XH1-15 | 2026-09-02 23:28:24 | 50.40697 | 5.95033 | 116° | 49km/h | 16209m | 4.8m/s | -55.9°C | 13% | 106.6hPa | 4V | 00:00:00 | 01:11:18 | 00:00:00 | |
| BIOWL1-15 | 2026-09-02 23:28:19 | 50.40723 | 5.94946 | 111° | 46km/h | 16185m | 6m/s | -55.7°C | 13.2% | 107hPa | 4V | 00:00:00 | 00:00:00 | 00:00:00 | |
| DL1XH-west | 2026-09-02 23:28:19 | 50.40713 | 5.94981 | 0° | 0km/h | 16194m | 0m/s | -55.8°C | 13.2% | 106.8hPa | 4V | 00:00:00 | 00:00:00 | 00:00:00 | |
| DM0DOS-11 | 2026-09-02 23:28:16 | 50.40737 | 5.94894 | 123° | 53km/h | 16170m | 4.7m/s | -55.6°C | 13.2% | 107.2hPa | 4V | 00:00:00 | 01:11:10 | 00:00:00 | |
| DL1XH1-15 | 2026-09-02 23:28:16 | 50.40753 | 5.94858 | 124° | 53km/h | 16161m | 4.8m/s | -55.5°C | 13.3% | 107.3hPa | 4V | 00:00:00 | 01:11:08 | 00:00:00 | |
| DL1XH-west | 2026-09-02 23:28:09 | 50.40773 | 5.94805 | 0° | 0km/h | 16147m | 0m/s | -55.4°C | 13.4% | 107.6hPa | 4V | 00:00:00 | 00:00:00 | 00:00:00 | |
| BIOWL1-15 | 2026-09-02 23:28:07 | 50.40812 | 5.94674 | 123° | 64km/h | 16112m | 4m/s | -55.1°C | 13.5% | 108.2hPa | 4V | 00:00:00 | 00:00:00 | 00:00:00 | |
| DM0DOS-11 | 2026-09-02 23:28:06 | 50.40799 | 5.94715 | 112° | 58km/h | 16122m | 4.9m/s | -55.2°C | 13.5% | 108hPa | 4V | 00:00:00 | 01:11:00 | 00:00:00 | |
| DL1XH1-15 | 2026-09-02 23:28:06 | 50.40812 | 5.94674 | 123° | 58km/h | 16112m | 4.8m/s | -55.1°C | 13.5% | 108.2hPa | 4V | 00:00:00 | 01:10:58 | 00:00:00 | |
| DL1XH-west | 2026-09-02 23:27:59 | 50.40839 | 5.94613 | 0° | 0km/h | 16098m | 0m/s | -55°C | 13.6% | 108.4hPa | 4V | 00:00:00 | 00:00:00 | 00:00:00 | |
| DL1XH1-15 | 2026-09-02 23:27:56 | 50.40887 | 5.94479 | 124° | 60km/h | 16063m | 4.8m/s | -54.9°C | 13.7% | 109hPa | 4V | 00:00:00 | 01:10:48 | 00:00:00 | |
| BIOWL1-15 | 2026-09-02 23:27:54 | 50.40870 | 5.94521 | 121° | 60km/h | 16074m | 6m/s | -54.9°C | 13.8% | 108.8hPa | 4V | 00:00:00 | 00:00:00 | 00:00:00 | |
| DL1XH-west | 2026-09-02 23:27:48 | 50.40921 | 5.94403 | 0° | 0km/h | 16044m | 0m/s | -54.8°C | 13.9% | 109.3hPa | 4V | 00:00:00 | 00:00:00 | 00:00:00 | |
| DL1XH1-15 | 2026-09-02 23:27:46 | 50.40971 | 5.94278 | 128° | 68km/h | 16014m | 5m/s | -54.9°C | 14% | 109.8hPa | 4V | 00:00:00 | 01:10:38 | 00:00:00 | |
| BIOWL1-15 | 2026-09-02 23:27:43 | 50.40982 | 5.94256 | 127° | 66km/h | 16009m | 6m/s | -55°C | 14% | 109.9hPa | 4V | 00:00:00 | 00:00:00 | 00:00:00 | |
| DL1XH-west | 2026-09-02 23:27:37 | 50.41023 | 5.94172 | 0° | 0km/h | 15988m | 0m/s | -55.1°C | 14.2% | 110.3hPa | 4V | 00:00:00 | 00:00:00 | 00:00:00 | |
| DM0DOS-11 | 2026-09-02 23:27:36 | 50.41054 | 5.94105 | 122° | 68km/h | 15974m | 4.1m/s | -55.1°C | 14.1% | 110.5hPa | 4V | 00:00:00 | 01:10:30 | 00:00:00 | |
| BIOWL1-15 | 2026-09-02 23:27:33 | 50.41095 | 5.94020 | 130° | 71km/h | 15958m | 5m/s | -55.2°C | 14.3% | 110.8hPa | 4V | 00:00:00 | 00:00:00 | 00:00:00 | |
| DL1XH-west | 2026-09-02 23:27:27 | 50.41126 | 5.93951 | 0° | 0km/h | 15944m | 0m/s | -55.2°C | 14.4% | 111hPa | 4V | 00:00:00 | 00:00:00 | 00:00:00 | |
| DM0DOS-11 | 2026-09-02 23:27:26 | 50.41155 | 5.93873 | 119° | 73km/h | 15931m | 4.8m/s | -55.2°C | 14.5% | 111.3hPa | 4V | 00:00:00 | 01:10:20 | 00:00:00 | |
| DL1XH1-15 | 2026-09-02 23:27:26 | 50.41173 | 5.93824 | 122° | 75km/h | 15921m | 4.5m/s | -55.2°C | 14.5% | 111.4hPa | 4V | 00:00:00 | 01:10:18 | 00:00:00 | |
| BIOWL1-15 | 2026-09-02 23:27:23 | 50.41193 | 5.93777 | 124° | 75km/h | 15912m | 4.5m/s | -55.2°C | 14.6% | 111.6hPa | 4V | 00:00:00 | 00:00:00 | 00:00:00 | |
| NBG1-10 | 2026-09-02 23:27:20 | 50.41182 | 5.93801 | 125° | 82km/h | 15916m | 4.5m/s | -55.2°C | 14.5% | 111.5hPa | 4.0V | 00:00:00 | 01:10:17 | 00:00:00 | |
| DL1XH1-15 | 2026-09-02 23:27:16 | 50.41282 | 5.93568 | 120° | 77km/h | 15876m | 4.5m/s | -55.2°C | 14.7% | 112.2hPa | 4V | 00:00:00 | 01:10:08 | 00:00:00 | |
| DM0DOS-11 | 2026-09-02 23:27:16 | 50.41261 | 5.93621 | 122° | 78km/h | 15885m | 4.5m/s | -55.2°C | 14.6% | 112hPa | 4V | 00:00:00 | 01:10:10 | 00:00:00 | |
| DL1XH-west | 2026-09-02 23:27:15 | 50.41248 | 5.93649 | 0° | 0km/h | 15889m | 0m/s | -55.3°C | 14.7% | 112hPa | 4V | 00:00:00 | 00:00:00 | 00:00:00 | |
| BIOWL1-15 | 2026-09-02 23:27:11 | 50.41291 | 5.93542 | 122° | 78km/h | 15872m | 4.7m/s | -55.3°C | 14.8% | 112.3hPa | 4V | 00:00:00 | 00:00:00 | 00:00:00 | |
| DL1XH1-15 | 2026-09-02 23:27:06 | 50.41391 | 5.93309 | 120° | 80km/h | 15831m | 4.7m/s | -55.4°C | 15% | 113hPa | 4V | 00:00:00 | 01:09:58 | 00:00:00 | |
| DL1XH-west | 2026-09-02 23:27:04 | 50.41370 | 5.93365 | 0° | 0km/h | 15840m | 0m/s | -55.4°C | 15% | 112.8hPa | 4V | 00:00:00 | 00:00:00 | 00:00:00 | |
| DM0DOS-11 | 2026-09-02 23:27:04 | 50.41370 | 5.93365 | 120° | 80km/h | 15840m | 4.6m/s | -55.4°C | 15% | 112.8hPa | 4V | 00:00:00 | 01:10:00 | 00:00:00 | |
| BIOWL1-15 | 2026-09-02 23:26:58 | 50.41433 | 5.93199 | 122° | 82km/h | 15812m | 5m/s | -55.5°C | 15.1% | 113.3hPa | 4V | 00:00:00 | 00:00:00 | 00:00:00 | |
| DM0DOS-11 | 2026-09-02 23:26:58 | 50.41479 | 5.93092 | 120° | 80km/h | 15794m | 4.6m/s | -55.5°C | 15.1% | 113.6hPa | 4V | 00:00:00 | 01:09:50 | 00:00:00 | |
| DL1XH1-15 | 2026-09-02 23:26:56 | 50.41500 | 5.93034 | 118° | 78km/h | 15785m | 4.7m/s | -55.5°C | 15.1% | 113.8hPa | 4V | 00:00:00 | 01:09:48 | 00:00:00 | |
| DL1XH-west | 2026-09-02 23:26:53 | 50.41489 | 5.93063 | 0° | 0km/h | 15789m | 0m/s | -55.5°C | 15.2% | 113.7hPa | 4V | 00:00:00 | 00:00:00 | 00:00:00 | |
| BIOWL1-15 | 2026-09-02 23:26:47 | 50.41611 | 5.92721 | 118° | 84km/h | 15735m | 5m/s | -56°C | 15.5% | 114.7hPa | 4V | 00:00:00 | 00:00:00 | 00:00:00 | |
| DM0DOS-11 | 2026-09-02 23:26:46 | 50.41579 | 5.92817 | 117° | 88km/h | 15750m | 4.8m/s | -55.8°C | 15.3% | 114.4hPa | 4V | 00:00:00 | 01:09:40 | 00:00:00 | |
| DL1XH1-15 | 2026-09-02 23:26:46 | 50.41600 | 5.92752 | 117° | 84km/h | 15740m | 4.7m/s | -55.9°C | 15.5% | 114.6hPa | 4V | 00:00:00 | 01:09:38 | 00:00:00 | |
| DL1XH-west | 2026-09-02 23:26:43 | 50.41600 | 5.92752 | 0° | 0km/h | 15740m | 0m/s | -55.9°C | 15.5% | 114.6hPa | 4V | 00:00:00 | 00:00:00 | 00:00:00 | |
| DM0DOS-11 | 2026-09-02 23:26:36 | 50.41676 | 5.92514 | 116° | 84km/h | 15703m | 4.5m/s | -56.2°C | 15.6% | 115.3hPa | 4V | 00:00:00 | 01:09:30 | 00:00:00 | |
| DL1XH1-15 | 2026-09-02 23:26:36 | 50.41695 | 5.92453 | 117° | 82km/h | 15693m | 4.3m/s | -56.3°C | 15.6% | 115.4hPa | 4V | 00:00:00 | 01:09:28 | 00:00:00 | |
| DL1XH-west | 2026-09-02 23:26:32 | 50.41705 | 5.92423 | 0° | 0km/h | 15689m | 0m/s | -56.3°C | 15.7% | 115.5hPa | 4V | 00:00:00 | 00:00:00 | 00:00:00 | |
| BIOWL1-15 | 2026-09-02 23:26:30 | 50.41733 | 5.92338 | 115° | 84km/h | 15677m | 6m/s | -56.3°C | 15.9% | 115.7hPa | 4V | 00:00:00 | 00:00:00 | 00:00:00 | |
| DM0DOS-11 | 2026-09-02 23:26:26 | 50.41766 | 5.92210 | 111° | 80km/h | 15658m | 4.5m/s | -56.3°C | 15.8% | 116.1hPa | 4V | 00:00:00 | 01:09:20 | 00:00:00 | |
| DL1XH1-15 | 2026-09-02 23:26:26 | 50.41781 | 5.92150 | 112° | 80km/h | 15649m | 4.6m/s | -56.4°C | 16% | 116.2hPa | 4V | 00:00:00 | 01:09:18 | 00:00:00 | |
| DL1XH-west | 2026-09-02 23:26:20 | 50.41806 | 5.92061 | 0° | 0km/h | 15635m | 0m/s | -56.4°C | 16.1% | 116.5hPa | 4V | 00:00:00 | 00:00:00 | 00:00:00 | |
| DL1XH1-15 | 2026-09-02 23:26:14 | 50.41865 | 5.91855 | 112° | 77km/h | 15603m | 4.6m/s | -56.3°C | 16.1% | 117.1hPa | 4V | 00:00:00 | 01:09:08 | 00:00:00 | |
| BIOWL1-15 | 2026-09-02 23:26:08 | 50.41896 | 5.91746 | 119° | 73km/h | 15585m | 5m/s | -56.2°C | 16.3% | 117.4hPa | 4V | 00:00:00 | 00:00:00 | 00:00:00 | |
| DL1XH1-15 | 2026-09-02 23:26:06 | 50.41953 | 5.91578 | 119° | 75km/h | 15558m | 4.7m/s | -56.3°C | 16.5% | 117.9hPa | 4V | 00:00:00 | 01:08:58 | 00:00:00 | |
| BIOWL1-15 | 2026-09-02 23:25:59 | 50.42000 | 5.91449 | 122° | 77km/h | 15534m | 4m/s | -56.3°C | 16.7% | 118.3hPa | 4V | 00:00:00 | 00:00:00 | 00:00:00 | |
| DL1XH-west | 2026-09-02 23:25:58 | 50.41990 | 5.91475 | 0° | 0km/h | 15539m | 0m/s | -56.3°C | 16.6% | 118.2hPa | 4V | 00:00:00 | 00:00:00 | 00:00:00 | |
| DL1XH1-15 | 2026-09-02 23:25:56 | 50.42050 | 5.91311 | 117° | 75km/h | 15512m | 4.6m/s | -56.1°C | 16.7% | 118.8hPa | 4V | 00:00:00 | 01:08:48 | 00:00:00 | |
| NBG1-10 | 2026-09-02 23:25:55 | 50.42010 | 5.91422 | 120° | 86km/h | 15530m | 4.6m/s | -56.2°C | 16.6% | 118.4hPa | 4V | 00:00:00 | 01:08:52 | 00:00:00 | |
| DM0DOS-11 | 2026-09-02 23:25:53 | 50.42040 | 5.91339 | 117° | 77km/h | 15516m | 4.5m/s | -56.1°C | 16.7% | 118.7hPa | 4V | 00:00:00 | 01:08:49 | 00:00:00 | |
| BIOWL1-15 | 2026-09-02 23:25:50 | 50.42107 | 5.91154 | 119° | 82km/h | 15485m | 4.5m/s | -56.4°C | 16.9% | 119.3hPa | 4V | 00:00:00 | 00:00:00 | 00:00:00 | |
| DL1XH-west | 2026-09-02 23:25:48 | 50.42097 | 5.91183 | 0° | 0km/h | 15489m | 0m/s | -56.4°C | 16.9% | 119.2hPa | 4V | 00:00:00 | 00:00:00 | 00:00:00 | |
| DM0DOS-11 | 2026-09-02 23:25:47 | 50.42137 | 5.91070 | 120° | 80km/h | 15472m | 5.1m/s | -56.4°C | 17% | 119.5hPa | 4V | 00:00:00 | 01:08:39 | 00:00:00 | |
| DL1XH-west | 2026-09-02 23:25:37 | 50.42199 | 5.90905 | 0° | 0km/h | 15441m | 0m/s | -56.4°C | 17.2% | 120.1hPa | 4V | 00:00:00 | 00:00:00 | 00:00:00 | |
| DM0DOS-11 | 2026-09-02 23:25:37 | 50.42238 | 5.90785 | 116° | 80km/h | 15424m | 4.8m/s | -56.4°C | 17.2% | 120.4hPa | 4V | 00:00:00 | 01:08:29 | 00:00:00 | |
| BIOWL1-15 | 2026-09-02 23:25:34 | 50.42290 | 5.90614 | 113° | 84km/h | 15396m | 5m/s | -56.8°C | 17.4% | 120.9hPa | 4V | 00:00:00 | 00:00:00 | 00:00:00 | |
| DM0DOS-11 | 2026-09-02 23:25:27 | 50.42324 | 5.90496 | 116° | 80km/h | 15377m | 4.4m/s | -57.1°C | 17.5% | 121.3hPa | 4V | 00:00:00 | 01:08:19 | 00:00:00 | |
| DL1XH-west | 2026-09-02 23:25:27 | 50.42307 | 5.90554 | 0° | 0km/h | 15387m | 0m/s | -57°C | 17.5% | 121.1hPa | 4V | 00:00:00 | 00:00:00 | 00:00:00 | |
| DL1XH1-15 | 2026-09-02 23:25:26 | 50.42333 | 5.90469 | 112° | 80km/h | 15373m | 4.5m/s | -57.1°C | 17.5% | 121.4hPa | 4V | 00:00:00 | 01:08:18 | 00:00:00 | |
| BIOWL1-15 | 2026-09-02 23:25:24 | 50.42333 | 5.90469 | 113° | 77km/h | 15373m | 5m/s | -57.1°C | 17.5% | 121.4hPa | 4V | 00:00:00 | 00:00:00 | 00:00:00 | |
| DL1XH-west | 2026-09-02 23:25:15 | 50.42386 | 5.90258 | 0° | 0km/h | 15341m | 0m/s | -57.4°C | 17.7% | 122hPa | 4V | 00:00:00 | 00:00:00 | 00:00:00 | |
| DL1XH1-15 | 2026-09-02 23:25:14 | 50.42408 | 5.90161 | 110° | 86km/h | 15328m | 4.5m/s | -57.4°C | 17.7% | 122.2hPa | 4V | 00:00:00 | 01:08:08 | 00:00:00 | |
| DM0DOS-11 | 2026-09-02 23:25:13 | 50.42401 | 5.90192 | 110° | 86km/h | 15333m | 4.6m/s | -57.4°C | 17.7% | 122.1hPa | 4V | 00:00:00 | 01:08:09 | 00:00:00 | |
| BIOWL1-15 | 2026-09-02 23:25:12 | 50.42484 | 5.89837 | 109° | 78km/h | 15282m | 4m/s | -57.3°C | 18.1% | 123.1hPa | 4V | 00:00:00 | 00:00:00 | 00:00:00 | |
| DM0DOS-11 | 2026-09-02 23:25:07 | 50.42477 | 5.89868 | 109° | 82km/h | 15288m | 4.7m/s | -57.4°C | 18.1% | 123hPa | 4V | 00:00:00 | 01:07:59 | 00:00:00 | |
| DL1XH-west | 2026-09-02 23:25:05 | 50.42470 | 5.89900 | 0° | 0km/h | 15292m | 0m/s | -57.4°C | 18% | 122.9hPa | 4V | 00:00:00 | 00:00:00 | 00:00:00 | |
| DB0UT-7 | 2026-09-02 23:25:04 | 50.42462 | 5.89933 | 110° | 78km/h | 15296m | 4.4m/s | -57.3°C | 18.0% | 122.8hPa | 4V | 00:00:00 | 01:08:01 | 00:00:00 | |
| DL1XH1-15 | 2026-09-02 23:25:02 | 50.42484 | 5.89837 | 108° | 82km/h | 15282m | 4.3m/s | -57.3°C | 18.1% | 123.1hPa | 4V | 00:00:00 | 01:07:58 | 00:00:00 | |
| BIOWL1-15 | 2026-09-02 23:25:00 | 50.42501 | 5.89744 | 103° | 86km/h | 15269m | 4m/s | -57.3°C | 18.2% | 123.3hPa | 4V | 00:00:00 | 00:00:00 | 00:00:00 | |
| DL1XH1-15 | 2026-09-02 23:24:56 | 50.42542 | 5.89522 | 106° | 80km/h | 15239m | 4.5m/s | -57.2°C | 18.3% | 123.9hPa | 4V | 00:00:00 | 01:07:48 | 00:00:00 | |
| DM0DOS-11 | 2026-09-02 23:24:56 | 50.42535 | 5.89554 | 107° | 82km/h | 15243m | 4.4m/s | -57.2°C | 18.3% | 123.9hPa | 4V | 00:00:00 | 01:07:49 | 00:00:00 | |
| DL1XH-west | 2026-09-02 23:24:54 | 50.42529 | 5.89586 | 0° | 0km/h | 15247m | 0m/s | -57.3°C | 18.3% | 123.8hPa | 4V | 00:00:00 | 00:00:00 | 00:00:00 | |
| DJ8HS-15 | 2026-09-02 23:24:46 | 50.42576 | 5.89335 | 108° | 73km/h | 15211m | 4.2m/s | -57.2°C | 18.5% | 124.4hPa | 4.0V | 00:00:00 | 01:07:42 | 00:00:00 | |
| DM0DOS-11 | 2026-09-02 23:24:44 | 50.42593 | 5.89245 | 106° | 77km/h | 15198m | 4.4m/s | -57.3°C | 18.6% | 124.7hPa | 4V | 00:00:00 | 01:07:39 | 00:00:00 | |
| DL1XH1-15 | 2026-09-02 23:24:44 | 50.42599 | 5.89215 | 109° | 77km/h | 15194m | 4.5m/s | -57.3°C | 18.6% | 124.8hPa | 4V | 00:00:00 | 01:07:38 | 00:00:00 | |
| DL1XH-west | 2026-09-02 23:24:44 | 50.42593 | 5.89245 | 0° | 0km/h | 15198m | 0m/s | -57.3°C | 18.6% | 124.7hPa | 4V | 00:00:00 | 00:00:00 | 00:00:00 | |
| DM0DOS-11 | 2026-09-02 23:24:36 | 50.42656 | 5.88962 | 106° | 71km/h | 15154m | 4.3m/s | -57.6°C | 18.7% | 125.6hPa | 4V | 00:00:00 | 01:07:29 | 00:00:00 | |
| DL1XH1-15 | 2026-09-02 23:24:36 | 50.42661 | 5.88935 | 105° | 73km/h | 15149m | 4.1m/s | -57.8°C | 18.8% | 125.7hPa | 4V | 00:00:00 | 01:07:28 | 00:00:00 | |
| DL1XH-west | 2026-09-02 23:24:33 | 50.42656 | 5.88962 | 0° | 0km/h | 15154m | 0m/s | -57.6°C | 18.8% | 125.6hPa | 4V | 00:00:00 | 00:00:00 | 00:00:00 | |
| BIOWL1-15 | 2026-09-02 23:24:33 | 50.42666 | 5.88906 | 107° | 75km/h | 15146m | 5m/s | -57.9°C | 18.9% | 125.8hPa | 4V | 00:00:00 | 00:00:00 | 00:00:00 | |
| DJ8HS-15 | 2026-09-02 23:24:25 | 50.42694 | 5.88768 | 108° | 71km/h | 15124m | 4.3m/s | -58.3°C | 19.0% | 126.1hPa | 4V | 00:00:00 | 01:07:22 | 00:00:00 | |
| DL1XH1-15 | 2026-09-02 23:24:24 | 50.42715 | 5.88670 | 108° | 71km/h | 15106m | 4m/s | -58.3°C | 19.1% | 126.5hPa | 4V | 00:00:00 | 01:07:18 | 00:00:00 | |
| BIOWL1-15 | 2026-09-02 23:24:22 | 50.42715 | 5.88670 | 109° | 69km/h | 15106m | 3m/s | -58.3°C | 19.1% | 126.5hPa | 4V | 00:00:00 | 00:00:00 | 00:00:00 | |
| DM0DOS-11 | 2026-09-02 23:24:12 | 50.42789 | 5.88413 | 115° | 73km/h | 15063m | 4.2m/s | -58.2°C | 19.3% | 127.4hPa | 4V | 00:00:00 | 01:07:08 | 00:00:00 | |
| BIOWL1-15 | 2026-09-02 23:24:11 | 50.42797 | 5.88388 | 115° | 75km/h | 15059m | 4.5m/s | -58.2°C | 19.4% | 127.5hPa | 4V | 00:00:00 | 00:00:00 | 00:00:00 | |
| DL1XH-west | 2026-09-02 23:24:01 | 50.42893 | 5.88095 | 0° | 0km/h | 15012m | 0m/s | -58°C | 19.8% | 128.4hPa | 4V | 00:00:00 | 00:00:00 | 00:00:00 | |
| BIOWL1-15 | 2026-09-02 23:24:00 | 50.42919 | 5.88010 | 117° | 73km/h | 15000m | 3m/s | -57.9°C | 19.9% | 128.7hPa | 4.1V | 00:00:00 | 00:00:00 | 00:00:00 | |
| DL1XH-west | 2026-09-02 23:23:49 | 50.43003 | 5.87798 | 0° | 0km/h | 14967m | 0m/s | -57.8°C | 20.1% | 129.3hPa | 4.1V | 00:00:00 | 00:00:00 | 00:00:00 | |
| BIOWL1-15 | 2026-09-02 23:23:47 | 50.43040 | 5.87688 | 125° | 82km/h | 14951m | 4m/s | -57.7°C | 20.2% | 129.7hPa | 4.1V | 00:00:00 | 00:00:00 | 00:00:00 | |
| DL1XH-west | 2026-09-02 23:23:37 | 50.43132 | 5.87472 | 0° | 0km/h | 14916m | 0m/s | -57.6°C | 20.5% | 130.4hPa | 4.1V | 00:00:00 | 00:00:00 | 00:00:00 | |
| BIOWL1-15 | 2026-09-02 23:23:36 | 50.43152 | 5.87417 | 125° | 80km/h | 14908m | 3.5m/s | -57.6°C | 20.6% | 130.5hPa | 4.1V | 00:00:00 | 00:00:00 | 00:00:00 | |
| DB0UT-7 | 2026-09-02 23:23:34 | 50.43152 | 5.87417 | 124° | 88km/h | 14908m | 3.9m/s | -57.6°C | 20.6% | 130.5hPa | 4.1V | 00:00:00 | 00:00:00 | 00:00:00 | |
| DM0DOS-11 | 2026-09-02 23:23:32 | 50.43188 | 5.87337 | 124° | 84km/h | 14896m | 4.1m/s | -57.6°C | 20.6% | 130.8hPa | 4.1V | 00:00:00 | 01:06:28 | 00:00:00 | |
| DL1XH-west | 2026-09-02 23:23:25 | 50.43272 | 5.87146 | 0° | 0km/h | 14868m | 0m/s | -57.7°C | 20.8% | 131.4hPa | 4.1V | 00:00:00 | 00:00:00 | 00:00:00 | |
| DL1XH1-15 | 2026-09-02 23:23:24 | 50.43311 | 5.87069 | 128° | 88km/h | 14856m | 4.3m/s | -57.7°C | 20.8% | 131.6hPa | 4.1V | 00:00:00 | 01:06:18 | 00:00:00 | |
| BIOWL1-15 | 2026-09-02 23:23:23 | 50.43298 | 5.87094 | 129° | 82km/h | 14859m | 3m/s | -57.7°C | 20.9% | 131.5hPa | 4.1V | 00:00:00 | 00:00:00 | 00:00:00 | |
| DL1XH1-15 | 2026-09-02 23:23:15 | 50.43462 | 5.86766 | 124° | 91km/h | 14811m | 4.2m/s | -57.9°C | 21.2% | 132.6hPa | 4.1V | 00:00:00 | 01:06:07 | 00:00:00 | |
| BIOWL1-15 | 2026-09-02 23:23:13 | 50.43529 | 5.86623 | 126° | 89km/h | 14790m | 4m/s | -58°C | 21.5% | 133hPa | 4.1V | 00:00:00 | 00:00:00 | 00:00:00 | |
| DL1XH-west | 2026-09-02 23:23:09 | 50.43488 | 5.86708 | 0° | 0km/h | 14802m | 0m/s | -58°C | 21.4% | 132.8hPa | 4.1V | 00:00:00 | 00:00:00 | 00:00:00 | |
| DM0DOS-11 | 2026-09-02 23:23:06 | 50.43586 | 5.86497 | 121° | 100km/h | 14773m | 4.1m/s | -57.8°C | 21.6% | 133.3hPa | 4.1V | 00:00:00 | 01:05:58 | 00:00:00 | |
| DL1XH1-15 | 2026-09-02 23:23:05 | 50.43599 | 5.86462 | 120° | 99km/h | 14768m | 3.8m/s | -57.8°C | 21.6% | 133.4hPa | 4.1V | 00:00:00 | 01:05:57 | 00:00:00 | |
| BIOWL1-15 | 2026-09-02 23:22:55 | 50.43681 | 5.86267 | 123° | 97km/h | 14745m | 4.5m/s | -57.8°C | 21.9% | 134hPa | 4.1V | 00:00:00 | 00:00:00 | 00:00:00 | |
| DL1XH1-15 | 2026-09-02 23:22:55 | 50.43733 | 5.86134 | 119° | 99km/h | 14727m | 4m/s | -57.8°C | 21.8% | 134.3hPa | 4.1V | 00:00:00 | 01:05:47 | 00:00:00 | |
| DL1XH-west | 2026-09-02 23:22:53 | 50.43707 | 5.86202 | 0° | 0km/h | 14736m | 0m/s | -57.8°C | 21.9% | 134.1hPa | 4.1V | 00:00:00 | 00:00:00 | 00:00:00 | |
| DM0DOS-11 | 2026-09-02 23:22:52 | 50.43720 | 5.86168 | 120° | 99km/h | 14732m | 4.2m/s | -57.8°C | 21.8% | 134.2hPa | 4.1V | 00:00:00 | 01:05:48 | 00:00:00 | |
| DM0DOS-11 | 2026-09-02 23:22:46 | 50.43851 | 5.85836 | 121° | 93km/h | 14691m | 4.3m/s | -58.1°C | 22.1% | 135.1hPa | 4.1V | 00:00:00 | 01:05:38 | 00:00:00 | |
| DJ8HS-15 | 2026-09-02 23:22:45 | 50.43799 | 5.85969 | 121° | 95km/h | 14707m | 4.1m/s | -58.0°C | 22.1% | 134.7hPa | 4.0V | 00:00:00 | 01:05:42 | 00:00:00 | |
| DL1XH1-15 | 2026-09-02 23:22:44 | 50.43863 | 5.85804 | 119° | 93km/h | 14687m | 4.3m/s | -58.2°C | 22.2% | 135.1hPa | 4.1V | 00:00:00 | 01:05:37 | 00:00:00 | |
| BIOWL1-15 | 2026-09-02 23:22:44 | 50.43885 | 5.85739 | 118° | 93km/h | 14678m | 4m/s | -58.3°C | 22.3% | 135.3hPa | 4.1V | 00:00:00 | 00:00:00 | 00:00:00 | |
| DL1XH-west | 2026-09-02 23:22:42 | 50.43851 | 5.85836 | 0° | 0km/h | 14691m | 0m/s | -58.1°C | 22.2% | 135.1hPa | 4.1V | 00:00:00 | 00:00:00 | 00:00:00 | |
| DM0DOS-11 | 2026-09-02 23:22:36 | 50.43969 | 5.85511 | 119° | 93km/h | 14648m | 4m/s | -58.5°C | 22.5% | 135.9hPa | 4.1V | 00:00:00 | 01:05:28 | 00:00:00 | |
| DL1XH1-15 | 2026-09-02 23:22:35 | 50.43981 | 5.85479 | 115° | 93km/h | 14645m | 4.1m/s | -58.5°C | 22.5% | 136hPa | 4.1V | 00:00:00 | 01:05:27 | 00:00:00 | |
| DL1XH-west | 2026-09-02 23:22:32 | 50.43969 | 5.85511 | 0° | 0km/h | 14648m | 0m/s | -58.5°C | 22.5% | 135.9hPa | 4.1V | 00:00:00 | 00:00:00 | 00:00:00 | |
| BIOWL1-15 | 2026-09-02 23:22:29 | 50.44032 | 5.85311 | 118° | 95km/h | 14624m | 4m/s | -58.9°C | 22.6% | 136.5hPa | 4.1V | 00:00:00 | 00:00:00 | 00:00:00 | |
| DL1XH1-15 | 2026-09-02 23:22:24 | 50.44102 | 5.85113 | 117° | 89km/h | 14599m | 3.4m/s | -59.1°C | 22.7% | 137hPa | 4.1V | 00:00:00 | 01:05:16 | 00:00:00 | |
| DM0DOS-11 | 2026-09-02 23:22:22 | 50.44077 | 5.85179 | 121° | 97km/h | 14607m | 4.1m/s | -59.1°C | 22.7% | 136.8hPa | 4.1V | 00:00:00 | 01:05:18 | 00:00:00 | |
| DM0DOS-11 | 2026-09-02 23:22:16 | 50.44187 | 5.84835 | 115° | 97km/h | 14567m | 4.4m/s | -59.3°C | 23.1% | 137.7hPa | 4.1V | 00:00:00 | 01:05:08 | 00:00:00 | |
| BIOWL1-15 | 2026-09-02 23:22:15 | 50.44178 | 5.84870 | 112° | 95km/h | 14570m | 3m/s | -59.2°C | 23.1% | 137.6hPa | 4.1V | 00:00:00 | 00:00:00 | 00:00:00 | |
| DL1XH1-15 | 2026-09-02 23:22:10 | 50.44209 | 5.84767 | 4° | 58km/h | 14558m | 0m/s | 0°C | 0% | 0hPa | 0V | 00:00:00 | 00:00:00 | 00:00:00 | |
| BIOWL1-15 | 2026-09-02 23:22:02 | 50.44366 | 5.84293 | 117° | 93km/h | 14498m | 4m/s | -59.1°C | 23.6% | 139.2hPa | 4.1V | 00:00:00 | 00:00:00 | 00:00:00 | |
| DM0DOS-11 | 2026-09-02 23:22:02 | 50.44301 | 5.84495 | 117° | 93km/h | 14524m | 4.3m/s | -59.3°C | 23.3% | 138.6hPa | 4.1V | 00:00:00 | 01:04:58 | 00:00:00 | |
| DM0DOS-11 | 2026-09-02 23:21:56 | 50.44408 | 5.84165 | 120° | 89km/h | 14481m | 4.4m/s | -59°C | 23.7% | 139.6hPa | 4.1V | 00:00:00 | 01:04:48 | 00:00:00 | |
| BIOWL1-15 | 2026-09-02 23:21:52 | 50.44439 | 5.84075 | 116° | 95km/h | 14467m | 4m/s | -58.9°C | 23.9% | 139.9hPa | 4.1V | 00:00:00 | 00:00:00 | 00:00:00 | |
| DJ8HS-15 | 2026-09-02 23:21:44 | 50.44484 | 5.83940 | 119° | 93km/h | 14451m | 4.2m/s | -58.8°C | 24.0% | 140.2hPa | 4.0V | 00:00:00 | 01:04:41 | 00:00:00 | |
| DM0DOS-11 | 2026-09-02 23:21:42 | 50.44517 | 5.83842 | 117° | 91km/h | 14438m | 4.1m/s | -58.8°C | 24.1% | 140.5hPa | 4.1V | 00:00:00 | 01:04:38 | 00:00:00 | |
| BIOWL1-15 | 2026-09-02 23:21:40 | 50.44563 | 5.83716 | 120° | 95km/h | 14421m | 3m/s | -58.9°C | 24.2% | 140.9hPa | 4.1V | 00:00:00 | 00:00:00 | 00:00:00 | |
| DM0DOS-11 | 2026-09-02 23:21:36 | 50.44636 | 5.83518 | 117° | 91km/h | 14396m | 4.1m/s | -58.9°C | 24.5% | 141.4hPa | 4.1V | 00:00:00 | 01:04:28 | 00:00:00 | |
| BIOWL1-15 | 2026-09-02 23:21:30 | 50.44704 | 5.83324 | 120° | 93km/h | 14371m | 5m/s | -58.8°C | 24.7% | 142hPa | 4.1V | 00:00:00 | 00:00:00 | 00:00:00 | |
| DM0DOS-11 | 2026-09-02 23:21:24 | 50.44749 | 5.83200 | 114° | 86km/h | 14354m | 4.1m/s | -58.7°C | 24.7% | 142.4hPa | 4.1V | 00:00:00 | 01:04:18 | 00:00:00 | |
| BIOWL1-15 | 2026-09-02 23:21:20 | 50.44768 | 5.83137 | 117° | 84km/h | 14346m | 4m/s | -58.7°C | 24.9% | 142.6hPa | 4.1V | 00:00:00 | 00:00:00 | 00:00:00 | |
| DM0DOS-11 | 2026-09-02 23:21:14 | 50.44852 | 5.82893 | 117° | 86km/h | 14313m | 4.4m/s | -58.5°C | 25.2% | 143.4hPa | 4.1V | 00:00:00 | 01:04:08 | 00:00:00 | |
| BIOWL1-15 | 2026-09-02 23:21:11 | 50.44879 | 5.82801 | 114° | 82km/h | 14299m | 4m/s | -58.5°C | 25.4% | 143.7hPa | 4.1V | 00:00:00 | 00:00:00 | 00:00:00 | |
| DM0DOS-11 | 2026-09-02 23:21:04 | 50.44952 | 5.82586 | 120° | 84km/h | 14272m | 4.1m/s | -58.2°C | 25.6% | 144.3hPa | 4.1V | 00:00:00 | 01:03:58 | 00:00:00 | |
| BIOWL1-15 | 2026-09-02 23:20:58 | 50.44989 | 5.82466 | 114° | 80km/h | 14256m | 4m/s | -58.1°C | 25.9% | 144.6hPa | 4.1V | 00:00:00 | 00:00:00 | 00:00:00 | |
| DM0DOS-11 | 2026-09-02 23:20:54 | 50.45052 | 5.82288 | 121° | 84km/h | 14231m | 3.8m/s | -58°C | 26.1% | 145.2hPa | 4.1V | 00:00:00 | 01:03:48 | 00:00:00 | |
| BIOWL1-15 | 2026-09-02 23:20:48 | 50.45092 | 5.82169 | 116° | 84km/h | 14216m | 4.5m/s | -57.9°C | 26.4% | 145.6hPa | 4.1V | 00:00:00 | 00:00:00 | 00:00:00 | |
| DJ8HS-15 | 2026-09-02 23:20:44 | 50.45121 | 5.82080 | 119° | 88km/h | 14203m | 4.2m/s | -57.7°C | 26.5% | 145.8hPa | 4.0V | 00:00:00 | 01:03:41 | 00:00:00 | |
| DM0DOS-11 | 2026-09-02 23:20:42 | 50.45153 | 5.81991 | 118° | 86km/h | 14190m | 4m/s | -57.7°C | 26.6% | 146.2hPa | 4.1V | 00:00:00 | 01:03:38 | 00:00:00 | |
| BIOWL1-15 | 2026-09-02 23:20:38 | 50.45211 | 5.81806 | 118° | 86km/h | 14166m | 4.5m/s | -57.6°C | 27% | 146.7hPa | 4.1V | 00:00:00 | 00:00:00 | 00:00:00 | |
| DM0DOS-11 | 2026-09-02 23:20:36 | 50.45266 | 5.81657 | 119° | 91km/h | 14145m | 4.2m/s | -57.4°C | 27.1% | 147.2hPa | 4.1V | 00:00:00 | 01:03:27 | 00:00:00 | |
| NBG1-10 | 2026-09-02 23:20:34 | 50.45220 | 5.81776 | 120° | 108km/h | 14161m | 4.2m/s | -57.5°C | 27.0% | 146.8hPa | 4.0V | 00:00:00 | 01:03:31 | 00:00:00 | |
| DM0DOS-11 | 2026-09-02 23:20:25 | 50.45375 | 5.81344 | 117° | 91km/h | 14103m | 4.4m/s | -57.3°C | 27.6% | 148.2hPa | 4.1V | 00:00:00 | 01:03:17 | 00:00:00 | |
| BIOWL1-15 | 2026-09-02 23:20:21 | 50.45375 | 5.81344 | 118° | 91km/h | 14103m | 5m/s | -57.3°C | 27.7% | 148.2hPa | 4.1V | 00:00:00 | 00:00:00 | 00:00:00 | |
| DM0DOS-11 | 2026-09-02 23:20:15 | 50.45481 | 5.81023 | 113° | 99km/h | 14060m | 4.2m/s | -57.6°C | 28% | 149.2hPa | 4.1V | 00:00:00 | 01:03:07 | 00:00:00 | |
| BIOWL1-15 | 2026-09-02 23:20:11 | 50.45512 | 5.80917 | 119° | 102km/h | 14047m | 4m/s | -57.7°C | 28.3% | 149.5hPa | 4.1V | 00:00:00 | 00:00:00 | 00:00:00 | |
| DM0DOS-11 | 2026-09-02 23:20:05 | 50.45586 | 5.80676 | 111° | 95km/h | 14018m | 4.2m/s | -57.9°C | 28.5% | 150.1hPa | 4.1V | 00:00:00 | 01:02:57 | 00:00:00 | |
| BIOWL1-15 | 2026-09-02 23:20:00 | 50.45670 | 5.80394 | 114° | 99km/h | 13984m | 3.5m/s | -57.9°C | 29% | 151hPa | 4.2V | 00:00:00 | 00:00:00 | 00:00:00 | |
| DM0DOS-11 | 2026-09-02 23:19:55 | 50.45690 | 5.80322 | 112° | 99km/h | 13977m | 4.5m/s | -57.8°C | 29% | 151.1hPa | 4.2V | 00:00:00 | 01:02:47 | 00:00:00 | |
| BIOWL1-15 | 2026-09-02 23:19:40 | 50.45808 | 5.79858 | 111° | 91km/h | 13920m | 5m/s | -57.5°C | 29.8% | 152.5hPa | 4.2V | 00:00:00 | 00:00:00 | 00:00:00 | |
| BIOWL1-15 | 2026-09-02 23:19:28 | 50.45934 | 5.79392 | 111° | 91km/h | 13857m | 3m/s | -57.5°C | 30.6% | 153.9hPa | 4.2V | 00:00:00 | 00:00:00 | 00:00:00 | |
| DM0DOS-11 | 2026-09-02 23:19:24 | 50.45961 | 5.79291 | 114° | 86km/h | 13844m | 4m/s | -57.4°C | 30.6% | 154.3hPa | 4.2V | 00:00:00 | 01:02:17 | 00:00:00 | |
| BIOWL1-15 | 2026-09-02 23:19:17 | 50.46021 | 5.79076 | 116° | 86km/h | 13817m | 5m/s | -57.2°C | 31.2% | 154.9hPa | 4.2V | 00:00:00 | 00:00:00 | 00:00:00 | |
| BIOWL1-15 | 2026-09-02 23:19:07 | 50.46083 | 5.78854 | 119° | 82km/h | 13789m | 5m/s | -57.2°C | 31.6% | 155.6hPa | 4.2V | 00:00:00 | 00:00:00 | 00:00:00 | |
| DM0DOS-11 | 2026-09-02 23:19:04 | 50.46142 | 5.78682 | 117° | 91km/h | 13761m | 5m/s | -57.2°C | 31.8% | 156.3hPa | 4.2V | 00:00:00 | 01:01:57 | 00:00:00 | |
| BIOWL1-15 | 2026-09-02 23:18:56 | 50.46218 | 5.78458 | 121° | 91km/h | 13726m | 4m/s | -57.2°C | 32.4% | 157.2hPa | 4.2V | 00:00:00 | 00:00:00 | 00:00:00 | |
| DM0DOS-11 | 2026-09-02 23:18:52 | 50.46251 | 5.78364 | 118° | 93km/h | 13713m | 4.2m/s | -57.2°C | 32.5% | 157.5hPa | 4.2V | 00:00:00 | 01:01:47 | 00:00:00 | |
| BIOWL1-15 | 2026-09-02 23:18:44 | 50.46360 | 5.78077 | 121° | 95km/h | 13676m | 4.2m/s | -57.2°C | 33% | 158.4hPa | 4.2V | 00:00:00 | 00:00:00 | 00:00:00 | |
| DJ8HS-15 | 2026-09-02 23:18:44 | 50.46323 | 5.78173 | 121° | 71km/h | 13688m | 2.3m/s | -57.2°C | 32.8% | 158.0hPa | 4.2V | 00:00:00 | 01:01:41 | 00:00:00 | |
| DM0DOS-11 | 2026-09-02 23:18:41 | 50.46372 | 5.78044 | 120° | 95km/h | 13671m | 4m/s | -57.2°C | 33% | 158.5hPa | 4.2V | 00:00:00 | 01:01:37 | 00:00:00 | |
| DM0DOS-11 | 2026-09-02 23:18:35 | 50.46503 | 5.77721 | 121° | 95km/h | 13630m | 4m/s | -57.2°C | 33.7% | 159.5hPa | 4.2V | 00:00:00 | 01:01:27 | 00:00:00 | |
| BIOWL1-15 | 2026-09-02 23:18:31 | 50.46540 | 5.77629 | 124° | 97km/h | 13618m | 4m/s | -57.2°C | 34% | 159.8hPa | 4.2V | 00:00:00 | 00:00:00 | 00:00:00 | |
| BIOWL1-15 | 2026-09-02 23:18:19 | 50.46667 | 5.77325 | 124° | 95km/h | 13582m | 5m/s | -57.3°C | 34.5% | 160.8hPa | 4.2V | 00:00:00 | 00:00:00 | 00:00:00 | |
| DM0DOS-11 | 2026-09-02 23:18:15 | 50.46778 | 5.77065 | 122° | 100km/h | 13549m | 4.2m/s | -57.3°C | 35% | 161.6hPa | 4.2V | 00:00:00 | 01:01:07 | 00:00:00 | |
| BIOWL1-15 | 2026-09-02 23:18:06 | 50.46880 | 5.76830 | 121° | 108km/h | 13520m | 5m/s | -57.5°C | 35.4% | 162.4hPa | 4.2V | 00:00:00 | 00:00:00 | 00:00:00 | |
| DM0DOS-11 | 2026-09-02 23:18:05 | 50.46922 | 5.76719 | 119° | 106km/h | 13507m | 4.3m/s | -57.6°C | 35.5% | 162.7hPa | 4.2V | 00:00:00 | 01:00:57 | 00:00:00 | |
| BIOWL1-15 | 2026-09-02 23:17:56 | 50.46994 | 5.76542 | 124° | 113km/h | 13486m | 4m/s | -58°C | 35.9% | 163.2hPa | 4.2V | 00:00:00 | 00:00:00 | 00:00:00 | |
| DM0DOS-11 | 2026-09-02 23:17:55 | 50.47069 | 5.76347 | 120° | 108km/h | 13465m | 4m/s | -58.2°C | 36.2% | 163.8hPa | 4.2V | 00:00:00 | 01:00:47 | 00:00:00 | |
| BIOWL1-15 | 2026-09-02 23:17:45 | 50.47150 | 5.76123 | 119° | 110km/h | 13441m | 4m/s | -58.2°C | 36.5% | 164.4hPa | 4.2V | 00:00:00 | 00:00:00 | 00:00:00 | |
| DM0DOS-11 | 2026-09-02 23:17:42 | 50.47204 | 5.75972 | 121° | 111km/h | 13424m | 3.9m/s | -58.5°C | 36.7% | 164.8hPa | 4.2V | 00:00:00 | 01:00:37 | 00:00:00 | |
| BIOWL1-15 | 2026-09-02 23:17:33 | 50.47323 | 5.75664 | 122° | 115km/h | 13392m | 3.7m/s | -58.8°C | 37.2% | 165.7hPa | 4.2V | 00:00:00 | 00:00:00 | 00:00:00 | |
| DM0DOS-11 | 2026-09-02 23:17:31 | 50.47354 | 5.75587 | 121° | 115km/h | 13384m | 4m/s | -58.9°C | 37.2% | 165.9hPa | 4.2V | 00:00:00 | 01:00:27 | 00:00:00 | |
| DM0DOS-11 | 2026-09-02 23:17:26 | 50.47504 | 5.75182 | 122° | 120km/h | 13342m | 4m/s | -59.1°C | 37.7% | 167.1hPa | 4.2V | 00:00:00 | 01:00:17 | 00:00:00 | |
| BIOWL1-15 | 2026-09-02 23:17:20 | 50.47660 | 5.74768 | 122° | 122km/h | 13301m | 4m/s | -59.4°C | 38.4% | 168.2hPa | 4.2V | 00:00:00 | 00:00:00 | 00:00:00 | |
| DM0DOS-11 | 2026-09-02 23:17:14 | 50.47660 | 5.74768 | 121° | 124km/h | 13301m | 4.2m/s | -59.4°C | 38.3% | 168.1hPa | 4.2V | 00:00:00 | 01:00:07 | 00:00:00 | |
| BIOWL1-15 | 2026-09-02 23:17:07 | 50.47723 | 5.74596 | 120° | 126km/h | 13284m | 4m/s | -59.2°C | 38.5% | 168.6hPa | 4.2V | 00:00:00 | 00:00:00 | 00:00:00 | |
| BIOWL1-15 | 2026-09-02 23:16:56 | 50.47892 | 5.74122 | 120° | 124km/h | 13239m | 4.5m/s | -59.3°C | 39.1% | 169.8hPa | 4.2V | 00:00:00 | 00:00:00 | 00:00:00 | |
| DM0DOS-11 | 2026-09-02 23:16:54 | 50.47971 | 5.73906 | 121° | 124km/h | 13218m | 4.1m/s | -59.6°C | 39.3% | 170.4hPa | 4.2V | 00:00:00 | 00:59:47 | 00:00:00 | |
| BIOWL1-15 | 2026-09-02 23:16:45 | 50.48082 | 5.73610 | 117° | 119km/h | 13189m | 4m/s | -59.6°C | 39.7% | 171.2hPa | 4.2V | 00:00:00 | 00:00:00 | 00:00:00 | |
| DM0DOS-11 | 2026-09-02 23:16:44 | 50.48124 | 5.73483 | 117° | 122km/h | 13176m | 4.1m/s | -59.7°C | 39.8% | 171.5hPa | 4.2V | 00:00:00 | 00:59:37 | 00:00:00 | |
| DM0DOS-11 | 2026-09-02 23:16:34 | 50.48262 | 5.73053 | 117° | 120km/h | 13134m | 4.1m/s | -60.1°C | 40.2% | 172.6hPa | 4.2V | 00:00:00 | 00:59:27 | 00:00:00 | |
| BIOWL1-15 | 2026-09-02 23:16:33 | 50.48262 | 5.73053 | 117° | 119km/h | 13134m | 4m/s | -60.1°C | 40.2% | 172.7hPa | 4.2V | 00:00:00 | 00:00:00 | 00:00:00 | |
| DM0DOS-11 | 2026-09-02 23:16:23 | 50.48392 | 5.72621 | 115° | 120km/h | 13092m | 4m/s | -60.5°C | 40.5% | 173.8hPa | 4.3V | 00:00:00 | 00:59:17 | 00:00:00 | |
| BIOWL1-15 | 2026-09-02 23:16:20 | 50.48405 | 5.72579 | 116° | 122km/h | 13088m | 4m/s | -60.6°C | 40.6% | 173.9hPa | 4.3V | 00:00:00 | 00:00:00 | 00:00:00 | |
| DM0DOS-11 | 2026-09-02 23:16:12 | 50.48520 | 5.72191 | 116° | 117km/h | 13051m | 4.1m/s | -61.6°C | 40.7% | 174.9hPa | 4.3V | 00:00:00 | 00:59:07 | 00:00:00 | |
| BIOWL1-15 | 2026-09-02 23:16:09 | 50.48545 | 5.72110 | 118° | 120km/h | 13043m | 5m/s | -61.7°C | 40.8% | 175.2hPa | 4.3V | 00:00:00 | 00:00:00 | 00:00:00 | |
| NBG1-10 | 2026-09-02 23:16:06 | 50.48574 | 5.72025 | 119° | 117km/h | 13034m | 4.1m/s | -61.7°C | 40.8% | 175.3hPa | 4.3V | 00:00:00 | 00:59:03 | 00:00:00 | |
| DB0UT-7 | 2026-09-02 23:16:04 | 50.48603 | 5.71943 | 118° | 122km/h | 13027m | 4.2m/s | -61.8°C | 41.0% | 175.6hPa | 4.3V | 00:00:00 | 00:59:01 | 00:00:00 | |
| DM0DOS-11 | 2026-09-02 23:16:02 | 50.48656 | 5.71771 | 117° | 122km/h | 13010m | 4.3m/s | -62°C | 40.8% | 176.1hPa | 4.3V | 00:00:00 | 00:58:57 | 00:00:00 | |
| BIOWL1-15 | 2026-09-02 23:15:58 | 50.48729 | 5.71554 | 119° | 128km/h | 12988m | 4m/s | -62.1°C | 41.1% | 176.7hPa | 4.3V | 00:00:00 | 00:00:00 | 00:00:00 | |
| DM0DOS-11 | 2026-09-02 23:15:52 | 50.48800 | 5.71324 | 112° | 122km/h | 12967m | 3.9m/s | -62.1°C | 41% | 177.3hPa | 4.3V | 00:00:00 | 00:58:47 | 00:00:00 | |
| BIOWL1-15 | 2026-09-02 23:15:49 | 50.48878 | 5.71056 | 116° | 131km/h | 12943m | 4m/s | -62°C | 41.1% | 178hPa | 4.3V | 00:00:00 | 00:00:00 | 00:00:00 | |
| DM0DOS-11 | 2026-09-02 23:15:42 | 50.48931 | 5.70871 | 111° | 115km/h | 12927m | 4.1m/s | -61.9°C | 41.2% | 178.4hPa | 4.3V | 00:00:00 | 00:58:37 | 00:00:00 | |
| BIOWL1-15 | 2026-09-02 23:15:35 | 50.49047 | 5.70434 | 114° | 108km/h | 12884m | 4m/s | -61.6°C | 41.3% | 179.7hPa | 4.3V | 00:00:00 | 00:00:00 | 00:00:00 | |
| DM0DOS-11 | 2026-09-02 23:15:34 | 50.49047 | 5.70434 | 114° | 111km/h | 12884m | 4.2m/s | -61.6°C | 41.2% | 179.7hPa | 4.3V | 00:00:00 | 00:58:27 | 00:00:00 | |
| BIOWL1-15 | 2026-09-02 23:15:19 | 50.49382 | 5.69346 | 116° | 108km/h | 12762m | 5m/s | -60.9°C | 41.8% | 183.2hPa | 4.3V | 00:00:00 | 00:00:00 | 00:00:00 | |
| DM0DOS-11 | 2026-09-02 23:15:14 | 50.49287 | 5.69613 | 118° | 110km/h | 12794m | 4.6m/s | -61.1°C | 41.7% | 182.3hPa | 4.3V | 00:00:00 | 00:58:07 | 00:00:00 | |
| BIOWL1-15 | 2026-09-02 23:15:06 | 50.49393 | 5.69307 | 118° | 110km/h | 12757m | 4m/s | -60.9°C | 41.8% | 183.3hPa | 4.3V | 00:00:00 | 00:00:00 | 00:00:00 | |
| DB0UT-7 | 2026-09-02 23:15:04 | 50.49369 | 5.69384 | 117° | 111km/h | 12766m | 4.3m/s | -60.9°C | 41.7% | 183.0hPa | 4.3V | 00:00:00 | 00:58:01 | 00:00:00 | |
| DM0DOS-11 | 2026-09-02 23:15:02 | 50.49419 | 5.69230 | 121° | 110km/h | 12749m | 4.3m/s | -60.9°C | 41.8% | 183.6hPa | 4.3V | 00:00:00 | 00:57:57 | 00:00:00 | |
| BIOWL1-15 | 2026-09-02 23:14:53 | 50.49559 | 5.68853 | 119° | 108km/h | 12707m | 3m/s | -60.7°C | 42.1% | 184.7hPa | 4.3V | 00:00:00 | 00:00:00 | 00:00:00 | |
| DM0DOS-11 | 2026-09-02 23:14:52 | 50.49559 | 5.68853 | 119° | 110km/h | 12707m | 4m/s | -60.7°C | 42% | 184.7hPa | 4.3V | 00:00:00 | 00:57:47 | 00:00:00 | |
| BIOWL1-15 | 2026-09-02 23:14:42 | 50.49694 | 5.68513 | 125° | 108km/h | 12671m | 4m/s | -60.7°C | 42.3% | 185.8hPa | 4.3V | 00:00:00 | 00:00:00 | 00:00:00 | |
| DM0DOS-11 | 2026-09-02 23:14:42 | 50.49710 | 5.68478 | 124° | 113km/h | 12667m | 5m/s | -60.7°C | 42.2% | 185.9hPa | 4.3V | 00:00:00 | 00:57:37 | 00:00:00 | |
| DB0UT-7 | 2026-09-02 23:14:34 | 50.49805 | 5.68249 | 128° | 122km/h | 12637m | 4.6m/s | -60.5°C | 42.3% | 186.8hPa | 4.3V | 00:00:00 | 00:00:00 | 00:00:00 | |
| DM0DOS-11 | 2026-09-02 23:14:32 | 50.49886 | 5.68099 | 127° | 111km/h | 12619m | 4.9m/s | -60.4°C | 42.5% | 187.4hPa | 4.3V | 00:00:00 | 00:57:27 | 00:00:00 | |
| BIOWL1-15 | 2026-09-02 23:14:32 | 50.49929 | 5.67996 | 121° | 111km/h | 12604m | 3m/s | -60.3°C | 42.5% | 187.8hPa | 4.3V | 00:00:00 | 00:00:00 | 00:00:00 | |
| DM0DOS-11 | 2026-09-02 23:14:22 | 50.50061 | 5.67724 | 125° | 120km/h | 12570m | 6.2m/s | -60.3°C | 42.7% | 188.9hPa | 4.3V | 00:00:00 | 00:57:17 | 00:00:00 | |
| BIOWL1-15 | 2026-09-02 23:14:21 | 50.50078 | 5.67684 | 125° | 119km/h | 12564m | 7m/s | -60.3°C | 42.7% | 189.1hPa | 4.3V | 00:00:00 | 00:00:00 | 00:00:00 | |
| DM0DOS-11 | 2026-09-02 23:14:14 | 50.50259 | 5.67347 | 131° | 126km/h | 12514m | 4.1m/s | -60.2°C | 42.7% | 190.6hPa | 4.3V | 00:00:00 | 00:57:07 | 00:00:00 | |
| BIOWL1-15 | 2026-09-02 23:14:10 | 50.50301 | 5.67271 | 131° | 126km/h | 12506m | 4m/s | -60.2°C | 42.8% | 190.9hPa | 4.3V | 00:00:00 | 00:00:00 | 00:00:00 | |
| BIOWL1-15 | 2026-09-02 23:13:59 | 50.50534 | 5.66845 | 131° | 128km/h | 12459m | 4m/s | -60.2°C | 42.9% | 192.3hPa | 4.3V | 00:00:00 | 00:00:00 | 00:00:00 | |
| NBG1-10 | 2026-09-02 23:13:58 | 50.50513 | 5.66884 | 130° | 135km/h | 12464m | 4.1m/s | -60.1°C | 43.0% | 192.1hPa | 4.3V | 00:00:00 | 00:56:55 | 00:00:00 | |
| DM0DOS-11 | 2026-09-02 23:13:54 | 50.50687 | 5.66571 | 129° | 131km/h | 12431m | 4.5m/s | -60°C | 43% | 193.2hPa | 4.3V | 00:00:00 | 00:56:47 | 00:00:00 | |
| BIOWL1-15 | 2026-09-02 23:13:48 | 50.50830 | 5.66281 | 130° | 133km/h | 12400m | 4m/s | -59.9°C | 43.1% | 194.1hPa | 4.3V | 00:00:00 | 00:00:00 | 00:00:00 | |
| DM0DOS-11 | 2026-09-02 23:13:45 | 50.50898 | 5.66162 | 130° | 135km/h | 12388m | 4.3m/s | -59.9°C | 43% | 194.4hPa | 4.3V | 00:00:00 | 00:56:37 | 00:00:00 | |
| BIOWL1-15 | 2026-09-02 23:13:35 | 50.51023 | 5.65912 | 127° | 133km/h | 12362m | 5m/s | -59.8°C | 43.2% | 195.2hPa | 4.3V | 00:00:00 | 00:00:00 | 00:00:00 | |
| DM0DOS-11 | 2026-09-02 23:13:35 | 50.51107 | 5.65741 | 126° | 135km/h | 12345m | 4.5m/s | -59.7°C | 43.2% | 195.8hPa | 4.3V | 00:00:00 | 00:56:27 | 00:00:00 | |
| BIOWL1-15 | 2026-09-02 23:13:25 | 50.51268 | 5.65393 | 127° | 137km/h | 12310m | 4m/s | -59.6°C | 43.5% | 196.9hPa | 4.3V | 00:00:00 | 00:00:00 | 00:00:00 | |
| DM0DOS-11 | 2026-09-02 23:13:24 | 50.51310 | 5.65306 | 126° | 137km/h | 12302m | 4.4m/s | -59.6°C | 43.5% | 197.1hPa | 4.3V | 00:00:00 | 00:56:17 | 00:00:00 | |
| BIOWL1-15 | 2026-09-02 23:13:15 | 50.51431 | 5.65041 | 125° | 137km/h | 12276m | 4m/s | -59.6°C | 44% | 198hPa | 4.3V | 00:00:00 | 00:00:00 | 00:00:00 | |
| DM0DOS-11 | 2026-09-02 23:13:13 | 50.51512 | 5.64862 | 124° | 137km/h | 12259m | 4.1m/s | -59.6°C | 44.5% | 198.5hPa | 4.3V | 00:00:00 | 00:56:07 | 00:00:00 | |
| DB0UT-7 | 2026-09-02 23:13:04 | 50.51628 | 5.64590 | 124° | 137km/h | 12234m | 4.0m/s | -59.4°C | 44.8% | 199.2hPa | 4.3V | 00:00:00 | 00:56:01 | 00:00:00 | |
| DM0DOS-11 | 2026-09-02 23:13:03 | 50.51705 | 5.64410 | 123° | 139km/h | 12218m | 4.2m/s | -59.3°C | 45% | 199.8hPa | 4.3V | 00:00:00 | 00:55:57 | 00:00:00 | |
| BIOWL1-15 | 2026-09-02 23:13:02 | 50.51685 | 5.64456 | 124° | 139km/h | 12221m | 3m/s | -59.3°C | 45.1% | 199.7hPa | 4.3V | 00:00:00 | 00:00:00 | 00:00:00 | |
| DM0DOS-11 | 2026-09-02 23:12:52 | 50.51899 | 5.63952 | 123° | 137km/h | 12176m | 4.3m/s | -59°C | 45.2% | 201.2hPa | 4.3V | 00:00:00 | 00:55:47 | 00:00:00 | |
| BIOWL1-15 | 2026-09-02 23:12:51 | 50.51918 | 5.63907 | 124° | 135km/h | 12171m | 4m/s | -59°C | 45.2% | 201.3hPa | 4.3V | 00:00:00 | 00:00:00 | 00:00:00 | |
| DM0DOS-11 | 2026-09-02 23:12:43 | 50.52087 | 5.63496 | 122° | 137km/h | 12133m | 4.2m/s | -58.6°C | 45.2% | 202.6hPa | 4.3V | 00:00:00 | 00:55:37 | 00:00:00 | |
| BIOWL1-15 | 2026-09-02 23:12:39 | 50.52125 | 5.63404 | 123° | 137km/h | 12125m | 4m/s | -58.6°C | 45.2% | 202.8hPa | 4.3V | 00:00:00 | 00:00:00 | 00:00:00 | |
| DB0UT-7 | 2026-09-02 23:12:34 | 50.52203 | 5.63219 | 123° | 139km/h | 12107m | 3.9m/s | -58.4°C | 45.2% | 203.3hPa | 4.3V | 00:00:00 | 00:00:00 | 00:00:00 | |
| DM0DOS-11 | 2026-09-02 23:12:33 | 50.52278 | 5.63031 | 121° | 137km/h | 12091m | 4.1m/s | -58.3°C | 45.2% | 203.9hPa | 4.3V | 00:00:00 | 00:55:27 | 00:00:00 | |
| BIOWL1-15 | 2026-09-02 23:12:31 | 50.52352 | 5.62848 | 125° | 139km/h | 12075m | 5m/s | -58.2°C | 45.5% | 204.5hPa | 4.3V | 00:00:00 | 00:00:00 | 00:00:00 | |
| DM0DOS-11 | 2026-09-02 23:12:23 | 50.52466 | 5.62569 | 121° | 139km/h | 12049m | 3.9m/s | -58°C | 45.7% | 205.3hPa | 4.3V | 00:00:00 | 00:55:17 | 00:00:00 | |
| BIOWL1-15 | 2026-09-02 23:12:19 | 50.52522 | 5.62428 | 124° | 139km/h | 12037m | 4m/s | -57.9°C | 46% | 205.7hPa | 4.3V | 00:00:00 | 00:00:00 | 00:00:00 | |
| DM0DOS-11 | 2026-09-02 23:12:13 | 50.52657 | 5.62105 | 121° | 139km/h | 12008m | 4m/s | -57.6°C | 46.7% | 206.6hPa | 4.3V | 00:00:00 | 00:55:07 | 00:00:00 | |
| BIOWL1-15 | 2026-09-02 23:12:08 | 50.52731 | 5.61916 | 123° | 137km/h | 11992m | 5m/s | -57.5°C | 47% | 207.1hPa | 4.3V | 00:00:00 | 00:00:00 | 00:00:00 | |
| DB0UT-7 | 2026-09-02 23:12:04 | 50.52768 | 5.61825 | 123° | 137km/h | 11983m | 4.1m/s | -57.4°C | 47.0% | 207.3hPa | 4.4V | 00:00:00 | 00:55:01 | 00:00:00 | |
| DM0DOS-11 | 2026-09-02 23:12:02 | 50.52844 | 5.61639 | 123° | 139km/h | 11967m | 4.2m/s | -57.3°C | 47% | 207.9hPa | 4.4V | 00:00:00 | 00:54:57 | 00:00:00 | |
| BIOWL1-15 | 2026-09-02 23:11:57 | 50.52939 | 5.61404 | 123° | 135km/h | 11945m | 4m/s | -57.2°C | 47.1% | 208.6hPa | 4.4V | 00:00:00 | 00:00:00 | 00:00:00 | |
| DM0DOS-11 | 2026-09-02 23:11:55 | 50.53032 | 5.61173 | 123° | 137km/h | 11925m | 3.9m/s | -57°C | 47% | 209.3hPa | 4.4V | 00:00:00 | 00:54:47 | 00:00:00 | |
| BIOWL1-15 | 2026-09-02 23:11:48 | 50.53210 | 5.60711 | 122° | 139km/h | 11886m | 4m/s | -56.7°C | 47.2% | 210.6hPa | 4.4V | 00:00:00 | 00:00:00 | 00:00:00 | |
| DM0DOS-11 | 2026-09-02 23:11:45 | 50.53210 | 5.60711 | 121° | 139km/h | 11886m | 4.1m/s | -56.7°C | 47.2% | 210.6hPa | 4.4V | 00:00:00 | 00:54:37 | 00:00:00 | |
| DM0DOS-11 | 2026-09-02 23:11:35 | 50.53391 | 5.60242 | 120° | 135km/h | 11845m | 4.1m/s | -56.4°C | 47.2% | 211.9hPa | 4.4V | 00:00:00 | 00:54:27 | 00:00:00 | |
| BIOWL1-15 | 2026-09-02 23:11:29 | 50.53496 | 5.59962 | 122° | 135km/h | 11821m | 4m/s | -56.2°C | 47.2% | 212.8hPa | 4.4V | 00:00:00 | 00:00:00 | 00:00:00 | |
| DM0DOS-11 | 2026-09-02 23:11:25 | 50.53567 | 5.59777 | 120° | 135km/h | 11805m | 4.4m/s | -56.1°C | 47.2% | 213.3hPa | 4.4V | 00:00:00 | 00:54:17 | 00:00:00 | |
| BIOWL1-15 | 2026-09-02 23:11:19 | 50.53601 | 5.59686 | 120° | 137km/h | 11796m | 4.5m/s | -56°C | 47.2% | 213.6hPa | 4.4V | 00:00:00 | 00:00:00 | 00:00:00 | |
| DM0DOS-11 | 2026-09-02 23:11:15 | 50.53741 | 5.59307 | 120° | 137km/h | 11763m | 4.2m/s | -55.7°C | 47.2% | 214.7hPa | 4.4V | 00:00:00 | 00:54:07 | 00:00:00 | |
| BIOWL1-15 | 2026-09-02 23:11:10 | 50.53899 | 5.58882 | 122° | 137km/h | 11724m | 4m/s | -55.3°C | 47.3% | 216hPa | 4.4V | 00:00:00 | 00:00:00 | 00:00:00 | |
| DM0DOS-11 | 2026-09-02 23:11:05 | 50.53917 | 5.58835 | 121° | 135km/h | 11720m | 4.3m/s | -55.3°C | 47.2% | 216.1hPa | 4.4V | 00:00:00 | 00:53:57 | 00:00:00 | |
| DB0UT-7 | 2026-09-02 23:11:04 | 50.53845 | 5.59025 | 121° | 135km/h | 11738m | 4.4m/s | -55.4°C | 47.2% | 215.5hPa | 4.4V | 00:00:00 | 00:54:01 | 00:00:00 | |
| DM0DOS-11 | 2026-09-02 23:10:52 | 50.54091 | 5.58368 | 121° | 135km/h | 11677m | 4.1m/s | -55°C | 47.3% | 217.6hPa | 4.4V | 00:00:00 | 00:53:47 | 00:00:00 | |
| BIOWL1-15 | 2026-09-02 23:10:52 | 50.54126 | 5.58274 | 120° | 137km/h | 11669m | 4m/s | -55°C | 47.4% | 217.9hPa | 4.4V | 00:00:00 | 00:00:00 | 00:00:00 | |
| DM0DOS-11 | 2026-09-02 23:10:42 | 50.54263 | 5.57901 | 121° | 135km/h | 11635m | 4.2m/s | -54.8°C | 47.5% | 219hPa | 4.4V | 00:00:00 | 00:53:37 | 00:00:00 | |
| BIOWL1-15 | 2026-09-02 23:10:41 | 50.54263 | 5.57901 | 122° | 135km/h | 11635m | 4m/s | -54.8°C | 47.5% | 219hPa | 4.4V | 00:00:00 | 00:00:00 | 00:00:00 | |
| DM0DOS-11 | 2026-09-02 23:10:34 | 50.54433 | 5.57431 | 119° | 133km/h | 11594m | 4.1m/s | -54.5°C | 47.3% | 220.4hPa | 4.4V | 00:00:00 | 00:53:27 | 00:00:00 | |
| BIOWL1-15 | 2026-09-02 23:10:31 | 50.54433 | 5.57431 | 119° | 133km/h | 11594m | 4m/s | -54.5°C | 47.4% | 220.4hPa | 4.4V | 00:00:00 | 00:00:00 | 00:00:00 | |
| BIOWL1-15 | 2026-09-02 23:10:20 | 50.54704 | 5.56681 | 119° | 135km/h | 11528m | 4m/s | -54.1°C | 47.5% | 222.7hPa | 4.4V | 00:00:00 | 00:00:00 | 00:00:00 | |
| DM0DOS-11 | 2026-09-02 23:10:12 | 50.54769 | 5.56492 | 119° | 137km/h | 11512m | 3.9m/s | -53.9°C | 47.5% | 223.2hPa | 4.4V | 00:00:00 | 00:53:07 | 00:00:00 | |
| BIOWL1-15 | 2026-09-02 23:10:08 | 50.54889 | 5.56162 | 118° | 135km/h | 11485m | 4.2m/s | -53.7°C | 47.6% | 224.2hPa | 4.4V | 00:00:00 | 00:00:00 | 00:00:00 | |
| DB0UT-7 | 2026-09-02 23:10:03 | 50.54889 | 5.56162 | 119° | 133km/h | 11485m | 4.2m/s | -53.6°C | 47.5% | 224.2hPa | 4.4V | 00:00:00 | 00:53:00 | 00:00:00 | |
| DM0DOS-11 | 2026-09-02 23:10:02 | 50.54939 | 5.56021 | 117° | 131km/h | 11472m | 4m/s | -53.6°C | 47.5% | 224.7hPa | 4.4V | 00:00:00 | 00:52:57 | 00:00:00 | |
| BIOWL1-15 | 2026-09-02 23:10:02 | 50.55017 | 5.55791 | 119° | 135km/h | 11452m | 4m/s | -53.4°C | 47.5% | 225.3hPa | 4.4V | 00:00:00 | 00:00:00 | 00:00:00 | |
| BIOWL1-15 | 2026-09-02 23:09:49 | 50.55198 | 5.55274 | 118° | 135km/h | 11409m | 3.5m/s | -53°C | 47.6% | 226.9hPa | 4.4V | 00:00:00 | 00:00:00 | 00:00:00 | |
| DM0DOS-11 | 2026-09-02 23:09:42 | 50.55275 | 5.55043 | 116° | 131km/h | 11389m | 4.2m/s | -52.8°C | 47.5% | 227.6hPa | 4.4V | 00:00:00 | 00:52:36 | 00:00:00 | |
| BIOWL1-15 | 2026-09-02 23:09:36 | 50.55368 | 5.54763 | 119° | 131km/h | 11364m | 4.5m/s | -52.6°C | 47.6% | 228.5hPa | 4.4V | 00:00:00 | 00:00:00 | 00:00:00 | |
| DB0UT-7 | 2026-09-02 23:09:33 | 50.55368 | 5.54763 | 120° | 131km/h | 11364m | 4.3m/s | -52.5°C | 47.5% | 228.4hPa | 4.4V | 00:00:00 | 00:00:00 | 00:00:00 | |
| DM0DOS-11 | 2026-09-02 23:09:32 | 50.55431 | 5.54579 | 117° | 130km/h | 11346m | 4.1m/s | -52.4°C | 47.5% | 229.1hPa | 4.4V | 00:00:00 | 00:52:26 | 00:00:00 | |
| BIOWL1-15 | 2026-09-02 23:09:24 | 50.55527 | 5.54309 | 118° | 131km/h | 11321m | 4.5m/s | -52.2°C | 47.6% | 230hPa | 4.4V | 00:00:00 | 00:00:00 | 00:00:00 | |
| DM0DOS-11 | 2026-09-02 23:09:22 | 50.55589 | 5.54121 | 116° | 133km/h | 11304m | 3.9m/s | -52°C | 47.7% | 230.6hPa | 4.4V | 00:00:00 | 00:52:16 | 00:00:00 | |
| DM0DOS-11 | 2026-09-02 23:09:14 | 50.55750 | 5.53662 | 116° | 133km/h | 11264m | 3.8m/s | -51.6°C | 47.7% | 232hPa | 4.4V | 00:00:00 | 00:52:06 | 00:00:00 | |
| BIOWL1-15 | 2026-09-02 23:09:12 | 50.55750 | 5.53662 | 116° | 133km/h | 11264m | 3m/s | -51.6°C | 47.8% | 232hPa | 4.4V | 00:00:00 | 00:00:00 | 00:00:00 | |
| DB0UT-7 | 2026-09-02 23:09:03 | 50.55847 | 5.53382 | 121° | 131km/h | 11241m | 4.1m/s | -51.3°C | 48.0% | 232.8hPa | 4.4V | 00:00:00 | 00:52:00 | 00:00:00 | |
| DM0DOS-11 | 2026-09-02 23:09:02 | 50.55913 | 5.53200 | 115° | 133km/h | 11224m | 3.9m/s | -51.2°C | 48% | 233.4hPa | 4.4V | 00:00:00 | 00:51:56 | 00:00:00 | |
| BIOWL1-15 | 2026-09-02 23:09:02 | 50.55928 | 5.53150 | 119° | 133km/h | 11221m | 4.2m/s | -51.2°C | 48.1% | 233.6hPa | 4.4V | 00:00:00 | 00:00:00 | 00:00:00 | |
| DM0DOS-11 | 2026-09-02 23:08:54 | 50.56076 | 5.52737 | 118° | 131km/h | 11183m | 4.1m/s | -51°C | 48.2% | 234.9hPa | 4.4V | 00:00:00 | 00:51:46 | 00:00:00 | |
| BIOWL1-15 | 2026-09-02 23:08:46 | 50.56157 | 5.52508 | 124° | 135km/h | 11162m | 3m/s | -50.9°C | 48.3% | 235.7hPa | 4.4V | 00:00:00 | 00:00:00 | 00:00:00 | |
| DM0DOS-11 | 2026-09-02 23:08:42 | 50.56250 | 5.52283 | 121° | 131km/h | 11143m | 3.9m/s | -50.8°C | 48.2% | 236.4hPa | 4.4V | 00:00:00 | 00:51:36 | 00:00:00 | |
| BIOWL1-15 | 2026-09-02 23:08:36 | 50.56354 | 5.52013 | 122° | 131km/h | 11120m | 4m/s | -50.7°C | 48.6% | 237.2hPa | 4.4V | 00:00:00 | 00:00:00 | 00:00:00 | |
| DM0DOS-11 | 2026-09-02 23:08:34 | 50.56422 | 5.51837 | 122° | 128km/h | 11104m | 3.9m/s | -50.6°C | 48.5% | 237.8hPa | 4.4V | 00:00:00 | 00:51:26 | 00:00:00 | |
| BIOWL1-15 | 2026-09-02 23:08:25 | 50.56632 | 5.51316 | 123° | 128km/h | 11058m | 5m/s | -50.3°C | 48.6% | 239.5hPa | 4.4V | 00:00:00 | 00:00:00 | 00:00:00 | |
| DM0DOS-11 | 2026-09-02 23:08:22 | 50.56596 | 5.51404 | 122° | 128km/h | 11065m | 3.8m/s | -50.4°C | 48.5% | 239.2hPa | 4.4V | 00:00:00 | 00:51:16 | 00:00:00 | |
| BIOWL1-15 | 2026-09-02 23:08:14 | 50.56699 | 5.51147 | 124° | 128km/h | 11042m | 3m/s | -50.2°C | 48.7% | 240hPa | 4.4V | 00:00:00 | 00:00:00 | 00:00:00 | |
| BIOWL1-15 | 2026-09-02 23:08:06 | 50.56868 | 5.50717 | 121° | 126km/h | 11004m | 3.9m/s | -49.9°C | 49% | 241.4hPa | 4.4V | 00:00:00 | 00:00:00 | 00:00:00 | |
| DM0DOS-11 | 2026-09-02 23:08:04 | 50.56935 | 5.50547 | 121° | 126km/h | 10989m | 4.1m/s | -49.8°C | 49.2% | 241.9hPa | 4.4V | 00:00:00 | 00:50:56 | 00:00:00 | |
| BIOWL1-15 | 2026-09-02 23:07:53 | 50.57052 | 5.50245 | 121° | 122km/h | 10961m | 4m/s | -49.6°C | 49.4% | 243hPa | 4.4V | 00:00:00 | 00:00:00 | 00:00:00 | |
| DM0DOS-11 | 2026-09-02 23:07:52 | 50.57100 | 5.50118 | 121° | 126km/h | 10948m | 3.5m/s | -49.5°C | 49.5% | 243.4hPa | 4.4V | 00:00:00 | 00:50:46 | 00:00:00 | |
| BIOWL1-15 | 2026-09-02 23:07:42 | 50.57312 | 5.49566 | 120° | 124km/h | 10900m | 4m/s | -49.2°C | 49.8% | 245.3hPa | 4.4V | 00:00:00 | 00:00:00 | 00:00:00 | |
| DM0DOS-11 | 2026-09-02 23:07:40 | 50.57265 | 5.49695 | 120° | 122km/h | 10912m | 4m/s | -49.3°C | 49.7% | 244.8hPa | 4.4V | 00:00:00 | 00:50:36 | 00:00:00 | |
| DM0DOS-11 | 2026-09-02 23:07:34 | 50.57418 | 5.49273 | 119° | 120km/h | 10873m | 3.7m/s | -49°C | 50% | 246.3hPa | 4.4V | 00:00:00 | 00:50:26 | 00:00:00 | |
| BIOWL1-15 | 2026-09-02 23:07:27 | 50.57465 | 5.49150 | 122° | 122km/h | 10862m | 4m/s | -48.9°C | 50.1% | 246.7hPa | 4.4V | 00:00:00 | 00:00:00 | 00:00:00 | |
| DM0DOS-11 | 2026-09-02 23:07:22 | 50.57575 | 5.48856 | 118° | 120km/h | 10836m | 3.6m/s | -48.7°C | 50.2% | 247.6hPa | 4.4V | 00:00:00 | 00:50:16 | 00:00:00 | |
| BIOWL1-15 | 2026-09-02 23:07:16 | 50.57651 | 5.48647 | 120° | 122km/h | 10818m | 3.7m/s | -48.6°C | 50.4% | 248.3hPa | 4.4V | 00:00:00 | 00:00:00 | 00:00:00 | |
| DM0DOS-11 | 2026-09-02 23:07:10 | 50.57728 | 5.48438 | 117° | 122km/h | 10800m | 3.7m/s | -48.4°C | 50.5% | 249hPa | 4.4V | 00:00:00 | 00:50:06 | 00:00:00 | |
| DM0DOS-11 | 2026-09-02 23:07:04 | 50.57876 | 5.48010 | 118° | 120km/h | 10764m | 3.8m/s | -48.1°C | 50.8% | 250.4hPa | 4.4V | 00:00:00 | 00:49:56 | 00:00:00 | |
| BIOWL1-15 | 2026-09-02 23:07:04 | 50.57846 | 5.48095 | 119° | 122km/h | 10770m | 3m/s | -48.2°C | 50.9% | 250.1hPa | 4.4V | 00:00:00 | 00:00:00 | 00:00:00 | |
| DB0UT-7 | 2026-09-02 23:07:03 | 50.57817 | 5.48179 | 119° | 120km/h | 10778m | 3.6m/s | -48.2°C | 50.7% | 249.8hPa | 4.4V | 00:00:00 | 00:50:00 | 00:00:00 | |
| DM0DOS-11 | 2026-09-02 23:06:54 | 50.58025 | 5.47586 | 117° | 120km/h | 10728m | 3.9m/s | -47.9°C | 51% | 251.8hPa | 4.4V | 00:00:00 | 00:49:46 | 00:00:00 | |
| BIOWL1-15 | 2026-09-02 23:06:50 | 50.58053 | 5.47502 | 117° | 120km/h | 10720m | 3.5m/s | -47.8°C | 51.2% | 252hPa | 4.4V | 00:00:00 | 00:00:00 | 00:00:00 | |
| DM0DOS-11 | 2026-09-02 23:06:44 | 50.58170 | 5.47163 | 120° | 120km/h | 10690m | 3.7m/s | -47.5°C | 51.5% | 253.2hPa | 4.4V | 00:00:00 | 00:49:36 | 00:00:00 | |
| BIOWL1-15 | 2026-09-02 23:06:37 | 50.58244 | 5.46955 | 118° | 117km/h | 10671m | 4m/s | -47.4°C | 51.5% | 253.9hPa | 4.4V | 00:00:00 | 00:00:00 | 00:00:00 | |
| DB0UT-7 | 2026-09-02 23:06:33 | 50.58258 | 5.46914 | 119° | 119km/h | 10668m | 3.8m/s | -47.3°C | 51.5% | 254.0hPa | 4.4V | 00:00:00 | 00:00:00 | 00:00:00 | |
| DM0DOS-11 | 2026-09-02 23:06:32 | 50.58318 | 5.46748 | 119° | 119km/h | 10653m | 3.7m/s | -47.2°C | 51.5% | 254.6hPa | 4.4V | 00:00:00 | 00:49:26 | 00:00:00 | |
| BIOWL1-15 | 2026-09-02 23:06:25 | 50.58526 | 5.46166 | 120° | 119km/h | 10601m | 3m/s | -46.8°C | 51.8% | 256.5hPa | 4.4V | 00:00:00 | 00:00:00 | 00:00:00 | |
| DM0DOS-11 | 2026-09-02 23:06:24 | 50.58467 | 5.46333 | 119° | 119km/h | 10616m | 3.7m/s | -46.9°C | 51.6% | 256hPa | 4.4V | 00:00:00 | 00:49:16 | 00:00:00 | |
| DM0DOS-11 | 2026-09-02 23:06:14 | 50.58612 | 5.45914 | 119° | 119km/h | 10580m | 3.8m/s | -46.6°C | 51.8% | 257.4hPa | 4.4V | 00:00:00 | 00:49:06 | 00:00:00 | |
| BIOWL1-15 | 2026-09-02 23:06:06 | 50.58672 | 5.45749 | 119° | 120km/h | 10565m | 4m/s | -46.5°C | 51.9% | 258hPa | 4.4V | 00:00:00 | 00:00:00 | 00:00:00 | |
| DM0DOS-11 | 2026-09-02 23:06:04 | 50.58758 | 5.45495 | 119° | 117km/h | 10542m | 3.6m/s | -46.3°C | 52% | 258.8hPa | 4.4V | 00:00:00 | 00:48:56 | 00:00:00 | |
| BIOWL1-15 | 2026-09-02 23:05:54 | 50.58904 | 5.45086 | 119° | 122km/h | 10505m | 4m/s | -46.2°C | 51.8% | 260.3hPa | 4.4V | 00:00:00 | 00:00:00 | 00:00:00 | |
| DM0DOS-11 | 2026-09-02 23:05:52 | 50.58904 | 5.45086 | 118° | 120km/h | 10505m | 3.9m/s | -46.2°C | 51.7% | 260.3hPa | 4.4V | 00:00:00 | 00:48:46 | 00:00:00 | |
| BIOWL1-15 | 2026-09-02 23:05:44 | 50.59019 | 5.44754 | 117° | 120km/h | 10474m | 3m/s | -45.9°C | 51.3% | 261.5hPa | 4.4V | 00:00:00 | 00:00:00 | 00:00:00 | |
| DM0DOS-11 | 2026-09-02 23:05:41 | 50.59047 | 5.44668 | 114° | 117km/h | 10467m | 3.9m/s | -45.9°C | 51.1% | 261.8hPa | 4.5V | 00:00:00 | 00:48:36 | 00:00:00 | |
| BIOWL1-15 | 2026-09-02 23:05:34 | 50.59156 | 5.44336 | 117° | 120km/h | 10437m | 4m/s | -45.6°C | 50.7% | 263hPa | 4.5V | 00:00:00 | 00:00:00 | 00:00:00 | |
| DB0UT-7 | 2026-09-02 23:05:33 | 50.59129 | 5.44419 | 117° | 117km/h | 10444m | 3.5m/s | -45.6°C | 50.7% | 262.7hPa | 4.5V | 00:00:00 | 00:00:00 | 00:00:00 | |
| DM0DOS-11 | 2026-09-02 23:05:31 | 50.59184 | 5.44251 | 115° | 119km/h | 10429m | 3.6m/s | -45.5°C | 50.5% | 263.3hPa | 4.5V | 00:00:00 | 00:48:26 | 00:00:00 | |
| BIOWL1-15 | 2026-09-02 23:05:23 | 50.59331 | 5.43792 | 117° | 115km/h | 10389m | 4m/s | -45.2°C | 49.8% | 264.9hPa | 4.5V | 00:00:00 | 00:00:00 | 00:00:00 | |
| DM0DOS-11 | 2026-09-02 23:05:21 | 50.59317 | 5.43833 | 117° | 115km/h | 10393m | 3.9m/s | -45.2°C | 49.8% | 264.8hPa | 4.5V | 00:00:00 | 00:48:16 | 00:00:00 | |
| DM0DOS-11 | 2026-09-02 23:05:11 | 50.59454 | 5.43428 | 117° | 117km/h | 10356m | 4m/s | -44.9°C | 49.2% | 266.2hPa | 4.5V | 00:00:00 | 00:48:06 | 00:00:00 | |
| BIOWL1-15 | 2026-09-02 23:05:08 | 50.59495 | 5.43304 | 119° | 119km/h | 10343m | 3m/s | -44.8°C | 49.1% | 266.6hPa | 4.5V | 00:00:00 | 00:00:00 | 00:00:00 | |
| DB0UT-7 | 2026-09-02 23:05:03 | 50.59537 | 5.43180 | 116° | 117km/h | 10332m | 3.5m/s | -44.7°C | 48.8% | 267.1hPa | 4.5V | 00:00:00 | 00:48:00 | 00:00:00 | |
| DM0DOS-11 | 2026-09-02 23:05:01 | 50.59591 | 5.43011 | 119° | 117km/h | 10318m | 3.8m/s | -44.6°C | 48.7% | 267.7hPa | 4.5V | 00:00:00 | 00:47:56 | 00:00:00 | |
| BIOWL1-15 | 2026-09-02 23:04:55 | 50.59676 | 5.42765 | 116° | 113km/h | 10295m | 4m/s | -44.4°C | 48.6% | 268.5hPa | 4.5V | 00:00:00 | 00:00:00 | 00:00:00 | |
| BIOWL1-15 | 2026-09-02 23:04:44 | 50.59850 | 5.42229 | 118° | 117km/h | 10245m | 4m/s | -43.9°C | 48.4% | 270.5hPa | 4.5V | 00:00:00 | 00:00:00 | 00:00:00 | |
| DM0DOS-11 | 2026-09-02 23:04:41 | 50.59864 | 5.42188 | 119° | 117km/h | 10241m | 3.8m/s | -43.9°C | 48.2% | 270.7hPa | 4.5V | 00:00:00 | 00:47:36 | 00:00:00 | |
| DM0DOS-11 | 2026-09-02 23:04:34 | 50.60004 | 5.41780 | 118° | 117km/h | 10202m | 3.9m/s | -43.5°C | 48.5% | 272.2hPa | 4.5V | 00:00:00 | 00:47:26 | 00:00:00 | |
| BIOWL1-15 | 2026-09-02 23:04:33 | 50.59964 | 5.41904 | 116° | 119km/h | 10214m | 4m/s | -43.6°C | 48.5% | 271.8hPa | 4.5V | 00:00:00 | 00:00:00 | 00:00:00 | |
| BIOWL1-15 | 2026-09-02 23:04:26 | 50.60118 | 5.41449 | 117° | 115km/h | 10170m | 4m/s | -43.2°C | 49% | 273.5hPa | 4.5V | 00:00:00 | 00:00:00 | 00:00:00 | |
| DM0DOS-11 | 2026-09-02 23:04:22 | 50.60145 | 5.41367 | 117° | 117km/h | 10163m | 4m/s | -43.2°C | 49% | 273.8hPa | 4.5V | 00:00:00 | 00:47:16 | 00:00:00 | |
| DM0DOS-11 | 2026-09-02 23:04:14 | 50.60287 | 5.40955 | 118° | 120km/h | 10124m | 3.8m/s | -42.8°C | 49.7% | 275.4hPa | 4.5V | 00:00:00 | 00:47:06 | 00:00:00 | |
| BIOWL1-15 | 2026-09-02 23:04:11 | 50.60302 | 5.40913 | 120° | 120km/h | 10120m | 4m/s | -42.8°C | 49.8% | 275.6hPa | 4.5V | 00:00:00 | 00:00:00 | 00:00:00 | |
| DB0UT-7 | 2026-09-02 23:04:03 | 50.60377 | 5.40706 | 118° | 120km/h | 10101m | 3.8m/s | -42.5°C | 50.3% | 276.3hPa | 4.5V | 00:00:00 | 00:47:00 | 00:00:00 | |
| DM0DOS-11 | 2026-09-02 23:04:02 | 50.60434 | 5.40542 | 117° | 119km/h | 10086m | 4.1m/s | -42.5°C | 50.7% | 276.9hPa | 4.5V | 00:00:00 | 00:46:56 | 00:00:00 | |
| BIOWL1-15 | 2026-09-02 23:03:58 | 50.60475 | 5.40418 | 121° | 122km/h | 10073m | 4m/s | -42.4°C | 51.2% | 277.4hPa | 4.5V | 00:00:00 | 00:00:00 | 00:00:00 | |
| BIOWL1-15 | 2026-09-02 23:03:46 | 50.60639 | 5.39957 | 120° | 122km/h | 10031m | 4m/s | -42.3°C | 54.1% | 279.1hPa | 4.5V | 00:00:00 | 00:00:00 | 00:00:00 | |
| DM0DOS-11 | 2026-09-02 23:03:43 | 50.60744 | 5.39658 | 118° | 120km/h | 10005m | 3.9m/s | -42.4°C | 55.5% | 280.2hPa | 4.5V | 00:00:00 | 00:46:35 | 00:00:00 | |
| BIOWL1-15 | 2026-09-02 23:03:35 | 50.60837 | 5.39409 | 120° | 120km/h | 9982m | 5m/s | -42.2°C | 55.6% | 281.2hPa | 4.5V | 00:00:00 | 00:00:00 | 00:00:00 | |
| DM0DOS-11 | 2026-09-02 23:03:33 | 50.60899 | 5.39240 | 119° | 122km/h | 9966m | 4m/s | -42.1°C | 55.2% | 281.8hPa | 4.5V | 00:00:00 | 00:46:25 | 00:00:00 | |
| BIOWL1-15 | 2026-09-02 23:03:26 | 50.60977 | 5.39031 | 122° | 122km/h | 9946m | 4m/s | -41.9°C | 55.1% | 282.7hPa | 4.5V | 00:00:00 | 00:00:00 | 00:00:00 | |
| DM0DOS-11 | 2026-09-02 23:03:23 | 50.61059 | 5.38820 | 121° | 124km/h | 9925m | 4.1m/s | -41.7°C | 54.8% | 283.5hPa | 4.5V | 00:00:00 | 00:46:15 | 00:00:00 | |
| BIOWL1-15 | 2026-09-02 23:03:13 | 50.61157 | 5.38568 | 122° | 119km/h | 9900m | 4m/s | -41.5°C | 54.7% | 284.6hPa | 4.7V | 00:00:00 | 00:00:00 | 00:00:00 | |
| DM0DOS-11 | 2026-09-02 23:03:12 | 50.61222 | 5.38402 | 121° | 122km/h | 9884m | 4m/s | -41.3°C | 54.5% | 285.2hPa | 4.5V | 00:00:00 | 00:46:05 | 00:00:00 | |
| DB0UT-7 | 2026-09-02 23:03:03 | 50.61302 | 5.38191 | 123° | 124km/h | 9864m | 3.9m/s | -41.1°C | 54.7% | 286.0hPa | 4.5V | 00:00:00 | 00:46:00 | 00:00:00 | |
| DM0DOS-11 | 2026-09-02 23:03:02 | 50.61387 | 5.37980 | 121° | 120km/h | 9845m | 4m/s | -41°C | 54.6% | 286.9hPa | 4.5V | 00:00:00 | 00:45:55 | 00:00:00 | |
| BIOWL1-15 | 2026-09-02 23:03:02 | 50.61419 | 5.37898 | 120° | 115km/h | 9836m | 3m/s | -40.9°C | 54.7% | 287.2hPa | 4.5V | 00:00:00 | 00:00:00 | 00:00:00 | |
| DM0DOS-11 | 2026-09-02 23:02:50 | 50.61545 | 5.37558 | 120° | 122km/h | 9805m | 4.3m/s | -40.6°C | 55.1% | 288.6hPa | 4.8V | 00:00:00 | 00:45:45 | 00:00:00 | |
| BIOWL1-15 | 2026-09-02 23:02:45 | 50.61610 | 5.37394 | 123° | 122km/h | 9788m | 5m/s | -40.4°C | 55.2% | 289.3hPa | 4.5V | 00:00:00 | 00:00:00 | 00:00:00 | |
| DM0DOS-11 | 2026-09-02 23:02:42 | 50.61709 | 5.37138 | 118° | 124km/h | 9761m | 4.3m/s | -40.2°C | 55.6% | 290.4hPa | 4.5V | 00:00:00 | 00:45:35 | 00:00:00 | |
| BIOWL1-15 | 2026-09-02 23:02:34 | 50.61789 | 5.36925 | 121° | 119km/h | 9739m | 4m/s | -40.1°C | 55.9% | 291.3hPa | 4.5V | 00:00:00 | 00:00:00 | 00:00:00 | |
| BIOWL1-15 | 2026-09-02 23:02:24 | 50.62017 | 5.36333 | 120° | 124km/h | 9682m | 5m/s | -39.7°C | 56.9% | 293.8hPa | 4.5V | 00:00:00 | 00:00:00 | 00:00:00 | |
| DM0DOS-11 | 2026-09-02 23:02:21 | 50.62033 | 5.36290 | 118° | 124km/h | 9677m | 4.2m/s | -39.7°C | 56.6% | 293.9hPa | 4.5V | 00:00:00 | 00:45:15 | 00:00:00 | |
| BIOWL1-15 | 2026-09-02 23:02:13 | 50.62141 | 5.35991 | 121° | 120km/h | 9647m | 4m/s | -39.4°C | 56.7% | 295.2hPa | 4.5V | 00:00:00 | 00:00:00 | 00:00:00 | |
| DM0DOS-11 | 2026-09-02 23:02:11 | 50.62188 | 5.35865 | 119° | 124km/h | 9633m | 4.1m/s | -39.3°C | 56.5% | 295.8hPa | 4.5V | 00:00:00 | 00:45:05 | 00:00:00 | |
| BIOWL1-15 | 2026-09-02 23:02:03 | 50.62315 | 5.35521 | 119° | 122km/h | 9599m | 5m/s | -39°C | 56.7% | 297.3hPa | 4.8V | 00:00:00 | 00:00:00 | 00:00:00 | |
| DM0DOS-11 | 2026-09-02 23:02:01 | 50.62346 | 5.35435 | 120° | 120km/h | 9591m | 4.2m/s | -39°C | 56.5% | 297.6hPa | 4.8V | 00:00:00 | 00:44:55 | 00:00:00 | |
| DM0DOS-11 | 2026-09-02 23:01:51 | 50.62495 | 5.35009 | 119° | 122km/h | 9550m | 4.3m/s | -38.6°C | 56% | 299.4hPa | 4.5V | 00:00:00 | 00:44:45 | 00:00:00 | |
| BIOWL1-15 | 2026-09-02 23:01:51 | 50.62480 | 5.35052 | 119° | 124km/h | 9554m | 4m/s | -38.7°C | 56.2% | 299.2hPa | 4.5V | 00:00:00 | 00:00:00 | 00:00:00 | |
| DM0DOS-11 | 2026-09-02 23:01:41 | 50.62648 | 5.34577 | 118° | 122km/h | 9509m | 4.2m/s | -38.3°C | 55.3% | 301.2hPa | 4.5V | 00:00:00 | 00:44:35 | 00:00:00 | |
| BIOWL1-15 | 2026-09-02 23:01:39 | 50.62707 | 5.34406 | 118° | 124km/h | 9492m | 3m/s | -38.2°C | 55.1% | 302hPa | 4.8V | 00:00:00 | 00:00:00 | 00:00:00 | |
| DB0UT-7 | 2026-09-02 23:01:33 | 50.62721 | 5.34362 | 118° | 126km/h | 9489m | 4.2m/s | -38.1°C | 55.0% | 302.1hPa | 4.5V | 00:00:00 | 00:00:00 | 00:00:00 | |
| DM0DOS-11 | 2026-09-02 23:01:31 | 50.62796 | 5.34141 | 118° | 126km/h | 9467m | 4m/s | -38°C | 54.6% | 303hPa | 4.5V | 00:00:00 | 00:44:25 | 00:00:00 | |
| BIOWL1-15 | 2026-09-02 23:01:25 | 50.62887 | 5.33876 | 118° | 122km/h | 9443m | 4m/s | -37.8°C | 54.4% | 304.1hPa | 4.5V | 00:00:00 | 00:00:00 | 00:00:00 | |
| DM0DOS-11 | 2026-09-02 23:01:21 | 50.62946 | 5.33697 | 118° | 128km/h | 9426m | 4.2m/s | -37.6°C | 54.1% | 304.9hPa | 4.5V | 00:00:00 | 00:44:15 | 00:00:00 | |
| BIOWL1-15 | 2026-09-02 23:01:16 | 50.63024 | 5.33470 | 119° | 126km/h | 9404m | 3.5m/s | -37.5°C | 54.1% | 305.8hPa | 4.7V | 00:00:00 | 00:00:00 | 00:00:00 | |
| DM0DOS-11 | 2026-09-02 23:01:11 | 50.63100 | 5.33247 | 118° | 128km/h | 9384m | 4m/s | -37.3°C | 54% | 306.7hPa | 4.5V | 00:00:00 | 00:44:05 | 00:00:00 | |
| BIOWL1-15 | 2026-09-02 23:01:03 | 50.63221 | 5.32887 | 118° | 124km/h | 9352m | 5m/s | -37.2°C | 53.1% | 308.1hPa | 4.5V | 00:00:00 | 00:00:00 | 00:00:00 | |
| DM0DOS-11 | 2026-09-02 23:01:01 | 50.63251 | 5.32800 | 119° | 126km/h | 9343m | 4.2m/s | -37.1°C | 52.7% | 308.5hPa | 4.5V | 00:00:00 | 00:43:55 | 00:00:00 | |
| BIOWL1-15 | 2026-09-02 23:00:53 | 50.63345 | 5.32538 | 118° | 124km/h | 9318m | 4m/s | -36.9°C | 52% | 309.6hPa | 4.7V | 00:00:00 | 00:00:00 | 00:00:00 | |
| DM0DOS-11 | 2026-09-02 23:00:51 | 50.63408 | 5.32364 | 118° | 124km/h | 9302m | 4.4m/s | -36.8°C | 51.5% | 310.3hPa | 4.5V | 00:00:00 | 00:43:45 | 00:00:00 | |
| BIOWL1-15 | 2026-09-02 23:00:43 | 50.63501 | 5.32104 | 121° | 124km/h | 9276m | 3.8m/s | -36.8°C | 51% | 311.4hPa | 4.5V | 00:00:00 | 00:00:00 | 00:00:00 | |
| DM0DOS-11 | 2026-09-02 23:00:41 | 50.63566 | 5.31933 | 119° | 124km/h | 9261m | 4.4m/s | -36.8°C | 50.5% | 312.1hPa | 4.5V | 00:00:00 | 00:43:35 | 00:00:00 | |
| BIOWL1-15 | 2026-09-02 23:00:31 | 50.63686 | 5.31594 | 119° | 117km/h | 9224m | 3.5m/s | -36.7°C | 50.3% | 313.7hPa | 4.5V | 00:00:00 | 00:00:00 | 00:00:00 | |
| DM0DOS-11 | 2026-09-02 23:00:31 | 50.63715 | 5.31512 | 122° | 120km/h | 9217m | 4.6m/s | -36.7°C | 50.2% | 314.1hPa | 4.5V | 00:00:00 | 00:43:25 | 00:00:00 | |
| BIOWL1-15 | 2026-09-02 23:00:22 | 50.63860 | 5.31155 | 123° | 115km/h | 9174m | 4m/s | -36.4°C | 49.9% | 316hPa | 4.5V | 00:00:00 | 00:00:00 | 00:00:00 | |
| DM0DOS-11 | 2026-09-02 23:00:21 | 50.63876 | 5.31117 | 122° | 119km/h | 9170m | 4.2m/s | -36.3°C | 49.8% | 316.2hPa | 4.5V | 00:00:00 | 00:43:15 | 00:00:00 | |
| BIOWL1-15 | 2026-09-02 23:00:13 | 50.64110 | 5.30556 | 124° | 119km/h | 9110m | 4.2m/s | -35.8°C | 49.5% | 318.8hPa | 4.5V | 00:00:00 | 00:00:00 | 00:00:00 | |
| DM0DOS-11 | 2026-09-02 23:00:11 | 50.64043 | 5.30723 | 123° | 117km/h | 9126m | 3.8m/s | -35.9°C | 49.5% | 318.1hPa | 4.5V | 00:00:00 | 00:43:05 | 00:00:00 | |
| DB0UT-7 | 2026-09-02 23:00:02 | 50.64141 | 5.30475 | 125° | 119km/h | 9102m | 4.3m/s | -35.6°C | 49.3% | 319.2hPa | 4.6V | 00:00:00 | 00:42:59 | 00:00:00 | |
| DM0DOS-11 | 2026-09-02 23:00:00 | 50.64212 | 5.30318 | 123° | 117km/h | 9084m | 4.1m/s | -35.5°C | 49.3% | 320.1hPa | 4.6V | 00:00:00 | 00:42:55 | 00:00:00 | |
| BIOWL1-15 | 2026-09-02 22:59:50 | 50.64362 | 5.29970 | 125° | 122km/h | 9044m | 5m/s | -35.1°C | 49.4% | 321.9hPa | 4.5V | 00:00:00 | 00:00:00 | 00:00:00 | |
| DM0DOS-11 | 2026-09-02 22:59:50 | 50.64380 | 5.29930 | 122° | 119km/h | 9039m | 3.9m/s | -35.1°C | 49.3% | 322.1hPa | 4.5V | 00:00:00 | 00:42:45 | 00:00:00 | |
| DM0DOS-11 | 2026-09-02 22:59:44 | 50.64548 | 5.29535 | 124° | 119km/h | 9001m | 4.2m/s | -34.7°C | 49.8% | 324hPa | 4.8V | 00:00:00 | 00:42:35 | 00:00:00 | |
| BIOWL1-15 | 2026-09-02 22:59:41 | 50.64548 | 5.29535 | 125° | 120km/h | 9001m | 4m/s | -34.7°C | 49.9% | 324hPa | 4.8V | 00:00:00 | 00:00:00 | 00:00:00 | |
| DM0DOS-11 | 2026-09-02 22:59:33 | 50.64720 | 5.29139 | 123° | 117km/h | 8960m | 3.8m/s | -34.3°C | 50.5% | 325.9hPa | 4.5V | 00:00:00 | 00:42:25 | 00:00:00 | |
| BIOWL1-15 | 2026-09-02 22:59:31 | 50.64720 | 5.29139 | 123° | 117km/h | 8960m | 4m/s | -34.3°C | 50.5% | 325.9hPa | 4.5V | 00:00:00 | 00:00:00 | 00:00:00 | |
| DM0DOS-11 | 2026-09-02 22:59:23 | 50.64902 | 5.28706 | 122° | 120km/h | 8917m | 4m/s | -33.9°C | 51.7% | 327.9hPa | 4.8V | 00:00:00 | 00:42:14 | 00:00:00 | |
| BIOWL1-15 | 2026-09-02 22:59:18 | 50.64935 | 5.28621 | 123° | 119km/h | 8909m | 3.7m/s | -33.8°C | 52.1% | 328.3hPa | 4.5V | 00:00:00 | 00:00:00 | 00:00:00 | |
| DM0DOS-11 | 2026-09-02 22:59:12 | 50.65069 | 5.28308 | 122° | 122km/h | 8878m | 4m/s | -33.7°C | 53.5% | 329.7hPa | 4.5V | 00:00:00 | 00:42:04 | 00:00:00 | |
| BIOWL1-15 | 2026-09-02 22:59:05 | 50.65120 | 5.28182 | 122° | 122km/h | 8866m | 4m/s | -33.7°C | 53.9% | 330.3hPa | 4.6V | 00:00:00 | 00:00:00 | 00:00:00 | |
| DM0DOS-11 | 2026-09-02 22:59:02 | 50.65237 | 5.27899 | 121° | 122km/h | 8839m | 3.8m/s | -33.4°C | 54.8% | 331.5hPa | 4.5V | 00:00:00 | 00:41:54 | 00:00:00 | |
| BIOWL1-15 | 2026-09-02 22:58:53 | 50.65386 | 5.27531 | 124° | 120km/h | 8804m | 3m/s | -33.3°C | 56.4% | 333.1hPa | 4.6V | 00:00:00 | 00:00:00 | 00:00:00 | |
| DM0DOS-11 | 2026-09-02 22:58:52 | 50.65403 | 5.27491 | 123° | 122km/h | 8801m | 3.7m/s | -33.2°C | 56.5% | 333.2hPa | 4.6V | 00:00:00 | 00:41:44 | 00:00:00 | |
| DM0DOS-11 | 2026-09-02 22:58:42 | 50.65568 | 5.27080 | 120° | 122km/h | 8764m | 3.3m/s | -33.1°C | 58.3% | 335hPa | 4.5V | 00:00:00 | 00:41:34 | 00:00:00 | |
| BIOWL1-15 | 2026-09-02 22:58:40 | 50.65535 | 5.27162 | 124° | 120km/h | 8770m | 2m/s | -33.1°C | 58.2% | 334.7hPa | 4.8V | 00:00:00 | 00:00:00 | 00:00:00 | |
| DM0DOS-11 | 2026-09-02 22:58:32 | 50.65733 | 5.26666 | 121° | 120km/h | 8729m | 3.5m/s | -32.9°C | 58.6% | 336.7hPa | 4.6V | 00:00:00 | 00:41:24 | 00:00:00 | |
| BIOWL1-15 | 2026-09-02 22:58:27 | 50.65779 | 5.26541 | 120° | 120km/h | 8719m | 4m/s | -32.8°C | 58.9% | 337.2hPa | 4.8V | 00:00:00 | 00:00:00 | 00:00:00 | |
| DM0DOS-11 | 2026-09-02 22:58:22 | 50.65894 | 5.26250 | 120° | 120km/h | 8693m | 3.5m/s | -32.6°C | 59.3% | 338.4hPa | 4.5V | 00:00:00 | 00:41:14 | 00:00:00 | |
| BIOWL1-15 | 2026-09-02 22:58:13 | 50.65972 | 5.26043 | 120° | 119km/h | 8676m | 4m/s | -32.5°C | 59.4% | 339.3hPa | 4.6V | 00:00:00 | 00:00:00 | 00:00:00 | |
| BIOWL1-15 | 2026-09-02 22:58:03 | 50.66145 | 5.25593 | 123° | 117km/h | 8636m | 4m/s | -32.2°C | 60% | 341.2hPa | 4.5V | 00:00:00 | 00:00:00 | 00:00:00 | |
| DM0DOS-11 | 2026-09-02 22:58:02 | 50.66209 | 5.25433 | 122° | 119km/h | 8622m | 4m/s | -32°C | 60% | 341.8hPa | 4.6V | 00:00:00 | 00:40:54 | 00:00:00 | |
| DM0DOS-11 | 2026-09-02 22:57:52 | 50.66368 | 5.25033 | 121° | 115km/h | 8584m | 3.4m/s | -31.8°C | 61% | 343.7hPa | 4.8V | 00:00:00 | 00:40:44 | 00:00:00 | |
| BIOWL1-15 | 2026-09-02 22:57:51 | 50.66322 | 5.25151 | 122° | 115km/h | 8594m | 3.2m/s | -31.9°C | 60.9% | 343.2hPa | 4.8V | 00:00:00 | 00:00:00 | 00:00:00 | |
| DM0DOS-11 | 2026-09-02 22:57:42 | 50.66523 | 5.24632 | 121° | 115km/h | 8549m | 3.6m/s | -31.5°C | 61.8% | 345.3hPa | 4.6V | 00:00:00 | 00:40:34 | 00:00:00 | |
| BIOWL1-15 | 2026-09-02 22:57:37 | 50.66538 | 5.24593 | 121° | 113km/h | 8546m | 4m/s | -31.4°C | 62% | 345.5hPa | 4.6V | 00:00:00 | 00:00:00 | 00:00:00 | |
| DM0DOS-11 | 2026-09-02 22:57:32 | 50.66678 | 5.24232 | 121° | 115km/h | 8514m | 3.9m/s | -31.2°C | 63.1% | 347.2hPa | 4.8V | 00:00:00 | 00:40:24 | 00:00:00 | |
| BIOWL1-15 | 2026-09-02 22:57:27 | 50.66753 | 5.24033 | 121° | 115km/h | 8496m | 4m/s | -31.1°C | 64.1% | 348hPa | 4.6V | 00:00:00 | 00:00:00 | 00:00:00 | |
| DM0DOS-11 | 2026-09-02 22:57:22 | 50.66828 | 5.23833 | 120° | 117km/h | 8478m | 3.8m/s | -31°C | 64.5% | 348.9hPa | 4.6V | 00:00:00 | 00:40:14 | 00:00:00 | |
| BIOWL1-15 | 2026-09-02 22:57:16 | 50.66858 | 5.23752 | 121° | 115km/h | 8470m | 3m/s | -30.9°C | 64.9% | 349.2hPa | 4.8V | 00:00:00 | 00:00:00 | 00:00:00 | |
| DM0DOS-11 | 2026-09-02 22:57:12 | 50.66978 | 5.23436 | 121° | 117km/h | 8442m | 3.6m/s | -30.7°C | 65.1% | 350.6hPa | 4.6V | 00:00:00 | 00:40:04 | 00:00:00 | |
| BIOWL1-15 | 2026-09-02 22:57:06 | 50.67008 | 5.23356 | 122° | 120km/h | 8435m | 4m/s | -30.6°C | 65.3% | 351hPa | 4.6V | 00:00:00 | 00:00:00 | 00:00:00 | |
| DM0DOS-11 | 2026-09-02 22:57:02 | 50.67146 | 5.22995 | 120° | 115km/h | 8402m | 3.6m/s | -30.4°C | 65.5% | 352.6hPa | 4.8V | 00:00:00 | 00:39:53 | 00:00:00 | |
| BIOWL1-15 | 2026-09-02 22:56:54 | 50.67191 | 5.22875 | 123° | 115km/h | 8391m | 4m/s | -30.3°C | 65.7% | 353.1hPa | 4.8V | 00:00:00 | 00:00:00 | 00:00:00 | |
| DM0DOS-11 | 2026-09-02 22:56:51 | 50.67298 | 5.22601 | 118° | 115km/h | 8365m | 3.4m/s | -30.1°C | 65.5% | 354.3hPa | 4.6V | 00:00:00 | 00:39:43 | 00:00:00 | |
| BIOWL1-15 | 2026-09-02 22:56:43 | 50.67357 | 5.22440 | 123° | 115km/h | 8351m | 3m/s | -30°C | 65.2% | 355.1hPa | 4.6V | 00:00:00 | 00:00:00 | 00:00:00 | |
| DM0DOS-11 | 2026-09-02 22:56:41 | 50.67449 | 5.22205 | 121° | 115km/h | 8330m | 3.7m/s | -29.8°C | 64.9% | 356.1hPa | 4.8V | 00:00:00 | 00:39:33 | 00:00:00 | |
| BIOWL1-15 | 2026-09-02 22:56:33 | 50.67509 | 5.22047 | 122° | 115km/h | 8315m | 4.5m/s | -29.7°C | 64.8% | 356.9hPa | 4.6V | 00:00:00 | 00:00:00 | 00:00:00 | |
| DB0UT-7 | 2026-09-02 22:56:32 | 50.67509 | 5.22047 | 124° | 115km/h | 8315m | 3.7m/s | -29.6°C | 64.7% | 356.8hPa | 4.6V | 00:00:00 | 00:00:00 | 00:00:00 | |
| DM0DOS-11 | 2026-09-02 22:56:31 | 50.67601 | 5.21815 | 120° | 113km/h | 8294m | 3.8m/s | -29.5°C | 64.7% | 357.9hPa | 4.6V | 00:00:00 | 00:39:23 | 00:00:00 | |
| BIOWL1-15 | 2026-09-02 22:56:24 | 50.67675 | 5.21619 | 123° | 115km/h | 8275m | 3m/s | -29.4°C | 65.2% | 358.9hPa | 4.9V | 00:00:00 | 00:00:00 | 00:00:00 | |
| DM0DOS-11 | 2026-09-02 22:56:21 | 50.67752 | 5.21427 | 122° | 115km/h | 8257m | 3.5m/s | -29.3°C | 65.5% | 359.8hPa | 4.8V | 00:00:00 | 00:39:13 | 00:00:00 | |
| BIOWL1-15 | 2026-09-02 22:56:11 | 50.67846 | 5.21195 | 122° | 115km/h | 8236m | 4m/s | -29.2°C | 65.7% | 360.8hPa | 4.6V | 00:00:00 | 00:00:00 | 00:00:00 | |
| DB0UT-7 | 2026-09-02 22:56:02 | 50.67967 | 5.20882 | 124° | 113km/h | 8207m | 3.8m/s | -28.9°C | 66.1% | 362.3hPa | 4.9V | 00:00:00 | 00:38:59 | 00:00:00 | |
| DM0DOS-11 | 2026-09-02 22:56:01 | 50.68074 | 5.20613 | 119° | 113km/h | 8180m | 3.6m/s | -28.7°C | 66.4% | 363.6hPa | 4.6V | 00:00:00 | 00:38:52 | 00:00:00 | |
| BIOWL1-15 | 2026-09-02 22:56:00 | 50.68029 | 5.20727 | 122° | 113km/h | 8192m | 4m/s | -28.8°C | 66.4% | 363.1hPa | 4.8V | 00:00:00 | 00:00:00 | 00:00:00 | |
| BIOWL1-15 | 2026-09-02 22:55:52 | 50.68164 | 5.20383 | 123° | 115km/h | 8158m | 3.7m/s | -28.5°C | 66.4% | 364.7hPa | 4.6V | 00:00:00 | 00:00:00 | 00:00:00 | |
| DM0DOS-11 | 2026-09-02 22:55:50 | 50.68243 | 5.20187 | 122° | 113km/h | 8139m | 4m/s | -28.4°C | 66.2% | 365.7hPa | 4.8V | 00:00:00 | 00:38:41 | 00:00:00 | |
| DM0DOS-11 | 2026-09-02 22:55:39 | 50.68394 | 5.19801 | 121° | 111km/h | 8099m | 3.9m/s | -28°C | 66.5% | 367.6hPa | 4.6V | 00:00:00 | 00:38:31 | 00:00:00 | |
| BIOWL1-15 | 2026-09-02 22:55:38 | 50.68347 | 5.19919 | 123° | 117km/h | 8111m | 4m/s | -28.1°C | 66.5% | 367hPa | 4.6V | 00:00:00 | 00:00:00 | 00:00:00 | |
| DB0UT-7 | 2026-09-02 22:55:32 | 50.68424 | 5.19724 | 120° | 111km/h | 8091m | 3.7m/s | -27.9°C | 66.5% | 368.0hPa | 4.8V | 00:00:00 | 00:00:00 | 00:00:00 | |
| DM0DOS-11 | 2026-09-02 22:55:29 | 50.68539 | 5.19415 | 119° | 111km/h | 8061m | 3.8m/s | -27.7°C | 67% | 369.6hPa | 4.8V | 00:00:00 | 00:38:21 | 00:00:00 | |
| BIOWL1-15 | 2026-09-02 22:55:26 | 50.68539 | 5.19415 | 120° | 113km/h | 8061m | 3m/s | -27.7°C | 67% | 369.6hPa | 4.8V | 00:00:00 | 00:00:00 | 00:00:00 | |
| DM0DOS-11 | 2026-09-02 22:55:19 | 50.68714 | 5.18952 | 118° | 110km/h | 8016m | 3.8m/s | -27.4°C | 67.9% | 371.9hPa | 4.9V | 00:00:00 | 00:38:09 | 00:00:00 | |
| BIOWL1-15 | 2026-09-02 22:55:17 | 50.68699 | 5.18990 | 120° | 113km/h | 8020m | 4m/s | -27.4°C | 67.7% | 371.7hPa | 4.9V | 00:00:00 | 00:00:00 | 00:00:00 | |
| DM0DOS-11 | 2026-09-02 22:55:07 | 50.68853 | 5.18562 | 118° | 111km/h | 7978m | 3.9m/s | -27.1°C | 68.5% | 374hPa | 4.6V | 00:00:00 | 00:37:59 | 00:00:00 | |
| BIOWL1-15 | 2026-09-02 22:55:03 | 50.68853 | 5.18562 | 118° | 117km/h | 7978m | 4m/s | -27.1°C | 68.5% | 374hPa | 4.6V | 00:00:00 | 00:00:00 | 00:00:00 | |
| DM0DOS-11 | 2026-09-02 22:54:57 | 50.68972 | 5.18172 | 116° | 111km/h | 7940m | 4.1m/s | -26.8°C | 68.9% | 375.9hPa | 4.9V | 00:00:00 | 00:37:49 | 00:00:00 | |
| BIOWL1-15 | 2026-09-02 22:54:53 | 50.68972 | 5.18172 | 116° | 110km/h | 7940m | 4m/s | -26.8°C | 68.9% | 376hPa | 4.9V | 00:00:00 | 00:00:00 | 00:00:00 | |
| DM0DOS-11 | 2026-09-02 22:54:47 | 50.69135 | 5.17649 | 115° | 111km/h | 7888m | 3.5m/s | -26.4°C | 69.4% | 378.6hPa | 4.6V | 00:00:00 | 00:37:36 | 00:00:00 | |
| BIOWL1-15 | 2026-09-02 22:54:44 | 50.69159 | 5.17569 | 117° | 111km/h | 7881m | 3m/s | -26.3°C | 69.4% | 379hPa | 4.9V | 00:00:00 | 00:00:00 | 00:00:00 | |
| DM0DOS-11 | 2026-09-02 22:54:34 | 50.69230 | 5.17330 | 115° | 108km/h | 7859m | 3.7m/s | -26.1°C | 69.2% | 380.1hPa | 4.9V | 00:00:00 | 00:37:28 | 00:00:00 | |
| BIOWL1-15 | 2026-09-02 22:54:32 | 50.69230 | 5.17330 | 116° | 108km/h | 7859m | 4m/s | -26.1°C | 69.3% | 380.1hPa | 4.9V | 00:00:00 | 00:00:00 | 00:00:00 | |
| DM0DOS-11 | 2026-09-02 22:54:23 | 50.69349 | 5.16931 | 114° | 111km/h | 7822m | 3.8m/s | -25.8°C | 69% | 382hPa | 4.9V | 00:00:00 | 00:37:18 | 00:00:00 | |
| BIOWL1-15 | 2026-09-02 22:54:22 | 50.69349 | 5.16931 | 114° | 111km/h | 7822m | 4m/s | -25.9°C | 69% | 382hPa | 4.9V | 00:00:00 | 00:00:00 | 00:00:00 | |
| DM0DOS-11 | 2026-09-02 22:54:13 | 50.69473 | 5.16528 | 115° | 111km/h | 7785m | 3.8m/s | -25.6°C | 69.6% | 383.9hPa | 4.6V | 00:00:00 | 00:37:08 | 00:00:00 | |
| BIOWL1-15 | 2026-09-02 22:54:11 | 50.69485 | 5.16488 | 115° | 113km/h | 7781m | 3.5m/s | -25.6°C | 69.9% | 384.1hPa | 4.6V | 00:00:00 | 00:00:00 | 00:00:00 | |
| DM0DOS-11 | 2026-09-02 22:54:08 | 50.69612 | 5.16082 | 115° | 110km/h | 7743m | 3.7m/s | -25.3°C | 70.9% | 386.2hPa | 4.9V | 00:00:00 | 00:36:57 | 00:00:00 | |
| BIOWL1-15 | 2026-09-02 22:54:00 | 50.69660 | 5.15923 | 116° | 111km/h | 7728m | 4m/s | -25.2°C | 71.1% | 386.9hPa | 4.9V | 00:00:00 | 00:00:00 | 00:00:00 | |
| DM0DOS-11 | 2026-09-02 22:53:55 | 50.69734 | 5.15684 | 114° | 111km/h | 7705m | 3.9m/s | -25°C | 71% | 388.1hPa | 4.6V | 00:00:00 | 00:36:47 | 00:00:00 | |
| BIOWL1-15 | 2026-09-02 22:53:48 | 50.69794 | 5.15483 | 114° | 113km/h | 7685m | 3m/s | -25°C | 70.8% | 389.1hPa | 4.9V | 00:00:00 | 00:00:00 | 00:00:00 | |
| DM0DOS-11 | 2026-09-02 22:53:44 | 50.69855 | 5.15282 | 117° | 110km/h | 7667m | 3.8m/s | -24.9°C | 70.5% | 390.2hPa | 4.9V | 00:00:00 | 00:36:37 | 00:00:00 | |
| BIOWL1-15 | 2026-09-02 22:53:35 | 50.69958 | 5.14968 | 116° | 110km/h | 7638m | 4m/s | -24.6°C | 70.4% | 391.7hPa | 4.6V | 00:00:00 | 00:00:00 | 00:00:00 | |
| DM0DOS-11 | 2026-09-02 22:53:34 | 50.69983 | 5.14889 | 115° | 108km/h | 7629m | 4m/s | -24.6°C | 70.5% | 392.1hPa | 4.7V | 00:00:00 | 00:36:27 | 00:00:00 | |
| BIOWL1-15 | 2026-09-02 22:53:23 | 50.70136 | 5.14439 | 118° | 106km/h | 7582m | 3.8m/s | -24.2°C | 71.4% | 394.7hPa | 4.9V | 00:00:00 | 00:00:00 | 00:00:00 | |
| DM0DOS-11 | 2026-09-02 22:53:21 | 50.70111 | 5.14516 | 117° | 108km/h | 7590m | 4m/s | -24.3°C | 71.4% | 394.3hPa | 4.9V | 00:00:00 | 00:36:17 | 00:00:00 | |
| BIOWL1-15 | 2026-09-02 22:53:12 | 50.70223 | 5.14176 | 119° | 108km/h | 7556m | 3.5m/s | -24.1°C | 71.2% | 396.1hPa | 4.7V | 00:00:00 | 00:00:00 | 00:00:00 | |
| DM0DOS-11 | 2026-09-02 22:53:11 | 50.70236 | 5.14138 | 118° | 110km/h | 7553m | 3.8m/s | -24°C | 71.1% | 396.2hPa | 4.9V | 00:00:00 | 00:36:07 | 00:00:00 | |
| DM0DOS-11 | 2026-09-02 22:53:06 | 50.70391 | 5.13680 | 120° | 106km/h | 7508m | 4.2m/s | -23.7°C | 70.4% | 398.7hPa | 4.6V | 00:00:00 | 00:35:55 | 00:00:00 | |
| BIOWL1-15 | 2026-09-02 22:53:00 | 50.70404 | 5.13644 | 120° | 108km/h | 7503m | 4m/s | -23.7°C | 70.4% | 398.9hPa | 4.6V | 00:00:00 | 00:00:00 | 00:00:00 | |
| DM0DOS-11 | 2026-09-02 22:52:53 | 50.70494 | 5.13386 | 118° | 104km/h | 7475m | 3.8m/s | -23.5°C | 70% | 400.4hPa | 4.9V | 00:00:00 | 00:35:47 | 00:00:00 | |
| BIOWL1-15 | 2026-09-02 22:52:50 | 50.70507 | 5.13350 | 119° | 106km/h | 7471m | 3m/s | -23.5°C | 70% | 400.6hPa | 4.9V | 00:00:00 | 00:00:00 | 00:00:00 | |
| BIOWL1-15 | 2026-09-02 22:52:45 | 50.70644 | 5.12946 | 122° | 106km/h | 7426m | 4m/s | -23.2°C | 69% | 403hPa | 4.6V | 00:00:00 | 00:00:00 | 00:00:00 | |
| DM0DOS-11 | 2026-09-02 22:52:42 | 50.70617 | 5.13016 | 119° | 104km/h | 7435m | 4.3m/s | -23.2°C | 69.2% | 402.5hPa | 4.9V | 00:00:00 | 00:35:37 | 00:00:00 | |
| DM0DOS-11 | 2026-09-02 22:52:32 | 50.70753 | 5.12660 | 122° | 100km/h | 7393m | 4.5m/s | -22.9°C | 68.6% | 404.9hPa | 4.9V | 00:00:00 | 00:35:27 | 00:00:00 | |
| BIOWL1-15 | 2026-09-02 22:52:28 | 50.70796 | 5.12561 | 125° | 100km/h | 7378m | 4m/s | -22.9°C | 68.7% | 405.6hPa | 4.9V | 00:00:00 | 00:00:00 | 00:00:00 | |
| DM0DOS-11 | 2026-09-02 22:52:22 | 50.70892 | 5.12324 | 122° | 102km/h | 7348m | 4m/s | -22.6°C | 68.5% | 407.4hPa | 4.6V | 00:00:00 | 00:35:17 | 00:00:00 | |
| BIOWL1-15 | 2026-09-02 22:52:17 | 50.70946 | 5.12183 | 120° | 104km/h | 7332m | 4m/s | -22.5°C | 68.7% | 408.2hPa | 4.9V | 00:00:00 | 00:00:00 | 00:00:00 | |
| DM0DOS-11 | 2026-09-02 22:52:12 | 50.71028 | 5.11979 | 123° | 100km/h | 7308m | 3.8m/s | -22.3°C | 68.2% | 409.6hPa | 4.9V | 00:00:00 | 00:35:07 | 00:00:00 | |
| BIOWL1-15 | 2026-09-02 22:52:06 | 50.71095 | 5.11806 | 122° | 104km/h | 7289m | 3.5m/s | -22.2°C | 68.3% | 410.6hPa | 4.9V | 00:00:00 | 00:00:00 | 00:00:00 | |
| DM0DOS-11 | 2026-09-02 22:52:02 | 50.71168 | 5.11636 | 122° | 95km/h | 7270m | 4.3m/s | -22°C | 68% | 411.6hPa | 4.6V | 00:00:00 | 00:34:57 | 00:00:00 | |
| BIOWL1-15 | 2026-09-02 22:51:53 | 50.71296 | 5.11315 | 126° | 91km/h | 7225m | 4m/s | -21.6°C | 67.7% | 414.1hPa | 4.9V | 00:00:00 | 00:00:00 | 00:00:00 | |
| DM0DOS-11 | 2026-09-02 22:51:52 | 50.71296 | 5.11315 | 126° | 95km/h | 7225m | 4.4m/s | -21.6°C | 67.6% | 414.1hPa | 4.9V | 00:00:00 | 00:34:47 | 00:00:00 | |
| DM0DOS-11 | 2026-09-02 22:51:47 | 50.71426 | 5.10987 | 118° | 93km/h | 7177m | 4.6m/s | -21.3°C | 68.2% | 416.9hPa | 4.6V | 00:00:00 | 00:34:37 | 00:00:00 | |
| BIOWL1-15 | 2026-09-02 22:51:40 | 50.71460 | 5.10889 | 121° | 95km/h | 7162m | 4m/s | -21.2°C | 68.3% | 417.8hPa | 4.9V | 00:00:00 | 00:00:00 | 00:00:00 | |
| DM0DOS-11 | 2026-09-02 22:51:32 | 50.71546 | 5.10659 | 119° | 91km/h | 7133m | 3.8m/s | -20.9°C | 67.6% | 419.4hPa | 4.9V | 00:00:00 | 00:34:27 | 00:00:00 | |
| BIOWL1-15 | 2026-09-02 22:51:28 | 50.71638 | 5.10402 | 121° | 95km/h | 7102m | 4m/s | -20.7°C | 67.3% | 421.2hPa | 4.7V | 00:00:00 | 00:00:00 | 00:00:00 | |
| DM0DOS-11 | 2026-09-02 22:51:22 | 50.71662 | 5.10337 | 119° | 91km/h | 7093m | 3.6m/s | -20.6°C | 67.1% | 421.6hPa | 4.7V | 00:00:00 | 00:34:17 | 00:00:00 | |
| BIOWL1-15 | 2026-09-02 22:51:15 | 50.71802 | 5.09912 | 115° | 91km/h | 7044m | 4m/s | -20.3°C | 66.8% | 424.6hPa | 4.9V | 00:00:00 | 00:00:00 | 00:00:00 | |
| DM0DOS-11 | 2026-09-02 22:51:12 | 50.71769 | 5.10010 | 118° | 91km/h | 7055m | 3.9m/s | -20.3°C | 66.7% | 423.9hPa | 4.9V | 00:00:00 | 00:34:07 | 00:00:00 | |
| DM0DOS-11 | 2026-09-02 22:51:02 | 50.71875 | 5.09691 | 116° | 88km/h | 7013m | 4.2m/s | -20°C | 67% | 426.3hPa | 4.7V | 00:00:00 | 00:33:57 | 00:00:00 | |
| BIOWL1-15 | 2026-09-02 22:51:00 | 50.71895 | 5.09626 | 113° | 88km/h | 7004m | 4m/s | -20°C | 67% | 426.9hPa | 4.7V | 00:00:00 | 00:00:00 | 00:00:00 | |
| DM0DOS-11 | 2026-09-02 22:50:55 | 50.71972 | 5.09377 | 118° | 88km/h | 6973m | 4.4m/s | -19.8°C | 65% | 428.7hPa | 4.9V | 00:00:00 | 00:33:47 | 00:00:00 | |
| BIOWL1-15 | 2026-09-02 22:50:50 | 50.71992 | 5.09315 | 114° | 86km/h | 6964m | 4m/s | -19.7°C | 64.4% | 429.1hPa | 4.9V | 00:00:00 | 00:00:00 | 00:00:00 | |
| DM0DOS-11 | 2026-09-02 22:50:44 | 50.72067 | 5.09061 | 118° | 89km/h | 6930m | 4.1m/s | -19.5°C | 60.5% | 430.9hPa | 4.7V | 00:00:00 | 00:33:37 | 00:00:00 | |
| BIOWL1-15 | 2026-09-02 22:50:39 | 50.72125 | 5.08862 | 114° | 91km/h | 6905m | 5m/s | -19.4°C | 56.9% | 432.5hPa | 4.9V | 00:00:00 | 00:00:00 | 00:00:00 | |
| DM0DOS-11 | 2026-09-02 22:50:33 | 50.72159 | 5.08733 | 113° | 86km/h | 6886m | 4.3m/s | -19.2°C | 53.6% | 433.6hPa | 4.9V | 00:00:00 | 00:33:27 | 00:00:00 | |
| BIOWL1-15 | 2026-09-02 22:50:33 | 50.72213 | 5.08543 | 117° | 88km/h | 6861m | 4m/s | -19.1°C | 47.2% | 435.1hPa | 4.9V | 00:00:00 | 00:00:00 | 00:00:00 | |
| DB0UT-7 | 2026-09-02 22:50:32 | 50.72143 | 5.08797 | 112° | 82km/h | 6896m | 4.5m/s | -19.3°C | 55.2% | 432.9hPa | 4.7V | 00:00:00 | 00:00:00 | 00:00:00 | |
| DM0DOS-11 | 2026-09-02 22:50:25 | 50.72247 | 5.08420 | 111° | 88km/h | 6846m | 4m/s | -19.1°C | 40.3% | 436hPa | 4.7V | 00:00:00 | 00:33:17 | 00:00:00 | |
| BIOWL1-15 | 2026-09-02 22:50:17 | 50.72328 | 5.08097 | 107° | 78km/h | 6796m | 5m/s | -18.9°C | 27.4% | 439.1hPa | 4.9V | 00:00:00 | 00:00:00 | 00:00:00 | |
| DM0DOS-11 | 2026-09-02 22:50:13 | 50.72328 | 5.08097 | 106° | 77km/h | 6796m | 4.1m/s | -18.9°C | 27.3% | 439.1hPa | 4.9V | 00:00:00 | 00:33:07 | 00:00:00 | |
| BIOWL1-15 | 2026-09-02 22:50:05 | 50.72384 | 5.07838 | 108° | 75km/h | 6761m | 5m/s | -18.8°C | 27.2% | 441.2hPa | 4.9V | 00:00:00 | 00:00:00 | 00:00:00 | |
| DB0UT-7 | 2026-09-02 22:50:02 | 50.72378 | 5.07866 | 110° | 78km/h | 6765m | 4.1m/s | -18.8°C | 27.1% | 441.0hPa | 4.9V | 00:00:00 | 00:32:59 | 00:00:00 | |
| DM0DOS-11 | 2026-09-02 22:50:01 | 50.72390 | 5.07810 | 108° | 77km/h | 6756m | 3.9m/s | -18.8°C | 27.2% | 441.5hPa | 4.9V | 00:00:00 | 00:32:57 | 00:00:00 | |
| DM0DOS-11 | 2026-09-02 22:49:55 | 50.72454 | 5.07527 | 107° | 78km/h | 6716m | 4.1m/s | -18.8°C | 28% | 443.8hPa | 4.9V | 00:00:00 | 00:32:47 | 00:00:00 | |
| BIOWL1-15 | 2026-09-02 22:49:55 | 50.72472 | 5.07437 | 112° | 78km/h | 6703m | 3m/s | -18.8°C | 28.1% | 444.4hPa | 4.9V | 00:00:00 | 00:00:00 | 00:00:00 | |
| DM0DOS-11 | 2026-09-02 22:49:43 | 50.72528 | 5.07233 | 111° | 80km/h | 6675m | 4.2m/s | -18.6°C | 27.6% | 446.1hPa | 4.9V | 00:00:00 | 00:32:37 | 00:00:00 | |
| BIOWL1-15 | 2026-09-02 22:49:43 | 50.72521 | 5.07262 | 112° | 78km/h | 6678m | 3m/s | -18.6°C | 27.8% | 445.9hPa | 4.9V | 00:00:00 | 00:00:00 | 00:00:00 | |
| BIOWL1-15 | 2026-09-02 22:49:38 | 50.72649 | 5.06798 | 117° | 80km/h | 6614m | 5m/s | -18.2°C | 24.9% | 449.7hPa | 5V | 00:00:00 | 00:00:00 | 00:00:00 | |
| DM0DOS-11 | 2026-09-02 22:49:32 | 50.72609 | 5.06942 | 112° | 78km/h | 6635m | 4.3m/s | -18.3°C | 26.5% | 448.5hPa | 5V | 00:00:00 | 00:32:27 | 00:00:00 | |
| DM0DOS-11 | 2026-09-02 22:49:25 | 50.72702 | 5.06624 | 114° | 80km/h | 6590m | 4.1m/s | -18°C | 21.3% | 451.1hPa | 4.9V | 00:00:00 | 00:32:16 | 00:00:00 | |
| BIOWL1-15 | 2026-09-02 22:49:16 | 50.72787 | 5.06327 | 114° | 84km/h | 6550m | 4m/s | -17.7°C | 14.7% | 453.5hPa | 5V | 00:00:00 | 00:00:00 | 00:00:00 | |
| DM0DOS-11 | 2026-09-02 22:49:14 | 50.72787 | 5.06327 | 114° | 80km/h | 6550m | 4.3m/s | -17.7°C | 14.6% | 453.5hPa | 5V | 00:00:00 | 00:32:06 | 00:00:00 | |
| BIOWL1-15 | 2026-09-02 22:48:59 | 50.72890 | 5.05973 | 116° | 77km/h | 6496m | 4.3m/s | -17.2°C | 11.2% | 456.7hPa | 5V | 00:00:00 | 00:00:00 | 00:00:00 | |
| DM0DOS-11 | 2026-09-02 22:48:51 | 50.72955 | 5.05741 | 114° | 78km/h | 6463m | 4m/s | -16.9°C | 10.1% | 458.6hPa | 4.9V | 00:00:00 | 00:31:46 | 00:00:00 | |
| BIOWL1-15 | 2026-09-02 22:48:46 | 50.73011 | 5.05539 | 113° | 78km/h | 6434m | 4m/s | -16.6°C | 9.6% | 460.3hPa | 5V | 00:00:00 | 00:00:00 | 00:00:00 | |
| DM0DOS-11 | 2026-09-02 22:48:46 | 50.73043 | 5.05426 | 114° | 78km/h | 6418m | 4m/s | -16.5°C | 9.3% | 461.3hPa | 5V | 00:00:00 | 00:31:35 | 00:00:00 | |
| BIOWL1-15 | 2026-09-02 22:48:35 | 50.73109 | 5.05199 | 113° | 77km/h | 6385m | 4m/s | -16.2°C | 8.9% | 463.3hPa | 5V | 00:00:00 | 00:00:00 | 00:00:00 | |
| DM0DOS-11 | 2026-09-02 22:48:32 | 50.73116 | 5.05172 | 114° | 77km/h | 6381m | 4.3m/s | -16.1°C | 8.8% | 463.6hPa | 5V | 00:00:00 | 00:31:26 | 00:00:00 | |
| BIOWL1-15 | 2026-09-02 22:48:24 | 50.73205 | 5.04905 | 120° | 73km/h | 6339m | 6m/s | -15.8°C | 8.7% | 466.2hPa | 5V | 00:00:00 | 00:00:00 | 00:00:00 | |
| DM0DOS-11 | 2026-09-02 22:48:20 | 50.73205 | 5.04905 | 119° | 73km/h | 6339m | 5.5m/s | -15.8°C | 8.6% | 466.2hPa | 5V | 00:00:00 | 00:31:16 | 00:00:00 | |
| DM0DOS-11 | 2026-09-02 22:48:14 | 50.73285 | 5.04641 | 114° | 73km/h | 6288m | 4.1m/s | -15.5°C | 8.8% | 469.4hPa | 5V | 00:00:00 | 00:31:06 | 00:00:00 | |
| BIOWL1-15 | 2026-09-02 22:48:13 | 50.73293 | 5.04613 | 118° | 75km/h | 6284m | 4m/s | -15.4°C | 8.9% | 469.6hPa | 5V | 00:00:00 | 00:00:00 | 00:00:00 | |
| DM0DOS-11 | 2026-09-02 22:48:02 | 50.73364 | 5.04384 | 114° | 68km/h | 6245m | 4.1m/s | -15.2°C | 8.8% | 472.1hPa | 5V | 00:00:00 | 00:30:56 | 00:00:00 | |
| BIOWL1-15 | 2026-09-02 22:48:01 | 50.73357 | 5.04407 | 117° | 64km/h | 6250m | 5m/s | -15.2°C | 8.8% | 471.8hPa | 5V | 00:00:00 | 00:00:00 | 00:00:00 | |
| BIOWL1-15 | 2026-09-02 22:47:51 | 50.73449 | 5.04110 | 114° | 66km/h | 6201m | 4m/s | -14.8°C | 8.7% | 474.9hPa | 5V | 00:00:00 | 00:00:00 | 00:00:00 | |
| DM0DOS-11 | 2026-09-02 22:47:50 | 50.73441 | 5.04134 | 116° | 68km/h | 6205m | 3.9m/s | -14.8°C | 8.6% | 474.6hPa | 5V | 00:00:00 | 00:30:46 | 00:00:00 | |
| DM0DOS-11 | 2026-09-02 22:47:44 | 50.73512 | 5.03896 | 115° | 69km/h | 6164m | 4m/s | -14.5°C | 8.8% | 477.2hPa | 5V | 00:00:00 | 00:30:36 | 00:00:00 | |
| BIOWL1-15 | 2026-09-02 22:47:39 | 50.73519 | 5.03872 | 116° | 69km/h | 6161m | 4m/s | -14.4°C | 8.8% | 477.4hPa | 5V | 00:00:00 | 00:00:00 | 00:00:00 | |
| DM0DOS-11 | 2026-09-02 22:47:33 | 50.73589 | 5.03648 | 116° | 69km/h | 6122m | 3.9m/s | -14.1°C | 9% | 479.8hPa | 5V | 00:00:00 | 00:30:26 | 00:00:00 | |
| BIOWL1-15 | 2026-09-02 22:47:28 | 50.73620 | 5.03548 | 115° | 69km/h | 6107m | 4m/s | -14.1°C | 9.3% | 480.8hPa | 5V | 00:00:00 | 00:00:00 | 00:00:00 | |
| DM0DOS-11 | 2026-09-02 22:47:24 | 50.73671 | 5.03365 | 115° | 69km/h | 6079m | 4m/s | -13.9°C | 9.5% | 482.5hPa | 5V | 00:00:00 | 00:30:15 | 00:00:00 | |
| BIOWL1-15 | 2026-09-02 22:47:15 | 50.73707 | 5.03237 | 111° | 69km/h | 6059m | 4m/s | -13.8°C | 9.5% | 483.8hPa | 5V | 00:00:00 | 00:00:00 | 00:00:00 | |
| DM0DOS-11 | 2026-09-02 22:47:12 | 50.73735 | 5.03139 | 116° | 68km/h | 6043m | 3.9m/s | -13.7°C | 9.5% | 484.8hPa | 5V | 00:00:00 | 00:30:06 | 00:00:00 | |
| BIOWL1-15 | 2026-09-02 22:47:05 | 50.73773 | 5.03016 | 113° | 71km/h | 6023m | 3m/s | -13.6°C | 9.5% | 486hPa | 5V | 00:00:00 | 00:00:00 | 00:00:00 | |
| DB0UT-7 | 2026-09-02 22:47:02 | 50.73786 | 5.02964 | 114° | 73km/h | 6016m | 4.2m/s | -13.5°C | 9.5% | 486.5hPa | 5.0V | 00:00:00 | 00:29:59 | 00:00:00 | |
| DM0DOS-11 | 2026-09-02 22:47:01 | 50.73809 | 5.02885 | 114° | 73km/h | 6003m | 4m/s | -13.4°C | 9.5% | 487.3hPa | 5V | 00:00:00 | 00:29:56 | 00:00:00 | |
| BIOWL1-15 | 2026-09-02 22:46:54 | 50.73856 | 5.02727 | 114° | 73km/h | 5980m | 5m/s | -13.2°C | 9.5% | 488.8hPa | 5V | 00:00:00 | 00:00:00 | 00:00:00 | |
| BIOWL1-15 | 2026-09-02 22:46:46 | 50.73938 | 5.02462 | 118° | 75km/h | 5940m | 3.5m/s | -13°C | 9.5% | 491.4hPa | 5V | 00:00:00 | 00:00:00 | 00:00:00 | |
| DM0DOS-11 | 2026-09-02 22:46:42 | 50.73975 | 5.02359 | 120° | 73km/h | 5924m | 3.7m/s | -12.8°C | 9.5% | 492.4hPa | 5V | 00:00:00 | 00:29:36 | 00:00:00 | |
| BIOWL1-15 | 2026-09-02 22:46:35 | 50.74036 | 5.02180 | 117° | 77km/h | 5898m | 4m/s | -12.6°C | 9.6% | 494hPa | 5V | 00:00:00 | 00:00:00 | 00:00:00 | |
| DB0UT-7 | 2026-09-02 22:46:32 | 50.74036 | 5.02180 | 116° | 73km/h | 5898m | 3.8m/s | -12.6°C | 9.5% | 494.0hPa | 5V | 00:00:00 | 00:00:00 | 00:00:00 | |
| DM0DOS-11 | 2026-09-02 22:46:30 | 50.74063 | 5.02098 | 123° | 73km/h | 5886m | 3.6m/s | -12.6°C | 9.5% | 494.8hPa | 5V | 00:00:00 | 00:29:26 | 00:00:00 | |
| DM0DOS-11 | 2026-09-02 22:46:24 | 50.74167 | 5.01791 | 118° | 75km/h | 5842m | 3.9m/s | -12.2°C | 9.3% | 497.7hPa | 5V | 00:00:00 | 00:29:14 | 00:00:00 | |
| BIOWL1-15 | 2026-09-02 22:46:21 | 50.74142 | 5.01871 | 115° | 75km/h | 5853m | 4m/s | -12.3°C | 9.5% | 496.9hPa | 5V | 00:00:00 | 00:00:00 | 00:00:00 | |
| BIOWL1-15 | 2026-09-02 22:46:11 | 50.74236 | 5.01583 | 117° | 73km/h | 5811m | 4m/s | -12°C | 9.3% | 499.7hPa | 5V | 00:00:00 | 00:00:00 | 00:00:00 | |
| DM0DOS-11 | 2026-09-02 22:46:10 | 50.74253 | 5.01533 | 117° | 71km/h | 5803m | 4.3m/s | -11.9°C | 9.1% | 500.2hPa | 5V | 00:00:00 | 00:29:04 | 00:00:00 | |
| DM0DOS-11 | 2026-09-02 22:46:03 | 50.74337 | 5.01278 | 114° | 68km/h | 5762m | 3.8m/s | -11.6°C | 9% | 502.9hPa | 5V | 00:00:00 | 00:28:54 | 00:00:00 | |
| BIOWL1-15 | 2026-09-02 22:46:01 | 50.74330 | 5.01304 | 114° | 71km/h | 5766m | 4.5m/s | -11.6°C | 9% | 502.6hPa | 5V | 00:00:00 | 00:00:00 | 00:00:00 | |
| BIOWL1-15 | 2026-09-02 22:45:51 | 50.74409 | 5.01026 | 116° | 69km/h | 5723m | 3m/s | -11.4°C | 9% | 505.4hPa | 5V | 00:00:00 | 00:00:00 | 00:00:00 | |
| BIOWL1-15 | 2026-09-02 22:45:40 | 50.74488 | 5.00765 | 113° | 62km/h | 5684m | 5m/s | -11.1°C | 8.9% | 508hPa | 5V | 00:00:00 | 00:00:00 | 00:00:00 | |
| DM0DOS-11 | 2026-09-02 22:45:34 | 50.74548 | 5.00578 | 115° | 64km/h | 5653m | 3.4m/s | -10.9°C | 9.1% | 510hPa | 5V | 00:00:00 | 00:28:25 | 00:00:00 | |
| BIOWL1-15 | 2026-09-02 22:45:28 | 50.74566 | 5.00511 | 115° | 64km/h | 5643m | 3m/s | -10.9°C | 9.4% | 510.6hPa | 5V | 00:00:00 | 00:00:00 | 00:00:00 | |
| DM0DOS-11 | 2026-09-02 22:45:23 | 50.74627 | 5.00325 | 112° | 62km/h | 5615m | 3.7m/s | -10.7°C | 9.5% | 512.6hPa | 5V | 00:00:00 | 00:28:14 | 00:00:00 | |
| BIOWL1-15 | 2026-09-02 22:45:17 | 50.74646 | 5.00258 | 115° | 60km/h | 5604m | 4m/s | -10.6°C | 9.5% | 513.3hPa | 5V | 00:00:00 | 00:00:00 | 00:00:00 | |
| BIOWL1-15 | 2026-09-02 22:45:04 | 50.74714 | 5.00009 | 115° | 64km/h | 5563m | 3m/s | -10.3°C | 8.7% | 516hPa | 5V | 00:00:00 | 00:00:00 | 00:00:00 | |
| DM0DOS-11 | 2026-09-02 22:45:03 | 50.74757 | 4.99870 | 117° | 62km/h | 5541m | 3.8m/s | -10.2°C | 8.6% | 517.5hPa | 5V | 00:00:00 | 00:27:54 | 00:00:00 | |
| BIOWL1-15 | 2026-09-02 22:44:53 | 50.74791 | 4.99757 | 116° | 66km/h | 5523m | 4m/s | -10.1°C | 8.6% | 518.7hPa | 5V | 00:00:00 | 00:00:00 | 00:00:00 | |
| DM0DOS-11 | 2026-09-02 22:44:53 | 50.74830 | 4.99645 | 120° | 62km/h | 5506m | 3.6m/s | -10°C | 8.3% | 519.9hPa | 5V | 00:00:00 | 00:27:44 | 00:00:00 | |
| BIOWL1-15 | 2026-09-02 22:44:43 | 50.74865 | 4.99531 | 110° | 64km/h | 5488m | 4m/s | -9.8°C | 8.1% | 521.1hPa | 5V | 00:00:00 | 00:00:00 | 00:00:00 | |
| DM0DOS-11 | 2026-09-02 22:44:43 | 50.74899 | 4.99421 | 119° | 60km/h | 5471m | 3.6m/s | -9.7°C | 7.8% | 522.2hPa | 5V | 00:00:00 | 00:27:34 | 00:00:00 | |
| BIOWL1-15 | 2026-09-02 22:44:34 | 50.74944 | 4.99292 | 113° | 60km/h | 5449m | 3.5m/s | -9.5°C | 7.7% | 523.8hPa | 5V | 00:00:00 | 00:00:00 | 00:00:00 | |
| BIOWL1-15 | 2026-09-02 22:44:24 | 50.75010 | 4.99074 | 116° | 62km/h | 5415m | 4m/s | -9.3°C | 7.9% | 526hPa | 5V | 00:00:00 | 00:00:00 | 00:00:00 | |
| DM0DOS-11 | 2026-09-02 22:44:19 | 50.75064 | 4.98900 | 120° | 62km/h | 5387m | 3.6m/s | -9.1°C | 8.3% | 527.9hPa | 5V | 00:00:00 | 00:27:10 | 00:00:00 | |
| BIOWL1-15 | 2026-09-02 22:44:11 | 50.75087 | 4.98835 | 115° | 62km/h | 5376m | 3m/s | -9°C | 8.5% | 528.6hPa | 5V | 00:00:00 | 00:00:00 | 00:00:00 | |
| DM0DOS-11 | 2026-09-02 22:44:10 | 50.75135 | 4.98683 | 116° | 58km/h | 5352m | 3.5m/s | -9°C | 8.5% | 530.2hPa | 5V | 00:00:00 | 00:27:00 | 00:00:00 | |
| BIOWL1-15 | 2026-09-02 22:43:59 | 50.75173 | 4.98577 | 117° | 60km/h | 5336m | 3.3m/s | -8.9°C | 8.6% | 531.3hPa | 5V | 00:00:00 | 00:00:00 | 00:00:00 | |
| BIOWL1-15 | 2026-09-02 22:43:45 | 50.75280 | 4.98237 | 119° | 53km/h | 5283m | 4m/s | -8.6°C | 8.8% | 534.9hPa | 5V | 00:00:00 | 00:00:00 | 00:00:00 | |
| BIOWL1-15 | 2026-09-02 22:43:35 | 50.75341 | 4.98035 | 117° | 57km/h | 5246m | 4m/s | -8.3°C | 8.9% | 537.4hPa | 5V | 00:00:00 | 00:00:00 | 00:00:00 | |
| BIOWL1-15 | 2026-09-02 22:43:24 | 50.75412 | 4.97802 | 116° | 60km/h | 5206m | 2m/s | -7.9°C | 9% | 540hPa | 5V | 00:00:00 | 00:00:00 | 00:00:00 | |
| DM0DOS-11 | 2026-09-02 22:43:23 | 50.75434 | 4.97717 | 117° | 57km/h | 5194m | 4m/s | -7.8°C | 8.8% | 540.9hPa | 5V | 00:00:00 | 00:26:14 | 00:00:00 | |
| BIOWL1-15 | 2026-09-02 22:43:12 | 50.75473 | 4.97596 | 113° | 57km/h | 5172m | 3.8m/s | -7.7°C | 8.9% | 542.3hPa | 5V | 00:00:00 | 00:00:00 | 00:00:00 | |
| BIOWL1-15 | 2026-09-02 22:43:00 | 50.75544 | 4.97352 | 109° | 57km/h | 5132m | 4m/s | -7.3°C | 8.4% | 545.2hPa | 5V | 00:00:00 | 00:00:00 | 00:00:00 | |
| DM0DOS-11 | 2026-09-02 22:42:59 | 50.75579 | 4.97216 | 109° | 57km/h | 5106m | 5.4m/s | -7.1°C | 8.3% | 546.9hPa | 5V | 00:00:00 | 00:25:50 | 00:00:00 | |
| DM0DOS-11 | 2026-09-02 22:42:45 | 50.75637 | 4.96898 | 112° | 57km/h | 5031m | 5.4m/s | -6.7°C | 10.3% | 552.2hPa | 5V | 00:00:00 | 00:25:36 | 00:00:00 | |
| BIOWL1-15 | 2026-09-02 22:42:41 | 50.75632 | 4.96919 | 108° | 55km/h | 5036m | 5m/s | -6.7°C | 10.1% | 551.9hPa | 5V | 00:00:00 | 00:00:00 | 00:00:00 | |
| BIOWL1-15 | 2026-09-02 22:42:30 | 50.75676 | 4.96684 | 102° | 53km/h | 4985m | 3m/s | -6.4°C | 11.2% | 555.5hPa | 5V | 00:00:00 | 00:00:00 | 00:00:00 | |
| DM0DOS-11 | 2026-09-02 22:42:30 | 50.75676 | 4.96684 | 101° | 55km/h | 4985m | 3.4m/s | -6.4°C | 11.1% | 555.5hPa | 5V | 00:00:00 | 00:25:26 | 00:00:00 | |
| DM0DOS-11 | 2026-09-02 22:42:30 | 50.75700 | 4.96559 | 111° | 57km/h | 4963m | 3.4m/s | -6.3°C | 11.8% | 557.1hPa | 5V | 00:00:00 | 00:25:20 | 00:00:00 | |
| DM0DOS-11 | 2026-09-02 22:42:24 | 50.75721 | 4.96425 | 104° | 55km/h | 4943m | 3.7m/s | -6.2°C | 12% | 558.5hPa | 5V | 00:00:00 | 00:25:14 | 00:00:00 | |
| DM0DOS-11 | 2026-09-02 22:42:18 | 50.75740 | 4.96316 | 104° | 51km/h | 4924m | 3.3m/s | -6.1°C | 12% | 559.8hPa | 5V | 00:00:00 | 00:25:09 | 00:00:00 | |
| BIOWL1-15 | 2026-09-02 22:42:16 | 50.75729 | 4.96381 | 107° | 57km/h | 4935m | 3m/s | -6.2°C | 12.1% | 559hPa | 5V | 00:00:00 | 00:00:00 | 00:00:00 | |
| BIOWL1-15 | 2026-09-02 22:42:07 | 50.75766 | 4.96156 | 111° | 60km/h | 4898m | 3m/s | -5.9°C | 12.2% | 561.7hPa | 5V | 00:00:00 | 00:00:00 | 00:00:00 | |
| DM0DOS-11 | 2026-09-02 22:42:06 | 50.75761 | 4.96177 | 107° | 57km/h | 4902m | 3.6m/s | -5.9°C | 12% | 561.4hPa | 5V | 00:00:00 | 00:25:02 | 00:00:00 | |
| DM0DOS-11 | 2026-09-02 22:42:00 | 50.75809 | 4.95942 | 115° | 57km/h | 4864m | 4.1m/s | -5.8°C | 12.8% | 564.1hPa | 5V | 00:00:00 | 00:24:51 | 00:00:00 | |
| BIOWL1-15 | 2026-09-02 22:41:56 | 50.75815 | 4.95922 | 114° | 57km/h | 4860m | 3m/s | -5.7°C | 13.2% | 564.4hPa | 5V | 00:00:00 | 00:00:00 | 00:00:00 | |
| DM0DOS-11 | 2026-09-02 22:41:50 | 50.75863 | 4.95718 | 111° | 64km/h | 4815m | 5.4m/s | -5.5°C | 18.3% | 567.6hPa | 5V | 00:00:00 | 00:24:40 | 00:00:00 | |
| BIOWL1-15 | 2026-09-02 22:41:44 | 50.75863 | 4.95718 | 112° | 60km/h | 4815m | 4m/s | -5.5°C | 18.4% | 567.6hPa | 5V | 00:00:00 | 00:00:00 | 00:00:00 | |
| DM0DOS-11 | 2026-09-02 22:41:34 | 50.75906 | 4.95469 | 98° | 60km/h | 4757m | 6.6m/s | -5.3°C | 23.2% | 571.6hPa | 5V | 00:00:00 | 00:24:30 | 00:00:00 | |
| DM0DOS-11 | 2026-09-02 22:41:34 | 50.75919 | 4.95328 | 92° | 62km/h | 4717m | 4.6m/s | -5°C | 23.7% | 574.6hPa | 5V | 00:00:00 | 00:24:24 | 00:00:00 | |
| BIOWL1-15 | 2026-09-02 22:41:33 | 50.75909 | 4.95443 | 104° | 64km/h | 4749m | 7m/s | -5.3°C | 23.7% | 572.2hPa | 5V | 00:00:00 | 00:00:00 | 00:00:00 | |
| DB0UT-7 | 2026-09-02 22:41:32 | 50.75908 | 4.95443 | 104° | 58km/h | 4749m | 6.1m/s | -5.2°C | 23.6% | 572.1hPa | 5V | 00:00:00 | 00:00:00 | 00:00:00 | |
| DM0DOS-11 | 2026-09-02 22:41:28 | 50.75928 | 4.95204 | 99° | 57km/h | 4694m | 5.8m/s | -4.8°C | 23.1% | 576.4hPa | 5V | 00:00:00 | 00:24:19 | 00:00:00 | |
| BIOWL1-15 | 2026-09-02 22:41:22 | 50.75930 | 4.95186 | 100° | 51km/h | 4687m | 7m/s | -4.7°C | 22.9% | 576.8hPa | 5V | 00:00:00 | 00:00:00 | 00:00:00 | |
| DM0DOS-11 | 2026-09-02 22:41:18 | 50.75940 | 4.95090 | 98° | 60km/h | 4664m | 4m/s | -4.5°C | 22.1% | 578.7hPa | 5V | 00:00:00 | 00:24:14 | 00:00:00 | |
| DM0DOS-11 | 2026-09-02 22:41:18 | 50.75948 | 4.94971 | 100° | 58km/h | 4643m | 3.5m/s | -4.4°C | 20.6% | 580.3hPa | 5.1V | 00:00:00 | 00:24:09 | 00:00:00 | |
| BIOWL1-15 | 2026-09-02 22:41:12 | 50.75958 | 4.94901 | 108° | 58km/h | 4633m | 4m/s | -4.5°C | 21% | 581hPa | 5.1V | 00:00:00 | 00:00:00 | 00:00:00 | |
| DM0DOS-11 | 2026-09-02 22:41:08 | 50.75966 | 4.94858 | 100° | 55km/h | 4625m | 3.6m/s | -4.4°C | 20.7% | 581.6hPa | 5V | 00:00:00 | 00:24:04 | 00:00:00 | |
| DM0DOS-11 | 2026-09-02 22:41:08 | 50.75975 | 4.94725 | 101° | 58km/h | 4603m | 3.5m/s | -4.2°C | 18.7% | 583.1hPa | 5V | 00:00:00 | 00:23:58 | 00:00:00 | |
| DM0DOS-11 | 2026-09-02 22:41:02 | 50.75990 | 4.94608 | 97° | 58km/h | 4586m | 3.9m/s | -4.1°C | 18.2% | 584.4hPa | 5.1V | 00:00:00 | 00:23:53 | 00:00:00 | |
| BIOWL1-15 | 2026-09-02 22:40:59 | 50.75985 | 4.94655 | 100° | 60km/h | 4593m | 4m/s | -4.1°C | 18.2% | 583.9hPa | 5.1V | 00:00:00 | 00:00:00 | 00:00:00 | |
| DM0DOS-11 | 2026-09-02 22:40:53 | 50.76002 | 4.94492 | 101° | 58km/h | 4566m | 3.5m/s | -4°C | 19.8% | 585.9hPa | 5.1V | 00:00:00 | 00:23:48 | 00:00:00 | |
| DM0DOS-11 | 2026-09-02 22:40:53 | 50.76014 | 4.94353 | 100° | 55km/h | 4545m | 3.9m/s | -3.8°C | 22.2% | 587.4hPa | 5.1V | 00:00:00 | 00:23:42 | 00:00:00 | |
| BIOWL1-15 | 2026-09-02 22:40:50 | 50.76012 | 4.94398 | 95° | 57km/h | 4552m | 3.5m/s | -3.9°C | 21.6% | 586.9hPa | 5.1V | 00:00:00 | 00:00:00 | 00:00:00 | |
| DM0DOS-11 | 2026-09-02 22:40:46 | 50.76027 | 4.94250 | 103° | 66km/h | 4526m | 4.5m/s | -3.6°C | 24.2% | 588.8hPa | 5.1V | 00:00:00 | 00:23:37 | 00:00:00 | |
| BIOWL1-15 | 2026-09-02 22:40:37 | 50.76041 | 4.94145 | 100° | 68km/h | 4510m | 5m/s | -3.5°C | 27.2% | 589.9hPa | 5.1V | 00:00:00 | 00:00:00 | 00:00:00 | |
| DM0DOS-11 | 2026-09-02 22:40:36 | 50.76044 | 4.94118 | 100° | 58km/h | 4505m | 5.8m/s | -3.5°C | 28.2% | 590.2hPa | 5.1V | 00:00:00 | 00:23:32 | 00:00:00 | |
| DM0DOS-11 | 2026-09-02 22:40:36 | 50.76057 | 4.93983 | 100° | 66km/h | 4468m | 5m/s | -3.3°C | 36.2% | 592.9hPa | 5.1V | 00:00:00 | 00:23:26 | 00:00:00 | |
| DB0UT-7 | 2026-09-02 22:40:32 | 50.76052 | 4.94049 | 97° | 60km/h | 4487m | 5.7m/s | -3.3°C | 32.8% | 591.5hPa | 5.1V | 00:00:00 | 00:00:00 | 00:00:00 | |
| DM0DOS-11 | 2026-09-02 22:40:30 | 50.76079 | 4.93855 | 106° | 62km/h | 4444m | 6.4m/s | -3°C | 36.7% | 594.8hPa | 5.1V | 00:00:00 | 00:23:21 | 00:00:00 | |
| BIOWL1-15 | 2026-09-02 22:40:26 | 50.76075 | 4.93879 | 106° | 60km/h | 4450m | 6m/s | -3.1°C | 36.4% | 594.3hPa | 5.1V | 00:00:00 | 00:00:00 | 00:00:00 | |
| DM0DOS-11 | 2026-09-02 22:40:20 | 50.76117 | 4.93601 | 106° | 66km/h | 4376m | 5.3m/s | -2.5°C | 41.2% | 599.9hPa | 5.1V | 00:00:00 | 00:23:10 | 00:00:00 | |
| BIOWL1-15 | 2026-09-02 22:40:15 | 50.76114 | 4.93627 | 104° | 66km/h | 4382m | 6m/s | -2.6°C | 41% | 599.4hPa | 5.1V | 00:00:00 | 00:00:00 | 00:00:00 | |
| DM0DOS-11 | 2026-09-02 22:40:14 | 50.76142 | 4.93473 | 106° | 60km/h | 4350m | 5.8m/s | -2.3°C | 41.8% | 601.8hPa | 5.1V | 00:00:00 | 00:23:05 | 00:00:00 | |
| DM0DOS-11 | 2026-09-02 22:40:04 | 50.76167 | 4.93364 | 101° | 60km/h | 4322m | 5.8m/s | -2.1°C | 43.3% | 603.9hPa | 5.1V | 00:00:00 | 00:23:00 | 00:00:00 | |
| DM0DOS-11 | 2026-09-02 22:40:04 | 50.76194 | 4.93224 | 110° | 55km/h | 4285m | 5.1m/s | -1.8°C | 45.7% | 606.7hPa | 5.1V | 00:00:00 | 00:22:54 | 00:00:00 | |
| BIOWL1-15 | 2026-09-02 22:40:03 | 50.76170 | 4.93343 | 103° | 66km/h | 4316m | 5.5m/s | -2°C | 43.8% | 604.3hPa | 5.1V | 00:00:00 | 00:00:00 | 00:00:00 | |
| DB0UT-7 | 2026-09-02 22:40:02 | 50.76170 | 4.93343 | 102° | 58km/h | 4316m | 5.7m/s | -2.0°C | 43.7% | 604.2hPa | 5.1V | 00:00:00 | 00:22:59 | 00:00:00 | |
| DM0DOS-11 | 2026-09-02 22:39:58 | 50.76213 | 4.93118 | 99° | 60km/h | 4258m | 4.2m/s | -1.6°C | 46.8% | 608.8hPa | 5.1V | 00:00:00 | 00:22:49 | 00:00:00 | |
| BIOWL1-15 | 2026-09-02 22:39:53 | 50.76213 | 4.93118 | 99° | 66km/h | 4258m | 4m/s | -1.6°C | 46.9% | 608.8hPa | 5.1V | 00:00:00 | 00:00:00 | 00:00:00 | |
| DM0DOS-11 | 2026-09-02 22:39:48 | 50.76259 | 4.92879 | 113° | 58km/h | 4211m | 4.1m/s | -1.1°C | 46.5% | 612.5hPa | 5.1V | 00:00:00 | 00:22:38 | 00:00:00 | |
| BIOWL1-15 | 2026-09-02 22:39:43 | 50.76254 | 4.92898 | 113° | 53km/h | 4215m | 4.5m/s | -1.2°C | 46.8% | 612.1hPa | 5.1V | 00:00:00 | 00:00:00 | 00:00:00 | |
| DM0DOS-11 | 2026-09-02 22:39:42 | 50.76284 | 4.92767 | 102° | 60km/h | 4191m | 4.2m/s | -1°C | 44.7% | 614hPa | 5.1V | 00:00:00 | 00:22:33 | 00:00:00 | |
| BIOWL1-15 | 2026-09-02 22:39:33 | 50.76306 | 4.92639 | 120° | 62km/h | 4167m | 5m/s | -0.8°C | 39.5% | 615.8hPa | 5.1V | 00:00:00 | 00:00:00 | 00:00:00 | |
| DM0DOS-11 | 2026-09-02 22:39:32 | 50.76300 | 4.92658 | 117° | 60km/h | 4171m | 4.9m/s | -0.8°C | 40% | 615.5hPa | 5.1V | 00:00:00 | 00:22:28 | 00:00:00 | |
| DM0DOS-11 | 2026-09-02 22:39:32 | 50.76334 | 4.92517 | 103° | 57km/h | 4142m | 6m/s | -0.5°C | 37% | 617.7hPa | 5.1V | 00:00:00 | 00:22:22 | 00:00:00 | |
| DM0DOS-11 | 2026-09-02 22:39:26 | 50.76348 | 4.92386 | 100° | 57km/h | 4105m | 4.9m/s | -0.1°C | 28.6% | 620.5hPa | 5.1V | 00:00:00 | 00:22:16 | 00:00:00 | |
| DM0DOS-11 | 2026-09-02 22:39:20 | 50.76370 | 4.92279 | 105° | 55km/h | 4077m | 4.1m/s | 0.1°C | 24.3% | 622.6hPa | 5.2V | 00:00:00 | 00:22:11 | 00:00:00 | |
| BIOWL1-15 | 2026-09-02 22:39:18 | 50.76366 | 4.92299 | 110° | 53km/h | 4084m | 7m/s | 0.1°C | 24.6% | 622.1hPa | 5.1V | 00:00:00 | 00:00:00 | 00:00:00 | |
| DB0UT-7 | 2026-09-02 22:39:02 | 50.76405 | 4.92017 | 113° | 58km/h | 4019m | 4.3m/s | 0.5°C | 20.6% | 627.1hPa | 5.2V | 00:00:00 | 00:21:59 | 00:00:00 | |
| DM0DOS-11 | 2026-09-02 22:38:58 | 50.76457 | 4.91779 | 109° | 53km/h | 3979m | 4m/s | 0.2°C | 31.2% | 630.4hPa | 5.2V | 00:00:00 | 00:21:49 | 00:00:00 | |
| DM0DOS-11 | 2026-09-02 22:38:52 | 50.76484 | 4.91663 | 109° | 60km/h | 3956m | 4.5m/s | -0.7°C | 51.2% | 632.2hPa | 5.2V | 00:00:00 | 00:21:43 | 00:00:00 | |
| DM0DOS-11 | 2026-09-02 22:38:39 | 50.76554 | 4.91355 | 107° | 60km/h | 3894m | 4.5m/s | -0.9°C | 63.2% | 637.1hPa | 5.2V | 00:00:00 | 00:21:29 | 00:00:00 | |
| DB0UT-7 | 2026-09-02 22:38:32 | 50.76554 | 4.91355 | 107° | 60km/h | 3894m | 4.5m/s | -0.8°C | 63.2% | 637.1hPa | 5.2V | 00:00:00 | 00:00:00 | 00:00:00 | |
| DM0DOS-11 | 2026-09-02 22:38:31 | 50.76589 | 4.91182 | 98° | 58km/h | 3861m | 4.5m/s | -0.8°C | 64.6% | 639.8hPa | 5.2V | 00:00:00 | 00:21:22 | 00:00:00 | |
| DM0DOS-11 | 2026-09-02 22:38:23 | 50.76607 | 4.90990 | 101° | 58km/h | 3828m | 4.6m/s | -0.6°C | 66.5% | 642.3hPa | 5.2V | 00:00:00 | 00:21:14 | 00:00:00 | |
| DM0DOS-11 | 2026-09-02 22:38:15 | 50.76640 | 4.90787 | 114° | 57km/h | 3787m | 4.3m/s | -0.5°C | 72.5% | 645.6hPa | 5.2V | 00:00:00 | 00:21:05 | 00:00:00 | |
| DM0DOS-11 | 2026-09-02 22:38:09 | 50.76653 | 4.90678 | 102° | 62km/h | 3764m | 5.2m/s | -0.3°C | 74% | 647.5hPa | 5.2V | 00:00:00 | 00:21:00 | 00:00:00 | |
| DB0UT-7 | 2026-09-02 22:38:02 | 50.76653 | 4.90651 | 103° | 62km/h | 3758m | 5.9m/s | -0.2°C | 74.5% | 647.9hPa | 5.2V | 00:00:00 | 00:20:59 | 00:00:00 | |
| DM0DOS-11 | 2026-09-02 22:37:52 | 50.76704 | 4.90255 | 103° | 60km/h | 3672m | 5.2m/s | -0.1°C | 78.1% | 655hPa | 5.2V | 00:00:00 | 00:20:43 | 00:00:00 | |
| DM0DOS-11 | 2026-09-02 22:37:45 | 50.76730 | 4.90075 | 97° | 58km/h | 3638m | 5.3m/s | 0.1°C | 78.2% | 657.8hPa | 5.2V | 00:00:00 | 00:20:36 | 00:00:00 | |
| DM0DOS-11 | 2026-09-02 22:37:39 | 50.76744 | 4.89946 | 105° | 62km/h | 3604m | 5m/s | 0.3°C | 78.1% | 660.6hPa | 5.2V | 00:00:00 | 00:20:30 | 00:00:00 | |
| DB0UT-7 | 2026-09-02 22:37:32 | 50.76749 | 4.89922 | 108° | 57km/h | 3600m | 5.3m/s | 0.3°C | 76.7% | 660.9hPa | 5.2V | 00:00:00 | 00:00:00 | 00:00:00 | |
| DM0DOS-11 | 2026-09-02 22:37:29 | 50.76767 | 4.89830 | 104° | 62km/h | 3578m | 5m/s | 0.5°C | 77% | 662.7hPa | 5.2V | 00:00:00 | 00:20:25 | 00:00:00 | |
| DM0DOS-11 | 2026-09-02 22:37:29 | 50.76777 | 4.89639 | 103° | 60km/h | 3540m | 5.8m/s | 0.8°C | 79% | 665.8hPa | 5.2V | 00:00:00 | 00:20:17 | 00:00:00 | |
| DM0DOS-11 | 2026-09-02 22:37:23 | 50.76804 | 4.89520 | 102° | 53km/h | 3513m | 6.1m/s | 1°C | 78% | 668hPa | 5.2V | 00:00:00 | 00:20:12 | 00:00:00 | |
| DM0DOS-11 | 2026-09-02 22:37:11 | 50.76812 | 4.89421 | 102° | 51km/h | 3481m | 5.5m/s | 1.3°C | 76.7% | 670.7hPa | 5.2V | 00:00:00 | 00:20:07 | 00:00:00 | |
| DM0DOS-11 | 2026-09-02 22:37:11 | 50.76825 | 4.89333 | 97° | 58km/h | 3451m | 5.1m/s | 1.5°C | 74.5% | 673.3hPa | 5.2V | 00:00:00 | 00:20:02 | 00:00:00 | |
| DM0DOS-11 | 2026-09-02 22:36:57 | 50.76849 | 4.89120 | 107° | 49km/h | 3401m | 5.2m/s | 1.9°C | 79.2% | 677.4hPa | 5.2V | 00:00:00 | 00:19:53 | 00:00:00 | |
| DM0DOS-11 | 2026-09-02 22:36:57 | 50.76862 | 4.89013 | 102° | 58km/h | 3369m | 5.6m/s | 2.1°C | 73.2% | 680.1hPa | 5.2V | 00:00:00 | 00:19:47 | 00:00:00 | |
| DM0DOS-11 | 2026-09-02 22:36:51 | 50.76869 | 4.88875 | 85° | 57km/h | 3335m | 5.1m/s | 2.8°C | 32.2% | 683.1hPa | 5.2V | 00:00:00 | 00:19:41 | 00:00:00 | |
| DM0DOS-11 | 2026-09-02 22:36:45 | 50.76875 | 4.88759 | 94° | 51km/h | 3309m | 5.4m/s | 3°C | 23.2% | 685.5hPa | 5.2V | 00:00:00 | 00:19:36 | 00:00:00 | |
| DB0UT-7 | 2026-09-02 22:36:32 | 50.76880 | 4.88611 | 101° | 53km/h | 3268m | 5.9m/s | 3.3°C | 22.3% | 689.1hPa | 5.2V | 00:00:00 | 00:00:00 | 00:00:00 | |
| DM0DOS-11 | 2026-09-02 22:36:24 | 50.76927 | 4.88328 | 99° | 53km/h | 3181m | 6.1m/s | 4.1°C | 21.2% | 696.6hPa | 5.2V | 00:00:00 | 00:19:14 | 00:00:00 | |
| DM0DOS-11 | 2026-09-02 22:36:18 | 50.76947 | 4.88226 | 102° | 53km/h | 3153m | 5.5m/s | 4.3°C | 20.6% | 699hPa | 5.2V | 00:00:00 | 00:19:09 | 00:00:00 | |
| DM0DOS-11 | 2026-09-02 22:36:07 | 50.76972 | 4.87981 | 104° | 53km/h | 3084m | 5.5m/s | 4.8°C | 20.7% | 704.9hPa | 5.2V | 00:00:00 | 00:18:58 | 00:00:00 | |
| DM0DOS-11 | 2026-09-02 22:35:35 | 50.77078 | 4.87271 | 98° | 55km/h | 2894m | 2.4m/s | 4.2°C | 30.6% | 721.1hPa | 5.2V | 00:00:00 | 00:18:25 | 00:00:00 | |
| DB0UT-7 | 2026-09-02 22:35:32 | 50.77077 | 4.87356 | 94° | 47km/h | 2919m | 6.0m/s | 4.2°C | 28.0% | 719.0hPa | 0V | 00:00:00 | 00:00:00 | 00:00:00 | |
| DM0DOS-11 | 2026-09-02 22:35:28 | 50.77091 | 4.87162 | 3° | 62km/h | 2863m | 0m/s | 0°C | 0% | 0hPa | 0V | 00:00:00 | 00:00:00 | 00:00:00 | |
| DB0UT-7 | 2026-09-02 22:34:32 | 50.77117 | 4.86192 | 87° | 44km/h | 2560m | 6.8m/s | 4.0°C | 87.4% | 750.7hPa | 5.2V | 00:00:00 | 00:00:00 | 00:00:00 | |
| DB0UT-7 | 2026-09-02 22:33:32 | 50.77115 | 4.85179 | 100° | 46km/h | 2194m | 6.3m/s | 6.8°C | 91.0% | 784.9hPa | 5.2V | 00:00:00 | 00:00:00 | 00:00:00 | |
| DB0UT-7 | 2026-09-02 22:33:02 | 50.77108 | 4.84639 | 103° | 47km/h | 2025m | 6.0m/s | 7.7°C | 91.2% | 801.0hPa | 5.2V | 00:00:00 | 00:15:59 | 00:00:00 | |
| DB0UT-7 | 2026-09-02 22:32:33 | 50.77145 | 4.84077 | 80° | 49km/h | 1854m | 5.0m/s | 8.4°C | 90.5% | 817.6hPa | 5.2V | 00:00:00 | 00:00:00 | 00:00:00 | |
| DB0UT-7 | 2026-09-02 22:32:03 | 50.77148 | 4.83504 | 96° | 58km/h | 1691m | 3.6m/s | 9.6°C | 87.5% | 833.8hPa | 5.2V | 00:00:00 | 00:14:59 | 00:00:00 |